# Wetter Temperatur Luftdruck Luftfeuchtigkeit Sichtweite Windgeschwindigkeit Windrichtung Zeit
1 Clouds 10 1010 87 10000 4.63 230 11:42 07.10.2022
2 Rain 11 1009 85 10000 6.69 230 09:25 07.10.2022
3 Clouds 11 1009 85 10000 4.02 235 08:47 07.10.2022
4 Clouds 11 1009 88 10000 6.17 240 05:51 07.10.2022
5 Clouds 14 1012 89 10000 11.32 220 00:28 07.10.2022
6 Clouds 14 1013 86 10000 10.29 220 22:50 06.10.2022
7 Clouds 14 1014 90 10000 8.49 240 21:42 06.10.2022
8 Rain 14 1014 88 6000 8.75 220 20:54 06.10.2022
9 Rain 14 1015 90 9000 9.26 210 19:33 06.10.2022
10 Rain 13 1016 89 9000 8.75 210 18:32 06.10.2022
11 Rain 13 1017 90 10000 7.2 230 16:58 06.10.2022
12 Clouds 13 1018 85 10000 10.29 230 13:51 06.10.2022
13 Clouds 12 1017 84 10000 9.77 220 10:45 06.10.2022
14 Clouds 11 1013 86 7000 12.35 220 05:43 06.10.2022
15 Clouds 10 1014 84 10000 9.77 220 02:38 06.10.2022
16 Rain 10 1009 85 10000 6.71 238 22:29 05.10.2022
17 Clouds 9 1007 88 9000 5.81 232 19:54 05.10.2022
18 Clouds 11 1004 83 10000 5.14 230 17:48 05.10.2022
19 Clouds 11 1004 84 10000 5.14 230 17:27 05.10.2022
20 Rain 11 1003 85 10000 5.66 240 15:37 05.10.2022
21 Rain 12 1002 83 10000 7.2 230 14:38 05.10.2022
22 Rain 11 1005 86 10000 3.13 259 13:31 05.10.2022
23 Rain 11 1002 86 10000 6.69 220 12:19 05.10.2022
24 Clouds 10 997 83 10000 6.17 230 08:30 05.10.2022
25 Rain 11 1000 88 10000 6.17 240 07:22 05.10.2022
26 Rain 14 998 87 10000 10.29 220 05:34 05.10.2022
27 Rain 13 1000 92 10000 5.81 214 02:37 05.10.2022
28 Rain 11 1003 94 6000 4.12 80 00:41 05.10.2022
29 Rain 11 1004 91 6000 3.6 90 00:22 05.10.2022
30 Clouds 12 1007 90 10000 3.09 170 21:25 04.10.2022
31 Clouds 12 1008 89 10000 3.6 220 20:20 04.10.2022
32 Clouds 13 1008 86 10000 4.12 230 18:56 04.10.2022
33 Clouds 13 1008 86 10000 4.12 230 18:33 04.10.2022
34 Clouds 13 1008 87 10000 3.6 230 16:57 04.10.2022
35 Rain 13 1007 90 10000 5.81 250 14:31 04.10.2022
36 Rain 15 1005 88 10000 9.26 210 10:43 04.10.2022
37 Rain 15 1006 88 6000 10.8 200 08:28 04.10.2022
38 Clouds 16 1008 85 10000 9.26 190 04:48 04.10.2022
39 Clouds 15 1013 84 10000 9.77 200 00:25 04.10.2022
40 Clouds 15 1014 86 10000 9.26 200 22:57 03.10.2022
41 Clouds 14 1015 87 10000 5.14 180 21:41 03.10.2022
42 Clouds 14 1017 86 5000 7.72 190 20:36 03.10.2022
43 Rain 14 1018 80 10000 6.17 200 18:52 03.10.2022
44 Clouds 14 1019 80 10000 4.63 170 17:35 03.10.2022
45 Rain 14 1023 83 10000 2.24 163 16:22 03.10.2022
46 Rain 14 1022 82 10000 6.17 200 14:30 03.10.2022
47 Clouds 15 1023 79 10000 5.14 180 12:46 03.10.2022
48 Clouds 14 1025 82 10000 1.54 120 11:21 03.10.2022
49 Clouds 12 1025 87 10000 3.6 160 09:56 03.10.2022
50 Clouds 11 1025 87 10000 2.06 170 08:46 03.10.2022
51 Clouds 12 1027 89 10000 2.06 200 04:45 03.10.2022
52 Clouds 12 1027 89 10000 2.57 230 23:51 02.10.2022
53 Clouds 12 1027 88 10000 3.09 230 22:19 02.10.2022
54 Clouds 13 1025 81 10000 4.63 250 19:52 02.10.2022
55 Clouds 15 1024 76 10000 4.63 270 17:56 02.10.2022
56 Clouds 15 1023 78 10000 5.14 250 16:56 02.10.2022
57 Clouds 15 1023 79 10000 6.17 240 16:32 02.10.2022
58 Clouds 15 1023 73 10000 6.69 260 15:34 02.10.2022
59 Clouds 14 1021 77 10000 3.6 290 13:46 02.10.2022
60 Clouds 14 1020 80 10000 4.63 250 12:42 02.10.2022
61 Clouds 13 1019 83 10000 5.14 230 11:53 02.10.2022
62 Clouds 13 1019 84 10000 5.14 230 11:33 02.10.2022
63 Clouds 11 1018 87 10000 4.12 270 10:19 02.10.2022
64 Clouds 10 1016 88 10000 4.02 234 08:30 02.10.2022
65 Clouds 10 1013 87 10000 4.63 250 05:21 02.10.2022
66 Rain 11 1010 89 10000 4.63 250 01:20 02.10.2022
67 Clouds 11 1010 88 10000 5.14 220 00:38 02.10.2022
68 Clouds 11 1008 86 10000 2.68 249 23:28 01.10.2022
69 Clouds 11 1007 88 10000 4.12 250 21:48 01.10.2022
70 Rain 12 1004 83 10000 7.2 240 18:54 01.10.2022
71 Clouds 14 1004 76 10000 8.75 250 17:46 01.10.2022
72 Clouds 13 1002 84 10000 9.77 230 15:29 01.10.2022
73 Clouds 14 1001 79 10000 8.23 240 13:52 01.10.2022
74 Clouds 12 1000 85 10000 6.17 240 12:34 01.10.2022
75 Clouds 11 999 85 10000 5.66 230 11:22 01.10.2022
76 Clouds 10 999 87 10000 6.69 230 10:51 01.10.2022
77 Rain 10 998 85 7000 10.29 230 10:29 01.10.2022
78 Rain 11 998 87 9000 8.75 230 09:21 01.10.2022
79 Clouds 10 997 88 10000 6.69 240 08:26 01.10.2022
80 Clouds 10 995 91 10000 2.24 250 03:42 01.10.2022
81 Clouds 10 994 91 10000 2.68 235 02:37 01.10.2022
82 Clouds 11 993 89 10000 7.72 240 23:21 30.09.2022
83 Clouds 12 992 86 10000 5.66 240 21:58 30.09.2022
84 Rain 12 992 85 10000 6.69 230 20:53 30.09.2022
85 Clouds 12 992 84 10000 8.23 230 20:20 30.09.2022
86 Clouds 14 991 78 10000 6.26 240 18:28 30.09.2022
87 Clouds 14 989 79 10000 7.72 250 16:32 30.09.2022
88 Rain 14 987 89 3200 12.35 190 14:23 30.09.2022
89 Rain 12 991 89 5000 8.23 180 12:29 30.09.2022
90 Rain 12 992 91 5000 9.77 170 11:55 30.09.2022
91 Rain 13 998 84 10000 9.26 190 08:57 30.09.2022
92 Rain 13 1001 86 10000 7.2 190 07:50 30.09.2022
93 Clouds 11 1008 91 10000 1.54 40 03:19 30.09.2022
94 Clouds 11 1009 91 7000 1.54 20 01:23 30.09.2022
95 Clouds 11 1012 90 10000 0.51 0 21:39 29.09.2022
96 Clouds 12 1012 88 10000 0.51 310 21:19 29.09.2022
97 Clouds 15 1012 77 10000 1.03 40 18:56 29.09.2022
98 Clouds 15 1012 78 10000 1.54 30 17:49 29.09.2022
99 Clouds 16 1012 72 10000 2.06 20 16:29 29.09.2022
100 Clouds 16 1012 72 10000 1.54 70 15:37 29.09.2022
101 Clouds 16 1012 72 10000 1.79 12 14:59 29.09.2022
102 Clouds 15 1012 77 10000 3.6 70 12:22 29.09.2022
103 Clouds 10 1010 88 10000 1.54 260 08:44 29.09.2022
104 Clouds 13 1008 79 10000 3.13 275 04:22 29.09.2022
105 Clouds 13 1008 78 10000 2.68 270 02:36 29.09.2022
106 Clouds 12 1006 78 10000 2.68 248 23:21 28.09.2022
107 Clouds 13 1006 77 10000 2.57 270 21:31 28.09.2022
108 Clouds 13 1006 76 10000 2.57 280 20:51 28.09.2022
109 Clouds 13 1005 73 10000 2.57 290 19:56 28.09.2022
110 Clouds 15 1005 67 10000 3.6 350 16:35 28.09.2022
111 Clouds 12 1006 75 10000 3.09 250 13:28 28.09.2022
112 Clouds 12 1006 75 10000 3.09 250 13:28 28.09.2022
113 Clouds 10 1006 79 10000 3.6 300 11:45 28.09.2022
114 Clouds 7 1006 90 10000 2.57 260 09:36 28.09.2022
115 Clouds 7 1005 90 10000 1.54 260 07:42 28.09.2022
116 Clouds 7 1005 88 10000 1.54 210 05:32 28.09.2022
117 Clouds 7 1005 89 10000 2.57 270 01:41 28.09.2022
118 Clouds 7 1004 89 10000 3.09 210 00:28 28.09.2022
119 Clear 9 1003 83 10000 3.6 290 22:40 27.09.2022
120 Clear 9 1003 82 10000 2.57 260 21:20 27.09.2022
121 Clouds 11 999 77 10000 4.12 280 20:26 27.09.2022
122 Clouds 12 1001 70 10000 5.66 290 19:37 27.09.2022
123 Clouds 13 1001 68 10000 6.17 290 17:47 27.09.2022
124 Clouds 13 1001 69 10000 7.72 280 16:25 27.09.2022
125 Clouds 13 1001 70 10000 7.2 270 15:18 27.09.2022
126 Clouds 12 1001 68 10000 7.72 290 13:52 27.09.2022
127 Clouds 12 1002 68 10000 6.69 300 12:36 27.09.2022
128 Clouds 10 1002 77 10000 6.69 270 10:33 27.09.2022
129 Clouds 8 1003 81 10000 3.6 270 07:51 27.09.2022
130 Clouds 7 1004 83 10000 5.14 270 04:28 27.09.2022
131 Clouds 7 1005 82 10000 4.63 210 01:37 27.09.2022
132 Clouds 7 1006 79 10000 3.09 250 23:45 26.09.2022
133 Clear 7 1006 77 10000 2.57 210 23:21 26.09.2022
134 Clear 9 1007 72 10000 4.12 280 21:20 26.09.2022
135 Clouds 11 1006 69 10000 5.66 290 19:44 26.09.2022
136 Clouds 12 1003 70 10000 5.66 290 18:39 26.09.2022
137 Clouds 12 1006 74 10000 7.2 290 17:24 26.09.2022
138 Clouds 13 1006 62 10000 7.72 290 14:57 26.09.2022
139 Clouds 12 1006 66 10000 6.26 174 12:30 26.09.2022
140 Clouds 11 1003 72 10000 4.12 270 10:42 26.09.2022
141 Clouds 10 1006 76 10000 4.12 260 10:22 26.09.2022
142 Clouds 9 1005 78 10000 4.12 270 09:56 26.09.2022
143 Clouds 9 1005 78 10000 4.63 280 09:26 26.09.2022
144 Clouds 9 1005 80 10000 4.63 300 08:58 26.09.2022
145 Clouds 11 1002 78 10000 5.36 144 03:48 26.09.2022
146 Clouds 12 1003 80 10000 4.12 270 01:57 26.09.2022
147 Clouds 14 1003 87 10000 16.09 145 23:23 25.09.2022
148 Rain 13 1004 90 10000 11.32 240 21:44 25.09.2022
149 Clouds 13 1007 90 5000 13.41 113 20:57 25.09.2022
150 Rain 13 1007 91 5000 12.07 118 20:33 25.09.2022
151 Clouds 13 1011 84 10000 8.23 250 18:44 25.09.2022
152 Clouds 14 1011 81 10000 7.72 240 18:24 25.09.2022
153 Clouds 14 1013 84 10000 6.17 240 16:59 25.09.2022
154 Clouds 15 1015 85 10000 9.77 250 15:48 25.09.2022
155 Clouds 14 1017 87 10000 8.23 250 14:31 25.09.2022
156 Clouds 14 1018 84 10000 8.23 230 13:45 25.09.2022
157 Clouds 12 1021 87 10000 5.14 220 10:37 25.09.2022
158 Clouds 10 1022 90 10000 5.14 220 09:21 25.09.2022
159 Clouds 8 1024 91 10000 2.06 220 06:28 25.09.2022
160 Clouds 6 1025 91 10000 2.57 230 04:28 25.09.2022
161 Clouds 8 1027 87 10000 2.57 240 23:36 24.09.2022
162 Clouds 11 1026 76 10000 2.06 330 21:19 24.09.2022
163 Clouds 15 1025 63 10000 5.14 300 19:24 24.09.2022
164 Clouds 15 1025 60 10000 3.6 270 18:44 24.09.2022
165 Clouds 16 1025 59 10000 2.57 300 16:43 24.09.2022
166 Clouds 16 1025 57 10000 2.06 80 15:23 24.09.2022
167 Clouds 15 1025 61 10000 2.57 340 14:18 24.09.2022
168 Clouds 13 1026 67 10000 2.57 330 12:59 24.09.2022
169 Clouds 13 1025 71 10000 1.54 290 12:22 24.09.2022
170 Clouds 8 1026 88 10000 1.02 328 09:58 24.09.2022
171 Fog 5 1021 89 10000 1.03 0 08:51 24.09.2022
172 Fog 4 1020 89 10000 1.03 50 07:40 24.09.2022
173 Clouds 5 1022 92 10000 1.03 250 04:50 24.09.2022
174 Mist 6 1022 92 1900 2.06 220 03:44 24.09.2022
175 Clouds 9 1021 83 10000 2.57 240 22:48 23.09.2022
176 Clouds 10 1022 80 10000 1.79 136 21:32 23.09.2022
177 Clouds 11 1020 76 10000 2.57 270 20:57 23.09.2022
178 Clouds 12 1020 74 10000 3.6 270 20:23 23.09.2022
179 Clouds 13 1019 71 10000 4.12 290 18:51 23.09.2022
180 Clouds 14 1020 76 10000 2.24 126 15:23 23.09.2022
181 Clouds 12 1020 94 10000 2.57 230 10:55 23.09.2022
182 Fog 9 1019 93 10000 0.51 0 09:35 23.09.2022
183 Fog 7 1019 92 350 0.51 0 05:59 23.09.2022
184 Clear 10 1019 89 10000 2.06 250 00:36 23.09.2022
185 Clear 10 1019 89 10000 2.06 220 23:21 22.09.2022
186 Clear 10 1019 88 10000 3.09 250 22:27 22.09.2022
187 Clouds 12 1018 84 10000 2.57 250 21:18 22.09.2022
188 Clouds 14 1017 77 10000 3.09 260 19:56 22.09.2022
189 Clouds 16 1017 69 10000 3.6 270 17:25 22.09.2022
190 Clouds 15 1016 87 10000 3.09 240 12:46 22.09.2022
191 Clouds 14 1015 90 10000 2.68 133 10:32 22.09.2022
192 Rain 15 1014 90 4500 6.69 210 08:52 22.09.2022
193 Rain 15 1015 90 10000 7.72 210 06:45 22.09.2022
194 Rain 15 1017 87 10000 4.63 190 03:46 22.09.2022
195 Clouds 15 1019 85 10000 4.12 200 23:31 21.09.2022
196 Drizzle 15 1020 87 5000 3.6 180 21:50 21.09.2022
197 Clouds 16 1020 75 10000 6.17 200 20:18 21.09.2022
198 Clouds 17 1021 69 10000 5.14 200 17:49 21.09.2022
199 Clouds 17 1022 70 10000 7.72 210 16:51 21.09.2022
200 Clouds 18 1023 65 10000 7.2 210 14:31 21.09.2022
201 Clouds 17 1024 69 10000 3.09 230 12:42 21.09.2022
202 Clouds 16 1025 80 10000 1.03 0 11:29 21.09.2022
203 Clouds 12 1025 87 10000 1.54 50 09:55 21.09.2022
204 Clouds 11 1025 89 10000 1.03 0 09:00 21.09.2022
205 Clouds 11 1026 89 10000 1.54 80 07:18 21.09.2022
206 Clouds 12 1027 87 10000 0.51 40 02:47 21.09.2022
207 Clouds 12 1027 83 10000 0.51 0 02:25 21.09.2022
208 Clouds 14 1027 81 10000 1.03 0 00:34 21.09.2022
209 Clouds 14 1027 81 10000 1.03 0 00:34 21.09.2022
210 Clouds 14 1027 78 10000 2.57 210 22:43 20.09.2022
211 Clouds 15 1027 75 10000 2.57 250 20:52 20.09.2022
212 Clouds 16 1027 74 10000 4.63 230 19:32 20.09.2022
213 Clouds 18 1027 65 10000 6.17 220 16:28 20.09.2022
214 Clouds 18 1027 66 10000 5.66 210 14:46 20.09.2022
215 Clouds 17 1027 70 10000 4.63 210 13:22 20.09.2022
216 Clouds 12 1027 92 10000 1.54 50 09:34 20.09.2022
217 Clouds 12 1027 93 8000 1.03 0 08:26 20.09.2022
218 Clouds 12 1028 91 9000 1.03 120 04:50 20.09.2022
219 Clouds 12 1027 90 7000 1.03 0 03:48 20.09.2022
220 Fog 12 1027 92 10000 0.51 210 22:55 19.09.2022
221 Clouds 13 1027 91 10000 1.54 250 21:40 19.09.2022
222 Clouds 14 1027 87 10000 2.57 230 20:47 19.09.2022
223 Clouds 15 1027 84 10000 3.6 240 20:24 19.09.2022
224 Clouds 17 1027 76 10000 3.13 133 17:44 19.09.2022
225 Clouds 16 1028 81 10000 2.06 260 14:54 19.09.2022
226 Clouds 14 1028 82 10000 1.79 60 13:18 19.09.2022
227 Clouds 12 1028 85 10000 0.89 311 10:48 19.09.2022
228 Clouds 10 1027 93 10000 0.45 292 08:51 19.09.2022
229 Clouds 10 1027 94 10000 2.24 291 05:53 19.09.2022
230 Clouds 10 1027 93 10000 2.24 269 01:54 19.09.2022
231 Clouds 10 1026 91 10000 2.68 304 23:22 18.09.2022
232 Clouds 12 1025 87 10000 2.06 260 21:34 18.09.2022
233 Clouds 14 1022 82 10000 3.09 270 20:23 18.09.2022
234 Rain 16 1024 75 10000 4.12 290 17:54 18.09.2022
235 Clouds 16 1024 72 10000 4.63 290 17:19 18.09.2022
236 Clouds 16 1024 74 10000 4.63 300 15:34 18.09.2022
237 Clouds 15 1024 79 10000 3.6 280 13:47 18.09.2022
238 Clouds 14 1024 81 10000 3.6 300 12:34 18.09.2022
239 Clouds 12 1024 88 10000 3.09 260 10:45 18.09.2022
240 Clouds 11 1024 91 10000 2.57 250 03:40 18.09.2022
241 Clouds 11 1024 88 10000 3.09 240 01:24 18.09.2022
242 Clouds 11 1025 88 10000 3.09 250 00:21 18.09.2022
243 Clouds 12 1025 80 10000 3.09 240 21:36 17.09.2022
244 Clouds 13 1025 72 10000 4.12 270 19:40 17.09.2022
245 Clouds 14 1022 69 10000 4.12 270 18:46 17.09.2022
246 Clouds 14 1026 65 10000 6.17 270 15:51 17.09.2022
247 Clouds 14 1026 64 10000 6.17 280 13:38 17.09.2022
248 Clouds 10 1027 83 10000 3.6 250 10:56 17.09.2022
249 Clouds 6 1027 91 10000 2.06 240 08:33 17.09.2022
250 Clouds 4 1027 94 10000 1.54 230 06:21 17.09.2022
251 Clouds 8 1027 79 10000 3.6 220 23:56 16.09.2022
252 Clouds 9 1026 75 10000 3.6 280 22:42 16.09.2022
253 Clouds 11 1025 59 10000 3.09 300 20:54 16.09.2022
254 Clouds 14 1022 51 10000 4.63 310 19:41 16.09.2022
255 Clouds 16 1025 51 10000 4.63 300 16:26 16.09.2022
256 Clouds 15 1025 55 10000 4.12 320 14:52 16.09.2022
257 Clouds 14 1024 59 10000 5.66 320 13:21 16.09.2022
258 Clouds 9 1024 86 10000 1.79 195 10:27 16.09.2022
259 Clouds 5 1022 92 10000 0.51 0 07:52 16.09.2022
260 Clouds 6 1022 90 10000 1.03 0 06:48 16.09.2022
261 Clouds 6 1022 91 10000 1.54 210 05:57 16.09.2022
262 Clouds 7 1021 89 10000 1.54 250 02:35 16.09.2022
263 Clouds 11 1019 80 10000 3.6 300 21:47 15.09.2022
264 Clouds 13 1018 68 10000 4.63 290 20:39 15.09.2022
265 Clouds 14 1018 67 10000 5.66 290 19:42 15.09.2022
266 Clouds 15 1018 60 10000 4.63 280 17:58 15.09.2022
267 Clouds 15 1018 60 10000 4.63 290 17:28 15.09.2022
268 Clouds 15 1018 61 10000 5.14 300 15:47 15.09.2022
269 Clouds 14 1018 69 10000 4.63 290 12:51 15.09.2022
270 Clouds 13 1017 74 10000 5.14 300 11:48 15.09.2022
271 Clouds 10 1017 87 10000 1.54 230 09:46 15.09.2022
272 Clouds 8 1016 90 10000 2.57 220 07:44 15.09.2022
273 Clouds 10 1015 85 10000 2.06 230 03:48 15.09.2022
274 Clouds 11 1014 84 10000 3.09 270 23:22 14.09.2022
275 Clouds 14 1013 75 10000 4.12 290 20:37 14.09.2022
276 Clouds 16 1012 67 10000 6.69 290 19:33 14.09.2022
277 Clouds 17 1011 63 10000 6.69 290 17:47 14.09.2022
278 Clear 17 1011 64 10000 7.2 290 16:36 14.09.2022
279 Clouds 17 1011 65 10000 6.17 290 14:56 14.09.2022
280 Clouds 15 1012 74 10000 5.14 300 12:40 14.09.2022
281 Clouds 12 1012 86 10000 2.57 250 09:52 14.09.2022
282 Clouds 11 1012 87 10000 5.14 270 08:38 14.09.2022
283 Clouds 9 1012 90 10000 3.6 220 06:50 14.09.2022
284 Clouds 8 1012 92 10000 2.57 230 06:29 14.09.2022
285 Clouds 9 1013 89 10000 2.57 240 02:43 14.09.2022
286 Clouds 10 1013 86 10000 2.57 210 01:34 14.09.2022
287 Clear 10 1013 86 10000 2.57 220 00:52 14.09.2022
288 Clear 11 1014 85 10000 2.06 250 23:55 13.09.2022
289 Clear 11 1014 85 10000 2.06 250 23:36 13.09.2022
290 Clear 11 1014 83 10000 2.06 250 23:18 13.09.2022
291 Clear 12 1014 83 10000 3.6 250 22:28 13.09.2022
292 Clear 12 1014 81 10000 4.12 230 21:35 13.09.2022
293 Clear 16 1014 71 10000 5.66 280 18:54 13.09.2022
294 Clear 17 1014 67 10000 4.63 280 16:34 13.09.2022
295 Clear 17 1015 68 10000 5.14 280 15:18 13.09.2022
296 Clouds 16 1015 70 10000 6.69 300 13:31 13.09.2022
297 Clouds 14 1015 77 10000 3.09 260 10:20 13.09.2022
298 Clouds 11 1015 82 10000 3.6 240 07:54 13.09.2022
299 Clouds 13 1015 82 10000 2.57 240 02:20 13.09.2022
300 Clouds 13 1011 81 10000 2.06 280 23:22 12.09.2022
301 Clouds 14 1011 82 10000 4.63 270 22:37 12.09.2022
302 Clouds 14 1013 81 10000 4.12 250 20:54 12.09.2022
303 Clouds 15 1013 79 10000 4.63 250 19:31 12.09.2022
304 Clouds 16 1012 70 10000 6.17 260 17:47 12.09.2022
305 Clouds 16 1012 70 10000 7.15 137 15:40 12.09.2022
306 Clouds 15 1011 74 10000 4.92 124 12:26 12.09.2022
307 Clouds 15 1010 89 10000 5.14 250 10:27 12.09.2022
308 Clouds 15 1009 90 10000 4.12 250 07:21 12.09.2022
309 Clouds 15 1009 91 10000 4.63 250 04:32 12.09.2022
310 Drizzle 15 1009 93 3900 2.57 50 00:42 12.09.2022
311 Drizzle 15 1011 92 3200 3.58 291 22:45 11.09.2022
312 Drizzle 15 1012 92 4200 3.09 80 21:22 11.09.2022
313 Rain 15 1013 92 5000 3.09 80 20:43 11.09.2022
314 Rain 16 1014 91 10000 2.57 90 19:27 11.09.2022
315 Rain 16 1014 91 10000 3.09 100 18:58 11.09.2022
316 Rain 18 1016 84 10000 4.12 150 16:58 11.09.2022
317 Clouds 18 1017 81 10000 4.12 160 15:44 11.09.2022
318 Clouds 18 1018 79 10000 2.06 100 13:18 11.09.2022
319 Clouds 14 1020 85 10000 1.79 287 10:51 11.09.2022
320 Clouds 11 1020 92 10000 0.89 270 07:49 11.09.2022
321 Fog 10 1022 92 10000 2.06 250 04:36 11.09.2022
322 Clouds 13 1022 86 10000 2.06 60 23:48 10.09.2022
323 Clouds 16 1022 78 10000 2.06 0 21:38 10.09.2022
324 Clouds 17 1021 73 10000 3.09 50 19:58 10.09.2022
325 Clouds 17 1021 72 10000 3.09 50 19:40 10.09.2022
326 Clouds 18 1021 69 10000 2.24 264 19:20 10.09.2022
327 Clouds 18 1022 67 10000 1.79 250 16:58 10.09.2022
328 Clouds 18 1022 67 10000 2.68 293 15:32 10.09.2022
329 Clouds 17 1022 70 10000 2.68 269 12:55 10.09.2022
330 Clouds 16 1022 70 10000 3.58 275 12:26 10.09.2022
331 Clouds 12 1022 84 10000 0.89 176 10:26 10.09.2022
332 Clear 9 1023 88 10000 0.89 177 08:37 10.09.2022
333 Clouds 8 1024 88 10000 0.45 166 08:18 10.09.2022
334 Clouds 10 1020 90 10000 2.06 310 03:42 10.09.2022
335 Clouds 13 1019 84 10000 1.54 180 23:35 09.09.2022
336 Clouds 14 1019 83 10000 1.79 236 22:22 09.09.2022
337 Clouds 15 1017 78 10000 5.14 70 20:49 09.09.2022
338 Clouds 16 1017 77 10000 6.17 60 19:26 09.09.2022
339 Clouds 16 1016 73 10000 7.72 60 18:55 09.09.2022
340 Clouds 17 1016 72 10000 7.72 50 16:34 09.09.2022
341 Clouds 18 1015 72 10000 8.94 298 14:28 09.09.2022
342 Clouds 16 1014 82 10000 9.77 60 12:59 09.09.2022
343 Rain 15 1012 90 10000 6.26 283 10:37 09.09.2022
344 Clouds 15 1010 91 10000 7.15 280 07:24 09.09.2022
345 Clouds 15 1010 91 10000 7.15 280 07:24 09.09.2022
346 Clouds 15 1010 91 10000 7.15 280 07:24 09.09.2022
347 Clouds 15 1009 91 10000 8.05 283 03:30 09.09.2022
348 Rain 16 1008 91 8000 9.39 280 22:19 08.09.2022
349 Rain 16 1008 91 5000 8.49 271 21:47 08.09.2022
350 Rain 16 1008 88 10000 6.26 270 20:46 08.09.2022
351 Clouds 17 1008 88 10000 6.71 281 20:21 08.09.2022
352 Rain 17 1008 89 6000 4.92 266 18:34 08.09.2022
353 Clouds 18 1009 86 10000 2.57 50 16:38 08.09.2022
354 Clouds 17 1009 85 10000 5.66 60 14:42 08.09.2022
355 Clouds 18 1009 81 10000 4.12 60 13:27 08.09.2022
356 Clouds 17 1009 83 10000 5.66 70 12:33 08.09.2022
357 Clouds 16 1009 87 10000 4.47 282 10:58 08.09.2022
358 Clouds 15 1009 91 10000 6.26 275 08:59 08.09.2022
359 Clouds 15 1008 88 10000 4.12 80 06:43 08.09.2022
360 Clouds 15 1008 90 7000 6.71 294 02:37 08.09.2022
361 Clouds 15 1009 93 8000 7.6 275 02:19 08.09.2022
362 Clouds 16 1006 89 10000 4.12 70 01:58 08.09.2022
363 Clouds 16 1009 89 10000 4.47 287 22:55 07.09.2022
364 Clouds 16 1008 85 10000 4.63 70 21:43 07.09.2022
365 Clouds 17 1008 84 10000 4.63 70 20:56 07.09.2022
366 Clouds 18 1008 79 10000 4.47 292 19:54 07.09.2022
367 Clouds 19 1008 76 10000 4.12 30 18:39 07.09.2022
368 Clouds 18 1008 75 10000 3.13 6 14:56 07.09.2022
369 Clouds 15 1008 91 10000 2.57 80 10:50 07.09.2022
370 Clouds 14 1008 92 8000 3.13 269 09:52 07.09.2022
371 Mist 13 1008 92 5000 3.09 70 07:35 07.09.2022
372 Clouds 13 1008 92 6000 4.47 293 03:34 07.09.2022
373 Clouds 14 1010 92 10000 5.36 294 23:48 06.09.2022
374 Clouds 13 1010 93 10000 4.92 309 21:43 06.09.2022
375 Clouds 14 1010 94 10000 4.47 303 21:21 06.09.2022
376 Clouds 15 1011 93 10000 4.63 70 18:49 06.09.2022
377 Clouds 16 1007 93 10000 3.6 70 18:22 06.09.2022
378 Rain 16 1008 92 5000 4.12 70 17:22 06.09.2022
379 Rain 17 1011 92 8000 5.66 60 16:37 06.09.2022
380 Rain 19 1009 83 10000 5.14 60 15:22 06.09.2022
381 Clouds 19 1013 80 10000 5.14 60 13:45 06.09.2022
382 Clouds 18 1013 82 10000 5.14 60 13:24 06.09.2022
383 Clouds 18 1014 82 10000 4.12 70 11:59 06.09.2022
384 Clouds 17 1014 84 10000 4.63 80 10:41 06.09.2022
385 Clouds 14 1014 93 10000 4.12 60 08:50 06.09.2022
386 Clouds 14 1014 90 10000 3.58 287 07:45 06.09.2022
387 Clouds 16 1014 88 10000 4.02 305 02:44 06.09.2022
388 Clouds 17 1015 88 10000 4.12 70 23:23 05.09.2022
389 Clouds 17 1015 83 10000 3.6 30 21:54 05.09.2022
390 Clouds 20 1015 70 10000 3.09 130 20:35 05.09.2022
391 Clouds 21 1015 65 10000 3.6 120 19:20 05.09.2022
392 Clouds 21 1015 65 10000 4.02 326 18:45 05.09.2022
393 Clouds 21 1016 65 10000 3.6 160 18:21 05.09.2022
394 Clouds 22 1016 57 10000 5.66 100 16:37 05.09.2022
395 Clouds 22 1016 61 10000 5.14 140 15:47 05.09.2022
396 Clouds 20 1017 71 10000 4.63 140 13:25 05.09.2022
397 Clouds 19 1017 77 10000 3.09 90 12:27 05.09.2022
398 Clouds 15 1016 85 10000 3.6 80 09:44 05.09.2022
399 Rain 16 1014 93 6000 6.71 323 06:41 05.09.2022
400 Clouds 16 1015 90 10000 8.49 310 01:56 05.09.2022
401 Clouds 16 1016 90 10000 3.6 80 22:59 04.09.2022
402 Clouds 16 1016 89 10000 3.6 60 22:27 04.09.2022
403 Clouds 19 1016 80 10000 5.66 120 20:44 04.09.2022
404 Clouds 19 1016 79 10000 5.66 110 19:29 04.09.2022
405 Clouds 20 1016 74 10000 6.17 110 17:50 04.09.2022
406 Clouds 21 1015 70 10000 4.02 4 16:28 04.09.2022
407 Clouds 19 1015 80 10000 3.58 8 14:27 04.09.2022
408 Clouds 17 1014 85 10000 6.26 318 12:57 04.09.2022
409 Clouds 16 1013 87 10000 7.15 317 11:52 04.09.2022
410 Rain 16 1013 93 5000 5.81 313 09:50 04.09.2022
411 Rain 16 1011 91 7000 9.83 317 06:51 04.09.2022
412 Clouds 16 1012 91 10000 7.6 304 03:31 04.09.2022
413 Clouds 16 1012 93 7000 8.49 296 23:33 03.09.2022
414 Rain 17 1012 89 7000 7.6 302 22:20 03.09.2022
415 Clouds 17 1011 89 10000 9.39 311 21:23 03.09.2022
416 Clouds 18 1010 87 10000 7.72 70 18:57 03.09.2022
417 Clouds 18 1010 89 10000 7.2 70 17:25 03.09.2022
418 Clouds 18 1011 91 10000 6.17 70 16:20 03.09.2022
419 Rain 18 1011 88 10000 5.66 70 14:43 03.09.2022
420 Clouds 19 1010 81 10000 6.69 70 13:50 03.09.2022
421 Clouds 17 1011 88 10000 6.69 80 11:34 03.09.2022
422 Clouds 16 1011 93 10000 10.73 311 09:51 03.09.2022
423 Clouds 16 1010 90 10000 8.94 316 07:57 03.09.2022
424 Clouds 15 1011 86 10000 6.17 80 04:56 03.09.2022
425 Clouds 15 1011 85 10000 6.69 70 03:29 03.09.2022
426 Clouds 17 1012 80 10000 5.14 80 23:49 02.09.2022
427 Clouds 17 1009 75 10000 5.14 60 22:27 02.09.2022
428 Clouds 18 1013 77 10000 5.66 60 20:56 02.09.2022
429 Clouds 18 1013 72 10000 5.66 60 20:22 02.09.2022
430 Clouds 20 1014 62 10000 5.14 110 18:51 02.09.2022
431 Clouds 20 1014 63 10000 4.63 130 18:26 02.09.2022
432 Clouds 20 1012 60 10000 4.12 140 17:28 02.09.2022
433 Clouds 20 1016 62 10000 5.14 100 16:32 02.09.2022
434 Clouds 19 1017 68 10000 4.12 90 13:50 02.09.2022
435 Clouds 16 1019 82 10000 4.63 60 11:36 02.09.2022
436 Clouds 13 1020 88 10000 1.79 291 09:46 02.09.2022
437 Clouds 12 1022 91 10000 3.13 321 08:49 02.09.2022
438 Clouds 11 1023 92 10000 3.13 338 06:50 02.09.2022
439 Fog 11 1021 93 800 2.24 338 06:24 02.09.2022
440 Clouds 13 1024 89 10000 2.06 50 01:41 02.09.2022
441 Clouds 16 1024 76 10000 3.6 70 22:24 01.09.2022
442 Clouds 17 1024 77 10000 4.12 60 21:39 01.09.2022
443 Clouds 18 1024 72 10000 4.63 60 21:20 01.09.2022
444 Clouds 18 1024 72 10000 3.6 60 20:26 01.09.2022
445 Clouds 20 1025 62 10000 3.58 312 18:34 01.09.2022
446 Clouds 20 1026 61 10000 2.57 70 16:55 01.09.2022
447 Clouds 20 1027 61 10000 1.79 303 15:22 01.09.2022
448 Clouds 18 1028 71 10000 3.13 309 13:33 01.09.2022
449 Clouds 17 1029 77 10000 1.34 270 12:55 01.09.2022
450 Clouds 15 1031 80 10000 1.79 335 11:51 01.09.2022
451 Haze 13 1030 88 3000 2.06 30 11:20 01.09.2022
452 Clouds 11 1032 93 10000 1.79 269 09:32 01.09.2022
453 Fog 8 1030 95 250 0.51 0 06:41 01.09.2022
454 Clouds 11 1031 91 10000 2.06 60 02:39 01.09.2022
455 Clouds 12 1031 89 10000 2.57 60 01:30 01.09.2022
456 Clouds 12 1031 89 10000 2.57 60 01:30 01.09.2022
457 Clouds 12 1031 89 10000 2.57 60 01:30 01.09.2022
458 Clouds 12 1031 89 10000 2.57 60 01:30 01.09.2022
459 Clouds 12 1031 89 10000 2.57 60 01:30 01.09.2022
460 Clouds 14 1032 79 10000 2.57 50 22:43 31.08.2022
461 Clouds 16 1031 70 10000 4.12 60 20:43 31.08.2022
462 Clouds 18 1031 66 10000 3.6 70 18:45 31.08.2022
463 Clouds 18 1032 64 10000 3.58 321 16:36 31.08.2022
464 Clouds 18 1033 65 10000 4.12 60 15:21 31.08.2022
465 Clouds 16 1034 68 10000 3.09 80 12:58 31.08.2022
466 Clear 15 1034 69 10000 3.13 339 11:54 31.08.2022
467 Clear 12 1034 86 10000 2.06 80 09:35 31.08.2022
468 Clear 8 1033 89 10000 1.54 110 07:31 31.08.2022
469 Clouds 13 1034 81 10000 3.09 70 02:25 31.08.2022
470 Clouds 14 1033 78 10000 3.09 60 22:18 30.08.2022
471 Clouds 14 1032 79 10000 4.63 50 21:27 30.08.2022
472 Clouds 16 1032 79 10000 4.12 50 19:26 30.08.2022
473 Clouds 17 1032 78 10000 3.6 60 16:47 30.08.2022
474 Clouds 16 1032 81 10000 3.09 60 13:37 30.08.2022
475 Clouds 14 1032 89 10000 4.12 60 11:23 30.08.2022
476 Clouds 14 1032 89 10000 2.57 60 10:57 30.08.2022
477 Clouds 14 1031 90 10000 4.92 343 08:49 30.08.2022
478 Clouds 15 1031 89 10000 4.12 50 03:55 30.08.2022
479 Clouds 15 1030 85 10000 4.12 70 00:26 30.08.2022
480 Clouds 16 1030 79 10000 4.12 60 22:34 29.08.2022
481 Clouds 17 1029 78 10000 4.63 60 21:34 29.08.2022
482 Clouds 17 1029 78 10000 4.63 60 21:34 29.08.2022
483 Clouds 18 1029 72 10000 4.63 60 20:34 29.08.2022
484 Clouds 20 1029 69 10000 4.02 303 18:39 29.08.2022
485 Clouds 20 1029 69 10000 4.12 50 17:25 29.08.2022
486 Clouds 20 1029 69 10000 4.12 50 16:50 29.08.2022
487 Clouds 20 1030 70 10000 4.02 289 15:18 29.08.2022
488 Clouds 18 1030 77 10000 3.6 40 13:26 29.08.2022
489 Clouds 16 1030 89 10000 2.68 306 11:30 29.08.2022
490 Clouds 14 1030 92 10000 2.24 340 10:21 29.08.2022
491 Clouds 13 1030 93 8000 2.68 28 08:38 29.08.2022
492 Clouds 13 1029 93 10000 2.06 40 05:52 29.08.2022
493 Clouds 14 1029 90 10000 6.71 318 01:24 29.08.2022
494 Clouds 15 1028 85 10000 4.63 60 22:47 28.08.2022
495 Clouds 17 1027 80 10000 5.14 60 21:44 28.08.2022
496 Clouds 18 1027 74 10000 4.12 70 20:55 28.08.2022
497 Clouds 20 1026 71 10000 4.12 50 19:29 28.08.2022
498 Clouds 21 1026 67 10000 4.63 40 18:21 28.08.2022
499 Clouds 21 1027 67 10000 4.12 60 17:22 28.08.2022
500 Clouds 21 1027 67 10000 3.09 70 16:27 28.08.2022
501 Clouds 21 1027 68 10000 3.58 329 14:41 28.08.2022
502 Clouds 19 1027 75 10000 2.68 337 12:32 28.08.2022
503 Clouds 15 1027 86 10000 1.03 0 10:43 28.08.2022
504 Clouds 14 1026 91 10000 0.45 270 09:49 28.08.2022
505 Clouds 12 1026 93 10000 1.54 250 08:37 28.08.2022
506 Clouds 12 1026 95 10000 1.03 250 07:43 28.08.2022
507 Clouds 13 1025 91 10000 2.06 230 02:39 28.08.2022
508 Clouds 15 1025 85 10000 2.06 250 00:26 28.08.2022
509 Clouds 15 1025 81 10000 1.54 260 22:34 27.08.2022
510 Clouds 17 1024 73 10000 2.06 310 21:28 27.08.2022
511 Clouds 18 1024 65 10000 2.06 280 19:40 27.08.2022
512 Clouds 19 1024 66 10000 2.06 310 16:48 27.08.2022
513 Clouds 19 1024 62 10000 2.06 300 15:52 27.08.2022
514 Clouds 19 1024 62 10000 1.34 200 15:23 27.08.2022
515 Clouds 16 1024 76 10000 1.03 0 12:23 27.08.2022
516 Clouds 14 1024 82 10000 0.89 202 11:25 27.08.2022
517 Clouds 12 1021 89 10000 0 0 09:42 27.08.2022
518 Clouds 8 1020 85 10000 0.08 303 07:31 27.08.2022
519 Clear 10 1023 94 10000 1.54 250 02:33 27.08.2022
520 Clouds 12 1023 90 10000 3.6 240 23:55 26.08.2022
521 Clouds 14 1022 89 10000 2.06 250 22:31 26.08.2022
522 Clouds 15 1022 89 10000 3.09 260 20:39 26.08.2022
523 Clouds 16 1021 87 10000 1.79 178 19:23 26.08.2022
524 Clouds 16 1022 87 7000 2.06 260 16:46 26.08.2022
525 Clouds 15 1022 91 7000 1.79 225 15:27 26.08.2022
526 Clouds 15 1022 91 7000 1.79 225 15:27 26.08.2022
527 Drizzle 15 1022 91 3700 1.54 90 13:46 26.08.2022
528 Drizzle 15 1022 89 2600 1.54 90 12:35 26.08.2022
529 Clouds 15 1022 89 10000 2.57 60 11:22 26.08.2022
530 Clouds 14 1022 93 10000 2.57 50 10:25 26.08.2022
531 Haze 13 1021 90 5000 1.03 150 06:50 26.08.2022
532 Clouds 13 1021 89 10000 1.54 260 01:22 26.08.2022
533 Clouds 14 1021 84 10000 1.54 230 23:29 25.08.2022
534 Clouds 16 1021 79 10000 3.6 230 21:00 25.08.2022
535 Clouds 16 1021 76 10000 3.6 230 20:21 25.08.2022
536 Clouds 17 1020 66 10000 5.14 250 18:48 25.08.2022
537 Clouds 18 1020 64 10000 6.17 240 17:32 25.08.2022
538 Clouds 18 1020 67 10000 5.14 230 16:49 25.08.2022
539 Clouds 18 1020 67 10000 7.2 220 15:37 25.08.2022
540 Clouds 17 1021 71 10000 2.57 260 14:30 25.08.2022
541 Clouds 16 1021 80 10000 5.14 220 11:34 25.08.2022
542 Clouds 15 1021 82 10000 4.63 210 10:46 25.08.2022
543 Clouds 13 1020 93 10000 3.09 220 08:41 25.08.2022
544 Clouds 13 1017 86 10000 4.63 190 04:40 25.08.2022
545 Clouds 14 1019 84 10000 4.12 200 23:56 24.08.2022
546 Clouds 15 1018 84 10000 5.14 200 23:25 24.08.2022
547 Clouds 15 1018 81 10000 4.63 200 21:59 24.08.2022
548 Clouds 16 1018 78 10000 5.14 200 21:31 24.08.2022
549 Clouds 17 1017 76 10000 5.14 210 20:23 24.08.2022
550 Clouds 18 1016 65 10000 8.75 220 17:38 24.08.2022
551 Clouds 18 1016 70 10000 6.69 200 16:22 24.08.2022
552 Clouds 17 1016 75 10000 7.2 210 15:40 24.08.2022
553 Clouds 16 1014 85 10000 3.6 240 12:52 24.08.2022
554 Drizzle 15 1014 91 4900 4.92 178 11:22 24.08.2022
555 Clouds 15 1012 91 10000 2.06 80 09:19 24.08.2022
556 Rain 14 1013 92 10000 1.54 230 06:52 24.08.2022
557 Clouds 15 1014 92 10000 4.12 110 01:20 24.08.2022
558 Clouds 16 1014 89 10000 3.09 210 22:49 23.08.2022
559 Clouds 17 1014 89 10000 3.09 210 22:18 23.08.2022
560 Clouds 19 1013 84 10000 3.6 210 20:49 23.08.2022
561 Clouds 20 1013 80 10000 4.12 220 19:28 23.08.2022
562 Rain 19 1013 76 10000 4.63 210 18:21 23.08.2022
563 Clouds 20 1013 77 10000 4.63 190 17:30 23.08.2022
564 Clouds 20 1010 74 10000 3.09 220 16:26 23.08.2022
565 Clouds 19 1013 84 10000 4.63 240 14:30 23.08.2022
566 Clouds 18 1013 89 10000 3.6 200 12:46 23.08.2022
567 Drizzle 17 1012 93 3300 1.79 21 11:19 23.08.2022
568 Drizzle 17 1012 93 2900 1.79 2 10:33 23.08.2022
569 Clouds 16 1012 94 2800 1.03 30 09:38 23.08.2022
570 Rain 16 1011 93 10000 2.06 40 08:47 23.08.2022
571 Clouds 15 1011 94 9000 2.06 60 08:19 23.08.2022
572 Clouds 15 1011 94 8000 2.24 337 07:33 23.08.2022
573 Mist 15 1011 94 5000 2.06 50 06:23 23.08.2022
574 Mist 14 1012 94 4100 1.03 20 01:49 23.08.2022
575 Mist 14 1012 94 3200 0.51 0 00:27 23.08.2022
576 Mist 15 1012 94 3500 1.03 330 23:32 22.08.2022
577 Drizzle 15 1012 94 2500 1.34 320 22:25 22.08.2022
578 Drizzle 15 1012 94 2700 4.92 321 20:44 22.08.2022
579 Drizzle 14 1012 94 5000 6.71 306 19:44 22.08.2022
580 Clouds 15 1012 94 10000 8.05 315 18:37 22.08.2022
581 Rain 14 1013 91 10000 4.92 311 15:56 22.08.2022
582 Clouds 14 1013 92 10000 4.92 311 15:22 22.08.2022
583 Clouds 14 1014 88 10000 3.6 40 12:53 22.08.2022
584 Clouds 12 1015 90 10000 4.47 300 09:27 22.08.2022
585 Clouds 12 1015 88 10000 2.06 60 06:58 22.08.2022
586 Clouds 13 1014 88 10000 0.51 0 02:28 22.08.2022
587 Clouds 13 1017 86 10000 0.51 300 00:36 22.08.2022
588 Clouds 14 1017 81 10000 1.03 250 23:32 21.08.2022
589 Clouds 14 1017 79 10000 2.57 240 21:55 21.08.2022
590 Clouds 15 1017 74 10000 2.06 250 21:19 21.08.2022
591 Clouds 17 1017 64 10000 4.12 280 19:58 21.08.2022
592 Clouds 17 1017 62 10000 5.14 270 18:48 21.08.2022
593 Clouds 18 1016 66 10000 4.63 240 16:50 21.08.2022
594 Clouds 18 1016 65 10000 4.63 260 15:52 21.08.2022
595 Clouds 18 1013 67 10000 7.2 250 14:51 21.08.2022
596 Clouds 16 1015 72 10000 5.14 240 13:50 21.08.2022
597 Clouds 16 1015 74 10000 5.66 240 12:56 21.08.2022
598 Clouds 14 1014 82 10000 2.68 142 10:40 21.08.2022
599 Clouds 13 1013 87 10000 5.14 240 08:57 21.08.2022
600 Clouds 13 1013 87 10000 5.14 240 08:39 21.08.2022
601 Clouds 13 1013 87 10000 6.69 220 08:18 21.08.2022
602 Clouds 12 1012 88 10000 4.63 200 06:33 21.08.2022
603 Clouds 12 1012 86 10000 3.6 250 01:47 21.08.2022
604 Clouds 12 1012 81 10000 4.47 145 23:32 20.08.2022
605 Clouds 13 1011 79 10000 5.14 240 21:55 20.08.2022
606 Clouds 15 1011 68 10000 6.69 250 20:51 20.08.2022
607 Clouds 16 1011 66 10000 6.69 240 19:44 20.08.2022
608 Clouds 17 1011 65 10000 6.69 250 18:48 20.08.2022
609 Clouds 17 1011 64 10000 7.72 250 18:26 20.08.2022
610 Clouds 17 1011 64 10000 6.17 260 17:21 20.08.2022
611 Clouds 17 1011 66 10000 6.17 250 15:57 20.08.2022
612 Clouds 17 1010 59 10000 8.23 250 14:20 20.08.2022
613 Clouds 15 1010 85 10000 6.17 240 11:56 20.08.2022
614 Clouds 14 1010 85 10000 6.17 240 11:36 20.08.2022
615 Rain 15 1008 92 8000 10.8 220 09:20 20.08.2022
616 Rain 13 1009 92 9000 5.14 190 07:18 20.08.2022
617 Clouds 11 1011 88 10000 2.06 20 04:50 20.08.2022
618 Clouds 10 1014 89 10000 2.57 200 00:57 20.08.2022
619 Clear 11 1014 87 10000 2.57 250 23:26 19.08.2022
620 Clear 12 1014 86 10000 3.6 240 22:44 19.08.2022
621 Clouds 15 1013 76 10000 7.72 230 20:47 19.08.2022
622 Clouds 14 1013 86 10000 6.17 240 18:55 19.08.2022
623 Clouds 17 1012 71 10000 10.8 220 15:55 19.08.2022
624 Clouds 17 1012 72 10000 10.8 220 15:55 19.08.2022
625 Clouds 17 1012 78 10000 9.77 210 13:42 19.08.2022
626 Clouds 15 1012 84 10000 7.72 210 11:46 19.08.2022
627 Clouds 15 1011 83 10000 7.72 210 10:31 19.08.2022
628 Clouds 13 1010 88 10000 6.17 210 07:39 19.08.2022
629 Clouds 12 1010 87 10000 5.66 230 03:19 19.08.2022
630 Clouds 12 1010 91 10000 3.09 230 00:36 19.08.2022
631 Clouds 12 1009 88 10000 3.09 260 23:48 18.08.2022
632 Clouds 12 1009 91 10000 5.14 240 22:53 18.08.2022
633 Clouds 14 1009 86 10000 5.81 147 22:18 18.08.2022
634 Clouds 14 1008 88 10000 4.12 230 21:40 18.08.2022
635 Rain 17 1006 90 10000 2.06 130 20:32 18.08.2022
636 Clouds 17 1007 89 10000 1.54 150 19:32 18.08.2022
637 Clouds 18 1008 83 10000 5.14 210 18:19 18.08.2022
638 Clouds 17 1009 87 10000 6.69 210 17:19 18.08.2022
639 Clouds 18 1010 85 10000 6.17 210 15:20 18.08.2022
640 Clouds 16 1010 86 10000 8.23 210 14:20 18.08.2022
641 Clouds 17 1010 86 9000 5.66 210 13:34 18.08.2022
642 Clouds 16 1011 85 10000 4.63 200 11:51 18.08.2022
643 Clouds 15 1012 84 10000 5.14 210 09:43 18.08.2022
644 Clouds 15 1010 86 10000 3.09 170 08:42 18.08.2022
645 Clouds 13 1014 90 10000 2.06 40 07:19 18.08.2022
646 Clouds 13 1016 86 10000 1.54 90 04:38 18.08.2022
647 Clouds 14 1018 77 10000 3.09 60 23:37 17.08.2022
648 Clouds 15 1019 75 10000 2.68 327 21:53 17.08.2022
649 Clouds 16 1019 70 10000 4.12 60 20:20 17.08.2022
650 Clouds 17 1019 67 10000 2.24 327 19:29 17.08.2022
651 Clouds 17 1020 66 10000 1.79 338 17:36 17.08.2022
652 Clouds 17 1020 64 10000 2.06 90 16:39 17.08.2022
653 Clouds 17 1021 63 10000 3.6 0 15:28 17.08.2022
654 Clouds 15 1021 66 10000 4.63 90 13:30 17.08.2022
655 Clouds 13 1022 69 10000 5.14 80 11:38 17.08.2022
656 Clouds 11 1022 80 10000 5.66 80 09:31 17.08.2022
657 Clouds 11 1021 84 10000 3.6 80 08:24 17.08.2022
658 Clouds 12 1020 90 9000 4.63 80 03:36 17.08.2022
659 Clouds 13 1019 91 8000 3.6 90 00:19 17.08.2022
660 Drizzle 14 1018 91 3800 5.14 90 22:35 16.08.2022
661 Rain 14 1016 90 10000 2.24 342 20:52 16.08.2022
662 Clouds 15 1015 90 10000 2.68 311 19:54 16.08.2022
663 Clouds 15 1015 89 10000 2.06 250 18:43 16.08.2022
664 Rain 15 1015 88 4900 1.54 270 17:43 16.08.2022
665 Clouds 16 1014 85 10000 2.06 70 15:48 16.08.2022
666 Clouds 16 1014 87 5000 1.79 316 14:55 16.08.2022
667 Clouds 16 1014 87 5000 1.79 330 14:37 16.08.2022
668 Clouds 15 1013 90 10000 4.92 324 12:58 16.08.2022
669 Clouds 15 1012 92 6000 3.58 337 10:59 16.08.2022
670 Clouds 15 1011 92 10000 1.79 340 09:50 16.08.2022
671 Clouds 14 1011 93 8000 1.03 0 08:47 16.08.2022
672 Clouds 14 1010 94 10000 0 0 07:33 16.08.2022
673 Drizzle 15 1009 92 4100 5.81 316 02:19 16.08.2022
674 Rain 16 1008 91 3000 1.34 338 22:30 15.08.2022
675 Rain 16 1008 91 3000 1.34 338 22:30 15.08.2022
676 Rain 16 1008 91 6000 2.68 335 21:54 15.08.2022
677 Rain 17 1007 91 7000 4.47 326 20:52 15.08.2022
678 Rain 17 1007 91 7000 3.13 335 20:19 15.08.2022
679 Rain 17 1007 91 8000 2.57 60 18:41 15.08.2022
680 Rain 17 1007 90 10000 5.36 320 17:23 15.08.2022
681 Rain 17 1007 90 10000 4.63 50 16:21 15.08.2022
682 Rain 17 1007 88 10000 4.02 314 13:56 15.08.2022
683 Rain 17 1007 90 10000 4.92 337 12:37 15.08.2022
684 Rain 16 1007 91 5000 4.47 314 10:18 15.08.2022
685 Mist 16 1006 91 4500 2.68 314 08:27 15.08.2022
686 Clouds 16 1007 94 6000 1.54 330 06:20 15.08.2022
687 Clouds 17 1007 91 10000 2.06 90 02:40 15.08.2022
688 Clouds 19 1006 72 10000 2.06 270 22:39 14.08.2022
689 Rain 21 1006 68 10000 2.57 280 21:39 14.08.2022
690 Clouds 23 1005 60 10000 4.12 40 20:24 14.08.2022
691 Clouds 23 1006 65 10000 5.14 310 19:31 14.08.2022
692 Clouds 25 1006 63 10000 6.17 300 18:20 14.08.2022
693 Clouds 25 1007 62 10000 4.12 300 16:55 14.08.2022
694 Clouds 25 1008 59 10000 5.14 300 15:51 14.08.2022
695 Clouds 25 1008 65 10000 2.06 10 14:36 14.08.2022
696 Clouds 23 1009 70 10000 3.09 50 13:50 14.08.2022
697 Clouds 22 1009 73 10000 3.6 90 13:22 14.08.2022
698 Clouds 22 1010 71 10000 2.57 90 12:34 14.08.2022
699 Clouds 18 1011 87 9000 3.09 90 10:55 14.08.2022
700 Clouds 15 1011 95 6000 3.09 60 08:52 14.08.2022
701 Clouds 14 1012 92 10000 1.03 0 06:22 14.08.2022
702 Clouds 15 1013 88 10000 2.57 60 03:36 14.08.2022
703 Clouds 18 1014 76 10000 1.54 60 00:33 14.08.2022
704 Clouds 21 1014 68 10000 4.12 70 22:56 13.08.2022
705 Clouds 22 1014 59 10000 3.6 60 21:43 13.08.2022
706 Clouds 25 1014 53 10000 3.6 50 20:46 13.08.2022
707 Clouds 26 1014 62 10000 3.09 50 19:46 13.08.2022
708 Clouds 28 1015 60 10000 1.54 10 18:19 13.08.2022
709 Clouds 26 1017 61 10000 2.57 20 15:40 13.08.2022
710 Clouds 23 1018 72 10000 2.06 30 14:32 13.08.2022
711 Clouds 21 1018 73 10000 2.57 70 13:46 13.08.2022
712 Clouds 19 1019 88 8000 3.09 70 11:53 13.08.2022
713 Clouds 17 1019 94 7000 3.09 50 10:31 13.08.2022
714 Clouds 15 1019 93 7000 2.06 40 09:19 13.08.2022
715 Mist 14 1020 93 5000 3.6 60 05:57 13.08.2022
716 Clouds 17 1020 80 10000 4.12 60 00:30 13.08.2022
717 Clouds 20 1020 70 10000 4.63 50 22:23 12.08.2022
718 Clear 24 1019 50 10000 4.12 60 20:58 12.08.2022
719 Clear 26 1019 48 10000 2.57 50 19:43 12.08.2022
720 Clear 27 1019 47 10000 3.09 60 18:52 12.08.2022
721 Clear 27 1020 49 10000 2.57 40 17:57 12.08.2022
722 Clear 27 1020 48 10000 2.57 0 16:24 12.08.2022
723 Clear 25 1021 55 10000 2.06 80 14:47 12.08.2022
724 Clear 22 1022 66 10000 3.6 80 12:57 12.08.2022
725 Clear 19 1023 74 10000 3.09 50 11:19 12.08.2022
726 Clear 13 1023 92 10000 1.03 250 08:47 12.08.2022
727 Fog 10 1023 94 250 0.51 270 07:26 12.08.2022
728 Clear 13 1023 93 10000 1.03 290 03:35 12.08.2022
729 Clear 15 1023 89 10000 1.03 0 00:28 12.08.2022
730 Clear 15 1023 88 10000 3.09 220 23:35 11.08.2022
731 Clear 17 1023 81 10000 2.57 270 22:35 11.08.2022
732 Clear 20 1022 68 10000 3.09 260 21:43 11.08.2022
733 Clear 22 1022 60 10000 2.57 260 21:19 11.08.2022
734 Clear 23 1022 53 10000 4.12 240 20:27 11.08.2022
735 Clear 23 1022 51 10000 5.14 260 19:33 11.08.2022
736 Clear 24 1022 52 10000 5.14 240 18:36 11.08.2022
737 Clear 25 1022 55 10000 5.66 220 16:38 11.08.2022
738 Clear 25 1022 52 10000 5.14 220 15:37 11.08.2022
739 Clear 23 1023 63 10000 4.12 230 13:51 11.08.2022
740 Clear 19 1023 72 10000 1.54 240 11:26 11.08.2022
741 Fog 11 1023 92 10000 0.51 270 07:49 11.08.2022
742 Clear 11 1027 90 10000 1.03 0 03:57 11.08.2022
743 Clouds 13 1027 85 10000 1.54 250 01:33 11.08.2022
744 Clouds 17 1027 62 10000 1.54 250 22:36 10.08.2022
745 Clouds 20 1027 54 10000 3.09 220 21:34 10.08.2022
746 Clouds 22 1027 45 10000 3.6 270 20:55 10.08.2022
747 Clouds 23 1027 51 10000 4.12 260 19:32 10.08.2022
748 Clouds 24 1027 54 10000 4.63 230 18:42 10.08.2022
749 Clouds 24 1027 42 10000 6.69 230 16:55 10.08.2022
750 Clear 23 1028 63 10000 6.17 210 13:36 10.08.2022
751 Clear 22 1028 66 10000 5.66 200 12:46 10.08.2022
752 Clear 17 1029 84 10000 1.03 0 09:55 10.08.2022
753 Clouds 15 1032 89 10000 1.74 217 08:35 10.08.2022
754 Fog 12 1030 94 10000 1.03 260 07:20 10.08.2022
755 Mist 13 1030 92 3000 0.51 0 03:32 10.08.2022
756 Clouds 16 1031 84 10000 2.06 240 23:51 09.08.2022
757 Clouds 17 1031 81 10000 2.57 220 23:24 09.08.2022
758 Clouds 20 1031 65 10000 2.06 250 21:36 09.08.2022
759 Clouds 22 1031 66 10000 4.12 260 20:36 09.08.2022
760 Clouds 22 1031 64 10000 5.14 270 18:45 09.08.2022
761 Clouds 23 1031 58 10000 6.17 240 17:31 09.08.2022
762 Clouds 23 1031 63 10000 5.66 240 16:41 09.08.2022
763 Clouds 23 1032 66 10000 5.14 220 15:58 09.08.2022
764 Clouds 23 1032 67 10000 5.14 220 13:51 09.08.2022
765 Clouds 18 1032 80 10000 2.57 260 09:56 09.08.2022
766 Clouds 16 1032 87 10000 1.54 270 08:50 09.08.2022
767 Clouds 15 1032 87 10000 1.34 135 07:53 09.08.2022
768 Clouds 15 1032 87 10000 1.54 160 04:25 09.08.2022
769 Clouds 16 1032 84 10000 3.6 240 23:35 08.08.2022
770 Clouds 16 1031 83 10000 3.6 230 22:55 08.08.2022
771 Clouds 17 1031 81 10000 3.09 250 22:22 08.08.2022
772 Clouds 18 1031 77 10000 3.09 280 21:22 08.08.2022
773 Clouds 19 1031 74 10000 4.12 260 19:51 08.08.2022
774 Clouds 19 1030 71 10000 5.14 240 18:50 08.08.2022
775 Clouds 20 1030 66 10000 5.14 230 16:44 08.08.2022
776 Clouds 20 1030 66 10000 5.66 220 15:40 08.08.2022
777 Clouds 19 1030 69 10000 4.63 230 14:29 08.08.2022
778 Clouds 18 1030 73 10000 5.14 250 12:27 08.08.2022
779 Clouds 15 1030 87 10000 4.63 210 09:48 08.08.2022
780 Clouds 13 1029 94 10000 3.09 240 06:51 08.08.2022
781 Clouds 14 1029 90 10000 3.6 220 02:56 08.08.2022
782 Clouds 15 1028 86 10000 3.6 240 22:42 07.08.2022
783 Clouds 16 1028 85 10000 5.14 260 21:40 07.08.2022
784 Clouds 17 1028 83 10000 6.17 270 20:26 07.08.2022
785 Clouds 17 1028 85 10000 5.66 260 19:56 07.08.2022
786 Clouds 17 1027 85 10000 6.69 250 19:38 07.08.2022
787 Clouds 17 1027 86 10000 5.14 250 18:35 07.08.2022
788 Clouds 18 1027 84 10000 6.17 260 16:54 07.08.2022
789 Clouds 18 1027 83 10000 6.17 260 16:35 07.08.2022
790 Clouds 18 1027 83 10000 6.17 260 16:35 07.08.2022
791 Clouds 18 1027 81 10000 6.69 270 15:20 07.08.2022
792 Clouds 18 1026 85 10000 6.69 260 13:26 07.08.2022
793 Clouds 16 1026 87 10000 6.69 250 11:54 07.08.2022
794 Clouds 16 1026 89 10000 7.2 240 10:34 07.08.2022
795 Clouds 14 1026 90 10000 7.72 230 07:36 07.08.2022
796 Clouds 15 1026 82 10000 6.69 250 03:20 07.08.2022
797 Clouds 15 1027 84 10000 7.2 240 00:31 07.08.2022
798 Clouds 15 1028 80 10000 5.14 240 22:24 06.08.2022
799 Clouds 16 1028 76 10000 5.66 260 20:46 06.08.2022
800 Clouds 17 1028 71 10000 7.72 250 19:41 06.08.2022
801 Clouds 18 1028 67 10000 9.26 240 18:30 06.08.2022
802 Clouds 18 1029 65 10000 9.26 240 17:32 06.08.2022
803 Clouds 17 1029 74 10000 8.75 240 14:43 06.08.2022
804 Clouds 17 1030 76 10000 6.69 250 13:44 06.08.2022
805 Clouds 14 1030 88 10000 7.2 230 11:33 06.08.2022
806 Rain 14 1030 85 6000 6.17 230 10:32 06.08.2022
807 Clouds 13 1030 88 10000 1.34 119 08:32 06.08.2022
808 Clouds 11 1030 86 10000 1.54 260 03:52 06.08.2022
809 Clouds 11 1029 84 10000 3.6 240 23:36 05.08.2022
810 Clouds 13 1028 74 10000 4.02 157 22:23 05.08.2022
811 Clouds 16 1027 66 10000 5.66 290 19:33 05.08.2022
812 Clouds 16 1027 68 10000 6.17 290 18:46 05.08.2022
813 Clouds 16 1026 69 10000 5.66 290 17:54 05.08.2022
814 Clouds 16 1026 60 10000 7.72 270 16:49 05.08.2022
815 Clouds 17 1025 62 10000 5.14 290 15:22 05.08.2022
816 Clouds 16 1025 64 10000 4.63 280 14:19 05.08.2022
817 Clouds 15 1025 70 10000 4.92 176 13:23 05.08.2022
818 Clouds 15 1024 65 10000 4.63 300 12:28 05.08.2022
819 Clouds 14 1024 77 10000 3.6 280 10:49 05.08.2022
820 Clouds 10 1023 93 10000 1.54 260 08:25 05.08.2022
821 Clouds 8 1022 93 10000 1.03 0 06:41 05.08.2022
822 Clouds 10 1022 85 10000 2.57 260 00:34 05.08.2022
823 Clouds 12 1021 78 10000 4.02 164 22:29 04.08.2022
824 Clouds 14 1021 69 10000 5.14 270 21:26 04.08.2022
825 Clouds 15 1020 68 10000 5.14 250 20:43 04.08.2022
826 Clouds 16 1017 64 10000 5.66 270 19:40 04.08.2022
827 Clouds 16 1019 62 10000 6.69 290 18:36 04.08.2022
828 Clouds 17 1019 58 10000 7.2 260 17:38 04.08.2022
829 Clouds 17 1018 63 10000 6.17 280 14:18 04.08.2022
830 Clouds 15 1017 71 10000 4.63 280 12:44 04.08.2022
831 Clouds 14 1017 75 10000 5.66 290 10:51 04.08.2022
832 Clouds 11 1015 91 10000 2.24 154 07:53 04.08.2022
833 Rain 12 1014 93 10000 2.57 270 05:46 04.08.2022
834 Clouds 13 1014 87 10000 2.06 260 02:29 04.08.2022
835 Clouds 13 1013 86 10000 2.06 250 23:45 03.08.2022
836 Clouds 14 1013 81 10000 4.63 260 22:30 03.08.2022
837 Clouds 16 1012 78 10000 4.12 260 20:50 03.08.2022
838 Clouds 17 1012 77 10000 5.66 240 19:44 03.08.2022
839 Clouds 17 1011 79 10000 4.63 240 18:36 03.08.2022
840 Clouds 16 1011 85 10000 4.63 240 16:24 03.08.2022
841 Haze 16 1010 85 4700 7.2 220 14:51 03.08.2022
842 Clouds 16 1008 89 10000 8.75 230 12:32 03.08.2022
843 Clouds 15 1006 87 10000 8.75 220 08:50 03.08.2022
844 Clouds 15 1005 92 10000 7.72 230 04:47 03.08.2022
845 Clouds 16 1006 85 10000 6.69 240 03:30 03.08.2022
846 Clouds 17 1005 81 10000 9.26 220 01:35 03.08.2022
847 Clouds 17 1006 80 10000 4.47 123 23:23 02.08.2022
848 Clouds 19 1006 80 10000 4.12 250 21:55 02.08.2022
849 Clouds 19 1006 80 10000 4.63 220 21:30 02.08.2022
850 Clouds 19 1007 76 10000 7.2 250 18:59 02.08.2022
851 Clouds 20 1006 75 10000 8.23 250 16:27 02.08.2022
852 Clouds 21 1006 80 10000 9.77 210 12:55 02.08.2022
853 Clouds 18 1006 86 10000 11.32 230 09:42 02.08.2022
854 Clouds 18 1005 90 6000 11.32 230 07:56 02.08.2022
855 Clouds 18 1005 93 6000 11.18 93 07:25 02.08.2022
856 Clouds 18 1006 91 10000 8.49 122 04:55 02.08.2022
857 Rain 16 1010 91 8000 1.54 20 23:52 01.08.2022
858 Rain 16 1010 89 9000 1.54 130 22:50 01.08.2022
859 Rain 16 1012 92 9000 3.09 120 20:53 01.08.2022
860 Rain 16 1014 89 5000 3.09 170 19:34 01.08.2022
861 Rain 18 1014 70 10000 4.12 190 18:42 01.08.2022
862 Clouds 19 1016 62 10000 5.14 190 16:54 01.08.2022
863 Clouds 20 1016 60 10000 6.17 210 16:28 01.08.2022
864 Clouds 19 1018 60 10000 7.72 200 15:30 01.08.2022
865 Clouds 18 1018 62 10000 5.66 230 14:43 01.08.2022
866 Clouds 15 1019 72 10000 3.6 230 12:51 01.08.2022
867 Clear 14 1020 77 10000 2.24 171 10:29 01.08.2022
868 Clear 10 1021 88 10000 1.03 0 08:39 01.08.2022
869 Fog 7 1021 92 10000 0.51 0 06:21 01.08.2022
870 Clouds 8 1021 92 10000 1.54 260 04:24 01.08.2022
871 Clouds 11 1021 84 10000 2.57 270 00:55 01.08.2022
872 Clouds 14 1020 76 10000 3.09 260 22:41 31.07.2022
873 Clouds 17 1020 62 10000 4.12 270 21:35 31.07.2022
874 Clouds 19 1020 70 10000 2.06 330 19:58 31.07.2022
875 Clouds 19 1020 70 10000 2.57 100 18:36 31.07.2022
876 Clouds 17 1017 74 10000 1.03 0 15:54 31.07.2022
877 Clouds 15 1020 84 6000 2.06 70 13:51 31.07.2022
878 Clouds 14 1019 87 10000 1.03 0 12:29 31.07.2022
879 Clouds 13 1019 88 10000 1.03 0 10:22 31.07.2022
880 Clouds 11 1018 92 10000 2.06 230 08:18 31.07.2022
881 Clouds 11 1017 89 10000 1.03 0 03:49 31.07.2022
882 Clouds 14 1017 82 10000 2.57 260 23:53 30.07.2022
883 Clouds 16 1017 75 10000 3.6 280 22:19 30.07.2022
884 Clouds 16 1017 75 10000 3.6 280 22:19 30.07.2022
885 Clouds 17 1017 72 10000 4.63 290 21:49 30.07.2022
886 Clouds 18 1016 73 10000 4.12 280 20:58 30.07.2022
887 Clouds 18 1016 73 10000 4.12 280 20:58 30.07.2022
888 Clouds 19 1016 71 10000 5.14 260 19:59 30.07.2022
889 Clouds 19 1016 69 10000 6.69 260 18:57 30.07.2022
890 Clouds 20 1016 68 10000 5.66 270 17:45 30.07.2022
891 Clouds 20 1015 74 10000 6.17 250 15:54 30.07.2022
892 Clouds 20 1015 75 10000 7.72 240 15:24 30.07.2022
893 Clouds 18 1015 85 10000 6.17 250 13:19 30.07.2022
894 Clouds 18 1015 86 10000 6.69 240 12:20 30.07.2022
895 Clouds 17 1014 90 6000 6.17 230 10:35 30.07.2022
896 Clouds 17 1014 90 7000 6.17 230 09:57 30.07.2022
897 Clouds 17 1014 91 10000 4.92 122 07:55 30.07.2022
898 Drizzle 15 1015 93 3600 1.03 0 04:20 30.07.2022
899 Clouds 15 1016 92 10000 4.12 150 02:28 30.07.2022
900 Clouds 18 1018 73 10000 4.12 190 22:46 29.07.2022
901 Clouds 18 1018 75 10000 6.17 210 21:24 29.07.2022
902 Clouds 19 1018 74 10000 6.17 220 20:41 29.07.2022
903 Clouds 21 1019 66 10000 7.2 220 18:26 29.07.2022
904 Clouds 21 1020 63 10000 5.14 220 15:38 29.07.2022
905 Clouds 20 1020 66 10000 5.14 220 13:37 29.07.2022
906 Clouds 18 1021 73 10000 2.06 210 11:28 29.07.2022
907 Clouds 14 1021 87 10000 0.89 314 08:50 29.07.2022
908 Clouds 14 1021 89 10000 0.51 0 08:18 29.07.2022
909 Clouds 14 1021 91 10000 1.54 30 02:29 29.07.2022
910 Clouds 15 1021 90 10000 2.57 70 23:18 28.07.2022
911 Clouds 15 1021 89 10000 2.57 50 21:29 28.07.2022
912 Clouds 15 1021 86 10000 1.03 20 20:34 28.07.2022
913 Clouds 15 1021 84 10000 1.03 330 19:44 28.07.2022
914 Clouds 15 1021 86 10000 1.54 290 19:24 28.07.2022
915 Rain 17 1020 83 10000 3.6 120 17:44 28.07.2022
916 Rain 19 1017 74 10000 4.12 110 16:57 28.07.2022
917 Clouds 18 1020 75 10000 4.12 120 16:28 28.07.2022
918 Clouds 18 1021 72 10000 2.57 100 13:35 28.07.2022
919 Clouds 16 1021 80 10000 2.24 338 11:42 28.07.2022
920 Clouds 10 1021 92 10000 0.51 260 06:46 28.07.2022
921 Clouds 11 1021 92 10000 0.45 337 05:33 28.07.2022
922 Clouds 12 1022 87 10000 1.54 110 02:40 28.07.2022
923 Clouds 15 1018 78 10000 1.54 260 22:45 27.07.2022
924 Clouds 17 1021 68 10000 2.06 280 21:29 27.07.2022
925 Clouds 18 1022 63 10000 2.06 290 19:44 27.07.2022
926 Clouds 18 1022 63 10000 3.09 240 18:39 27.07.2022
927 Clouds 18 1023 56 10000 2.06 280 15:52 27.07.2022
928 Clouds 18 1023 56 10000 2.06 220 15:20 27.07.2022
929 Clouds 19 1023 56 10000 1.54 260 14:40 27.07.2022
930 Clouds 18 1023 61 10000 1.34 144 12:50 27.07.2022
931 Clouds 10 1021 88 10000 0.51 0 08:44 27.07.2022
932 Fog 7 1024 92 10000 1.03 0 07:24 27.07.2022
933 Clear 8 1024 91 10000 3.09 230 02:42 27.07.2022
934 Clouds 14 1025 75 10000 4.63 290 22:39 26.07.2022
935 Clouds 15 1024 72 10000 5.14 290 21:23 26.07.2022
936 Clouds 16 1024 69 10000 6.69 290 20:43 26.07.2022
937 Clouds 17 1024 64 10000 5.14 280 18:44 26.07.2022
938 Clouds 17 1024 63 10000 5.14 290 18:19 26.07.2022
939 Clouds 17 1024 65 10000 5.14 310 16:32 26.07.2022
940 Clouds 18 1024 64 10000 5.14 290 15:36 26.07.2022
941 Clouds 17 1024 65 10000 3.6 270 13:46 26.07.2022
942 Clouds 15 1024 70 10000 4.63 290 11:39 26.07.2022
943 Clouds 12 1023 78 10000 2.24 164 09:32 26.07.2022
944 Clouds 10 1024 87 10000 0.45 177 06:26 26.07.2022
945 Clouds 13 1020 79 10000 4.12 300 00:57 26.07.2022
946 Clouds 14 1019 78 10000 4.63 290 23:33 25.07.2022
947 Clouds 15 1018 75 10000 5.14 290 22:26 25.07.2022
948 Clouds 16 1017 76 10000 3.6 270 21:43 25.07.2022
949 Clouds 16 1017 77 10000 4.12 350 20:42 25.07.2022
950 Clouds 17 1015 75 10000 5.66 290 19:50 25.07.2022
951 Clouds 17 1014 77 10000 5.66 290 18:21 25.07.2022
952 Clouds 18 1013 69 10000 5.14 10 17:31 25.07.2022
953 Clouds 18 1011 72 10000 5.66 10 15:20 25.07.2022
954 Clouds 17 1007 83 10000 4.63 290 12:22 25.07.2022
955 Clouds 16 1006 86 10000 4.12 260 10:32 25.07.2022
956 Clouds 15 1003 91 10000 3.13 153 06:32 25.07.2022
957 Clouds 15 1003 90 10000 4.63 230 23:55 24.07.2022
958 Clouds 16 1003 90 10000 6.26 123 23:18 24.07.2022
959 Clouds 16 1003 90 10000 5.36 127 22:34 24.07.2022
960 Clouds 17 1002 89 10000 5.66 220 21:25 24.07.2022
961 Clouds 17 1002 88 10000 4.63 230 20:51 24.07.2022
962 Rain 17 1003 89 10000 3.6 230 20:26 24.07.2022
963 Rain 18 1003 86 10000 2.24 187 18:48 24.07.2022
964 Clouds 19 1005 84 10000 2.06 180 16:32 24.07.2022
965 Clouds 18 1006 89 7000 5.66 210 15:50 24.07.2022
966 Rain 19 1006 82 10000 4.63 200 14:38 24.07.2022
967 Rain 18 1007 81 10000 7.2 200 12:55 24.07.2022
968 Clouds 18 1007 83 10000 8.23 210 11:40 24.07.2022
969 Clouds 18 1007 83 10000 10.29 220 11:18 24.07.2022
970 Clouds 16 1007 90 10000 6.69 220 08:48 24.07.2022
971 Rain 16 1007 90 10000 4.12 220 07:52 24.07.2022
972 Clouds 16 1007 90 10000 6.71 143 06:18 24.07.2022
973 Clouds 17 1006 90 3700 5.14 170 01:50 24.07.2022
974 Clouds 18 1009 85 10000 2.24 44 22:25 23.07.2022
975 Clouds 18 1011 87 10000 3.09 190 20:31 23.07.2022
976 Drizzle 17 1012 88 4900 3.09 150 18:51 23.07.2022
977 Rain 18 1012 79 10000 4.12 120 17:41 23.07.2022
978 Rain 18 1013 84 8000 4.12 120 17:23 23.07.2022
979 Clouds 17 1015 83 10000 4.63 130 15:32 23.07.2022
980 Clouds 16 1015 86 9000 4.12 100 14:59 23.07.2022
981 Drizzle 16 1015 88 3200 4.12 80 14:30 23.07.2022
982 Clouds 16 1016 89 3800 3.6 70 13:39 23.07.2022
983 Rain 17 1017 83 10000 2.06 110 11:18 23.07.2022
984 Clouds 16 1014 87 10000 2.57 70 10:22 23.07.2022
985 Clouds 15 1018 93 10000 3.58 331 08:50 23.07.2022
986 Rain 14 1016 89 6000 3.09 80 03:40 23.07.2022
987 Rain 14 1021 91 10000 4.02 317 01:33 23.07.2022
988 Clouds 14 1021 90 10000 2.57 70 22:56 22.07.2022
989 Rain 15 1022 90 10000 4.12 40 20:56 22.07.2022
990 Clouds 16 1022 91 10000 4.12 70 19:41 22.07.2022
991 Rain 17 1024 83 10000 0.44 61 18:28 22.07.2022
992 Clouds 18 1022 79 10000 3.6 40 16:55 22.07.2022
993 Clouds 17 1023 79 10000 3.09 70 14:54 22.07.2022
994 Clouds 14 1024 91 10000 5.66 60 11:22 22.07.2022
995 Clouds 13 1025 92 10000 4.63 70 09:26 22.07.2022
996 Clouds 14 1025 89 10000 3.6 70 08:32 22.07.2022
997 Clouds 14 1025 84 10000 4.12 60 05:19 22.07.2022
998 Clouds 15 1026 78 10000 5.66 60 00:48 22.07.2022
999 Clouds 17 1026 71 10000 4.63 50 22:25 21.07.2022
1000 Clouds 18 1026 68 10000 4.63 60 21:33 21.07.2022
1001 Clouds 20 1026 59 10000 4.02 314 19:27 21.07.2022
1002 Clouds 21 1026 57 10000 3.6 0 17:41 21.07.2022
1003 Clouds 21 1026 57 10000 3.09 280 17:19 21.07.2022
1004 Clouds 20 1027 61 10000 2.57 310 14:55 21.07.2022
1005 Clouds 20 1026 61 10000 2.57 340 14:31 21.07.2022
1006 Clouds 18 1027 65 10000 2.06 40 12:28 21.07.2022
1007 Clouds 16 1027 74 10000 2.06 300 10:56 21.07.2022
1008 Clouds 15 1026 80 10000 2.57 290 09:27 21.07.2022
1009 Clouds 14 1026 85 10000 2.06 250 08:49 21.07.2022
1010 Clouds 12 1026 88 10000 2.57 230 07:32 21.07.2022
1011 Clouds 11 1025 90 10000 4.12 230 03:55 21.07.2022
1012 Clear 13 1024 86 10000 2.57 250 00:24 21.07.2022
1013 Clouds 15 1023 76 10000 5.14 270 22:21 20.07.2022
1014 Clouds 17 1022 72 10000 5.66 290 20:51 20.07.2022
1015 Clouds 18 1022 69 10000 6.17 290 19:49 20.07.2022
1016 Clouds 19 1021 67 10000 6.17 280 19:20 20.07.2022
1017 Clouds 19 1021 67 10000 6.17 290 18:33 20.07.2022
1018 Clouds 19 1021 68 10000 7.2 290 17:54 20.07.2022
1019 Clouds 20 1021 68 10000 7.15 165 16:19 20.07.2022
1020 Clear 20 1017 67 10000 7.72 290 14:57 20.07.2022
1021 Clouds 20 1019 66 10000 6.69 300 13:57 20.07.2022
1022 Clouds 18 1019 72 10000 5.66 280 11:32 20.07.2022
1023 Clouds 15 1016 85 10000 5.14 280 07:50 20.07.2022
1024 Clouds 16 1015 87 10000 3.09 240 02:45 20.07.2022
1025 Clouds 17 1014 86 10000 3.09 260 00:46 20.07.2022
1026 Clouds 18 1010 81 10000 5.14 270 23:40 19.07.2022
1027 Clouds 21 1011 73 10000 3.09 250 22:22 19.07.2022
1028 Clouds 22 1011 72 10000 3.6 280 21:18 19.07.2022
1029 Clouds 23 1011 76 10000 4.12 280 20:23 19.07.2022
1030 Clouds 24 1011 74 10000 3.09 270 18:43 19.07.2022
1031 Clouds 26 1011 57 10000 4.63 280 17:57 19.07.2022
1032 Clouds 30 1011 51 10000 1.34 161 16:31 19.07.2022
1033 Clouds 28 1012 54 10000 2.68 224 14:36 19.07.2022
1034 Clouds 25 1013 60 10000 2.06 250 11:38 19.07.2022
1035 Clouds 22 1013 73 10000 2.57 300 10:31 19.07.2022
1036 Clouds 19 1013 80 10000 2.57 60 08:48 19.07.2022
1037 Clouds 18 1014 84 10000 2.06 230 08:22 19.07.2022
1038 Clouds 17 1014 85 10000 1.54 210 07:18 19.07.2022
1039 Clouds 16 1015 85 10000 0.51 0 05:26 19.07.2022
1040 Clouds 16 1015 86 10000 1.54 240 04:46 19.07.2022
1041 Clouds 19 1017 72 10000 1.03 220 00:34 19.07.2022
1042 Clouds 21 1017 55 10000 2.57 280 23:22 18.07.2022
1043 Clouds 22 1016 57 10000 2.57 250 22:56 18.07.2022
1044 Clouds 23 1016 53 10000 1.03 0 21:53 18.07.2022
1045 Clouds 25 1014 47 10000 3.09 260 20:50 18.07.2022
1046 Clear 28 1014 42 10000 4.12 210 19:24 18.07.2022
1047 Clear 28 1018 52 10000 5.66 210 16:52 18.07.2022
1048 Clear 28 1018 52 10000 5.14 200 15:42 18.07.2022
1049 Clouds 27 1019 64 10000 4.12 220 13:45 18.07.2022
1050 Clouds 25 1019 71 10000 3.09 240 12:37 18.07.2022
1051 Clouds 22 1019 74 10000 1.03 0 10:37 18.07.2022
1052 Clouds 18 1020 82 10000 0.51 0 08:50 18.07.2022
1053 Clouds 14 1020 89 8000 0.51 300 06:54 18.07.2022
1054 Clouds 19 1021 73 10000 0.51 360 23:31 17.07.2022
1055 Clouds 19 1020 72 10000 1.03 0 22:32 17.07.2022
1056 Clouds 20 1021 67 10000 1.54 10 21:44 17.07.2022
1057 Clouds 21 1021 68 10000 3.09 260 20:54 17.07.2022
1058 Clouds 21 1021 68 10000 3.09 260 20:35 17.07.2022
1059 Clouds 23 1022 62 10000 3.6 260 19:26 17.07.2022
1060 Clouds 23 1022 63 10000 5.14 230 18:26 17.07.2022
1061 Clouds 24 1022 62 10000 6.17 240 17:37 17.07.2022
1062 Clouds 25 1022 60 10000 5.66 230 16:50 17.07.2022
1063 Clouds 25 1022 58 10000 6.69 210 16:25 17.07.2022
1064 Clouds 23 1024 62 10000 6.17 210 14:32 17.07.2022
1065 Clouds 21 1024 71 10000 1.54 330 13:28 17.07.2022
1066 Rain 17 1025 80 10000 2.06 210 10:59 17.07.2022
1067 Clouds 16 1026 87 10000 1.03 0 08:44 17.07.2022
1068 Clouds 15 1027 87 10000 1.03 230 03:40 17.07.2022
1069 Clouds 16 1027 88 10000 2.06 250 01:47 17.07.2022
1070 Clouds 16 1027 85 10000 1.03 0 23:19 16.07.2022
1071 Clouds 18 1027 78 10000 4.12 230 20:59 16.07.2022
1072 Clouds 18 1028 77 10000 5.14 230 18:59 16.07.2022
1073 Clouds 19 1027 75 10000 5.14 230 17:53 16.07.2022
1074 Clouds 19 1027 72 10000 3.6 230 16:24 16.07.2022
1075 Clouds 17 1028 75 10000 2.57 0 13:47 16.07.2022
1076 Clouds 14 1028 79 10000 3.09 250 10:35 16.07.2022
1077 Clouds 12 1028 84 10000 1.54 260 09:29 16.07.2022
1078 Clouds 12 1027 84 10000 1.03 0 08:42 16.07.2022
1079 Clouds 11 1027 88 10000 2.06 230 07:41 16.07.2022
1080 Clouds 10 1027 89 10000 2.57 270 03:40 16.07.2022
1081 Clouds 11 1027 85 10000 3.6 230 01:59 16.07.2022
1082 Clouds 13 1026 80 10000 4.63 280 23:21 15.07.2022
1083 Clouds 15 1026 77 10000 3.09 280 22:37 15.07.2022
1084 Clouds 16 1026 70 10000 4.63 270 21:18 15.07.2022
1085 Clouds 18 1025 65 10000 4.63 260 19:51 15.07.2022
1086 Clouds 19 1025 64 10000 5.14 280 18:32 15.07.2022
1087 Clouds 19 1024 61 10000 6.17 280 17:33 15.07.2022
1088 Clouds 19 1023 64 10000 7.2 290 14:45 15.07.2022
1089 Clouds 17 1023 73 10000 8.23 290 12:48 15.07.2022
1090 Clouds 15 1022 88 10000 4.12 250 10:53 15.07.2022
1091 Rain 14 1023 90 9000 5.14 230 08:42 15.07.2022
1092 Rain 13 1024 91 7000 1.54 240 05:55 15.07.2022
1093 Clouds 13 1026 91 10000 3.09 210 00:51 15.07.2022
1094 Clouds 14 1026 85 10000 5.14 230 23:25 14.07.2022
1095 Clouds 15 1026 82 10000 4.63 240 22:42 14.07.2022
1096 Clouds 15 1027 78 10000 3.6 260 21:42 14.07.2022
1097 Clouds 15 1027 79 10000 3.13 153 21:24 14.07.2022
1098 Clouds 16 1027 75 10000 5.66 260 20:43 14.07.2022
1099 Clouds 16 1027 73 10000 4.47 165 20:19 14.07.2022
1100 Clouds 17 1027 72 10000 6.17 270 18:38 14.07.2022
1101 Clouds 17 1026 71 10000 6.69 260 16:21 14.07.2022
1102 Clouds 18 1026 67 10000 7.2 250 15:26 14.07.2022
1103 Clouds 17 1026 70 10000 5.66 260 13:52 14.07.2022
1104 Clouds 15 1026 78 10000 4.63 250 12:39 14.07.2022
1105 Clouds 15 1025 77 10000 4.12 270 11:28 14.07.2022
1106 Clouds 14 1025 79 10000 4.63 250 10:59 14.07.2022
1107 Clouds 14 1025 81 10000 3.09 260 09:29 14.07.2022
1108 Clouds 12 1022 87 10000 2.57 250 05:18 14.07.2022
1109 Clouds 13 1022 84 10000 2.06 240 01:22 14.07.2022
1110 Clouds 12 1022 87 10000 3.09 240 00:52 14.07.2022
1111 Clouds 13 1025 70 10000 4.12 280 22:32 13.07.2022
1112 Clouds 15 1025 74 10000 4.63 290 21:51 13.07.2022
1113 Clouds 16 1024 71 10000 4.12 290 20:44 13.07.2022
1114 Clouds 16 1025 73 10000 7.72 270 18:48 13.07.2022
1115 Clouds 16 1024 76 10000 6.69 250 17:34 13.07.2022
1116 Clouds 16 1025 81 6000 8.75 250 16:19 13.07.2022
1117 Clouds 16 1025 75 10000 8.75 240 14:54 13.07.2022
1118 Clouds 15 1025 77 10000 5.66 260 11:56 13.07.2022
1119 Clouds 15 1024 75 10000 7.72 250 10:45 13.07.2022
1120 Clouds 14 1024 77 10000 6.17 260 09:56 13.07.2022
1121 Clouds 13 1024 81 10000 7.2 260 09:20 13.07.2022
1122 Clouds 12 1023 83 10000 4.12 230 05:29 13.07.2022
1123 Clouds 13 1023 80 10000 5.66 240 01:22 13.07.2022
1124 Clouds 14 1023 76 10000 2.57 250 23:35 12.07.2022
1125 Clouds 15 1022 72 10000 6.69 260 21:53 12.07.2022
1126 Clouds 17 1022 69 10000 7.72 260 20:58 12.07.2022
1127 Clouds 17 1022 67 10000 7.72 260 20:37 12.07.2022
1128 Clouds 19 1021 67 10000 7.2 250 18:53 12.07.2022
1129 Clouds 20 1021 68 10000 6.69 260 17:38 12.07.2022
1130 Clouds 17 1021 75 10000 4.12 250 15:42 12.07.2022
1131 Clouds 16 1021 84 10000 5.14 260 13:55 12.07.2022
1132 Clouds 17 1021 85 10000 3.09 250 12:19 12.07.2022
1133 Clouds 17 1021 87 10000 2.06 260 10:51 12.07.2022
1134 Rain 18 1020 83 10000 5.66 240 09:22 12.07.2022
1135 Clouds 17 1020 85 10000 5.66 220 08:18 12.07.2022
1136 Rain 17 1019 86 10000 3.6 230 05:57 12.07.2022
1137 Clouds 17 1019 85 10000 3.6 230 05:39 12.07.2022
1138 Rain 17 1020 80 10000 4.12 230 01:43 12.07.2022
1139 Clouds 19 1020 71 10000 5.14 220 22:59 11.07.2022
1140 Clouds 20 1020 67 10000 6.69 220 21:45 11.07.2022
1141 Clouds 21 1021 67 10000 2.57 230 20:33 11.07.2022
1142 Clouds 21 1021 67 10000 2.68 110 19:33 11.07.2022
1143 Clouds 22 1022 65 10000 3.09 210 18:32 11.07.2022
1144 Clouds 22 1022 65 10000 4.63 190 17:36 11.07.2022
1145 Clouds 22 1022 66 10000 6.17 220 15:46 11.07.2022
1146 Clouds 22 1023 70 10000 3.09 220 13:39 11.07.2022
1147 Clouds 20 1024 76 10000 1.03 0 11:38 11.07.2022
1148 Clouds 18 1025 82 10000 0.51 0 10:18 11.07.2022
1149 Clouds 16 1025 85 9000 0.51 0 09:41 11.07.2022
1150 Clouds 15 1025 88 10000 1.03 0 08:33 11.07.2022
1151 Clouds 13 1026 92 10000 2.06 210 03:23 11.07.2022
1152 Clouds 15 1027 87 10000 2.06 230 00:20 11.07.2022
1153 Clouds 17 1027 83 10000 3.6 230 22:56 10.07.2022
1154 Clear 19 1027 73 10000 4.12 230 21:41 10.07.2022
1155 Clear 21 1027 69 10000 5.66 230 20:47 10.07.2022
1156 Clouds 22 1027 68 10000 4.63 220 19:50 10.07.2022
1157 Clouds 23 1028 66 10000 4.12 260 18:48 10.07.2022
1158 Clouds 23 1028 68 10000 3.6 260 17:37 10.07.2022
1159 Clouds 23 1029 64 10000 4.63 240 16:45 10.07.2022
1160 Clear 22 1029 66 10000 4.63 260 15:25 10.07.2022
1161 Clouds 22 1029 68 10000 4.63 260 14:21 10.07.2022
1162 Clouds 20 1030 70 10000 5.14 280 12:28 10.07.2022
1163 Clouds 18 1031 74 10000 3.6 270 10:20 10.07.2022
1164 Clouds 16 1031 86 10000 2.57 230 08:45 10.07.2022
1165 Clouds 16 1031 86 10000 2.57 230 08:45 10.07.2022
1166 Clouds 15 1031 86 10000 3.6 240 07:30 10.07.2022
1167 Clouds 15 1033 88 10000 4.12 230 01:33 10.07.2022
1168 Clouds 16 1034 82 10000 5.66 270 22:43 09.07.2022
1169 Clouds 17 1034 80 10000 4.63 270 22:24 09.07.2022
1170 Clear 19 1033 68 10000 5.66 280 20:46 09.07.2022
1171 Clouds 20 1033 63 10000 6.17 290 18:38 09.07.2022
1172 Clouds 20 1033 65 10000 5.66 260 17:45 09.07.2022
1173 Clouds 20 1034 66 10000 6.26 167 16:44 09.07.2022
1174 Clouds 20 1034 65 10000 5.14 260 15:41 09.07.2022
1175 Clouds 19 1034 67 10000 5.66 260 14:36 09.07.2022
1176 Clouds 18 1034 70 10000 6.17 250 13:50 09.07.2022
1177 Clouds 18 1034 69 10000 4.63 260 12:45 09.07.2022
1178 Clouds 16 1034 75 10000 4.63 270 11:22 09.07.2022
1179 Clouds 15 1034 76 10000 6.17 260 10:22 09.07.2022
1180 Clouds 12 1034 82 10000 4.63 240 07:53 09.07.2022
1181 Clouds 12 1034 81 10000 4.63 240 04:59 09.07.2022
1182 Clouds 13 1034 84 10000 4.12 250 02:34 09.07.2022
1183 Clouds 15 1034 85 8000 3.09 250 22:54 08.07.2022
1184 Clouds 15 1034 84 10000 3.09 250 21:58 08.07.2022
1185 Clouds 16 1033 84 10000 8.23 260 20:41 08.07.2022
1186 Clouds 16 1033 82 10000 6.69 260 19:53 08.07.2022
1187 Clouds 17 1033 80 10000 7.2 250 18:26 08.07.2022
1188 Clouds 18 1034 78 10000 8.23 260 16:48 08.07.2022
1189 Clouds 17 1034 78 10000 7.2 260 14:54 08.07.2022
1190 Clouds 16 1034 78 10000 6.69 240 13:41 08.07.2022
1191 Clouds 15 1035 81 10000 5.14 240 11:51 08.07.2022
1192 Clouds 15 1035 81 10000 6.17 240 10:29 08.07.2022
1193 Clouds 15 1035 86 10000 4.63 240 08:33 08.07.2022
1194 Clouds 14 1035 87 10000 3.6 260 06:50 08.07.2022
1195 Clouds 14 1035 88 10000 3.09 250 01:31 08.07.2022
1196 Clouds 15 1035 86 10000 5.14 260 23:22 07.07.2022
1197 Clouds 16 1035 84 10000 5.14 270 22:34 07.07.2022
1198 Clouds 17 1034 82 10000 6.17 260 20:35 07.07.2022
1199 Clouds 18 1034 80 10000 6.17 250 18:20 07.07.2022
1200 Clouds 18 1034 78 10000 5.36 169 16:53 07.07.2022
1201 Clouds 18 1031 77 10000 5.66 260 14:35 07.07.2022
1202 Clouds 18 1033 75 10000 5.66 250 13:18 07.07.2022
1203 Clouds 18 1033 75 10000 5.14 250 12:24 07.07.2022
1204 Clouds 17 1033 75 10000 4.63 280 11:45 07.07.2022
1205 Clouds 17 1032 75 10000 5.66 270 11:24 07.07.2022
1206 Clouds 16 1032 78 10000 5.14 270 10:41 07.07.2022
1207 Clouds 15 1032 80 10000 4.12 250 10:23 07.07.2022
1208 Clouds 13 1030 86 10000 4.12 220 06:48 07.07.2022
1209 Clouds 13 1028 84 10000 5.14 280 01:43 07.07.2022
1210 Clouds 14 1028 82 10000 3.76 262 23:36 06.07.2022
1211 Clouds 14 1026 82 10000 6.17 250 23:18 06.07.2022
1212 Clouds 14 1026 82 10000 6.17 250 22:52 06.07.2022
1213 Clouds 14 1026 82 10000 6.17 250 22:34 06.07.2022
1214 Clouds 15 1024 78 10000 6.17 270 20:33 06.07.2022
1215 Clouds 16 1023 78 10000 8.75 270 19:34 06.07.2022
1216 Clouds 16 1022 80 10000 9.77 250 17:22 06.07.2022
1217 Clouds 16 1022 80 10000 9.77 250 17:22 06.07.2022
1218 Clouds 16 1023 83 10000 9.26 250 15:58 06.07.2022
1219 Rain 16 1024 84 10000 9.77 250 13:21 06.07.2022
1220 Clouds 16 1024 83 10000 8.23 250 12:28 06.07.2022
1221 Clouds 15 1024 83 10000 9.26 260 11:44 06.07.2022
1222 Clouds 15 1025 85 10000 5.66 230 09:50 06.07.2022
1223 Clouds 14 1026 84 10000 3.6 240 07:44 06.07.2022
1224 Clouds 14 1026 83 10000 6.69 260 07:19 06.07.2022
1225 Clouds 14 1027 90 10000 5.66 230 00:38 06.07.2022
1226 Clouds 14 1028 84 10000 5.14 240 22:43 05.07.2022
1227 Clouds 15 1028 73 10000 4.63 260 20:57 05.07.2022
1228 Clouds 15 1028 71 10000 4.63 260 20:33 05.07.2022
1229 Clouds 16 1028 67 10000 5.14 250 19:39 05.07.2022
1230 Clouds 18 1027 61 10000 4.63 260 17:55 05.07.2022
1231 Clouds 18 1027 61 10000 5.81 157 17:25 05.07.2022
1232 Clouds 17 1027 62 10000 5.66 310 16:33 05.07.2022
1233 Clouds 17 1027 65 10000 5.14 270 14:54 05.07.2022
1234 Clouds 16 1027 64 10000 3.6 300 13:36 05.07.2022
1235 Clouds 15 1026 67 10000 5.14 270 12:26 05.07.2022
1236 Clouds 13 1026 68 10000 4.63 300 10:46 05.07.2022
1237 Clouds 13 1025 72 10000 4.63 280 09:58 05.07.2022
1238 Clouds 12 1025 79 10000 3.6 270 08:23 05.07.2022
1239 Clouds 11 1023 82 10000 3.09 260 06:59 05.07.2022
1240 Clouds 11 1023 87 10000 2.06 270 04:37 05.07.2022
1241 Clouds 11 1023 83 10000 4.63 250 01:33 05.07.2022
1242 Clouds 12 1022 81 10000 4.63 240 23:37 04.07.2022
1243 Clouds 12 1022 79 10000 5.66 260 22:56 04.07.2022
1244 Clouds 13 1021 79 10000 7.2 260 22:19 04.07.2022
1245 Clouds 13 1021 77 10000 7.2 250 20:56 04.07.2022
1246 Clouds 13 1021 76 10000 7.2 250 20:36 04.07.2022
1247 Clouds 14 1021 71 10000 6.69 260 19:56 04.07.2022
1248 Clouds 14 1021 70 10000 6.69 260 19:37 04.07.2022
1249 Clouds 14 1020 73 10000 9.26 260 18:51 04.07.2022
1250 Clouds 15 1020 67 10000 8.23 280 16:54 04.07.2022
1251 Clouds 15 1019 70 10000 8.75 250 15:35 04.07.2022
1252 Clouds 14 1019 73 10000 9.77 260 13:47 04.07.2022
1253 Clouds 14 1018 74 10000 8.23 260 12:42 04.07.2022
1254 Haze 13 1018 76 3100 8.75 270 10:40 04.07.2022
1255 Clouds 13 1018 78 10000 7.2 260 10:22 04.07.2022
1256 Clouds 12 1018 88 10000 6.17 250 08:33 04.07.2022
1257 Clouds 10 1017 88 10000 4.12 230 05:57 04.07.2022
1258 Clouds 12 1018 80 10000 8.23 240 00:44 04.07.2022
1259 Clouds 12 1018 80 10000 8.23 240 00:44 04.07.2022
1260 Clouds 12 1019 82 10000 6.69 240 23:38 03.07.2022
1261 Rain 12 1019 85 10000 5.66 230 22:28 03.07.2022
1262 Clouds 13 1020 82 10000 6.17 240 20:45 03.07.2022
1263 Clouds 13 1020 78 10000 6.17 240 19:42 03.07.2022
1264 Clouds 14 1020 76 10000 6.17 250 19:23 03.07.2022
1265 Clouds 15 1020 70 10000 8.23 250 17:46 03.07.2022
1266 Clouds 15 1020 71 10000 8.75 260 17:18 03.07.2022
1267 Clouds 15 1020 72 10000 5.14 280 15:26 03.07.2022
1268 Clouds 16 1020 69 10000 3.6 260 14:37 03.07.2022
1269 Clouds 15 1020 72 10000 5.14 260 13:49 03.07.2022
1270 Clouds 15 1019 70 10000 5.14 280 12:42 03.07.2022
1271 Clouds 15 1019 73 10000 5.14 280 11:40 03.07.2022
1272 Clouds 14 1019 75 10000 4.63 250 10:40 03.07.2022
1273 Clouds 14 1018 75 10000 4.12 260 09:59 03.07.2022
1274 Clouds 12 1017 90 10000 3.6 260 07:37 03.07.2022
1275 Clouds 12 1016 92 5000 5.14 230 05:26 03.07.2022
1276 Clouds 13 1016 84 10000 3.6 250 00:25 03.07.2022
1277 Clouds 14 1016 77 10000 3.6 260 22:36 02.07.2022
1278 Clouds 14 1015 76 10000 5.14 250 21:43 02.07.2022
1279 Clouds 15 1014 76 10000 7.72 250 20:20 02.07.2022
1280 Clouds 15 1014 76 10000 6.17 250 19:49 02.07.2022
1281 Clouds 15 1014 79 10000 7.2 220 17:58 02.07.2022
1282 Clouds 15 1014 80 10000 7.2 220 17:37 02.07.2022
1283 Clouds 15 1014 78 10000 7.2 230 15:32 02.07.2022
1284 Clouds 14 1013 78 10000 6.69 230 12:24 02.07.2022
1285 Clouds 14 1013 78 10000 6.69 230 11:28 02.07.2022
1286 Clouds 14 1013 82 10000 6.17 230 10:48 02.07.2022
1287 Clouds 13 1013 84 10000 4.12 240 09:49 02.07.2022
1288 Clouds 13 1012 86 10000 3.09 230 08:37 02.07.2022
1289 Clouds 12 1012 87 10000 3.6 210 08:18 02.07.2022
1290 Rain 13 1010 88 10000 2.57 120 02:53 02.07.2022
1291 Clouds 14 1013 79 10000 3.09 150 00:27 02.07.2022
1292 Clouds 14 1013 82 10000 1.03 0 22:59 01.07.2022
1293 Clouds 14 1014 81 10000 3.09 220 22:19 01.07.2022
1294 Clouds 15 1014 79 10000 1.54 230 21:37 01.07.2022
1295 Clouds 15 1014 76 10000 2.06 230 20:57 01.07.2022
1296 Rain 16 1014 70 10000 6.17 220 19:47 01.07.2022
1297 Clouds 17 1014 67 10000 6.69 210 18:42 01.07.2022
1298 Clouds 17 1014 67 10000 5.66 230 16:38 01.07.2022
1299 Clouds 18 1014 69 10000 5.14 220 14:21 01.07.2022
1300 Clouds 17 1014 75 10000 4.63 240 13:22 01.07.2022
1301 Clouds 15 1014 78 10000 2.57 250 10:46 01.07.2022
1302 Clouds 14 1014 80 10000 1.54 280 10:18 01.07.2022
1303 Clouds 11 1014 89 10000 1.54 290 05:58 01.07.2022
1304 Clouds 12 1014 87 10000 2.57 260 01:30 01.07.2022
1305 Clouds 13 1014 86 10000 2.06 250 23:28 30.06.2022
1306 Clouds 14 1014 80 10000 2.06 250 22:45 30.06.2022
1307 Clouds 14 1014 80 10000 2.06 250 22:45 30.06.2022
1308 Clouds 15 1014 82 10000 2.06 260 22:27 30.06.2022
1309 Clouds 16 1013 76 10000 2.57 250 21:50 30.06.2022
1310 Clouds 16 1013 79 10000 2.57 50 20:31 30.06.2022
1311 Clouds 17 1013 79 10000 2.57 80 19:55 30.06.2022
1312 Clouds 16 1010 76 10000 2.06 40 19:32 30.06.2022
1313 Clouds 17 1010 71 10000 2.57 330 18:43 30.06.2022
1314 Clouds 17 1010 71 10000 4.12 250 17:49 30.06.2022
1315 Clouds 16 1012 78 10000 2.06 0 16:55 30.06.2022
1316 Clouds 16 1012 74 10000 3.09 330 15:50 30.06.2022
1317 Clouds 16 1012 72 10000 2.57 210 13:50 30.06.2022
1318 Clouds 16 1012 72 10000 4.12 200 12:36 30.06.2022
1319 Clouds 16 1012 76 10000 2.06 270 11:59 30.06.2022
1320 Clouds 13 1012 87 10000 0.51 0 09:55 30.06.2022
1321 Clouds 13 1012 88 10000 0.51 0 09:37 30.06.2022
1322 Rain 11 1012 92 10000 1.03 260 08:19 30.06.2022
1323 Rain 11 1012 90 10000 1.54 230 07:40 30.06.2022
1324 Clouds 11 1013 88 10000 0.51 0 02:49 30.06.2022
1325 Clouds 14 1012 78 10000 2.06 240 23:38 29.06.2022
1326 Clouds 15 1012 73 10000 2.06 220 22:41 29.06.2022
1327 Clouds 16 1011 71 10000 4.63 240 21:58 29.06.2022
1328 Clouds 17 1010 70 10000 4.63 230 20:34 29.06.2022
1329 Clouds 17 1010 72 10000 3.09 170 19:55 29.06.2022
1330 Clouds 17 1007 70 10000 5.14 230 17:55 29.06.2022
1331 Clouds 18 1010 67 10000 4.63 230 16:51 29.06.2022
1332 Clouds 18 1007 69 10000 4.63 200 15:33 29.06.2022
1333 Clouds 17 1007 69 10000 6.17 190 13:36 29.06.2022
1334 Clouds 16 1006 81 10000 4.12 130 12:24 29.06.2022
1335 Rain 14 1009 82 10000 3.09 90 09:43 29.06.2022
1336 Rain 14 1009 82 10000 3.09 80 09:21 29.06.2022
1337 Clouds 13 1009 84 10000 2.06 130 06:27 29.06.2022
1338 Clouds 14 1007 77 10000 3.09 160 02:21 29.06.2022
1339 Clouds 13 1010 81 10000 2.57 140 00:38 29.06.2022
1340 Clouds 14 1010 78 10000 4.63 160 23:55 28.06.2022
1341 Clouds 15 1009 75 10000 6.69 160 22:48 28.06.2022
1342 Clouds 16 1009 74 10000 6.17 160 21:55 28.06.2022
1343 Clouds 16 1009 75 10000 6.17 160 21:33 28.06.2022
1344 Clouds 16 1009 72 10000 7.72 160 20:55 28.06.2022
1345 Clouds 16 1009 72 10000 8.75 160 19:48 28.06.2022
1346 Clouds 16 1006 72 10000 7.72 160 19:24 28.06.2022
1347 Clouds 16 1009 79 10000 9.26 140 17:49 28.06.2022
1348 Clouds 15 1009 80 10000 7.2 130 16:29 28.06.2022
1349 Clouds 15 1010 81 10000 7.72 130 15:53 28.06.2022
1350 Rain 14 1011 85 10000 6.69 130 14:22 28.06.2022
1351 Rain 14 1011 84 10000 6.17 120 13:55 28.06.2022
1352 Rain 14 1011 85 10000 5.66 120 13:26 28.06.2022
1353 Clouds 13 1011 87 10000 5.14 110 11:37 28.06.2022
1354 Rain 14 1012 82 10000 3.09 140 09:41 28.06.2022
1355 Clouds 13 1012 84 10000 3.6 170 08:45 28.06.2022
1356 Rain 13 1012 83 10000 4.63 160 07:58 28.06.2022
1357 Clouds 13 1012 86 10000 4.63 160 07:19 28.06.2022
1358 Clouds 13 1014 77 10000 4.12 150 01:36 28.06.2022
1359 Clouds 13 1015 72 10000 5.14 170 23:45 27.06.2022
1360 Clouds 13 1015 69 10000 5.66 170 22:55 27.06.2022
1361 Clouds 14 1014 67 10000 6.17 190 21:38 27.06.2022
1362 Clouds 15 1014 66 10000 6.17 190 21:38 27.06.2022
1363 Clouds 15 1014 65 10000 4.63 210 20:55 27.06.2022
1364 Clouds 16 1014 62 10000 6.17 220 19:44 27.06.2022
1365 Clouds 16 1014 60 10000 7.2 220 18:40 27.06.2022
1366 Clouds 16 1013 66 10000 5.66 220 16:44 27.06.2022
1367 Clouds 15 1013 75 8000 6.17 230 15:42 27.06.2022
1368 Clouds 15 1012 78 10000 4.63 220 13:39 27.06.2022
1369 Clouds 16 1012 80 10000 6.17 180 12:57 27.06.2022
1370 Drizzle 13 1011 85 4700 2.06 170 10:41 27.06.2022
1371 Clouds 13 1011 87 10000 2.57 200 09:23 27.06.2022
1372 Clouds 13 1010 87 10000 2.57 150 08:32 27.06.2022
1373 Clouds 12 1010 89 10000 1.54 220 07:38 27.06.2022
1374 Clouds 12 1009 85 10000 4.12 210 04:21 27.06.2022
1375 Clouds 13 1007 86 10000 7.2 200 01:19 27.06.2022
1376 Clouds 13 1005 89 10000 5.14 160 22:27 26.06.2022
1377 Rain 14 1005 88 10000 6.69 180 20:53 26.06.2022
1378 Rain 16 1004 80 10000 8.23 170 19:44 26.06.2022
1379 Clouds 16 1004 81 10000 6.17 170 18:32 26.06.2022
1380 Clouds 15 1004 82 10000 8.23 170 17:33 26.06.2022
1381 Rain 15 1001 82 4400 8.75 160 15:31 26.06.2022
1382 Clouds 14 1003 81 10000 7.72 160 13:55 26.06.2022
1383 Rain 14 1003 84 10000 6.17 130 13:23 26.06.2022
1384 Clouds 14 1003 77 10000 8.23 120 11:27 26.06.2022
1385 Clouds 13 1004 77 10000 7.72 100 10:28 26.06.2022
1386 Clouds 13 1004 78 10000 7.72 100 09:39 26.06.2022
1387 Clouds 12 1004 78 10000 6.17 90 07:45 26.06.2022
1388 Clear 10 1005 84 10000 4.12 100 02:52 26.06.2022
1389 Clouds 13 1006 75 10000 5.66 130 00:21 26.06.2022
1390 Clouds 14 1003 71 10000 4.63 120 23:51 25.06.2022
1391 Clouds 14 1002 69 10000 5.66 130 23:23 25.06.2022
1392 Clouds 15 1002 69 10000 7.2 160 22:27 25.06.2022
1393 Clear 16 1005 55 10000 9.26 160 21:41 25.06.2022
1394 Clear 17 1004 61 10000 9.77 170 21:18 25.06.2022
1395 Clouds 17 1004 61 10000 9.26 160 20:28 25.06.2022
1396 Clouds 17 1004 59 10000 8.23 170 19:42 25.06.2022
1397 Clouds 18 1004 56 10000 9.77 150 18:19 25.06.2022
1398 Clouds 18 1004 56 10000 10.8 160 17:24 25.06.2022
1399 Clouds 18 1003 59 10000 7.72 160 15:36 25.06.2022
1400 Clouds 17 1003 64 10000 7.2 160 13:41 25.06.2022
1401 Clouds 15 1002 70 10000 8.23 160 12:38 25.06.2022
1402 Clouds 14 1001 75 10000 6.69 170 10:35 25.06.2022
1403 Clouds 14 1000 76 10000 6.69 160 08:59 25.06.2022
1404 Clouds 14 1000 77 10000 6.69 160 08:37 25.06.2022
1405 Clouds 13 999 79 10000 3.6 90 08:18 25.06.2022
1406 Clouds 14 998 93 10000 3.09 70 03:34 25.06.2022
1407 Rain 15 1000 92 4900 1.54 220 00:35 25.06.2022
1408 Rain 16 1000 85 9000 3.09 160 22:54 24.06.2022
1409 Rain 18 1000 74 10000 3.09 130 21:41 24.06.2022
1410 Clouds 17 1001 80 10000 1.54 20 20:45 24.06.2022
1411 Clouds 18 1001 77 10000 1.03 230 20:18 24.06.2022
1412 Clouds 18 1001 77 10000 2.57 250 19:21 24.06.2022
1413 Clouds 18 1001 76 10000 3.09 240 18:48 24.06.2022
1414 Rain 19 1001 71 10000 3.6 160 18:30 24.06.2022
1415 Clouds 20 1002 69 10000 6.17 180 17:19 24.06.2022
1416 Clouds 21 1002 64 10000 5.66 200 15:29 24.06.2022
1417 Clouds 21 1002 66 10000 4.12 160 14:26 24.06.2022
1418 Clouds 20 1003 67 10000 4.63 190 13:54 24.06.2022
1419 Clouds 19 1003 69 10000 5.66 180 11:43 24.06.2022
1420 Clouds 19 1003 70 10000 5.66 150 10:47 24.06.2022
1421 Clear 18 1004 75 10000 3.6 140 09:42 24.06.2022
1422 Clear 18 1004 75 10000 2.57 100 09:19 24.06.2022
1423 Clear 16 1004 85 10000 2.57 70 08:42 24.06.2022
1424 Clouds 15 1004 87 10000 1.54 50 06:47 24.06.2022
1425 Clouds 15 1005 88 10000 1.03 80 06:27 24.06.2022
1426 Clouds 15 1005 86 8000 1.03 50 05:21 24.06.2022
1427 Clouds 16 1008 89 10000 2.57 210 00:47 24.06.2022
1428 Clouds 17 1005 82 10000 2.57 270 22:44 23.06.2022
1429 Clouds 19 1008 72 10000 3.09 210 21:43 23.06.2022
1430 Clouds 20 1008 69 10000 3.6 230 20:43 23.06.2022
1431 Clouds 20 1009 69 10000 3.09 230 19:57 23.06.2022
1432 Clouds 19 1009 77 10000 4.63 200 18:43 23.06.2022
1433 Clouds 20 1010 74 10000 6.17 210 17:35 23.06.2022
1434 Clouds 20 1010 71 10000 6.17 210 16:32 23.06.2022
1435 Clouds 21 1011 73 10000 6.69 220 15:26 23.06.2022
1436 Clouds 21 1011 71 10000 6.17 210 14:36 23.06.2022
1437 Clouds 18 1012 77 10000 2.57 220 11:49 23.06.2022
1438 Clouds 16 1013 81 10000 2.57 220 10:42 23.06.2022
1439 Clouds 15 1013 85 10000 0.51 0 09:19 23.06.2022
1440 Clouds 13 1011 85 10000 2.06 250 05:37 23.06.2022
1441 Clouds 14 1016 88 10000 3.09 250 00:28 23.06.2022
1442 Clouds 15 1016 86 10000 3.6 250 23:59 22.06.2022
1443 Clouds 15 1016 85 10000 3.6 250 23:18 22.06.2022
1444 Clouds 15 1016 82 10000 3.09 280 21:44 22.06.2022
1445 Clouds 15 1016 81 10000 5.14 280 20:51 22.06.2022
1446 Clouds 16 1016 80 10000 5.66 280 20:19 22.06.2022
1447 Clouds 16 1016 77 10000 6.17 270 19:30 22.06.2022
1448 Clouds 17 1014 76 10000 6.17 270 17:33 22.06.2022
1449 Clouds 17 1017 76 10000 5.14 260 16:41 22.06.2022
1450 Clouds 17 1017 76 10000 5.14 260 16:41 22.06.2022
1451 Clouds 17 1017 75 10000 7.2 260 15:28 22.06.2022
1452 Clouds 17 1017 75 10000 6.69 270 14:41 22.06.2022
1453 Clouds 17 1017 76 10000 6.17 250 13:46 22.06.2022
1454 Clouds 16 1017 78 10000 6.17 250 13:24 22.06.2022
1455 Clouds 16 1017 82 10000 5.14 260 11:50 22.06.2022
1456 Clouds 15 1017 81 10000 4.63 270 10:58 22.06.2022
1457 Clouds 15 1017 82 10000 4.63 270 10:36 22.06.2022
1458 Clouds 14 1018 83 10000 4.12 250 08:57 22.06.2022
1459 Clouds 13 1017 85 10000 3.09 250 06:39 22.06.2022
1460 Clouds 14 1018 89 10000 1.03 280 01:52 22.06.2022
1461 Clouds 13 1018 92 10000 2.06 240 00:56 22.06.2022
1462 Clouds 16 1017 85 10000 4.63 220 22:40 21.06.2022
1463 Clouds 18 1017 80 10000 4.63 230 20:40 21.06.2022
1464 Clouds 19 1017 75 10000 6.17 220 19:18 21.06.2022
1465 Clouds 19 1017 75 10000 3.6 290 17:47 21.06.2022
1466 Clouds 18 1017 76 10000 3.6 270 16:36 21.06.2022
1467 Clouds 15 1017 84 10000 2.57 250 11:56 21.06.2022
1468 Clouds 14 1017 87 10000 3.09 240 10:33 21.06.2022
1469 Clouds 14 1016 87 10000 3.6 240 08:54 21.06.2022
1470 Clouds 13 1016 91 10000 3.09 240 07:40 21.06.2022
1471 Clouds 13 1017 93 10000 4.12 240 04:42 21.06.2022
1472 Clouds 14 1019 83 10000 3.6 250 23:45 20.06.2022
1473 Clouds 15 1019 69 10000 4.02 162 22:21 20.06.2022
1474 Clouds 16 1019 70 10000 4.02 148 21:32 20.06.2022
1475 Clouds 17 1019 66 10000 5.66 260 20:27 20.06.2022
1476 Clouds 18 1020 60 10000 6.17 250 19:23 20.06.2022
1477 Clouds 19 1020 59 10000 5.66 250 18:25 20.06.2022
1478 Clouds 19 1020 59 10000 5.66 260 17:44 20.06.2022
1479 Clouds 19 1021 63 10000 5.66 250 16:24 20.06.2022
1480 Clouds 19 1022 57 10000 6.17 250 14:36 20.06.2022
1481 Clouds 16 1023 66 10000 3.09 240 11:47 20.06.2022
1482 Clouds 13 1026 78 10000 2.12 230 09:55 20.06.2022
1483 Clouds 11 1023 83 10000 1.03 0 08:46 20.06.2022
1484 Clouds 9 1023 89 10000 1.03 0 07:36 20.06.2022
1485 Clear 7 1023 89 10000 1.54 260 04:30 20.06.2022
1486 Clear 10 1024 83 10000 1.54 250 01:32 20.06.2022
1487 Clear 12 1023 77 10000 2.57 280 23:48 19.06.2022
1488 Clear 15 1022 69 10000 3.6 290 22:20 19.06.2022
1489 Clear 17 1019 55 10000 3.6 290 21:42 19.06.2022
1490 Clouds 17 1021 62 10000 5.14 290 20:49 19.06.2022
1491 Clouds 17 1021 61 10000 5.14 300 19:49 19.06.2022
1492 Clouds 17 1020 61 10000 5.14 290 19:24 19.06.2022
1493 Clouds 18 1020 62 10000 4.12 300 18:32 19.06.2022
1494 Clouds 18 1020 62 10000 6.17 300 17:42 19.06.2022
1495 Clouds 17 1020 63 10000 5.14 280 16:47 19.06.2022
1496 Clouds 17 1020 63 10000 5.14 280 16:23 19.06.2022
1497 Clouds 17 1019 63 10000 6.17 290 15:29 19.06.2022
1498 Clouds 16 1019 64 10000 5.66 280 14:41 19.06.2022
1499 Clouds 16 1019 66 10000 5.14 290 13:52 19.06.2022
1500 Clouds 14 1019 70 10000 4.12 280 12:19 19.06.2022
1501 Clouds 14 1018 71 10000 5.14 280 10:53 19.06.2022
1502 Clouds 13 1017 74 10000 6.69 300 09:21 19.06.2022
1503 Clouds 12 1017 77 10000 5.14 280 08:32 19.06.2022
1504 Clouds 12 1016 82 10000 4.63 270 07:26 19.06.2022
1505 Clouds 12 1016 82 10000 4.63 270 07:26 19.06.2022
1506 Clouds 11 1016 87 10000 5.14 240 03:57 19.06.2022
1507 Clouds 11 1017 87 10000 6.17 250 00:51 19.06.2022
1508 Clouds 11 1017 85 10000 6.69 250 00:22 19.06.2022
1509 Clouds 11 1018 84 10000 7.2 240 23:35 18.06.2022
1510 Clouds 12 1017 81 10000 8.23 250 22:23 18.06.2022
1511 Clouds 13 1018 78 10000 8.75 250 20:51 18.06.2022
1512 Clouds 13 1018 72 10000 7.72 250 20:18 18.06.2022
1513 Clouds 14 1019 66 10000 8.75 250 18:57 18.06.2022
1514 Clouds 14 1019 66 10000 8.75 250 18:38 18.06.2022
1515 Clouds 14 1019 66 10000 8.75 250 18:38 18.06.2022
1516 Clouds 15 1020 64 10000 10.8 250 17:29 18.06.2022
1517 Clouds 16 1020 61 10000 10.29 250 15:57 18.06.2022
1518 Clouds 15 1020 64 10000 9.26 260 14:54 18.06.2022
1519 Clouds 15 1020 64 10000 9.26 260 14:35 18.06.2022
1520 Clouds 14 1021 72 10000 7.72 250 12:30 18.06.2022
1521 Clouds 13 1021 71 10000 7.2 250 11:20 18.06.2022
1522 Clouds 12 1021 78 10000 5.14 250 09:46 18.06.2022
1523 Clouds 12 1021 79 10000 4.63 240 08:46 18.06.2022
1524 Clouds 11 1021 82 10000 5.66 230 07:34 18.06.2022
1525 Clouds 11 1021 82 10000 5.66 230 07:34 18.06.2022
1526 Clouds 10 1021 83 10000 4.12 220 05:58 18.06.2022
1527 Clouds 10 1021 87 10000 4.12 240 02:51 18.06.2022
1528 Clouds 11 1021 84 10000 5.14 240 01:21 18.06.2022
1529 Clouds 11 1021 80 10000 4.63 220 00:32 18.06.2022
1530 Clouds 11 1022 80 10000 4.63 230 23:37 17.06.2022
1531 Clouds 13 1020 74 10000 4.47 153 22:29 17.06.2022
1532 Clouds 15 1019 72 10000 4.63 250 20:29 17.06.2022
1533 Clouds 15 1018 68 10000 6.17 260 19:24 17.06.2022
1534 Clouds 15 1017 69 10000 6.69 250 17:58 17.06.2022
1535 Clouds 16 1017 75 10000 7.72 260 16:44 17.06.2022
1536 Clouds 15 1017 74 10000 6.17 240 16:25 17.06.2022
1537 Clouds 15 1017 80 10000 4.63 250 15:40 17.06.2022
1538 Clouds 15 1016 90 7000 7.72 240 14:23 17.06.2022
1539 Haze 15 1016 90 4700 8.23 230 13:58 17.06.2022
1540 Haze 15 1016 90 4700 8.23 230 13:58 17.06.2022
1541 Haze 15 1016 90 4700 8.23 230 13:38 17.06.2022
1542 Rain 15 1015 89 7000 7.72 220 12:24 17.06.2022
1543 Rain 14 1015 89 9000 8.23 220 11:55 17.06.2022
1544 Rain 14 1015 89 9000 8.23 220 11:33 17.06.2022
1545 Rain 13 1015 84 10000 1.54 270 08:58 17.06.2022
1546 Rain 13 1015 86 10000 3.6 240 08:25 17.06.2022
1547 Rain 14 1015 87 10000 4.63 190 06:44 17.06.2022
1548 Rain 14 1017 75 10000 1.03 0 03:45 17.06.2022
1549 Clouds 14 1019 84 10000 0.51 0 01:56 17.06.2022
1550 Rain 15 1020 83 7000 1.03 0 23:35 16.06.2022
1551 Rain 16 1021 77 10000 1.54 290 22:42 16.06.2022
1552 Clouds 18 1018 74 10000 2.57 200 21:22 16.06.2022
1553 Clouds 19 1018 63 10000 2.06 190 20:51 16.06.2022
1554 Clouds 19 1018 63 10000 2.06 190 20:32 16.06.2022
1555 Clouds 18 1022 72 10000 4.12 210 19:32 16.06.2022
1556 Clouds 20 1022 68 8000 5.14 230 17:57 16.06.2022
1557 Clouds 20 1023 68 8000 5.14 230 17:35 16.06.2022
1558 Clouds 20 1023 71 10000 1.03 0 16:30 16.06.2022
1559 Clouds 17 1024 84 7000 0.89 202 15:21 16.06.2022
1560 Rain 16 1024 88 10000 2.57 260 14:28 16.06.2022
1561 Clouds 17 1024 74 10000 5.66 210 12:59 16.06.2022
1562 Clouds 17 1024 75 10000 5.66 210 12:35 16.06.2022
1563 Clouds 17 1024 74 10000 4.63 230 11:49 16.06.2022
1564 Clouds 17 1023 76 10000 3.09 210 10:42 16.06.2022
1565 Clouds 16 1023 78 10000 3.6 210 09:43 16.06.2022
1566 Clouds 16 1023 78 10000 3.09 210 09:19 16.06.2022
1567 Clouds 14 1023 86 10000 0.51 0 07:57 16.06.2022
1568 Clouds 13 1023 88 10000 1.03 0 06:49 16.06.2022
1569 Clouds 13 1023 89 10000 1.03 0 04:27 16.06.2022
1570 Clouds 13 1023 86 10000 1.54 250 01:53 16.06.2022
1571 Clouds 13 1023 85 10000 1.54 250 01:32 16.06.2022
1572 Clouds 14 1023 80 10000 3.09 230 00:31 16.06.2022
1573 Clouds 16 1022 72 10000 2.57 240 22:59 15.06.2022
1574 Clouds 16 1022 71 10000 3.13 137 21:59 15.06.2022
1575 Rain 17 1022 71 10000 3.09 230 21:20 15.06.2022
1576 Clouds 17 1022 71 10000 5.14 230 20:38 15.06.2022
1577 Clouds 18 1021 66 10000 4.63 230 20:18 15.06.2022
1578 Clouds 19 1021 53 10000 6.17 220 18:48 15.06.2022
1579 Clouds 20 1021 57 10000 6.17 210 17:54 15.06.2022
1580 Clouds 20 1022 59 10000 5.66 240 16:37 15.06.2022
1581 Clouds 19 1021 62 10000 5.66 230 15:23 15.06.2022
1582 Clouds 19 1022 61 10000 6.17 200 13:37 15.06.2022
1583 Clouds 18 1022 63 10000 5.66 220 12:51 15.06.2022
1584 Clouds 17 1021 63 10000 5.66 200 11:42 15.06.2022
1585 Clouds 16 1022 72 10000 3.09 200 10:23 15.06.2022
1586 Clouds 15 1022 78 10000 1.03 0 09:37 15.06.2022
1587 Clouds 13 1022 86 8000 1.03 290 08:27 15.06.2022
1588 Clouds 11 1021 91 8000 0.51 20 06:33 15.06.2022
1589 Clouds 12 1022 85 10000 3.09 230 03:28 15.06.2022
1590 Clouds 12 1022 80 10000 1.03 260 01:37 15.06.2022
1591 Clouds 13 1022 79 10000 2.24 146 00:41 15.06.2022
1592 Clouds 13 1022 81 10000 0.89 136 23:38 14.06.2022
1593 Clouds 14 1022 78 10000 2.24 142 22:52 14.06.2022
1594 Clouds 15 1021 71 10000 4.12 220 21:53 14.06.2022
1595 Clouds 15 1021 71 10000 4.12 230 21:27 14.06.2022
1596 Clouds 16 1021 70 10000 2.57 240 20:48 14.06.2022
1597 Clouds 16 1022 67 10000 4.12 240 19:59 14.06.2022
1598 Clouds 17 1022 65 10000 4.63 230 18:45 14.06.2022
1599 Clouds 17 1022 66 10000 4.12 190 17:29 14.06.2022
1600 Clouds 16 1022 70 10000 4.63 220 16:43 14.06.2022
1601 Clouds 16 1023 74 10000 4.63 210 15:49 14.06.2022
1602 Clouds 15 1023 76 10000 5.66 220 14:57 14.06.2022
1603 Clouds 14 1023 77 10000 5.14 230 14:19 14.06.2022
1604 Clouds 14 1023 79 10000 5.14 220 13:32 14.06.2022
1605 Clouds 13 1023 80 10000 7.2 200 12:25 14.06.2022
1606 Clouds 13 1023 78 10000 5.66 220 10:59 14.06.2022
1607 Clouds 13 1023 78 10000 5.66 220 10:33 14.06.2022
1608 Clouds 13 1023 81 10000 4.63 220 09:28 14.06.2022
1609 Clouds 13 1023 81 10000 4.63 220 09:28 14.06.2022
1610 Clouds 12 1023 81 10000 4.12 200 08:41 14.06.2022
1611 Clouds 11 1023 86 10000 3.09 200 06:54 14.06.2022
1612 Clouds 11 1024 86 10000 1.03 0 04:28 14.06.2022
1613 Clouds 11 1024 87 10000 2.06 220 01:50 14.06.2022
1614 Clouds 11 1024 88 10000 4.63 230 00:27 14.06.2022
1615 Clouds 12 1024 84 10000 5.66 230 22:59 13.06.2022
1616 Clouds 12 1024 82 10000 6.17 230 22:23 13.06.2022
1617 Clouds 13 1024 82 10000 5.14 240 21:41 13.06.2022
1618 Clouds 12 1024 87 10000 5.66 230 19:59 13.06.2022
1619 Clouds 13 1025 79 10000 6.17 240 19:18 13.06.2022
1620 Clouds 15 1025 74 10000 5.14 260 17:56 13.06.2022
1621 Clouds 15 1025 72 10000 4.63 260 17:27 13.06.2022
1622 Clouds 15 1025 74 10000 5.66 260 16:31 13.06.2022
1623 Clouds 14 1025 79 10000 5.14 240 14:52 13.06.2022
1624 Clouds 14 1025 78 10000 5.14 240 14:32 13.06.2022
1625 Clouds 14 1025 80 10000 4.12 260 13:36 13.06.2022
1626 Clouds 13 1025 84 10000 6.17 260 12:23 13.06.2022
1627 Clouds 13 1025 84 10000 5.66 240 10:56 13.06.2022
1628 Clouds 13 1024 84 10000 5.14 250 10:26 13.06.2022
1629 Clouds 12 1024 86 10000 3.6 240 08:52 13.06.2022
1630 Clouds 11 1021 87 10000 4.12 260 06:37 13.06.2022
1631 Clouds 10 1023 89 10000 4.63 240 05:35 13.06.2022
1632 Clear 9 1023 88 10000 2.57 260 01:55 13.06.2022
1633 Clear 9 1023 88 10000 2.57 260 01:34 13.06.2022
1634 Clouds 10 1022 84 10000 4.12 240 23:49 12.06.2022
1635 Clouds 11 1022 79 10000 4.92 162 22:44 12.06.2022
1636 Clouds 12 1021 76 10000 5.36 160 21:53 12.06.2022
1637 Clouds 13 1021 76 10000 6.26 184 20:53 12.06.2022
1638 Clouds 13 1021 77 10000 8.23 260 19:59 12.06.2022
1639 Clouds 13 1021 80 10000 7.2 260 19:30 12.06.2022
1640 Clouds 14 1020 72 10000 9.26 250 17:40 12.06.2022
1641 Rain 13 1020 82 10000 6.69 260 15:54 12.06.2022
1642 Clouds 14 1020 77 10000 7.2 250 14:51 12.06.2022
1643 Clouds 14 1020 76 10000 7.72 250 14:19 12.06.2022
1644 Clouds 14 1020 75 10000 8.23 250 13:46 12.06.2022
1645 Clouds 12 1020 78 10000 7.2 250 12:31 12.06.2022
1646 Clouds 12 1020 80 10000 8.23 240 11:19 12.06.2022
1647 Clouds 12 1020 80 10000 5.66 240 10:20 12.06.2022
1648 Clouds 11 1019 85 10000 4.63 230 08:51 12.06.2022
1649 Clouds 11 1019 85 10000 6.17 240 08:29 12.06.2022
1650 Clouds 10 1019 86 10000 3.6 220 06:49 12.06.2022
1651 Clouds 11 1019 89 9000 5.66 240 04:26 12.06.2022
1652 Clouds 11 1018 88 6000 8.23 230 02:27 12.06.2022
1653 Clouds 12 1018 86 10000 6.69 240 01:35 12.06.2022
1654 Clouds 12 1018 86 10000 6.17 230 00:48 12.06.2022
1655 Clouds 11 1017 87 10000 6.69 240 00:19 12.06.2022
1656 Clouds 12 1017 86 10000 7.72 230 23:21 11.06.2022
1657 Clouds 12 1017 81 10000 8.23 230 22:37 11.06.2022
1658 Clouds 13 1016 81 10000 9.77 240 21:31 11.06.2022
1659 Clouds 14 1015 79 10000 8.23 250 20:27 11.06.2022
1660 Clouds 14 1015 78 10000 9.26 240 19:36 11.06.2022
1661 Clouds 14 1015 78 10000 9.77 250 18:45 11.06.2022
1662 Clouds 14 1014 79 10000 9.77 250 18:27 11.06.2022
1663 Clouds 14 1014 82 10000 8.75 240 17:48 11.06.2022
1664 Clouds 14 1014 85 10000 6.69 230 17:26 11.06.2022
1665 Clouds 14 1014 85 9000 6.69 240 16:43 11.06.2022
1666 Clouds 14 1014 84 4100 12.35 220 16:18 11.06.2022
1667 Clouds 14 1013 79 10000 9.26 210 14:57 11.06.2022
1668 Clouds 14 1013 81 8000 10.8 220 13:52 11.06.2022
1669 Rain 13 1012 84 7000 10.8 220 12:19 11.06.2022
1670 Rain 13 1012 84 7000 10.8 220 12:19 11.06.2022
1671 Rain 13 1012 82 10000 11.32 210 10:31 11.06.2022
1672 Clouds 13 1011 80 10000 11.32 210 09:41 11.06.2022
1673 Clouds 13 1011 82 9000 11.83 210 08:44 11.06.2022
1674 Rain 13 1011 85 10000 10.29 210 06:33 11.06.2022
1675 Rain 13 1010 84 10000 12.35 210 05:44 11.06.2022
1676 Clouds 14 1010 78 10000 9.77 210 03:18 11.06.2022
1677 Clouds 14 1011 80 10000 6.69 210 01:51 11.06.2022
1678 Clouds 14 1011 80 10000 9.26 220 01:25 11.06.2022
1679 Clouds 14 1011 80 10000 9.26 220 01:25 11.06.2022
1680 Clouds 14 1010 79 10000 7.72 190 23:26 10.06.2022
1681 Clouds 14 1010 82 10000 9.26 200 22:20 10.06.2022
1682 Clouds 15 1010 82 10000 8.23 190 21:44 10.06.2022
1683 Clouds 14 1010 85 10000 9.26 200 20:39 10.06.2022
1684 Clouds 15 1010 79 10000 9.77 210 20:19 10.06.2022
1685 Clouds 15 1010 79 10000 9.77 210 20:19 10.06.2022
1686 Clouds 17 1010 74 10000 10.29 200 19:19 10.06.2022
1687 Clouds 17 1010 75 10000 9.77 200 18:32 10.06.2022
1688 Clouds 16 1011 79 10000 7.72 210 17:50 10.06.2022
1689 Clouds 14 1008 83 8000 10.29 200 17:21 10.06.2022
1690 Clouds 17 1010 69 10000 11.32 200 16:26 10.06.2022
1691 Clouds 19 1010 63 10000 11.32 200 15:38 10.06.2022
1692 Clouds 18 1012 63 10000 9.77 200 13:58 10.06.2022
1693 Clouds 17 1012 68 10000 10.29 210 12:51 10.06.2022
1694 Clouds 16 1012 66 10000 11.32 220 11:53 10.06.2022
1695 Clouds 16 1011 71 10000 12.35 220 10:45 10.06.2022
1696 Clouds 15 1012 73 10000 8.75 210 09:55 10.06.2022
1697 Clouds 14 1011 77 10000 7.72 210 08:44 10.06.2022
1698 Clouds 13 1011 81 10000 3.09 210 07:30 10.06.2022
1699 Clouds 12 1011 81 10000 1.54 240 06:45 10.06.2022
1700 Clear 12 1011 83 10000 3.6 190 06:26 10.06.2022
1701 Clouds 12 1011 87 10000 3.6 210 03:56 10.06.2022
1702 Clouds 14 1011 84 10000 3.6 190 01:42 10.06.2022
1703 Clouds 14 1011 87 10000 2.06 210 00:32 10.06.2022
1704 Clouds 15 1011 84 10000 2.06 240 23:47 09.06.2022
1705 Clouds 15 1010 81 10000 3.09 160 22:18 09.06.2022
1706 Clouds 15 1010 79 10000 4.63 190 21:33 09.06.2022
1707 Clouds 16 1010 78 10000 5.66 190 20:54 09.06.2022
1708 Clouds 16 1007 72 10000 4.63 190 20:21 09.06.2022
1709 Clouds 15 1011 85 10000 3.6 170 19:21 09.06.2022
1710 Clouds 15 1011 83 10000 4.63 160 18:28 09.06.2022
1711 Clouds 15 1012 77 10000 6.17 190 16:51 09.06.2022
1712 Clouds 16 1012 69 10000 6.69 200 15:48 09.06.2022
1713 Clouds 17 1012 64 10000 6.17 200 14:35 09.06.2022
1714 Clouds 17 1012 66 10000 5.14 200 13:54 09.06.2022
1715 Clouds 17 1012 65 10000 6.69 220 13:27 09.06.2022
1716 Clouds 15 1012 80 10000 7.2 210 11:54 09.06.2022
1717 Clouds 14 1012 84 10000 5.66 210 11:18 09.06.2022
1718 Clouds 13 1011 88 10000 4.63 210 09:43 09.06.2022
1719 Clouds 13 1011 90 8000 4.12 210 09:23 09.06.2022
1720 Clouds 13 1010 91 10000 5.14 240 07:45 09.06.2022
1721 Clouds 13 1010 91 10000 5.14 240 07:45 09.06.2022
1722 Clouds 12 1009 94 10000 2.06 210 06:28 09.06.2022
1723 Clouds 12 1008 94 3000 5.36 291 02:38 09.06.2022
1724 Clouds 12 1007 91 10000 5.36 308 23:36 08.06.2022
1725 Clouds 12 1007 91 9000 4.92 311 22:58 08.06.2022
1726 Clouds 12 1006 93 10000 4.12 70 22:26 08.06.2022
1727 Clouds 13 1006 90 6000 4.12 70 21:52 08.06.2022
1728 Rain 13 1006 87 10000 4.63 70 20:59 08.06.2022
1729 Clouds 14 1005 86 10000 4.63 60 20:20 08.06.2022
1730 Clouds 14 1005 87 10000 5.14 60 19:38 08.06.2022
1731 Clouds 14 1005 88 10000 5.14 60 18:43 08.06.2022
1732 Clouds 13 1004 90 10000 4.63 60 16:54 08.06.2022
1733 Rain 13 1003 87 10000 7.72 70 15:44 08.06.2022
1734 Clouds 13 1003 90 7000 6.17 70 13:44 08.06.2022
1735 Clouds 11 1003 91 2700 6.17 80 11:51 08.06.2022
1736 Rain 11 1003 91 7000 6.69 70 11:26 08.06.2022
1737 Clouds 11 1003 91 9000 7.72 70 09:48 08.06.2022
1738 Rain 11 1003 91 8000 6.69 70 09:20 08.06.2022
1739 Rain 10 1004 90 8000 6.69 70 08:18 08.06.2022
1740 Rain 10 1005 93 10000 6.17 70 05:47 08.06.2022
1741 Rain 11 1007 90 10000 5.66 70 03:20 08.06.2022
1742 Clouds 12 1009 86 10000 6.17 70 00:28 08.06.2022
1743 Clouds 13 1009 79 10000 6.69 70 23:25 07.06.2022
1744 Clouds 13 1009 78 10000 6.17 70 22:42 07.06.2022
1745 Clouds 15 1009 72 10000 6.71 304 22:20 07.06.2022
1746 Clouds 16 1009 68 10000 7.72 70 21:28 07.06.2022
1747 Clouds 17 1010 69 10000 6.69 70 20:52 07.06.2022
1748 Clouds 17 1010 70 10000 6.17 70 20:31 07.06.2022
1749 Clouds 17 1010 70 10000 6.26 305 19:24 07.06.2022
1750 Clouds 18 1011 67 10000 7.2 60 18:19 07.06.2022
1751 Clouds 19 1012 66 10000 6.69 40 17:21 07.06.2022
1752 Clouds 18 1012 67 10000 5.81 287 16:41 07.06.2022
1753 Clouds 18 1013 65 10000 4.63 50 15:43 07.06.2022
1754 Clouds 18 1014 66 10000 4.12 60 15:23 07.06.2022
1755 Clouds 17 1014 65 10000 3.58 321 14:46 07.06.2022
1756 Clouds 16 1015 69 10000 4.12 60 13:58 07.06.2022
1757 Clouds 15 1015 69 10000 4.63 90 13:29 07.06.2022
1758 Clouds 15 1015 71 10000 3.13 311 12:44 07.06.2022
1759 Clouds 13 1016 73 10000 5.14 80 11:22 07.06.2022
1760 Clouds 12 1016 72 10000 5.14 90 10:19 07.06.2022
1761 Clouds 10 1017 82 10000 2.06 40 08:36 07.06.2022
1762 Clouds 9 1017 85 10000 1.54 40 07:22 07.06.2022
1763 Clouds 9 1014 82 10000 2.06 20 05:56 07.06.2022
1764 Clouds 11 1018 75 10000 3.6 50 02:48 07.06.2022
1765 Clouds 13 1018 72 10000 4.63 100 00:35 07.06.2022
1766 Clouds 13 1018 75 10000 3.6 110 23:34 06.06.2022
1767 Clouds 14 1018 72 10000 4.63 80 22:41 06.06.2022
1768 Clouds 15 1018 72 10000 5.14 80 21:41 06.06.2022
1769 Clouds 16 1017 69 10000 5.14 60 19:59 06.06.2022
1770 Clouds 17 1017 68 10000 5.14 70 19:21 06.06.2022
1771 Clouds 18 1017 66 10000 3.58 310 18:38 06.06.2022
1772 Clouds 19 1017 63 10000 2.68 322 17:51 06.06.2022
1773 Clouds 19 1018 61 10000 2.06 0 16:39 06.06.2022
1774 Clouds 18 1018 63 10000 2.57 70 15:40 06.06.2022
1775 Clouds 17 1018 65 10000 2.24 4 14:40 06.06.2022
1776 Clouds 16 1019 70 10000 2.06 60 13:27 06.06.2022
1777 Clouds 15 1019 71 10000 2.57 70 12:38 06.06.2022
1778 Clouds 14 1019 73 10000 2.68 298 12:19 06.06.2022
1779 Clouds 15 1016 73 10000 3.09 70 11:42 06.06.2022
1780 Clouds 12 1020 78 10000 2.57 70 09:41 06.06.2022
1781 Clouds 11 1020 84 10000 0.51 0 08:35 06.06.2022
1782 Clouds 9 1020 91 10000 1.03 260 07:40 06.06.2022
1783 Fog 7 1020 94 10000 1.03 310 05:34 06.06.2022
1784 Clouds 9 1021 93 10000 2.57 80 03:47 06.06.2022
1785 Clouds 10 1022 89 10000 3.6 50 01:29 06.06.2022
1786 Clouds 10 1022 85 10000 3.6 90 00:43 06.06.2022
1787 Clouds 10 1022 83 10000 4.12 50 23:50 05.06.2022
1788 Clouds 12 1022 77 10000 4.63 50 22:53 05.06.2022
1789 Clouds 15 1019 72 10000 5.66 60 21:26 05.06.2022
1790 Clouds 16 1022 68 10000 7.2 70 19:52 05.06.2022
1791 Clouds 17 1022 68 10000 6.69 60 18:31 05.06.2022
1792 Clouds 17 1022 66 10000 6.17 70 17:56 05.06.2022
1793 Clouds 18 1022 64 10000 6.17 80 17:27 05.06.2022
1794 Clouds 18 1022 64 10000 6.69 60 16:58 05.06.2022
1795 Clouds 18 1022 64 10000 6.69 60 16:37 05.06.2022
1796 Clouds 18 1022 64 10000 6.69 60 16:37 05.06.2022
1797 Clouds 16 1023 67 10000 6.17 60 14:46 05.06.2022
1798 Clouds 16 1024 67 10000 6.69 80 13:21 05.06.2022
1799 Clouds 14 1024 71 10000 7.2 60 11:51 05.06.2022
1800 Clouds 13 1025 71 10000 5.81 287 10:43 05.06.2022
1801 Clouds 12 1025 75 10000 7.2 80 10:22 05.06.2022
1802 Clouds 10 1025 83 10000 6.69 60 08:40 05.06.2022
1803 Clouds 9 1026 88 10000 6.17 70 08:20 05.06.2022
1804 Clear 8 1026 88 10000 3.09 70 05:23 05.06.2022
1805 Clear 8 1026 87 10000 2.06 80 04:30 05.06.2022
1806 Clear 10 1024 76 10000 2.57 90 01:33 05.06.2022
1807 Clear 11 1024 66 10000 4.12 60 00:52 05.06.2022
1808 Clear 15 1024 51 10000 5.14 80 22:43 04.06.2022
1809 Clear 18 1027 46 10000 7.2 40 20:42 04.06.2022
1810 Clear 20 1027 47 10000 6.17 50 18:51 04.06.2022
1811 Clear 20 1028 43 10000 7.72 60 16:47 04.06.2022
1812 Clear 20 1028 44 10000 7.2 60 16:18 04.06.2022
1813 Clear 19 1029 51 10000 5.81 292 14:54 04.06.2022
1814 Clear 18 1029 60 10000 4.12 80 13:37 04.06.2022
1815 Clouds 13 1030 72 10000 4.12 60 11:22 04.06.2022
1816 Clouds 13 1031 74 10000 3.6 60 10:49 04.06.2022
1817 Clouds 12 1031 78 10000 4.63 70 09:45 04.06.2022
1818 Clouds 10 1031 81 10000 4.63 50 08:43 04.06.2022
1819 Clouds 9 1031 83 10000 3.6 60 07:42 04.06.2022
1820 Clouds 9 1028 83 10000 3.09 50 05:30 04.06.2022
1821 Clear 8 1031 89 10000 2.06 50 02:20 04.06.2022
1822 Clear 9 1030 84 10000 4.12 60 00:19 04.06.2022
1823 Clear 12 1026 77 10000 6.17 70 22:40 03.06.2022
1824 Clear 13 1028 73 10000 5.14 70 21:39 03.06.2022
1825 Clear 15 1028 68 10000 5.66 60 20:37 03.06.2022
1826 Clear 15 1028 68 10000 5.66 60 20:37 03.06.2022
1827 Clouds 17 1027 60 10000 6.17 80 18:41 03.06.2022
1828 Clouds 16 1027 69 10000 6.69 80 16:49 03.06.2022
1829 Clouds 14 1027 76 10000 5.66 70 15:37 03.06.2022
1830 Clouds 13 1024 83 10000 6.69 70 13:48 03.06.2022
1831 Clouds 12 1026 83 10000 5.66 70 11:50 03.06.2022
1832 Clouds 11 1025 83 10000 7.2 60 09:50 03.06.2022
1833 Clouds 11 1025 85 10000 7.2 60 09:50 03.06.2022
1834 Clouds 11 1025 83 10000 5.66 60 09:28 03.06.2022
1835 Clouds 11 1025 89 10000 4.12 60 07:27 03.06.2022
1836 Clouds 11 1021 92 10000 5.14 60 06:39 03.06.2022
1837 Clouds 11 1021 93 9000 5.66 60 06:20 03.06.2022
1838 Clouds 12 1020 78 10000 3.6 70 00:41 03.06.2022
1839 Clouds 15 1019 58 10000 2.06 0 22:48 02.06.2022
1840 Clouds 17 1018 51 10000 3.09 130 21:57 02.06.2022
1841 Clouds 18 1021 53 10000 1.54 0 20:22 02.06.2022
1842 Clouds 18 1021 53 10000 1.03 0 19:50 02.06.2022
1843 Clouds 17 1021 54 10000 1.03 0 19:32 02.06.2022
1844 Clouds 17 1022 62 10000 2.24 160 17:35 02.06.2022
1845 Clouds 17 1022 62 10000 3.6 230 16:28 02.06.2022
1846 Clouds 17 1022 59 10000 2.06 270 14:22 02.06.2022
1847 Clouds 16 1022 62 10000 1.54 330 13:30 02.06.2022
1848 Clouds 16 1022 62 10000 1.54 330 13:30 02.06.2022
1849 Clouds 16 1022 68 10000 1.34 222 12:21 02.06.2022
1850 Clouds 13 1022 76 10000 1.03 0 10:20 02.06.2022
1851 Clouds 11 1022 83 10000 1.03 0 09:28 02.06.2022
1852 Clouds 10 1022 88 10000 0.89 166 08:27 02.06.2022
1853 Clouds 8 1022 90 10000 0.51 0 07:33 02.06.2022
1854 Fog 6 1022 95 10000 1.03 240 04:54 02.06.2022
1855 Clear 8 1022 91 10000 2.57 260 02:48 02.06.2022
1856 Clouds 9 1019 81 10000 3.09 240 23:52 01.06.2022
1857 Clouds 13 1019 71 10000 2.06 270 22:51 01.06.2022
1858 Clouds 15 1021 61 10000 2.57 260 21:37 01.06.2022
1859 Clouds 15 1021 66 10000 2.57 250 20:59 01.06.2022
1860 Clouds 16 1021 63 10000 3.6 260 20:37 01.06.2022
1861 Clouds 17 1021 60 10000 1.34 143 19:28 01.06.2022
1862 Clouds 16 1021 60 10000 1.79 216 17:46 01.06.2022
1863 Clouds 17 1022 59 10000 1.54 0 16:40 01.06.2022
1864 Clouds 15 1021 65 10000 0.89 306 14:59 01.06.2022
1865 Clouds 14 1021 66 10000 2.06 330 13:53 01.06.2022
1866 Clouds 14 1018 66 10000 1.03 0 12:28 01.06.2022
1867 Clouds 12 1020 75 10000 1.03 0 09:48 01.06.2022
1868 Clouds 10 1020 88 10000 1.03 0 08:53 01.06.2022
1869 Clouds 7 1016 92 6000 1.03 220 07:25 01.06.2022
1870 Clouds 6 1019 93 9000 2.06 260 06:30 01.06.2022
1871 Clouds 9 1018 89 10000 0.89 338 00:48 01.06.2022
1872 Clouds 9 1017 88 10000 0.51 0 23:30 31.05.2022
1873 Clouds 9 1017 88 10000 0.51 0 23:30 31.05.2022
1874 Clouds 10 1016 87 10000 1.03 0 22:37 31.05.2022
1875 Clouds 11 1016 84 10000 1.54 50 21:46 31.05.2022
1876 Clouds 11 1016 84 10000 3.6 30 20:45 31.05.2022
1877 Clouds 11 1015 85 10000 4.63 30 20:20 31.05.2022
1878 Clouds 12 1015 77 10000 3.6 30 18:53 31.05.2022
1879 Clouds 12 1015 75 10000 4.63 270 17:50 31.05.2022
1880 Clouds 13 1015 68 10000 5.14 290 16:57 31.05.2022
1881 Clouds 13 1014 68 10000 3.6 300 15:41 31.05.2022
1882 Clouds 13 1014 65 10000 1.03 0 14:18 31.05.2022
1883 Clouds 12 1014 74 10000 0.89 163 12:20 31.05.2022
1884 Clouds 11 1015 77 10000 1.54 60 10:55 31.05.2022
1885 Clouds 10 1015 82 10000 3.09 80 09:31 31.05.2022
1886 Clouds 8 1014 90 10000 2.06 80 07:25 31.05.2022
1887 Clouds 7 1014 91 10000 2.24 313 05:20 31.05.2022
1888 Clouds 8 1014 93 10000 1.54 70 00:52 31.05.2022
1889 Clouds 9 1013 90 10000 2.06 80 23:27 30.05.2022
1890 Rain 9 1013 88 7000 2.06 110 22:56 30.05.2022
1891 Rain 10 1012 81 10000 2.06 260 21:52 30.05.2022
1892 Rain 10 1012 81 10000 2.06 260 21:32 30.05.2022
1893 Clouds 11 1012 79 10000 3.09 260 20:20 30.05.2022
1894 Clouds 12 1009 69 10000 1.03 0 18:41 30.05.2022
1895 Clouds 12 1012 70 10000 4.63 30 17:36 30.05.2022
1896 Clouds 14 1012 68 10000 4.47 269 16:41 30.05.2022
1897 Clouds 13 1012 58 10000 1.34 355 14:49 30.05.2022
1898 Clouds 12 1010 62 10000 1.03 0 12:24 30.05.2022
1899 Clouds 11 1014 73 10000 0.89 210 10:41 30.05.2022
1900 Clouds 9 1014 84 10000 1.54 210 09:21 30.05.2022
1901 Clouds 8 1014 92 10000 1.54 270 07:18 30.05.2022
1902 Clouds 8 1015 87 10000 0.51 220 05:48 30.05.2022
1903 Clouds 9 1015 81 10000 2.57 260 01:48 30.05.2022
1904 Clouds 10 1019 77 10000 3.09 270 23:19 29.05.2022
1905 Clouds 10 1019 76 10000 2.57 270 22:37 29.05.2022
1906 Clouds 13 1020 69 10000 6.69 290 20:55 29.05.2022
1907 Clouds 13 1020 65 10000 7.2 290 19:33 29.05.2022
1908 Clouds 14 1021 60 10000 4.63 300 18:53 29.05.2022
1909 Clouds 14 1022 56 10000 3.09 270 17:31 29.05.2022
1910 Clouds 14 1023 55 10000 3.13 168 15:48 29.05.2022
1911 Clouds 13 1025 56 10000 2.06 250 14:58 29.05.2022
1912 Clouds 13 1025 57 10000 2.57 310 13:53 29.05.2022
1913 Clouds 12 1027 61 10000 3.09 80 11:41 29.05.2022
1914 Clear 11 1027 65 10000 3.09 30 10:38 29.05.2022
1915 Clear 9 1028 68 10000 2.68 300 08:51 29.05.2022
1916 Clouds 7 1028 77 10000 2.57 50 05:54 29.05.2022
1917 Clouds 8 1028 77 10000 3.13 298 04:44 29.05.2022
1918 Clouds 9 1029 76 10000 4.63 60 03:41 29.05.2022
1919 Clouds 11 1028 65 10000 5.14 30 23:49 28.05.2022
1920 Clouds 12 1028 65 10000 3.6 40 23:26 28.05.2022
1921 Clouds 13 1025 58 10000 2.06 20 22:35 28.05.2022
1922 Clouds 14 1028 56 10000 2.57 40 21:38 28.05.2022
1923 Clouds 17 1025 48 10000 1.54 360 19:41 28.05.2022
1924 Clouds 17 1028 48 10000 3.09 300 18:47 28.05.2022
1925 Clouds 17 1028 55 10000 3.09 330 17:36 28.05.2022
1926 Clouds 17 1029 54 10000 3.6 290 16:37 28.05.2022
1927 Clouds 16 1029 57 10000 3.09 280 15:39 28.05.2022
1928 Clouds 16 1030 59 10000 2.57 300 14:18 28.05.2022
1929 Clouds 15 1030 64 10000 3.6 310 12:44 28.05.2022
1930 Clouds 14 1030 67 10000 3.09 270 12:18 28.05.2022
1931 Clouds 13 1030 72 10000 3.6 290 10:51 28.05.2022
1932 Clouds 12 1030 75 10000 4.12 290 09:57 28.05.2022
1933 Clouds 10 1030 84 10000 2.57 260 08:45 28.05.2022
1934 Clouds 8 1030 89 10000 2.57 230 07:23 28.05.2022
1935 Clouds 8 1030 86 10000 3.09 260 05:28 28.05.2022
1936 Clouds 9 1030 85 10000 3.6 290 02:43 28.05.2022
1937 Clouds 9 1030 85 10000 3.6 250 00:32 28.05.2022
1938 Clouds 10 1029 81 10000 4.63 270 22:51 27.05.2022
1939 Clouds 12 1028 76 10000 5.14 240 21:43 27.05.2022
1940 Clouds 12 1028 72 10000 5.81 185 20:49 27.05.2022
1941 Clouds 13 1028 70 10000 6.26 170 20:23 27.05.2022
1942 Clouds 13 1027 70 10000 6.17 280 19:41 27.05.2022
1943 Clouds 13 1027 68 10000 8.23 290 19:21 27.05.2022
1944 Clouds 13 1026 70 10000 9.26 280 17:52 27.05.2022
1945 Clouds 14 1027 67 10000 9.26 270 16:38 27.05.2022
1946 Clouds 14 1025 67 10000 8.94 149 15:22 27.05.2022
1947 Clouds 13 1025 73 10000 6.71 155 13:44 27.05.2022
1948 Clouds 12 1024 74 10000 8.75 260 12:35 27.05.2022
1949 Clouds 13 1024 70 10000 7.2 270 11:33 27.05.2022
1950 Clouds 12 1023 72 10000 9.77 270 10:52 27.05.2022
1951 Clouds 12 1023 73 10000 9.26 270 10:22 27.05.2022
1952 Clouds 11 1022 78 10000 9.26 270 09:31 27.05.2022
1953 Clouds 10 1021 80 10000 6.69 260 07:41 27.05.2022
1954 Clouds 9 1020 86 10000 3.09 260 05:27 27.05.2022
1955 Clouds 9 1020 84 10000 7.2 250 01:47 27.05.2022
1956 Clouds 8 1020 85 10000 6.17 250 23:55 26.05.2022
1957 Clouds 10 1019 79 10000 7.2 250 22:29 26.05.2022
1958 Clouds 11 1019 71 10000 5.81 153 21:33 26.05.2022
1959 Clouds 12 1015 65 10000 8.23 260 19:49 26.05.2022
1960 Clouds 13 1018 66 10000 8.23 260 19:18 26.05.2022
1961 Clouds 13 1015 63 10000 8.23 260 19:18 26.05.2022
1962 Clouds 12 1017 67 10000 10.29 260 17:36 26.05.2022
1963 Clouds 13 1017 69 10000 9.77 260 16:35 26.05.2022
1964 Rain 11 1014 75 6000 9.77 260 15:34 26.05.2022
1965 Clouds 14 1015 68 10000 9.39 125 14:21 26.05.2022
1966 Clouds 13 1015 71 10000 8.75 250 12:20 26.05.2022
1967 Clouds 13 1014 82 10000 7.72 240 11:21 26.05.2022
1968 Rain 11 1014 87 8000 5.14 230 09:39 26.05.2022
1969 Clouds 10 1014 89 7000 4.12 250 08:51 26.05.2022
1970 Clouds 9 1014 88 10000 6.69 240 06:51 26.05.2022
1971 Clouds 9 1014 86 10000 6.17 250 02:59 26.05.2022
1972 Clouds 10 1013 83 10000 8.23 240 00:20 26.05.2022
1973 Clouds 10 1013 81 10000 8.75 240 23:19 25.05.2022
1974 Clouds 11 1012 79 10000 6.17 250 21:46 25.05.2022
1975 Clouds 12 1011 76 10000 10.29 240 20:53 25.05.2022
1976 Clouds 13 1010 65 10000 8.75 250 19:59 25.05.2022
1977 Clouds 13 1009 72 10000 9.77 260 18:48 25.05.2022
1978 Clouds 14 1008 67 10000 11.32 260 17:26 25.05.2022
1979 Clouds 13 1007 71 10000 8.75 260 16:35 25.05.2022
1980 Clouds 13 1007 72 10000 9.77 270 15:49 25.05.2022
1981 Clouds 14 1005 76 10000 10.29 250 14:51 25.05.2022
1982 Clouds 14 1005 75 10000 7.72 250 14:32 25.05.2022
1983 Clouds 14 1004 77 7000 9.77 250 13:27 25.05.2022
1984 Clouds 13 1005 82 10000 6.24 256 11:51 25.05.2022
1985 Clouds 12 1002 89 10000 9.26 230 10:42 25.05.2022
1986 Clouds 11 1002 89 4100 9.26 210 09:46 25.05.2022
1987 Clouds 11 1005 88 8208 6.02 207 08:21 25.05.2022
1988 Clouds 10 1004 83 7000 5.66 190 05:57 25.05.2022
1989 Clouds 10 1006 87 10000 4.12 210 02:44 25.05.2022
1990 Clouds 9 1007 86 10000 4.12 220 23:52 24.05.2022
1991 Clouds 10 1007 83 10000 3.6 230 23:23 24.05.2022
1992 Clouds 11 1007 76 10000 2.68 132 22:18 24.05.2022
1993 Clouds 12 1007 77 10000 4.02 133 21:38 24.05.2022
1994 Clouds 13 1007 71 10000 6.69 260 21:19 24.05.2022
1995 Clouds 14 1006 72 10000 8.23 250 19:28 24.05.2022
1996 Clouds 14 1006 70 10000 8.23 260 18:38 24.05.2022
1997 Clouds 14 1006 74 10000 4.63 260 16:40 24.05.2022
1998 Clouds 15 1005 68 10000 7.2 250 15:54 24.05.2022
1999 Clouds 15 1005 68 10000 6.17 250 14:45 24.05.2022
2000 Clouds 14 1004 67 10000 6.69 250 13:48 24.05.2022
2001 Clouds 13 1004 75 10000 5.66 260 12:31 24.05.2022
2002 Clouds 12 1004 77 10000 3.13 122 09:52 24.05.2022
2003 Clouds 10 1004 84 10000 2.57 260 08:57 24.05.2022
2004 Clouds 10 1004 84 10000 2.57 260 08:38 24.05.2022
2005 Clouds 8 1003 89 10000 2.57 220 06:41 24.05.2022
2006 Clouds 8 1003 92 10000 3.6 240 03:48 24.05.2022
2007 Clouds 8 1003 86 10000 3.09 240 01:47 24.05.2022
2008 Clouds 9 1003 86 10000 2.57 240 00:53 24.05.2022
2009 Clouds 11 1002 75 10000 4.63 280 22:25 23.05.2022
2010 Clouds 12 1002 76 10000 5.14 290 21:53 23.05.2022
2011 Clouds 13 1002 70 10000 6.17 300 20:53 23.05.2022
2012 Clouds 13 1002 72 10000 5.66 290 20:21 23.05.2022
2013 Clouds 14 1002 69 10000 6.17 290 19:30 23.05.2022
2014 Clouds 14 1002 68 10000 5.14 310 18:41 23.05.2022
2015 Clouds 14 1002 68 10000 5.66 270 18:22 23.05.2022
2016 Clouds 14 1002 68 10000 6.69 290 16:46 23.05.2022
2017 Clouds 14 1002 65 10000 6.69 260 14:44 23.05.2022
2018 Rain 13 1002 75 10000 7.2 260 11:58 23.05.2022
2019 Clouds 13 1003 74 10000 6.17 260 11:20 23.05.2022
2020 Clouds 12 1003 85 10000 5.66 220 09:48 23.05.2022
2021 Clouds 11 1003 88 10000 5.14 220 08:50 23.05.2022
2022 Clouds 11 1003 86 10000 3.6 200 07:41 23.05.2022
2023 Clouds 10 1003 87 10000 2.06 180 06:41 23.05.2022
2024 Clouds 9 1004 92 10000 2.06 220 04:40 23.05.2022
2025 Clouds 10 1005 89 10000 1.54 20 02:19 23.05.2022
2026 Clouds 10 1005 90 10000 0.51 0 01:33 23.05.2022
2027 Clouds 10 1006 89 10000 1.54 250 23:42 22.05.2022
2028 Clouds 11 1006 88 10000 2.06 230 22:34 22.05.2022
2029 Rain 12 1005 89 10000 6.17 230 21:54 22.05.2022
2030 Clouds 13 1005 89 10000 5.66 200 20:51 22.05.2022
2031 Clouds 13 1006 89 10000 7.2 210 20:23 22.05.2022
2032 Rain 14 1006 78 10000 6.17 210 19:42 22.05.2022
2033 Clouds 16 1006 75 10000 8.23 220 18:52 22.05.2022
2034 Clouds 16 1006 72 10000 8.75 210 18:22 22.05.2022
2035 Clouds 17 1007 70 10000 9.26 210 17:26 22.05.2022
2036 Clouds 16 1008 71 10000 8.23 210 15:59 22.05.2022
2037 Clouds 16 1009 75 10000 7.72 210 14:48 22.05.2022
2038 Clouds 15 1009 75 10000 6.69 210 13:27 22.05.2022
2039 Clouds 15 1010 75 10000 8.23 210 12:50 22.05.2022
2040 Clouds 15 1010 78 10000 6.17 210 11:32 22.05.2022
2041 Clouds 13 1011 85 10000 5.66 190 09:41 22.05.2022
2042 Clouds 13 1012 84 10000 3.6 170 08:21 22.05.2022
2043 Clouds 13 1012 86 10000 4.12 190 07:21 22.05.2022
2044 Clouds 12 1013 88 10000 4.12 200 05:22 22.05.2022
2045 Clouds 13 1015 86 10000 4.63 200 01:26 22.05.2022
2046 Clouds 13 1016 87 10000 3.6 180 00:39 22.05.2022
2047 Clouds 13 1016 84 10000 2.57 170 23:50 21.05.2022
2048 Rain 14 1016 79 10000 3.09 190 22:26 21.05.2022
2049 Rain 13 1017 83 10000 1.03 0 21:41 21.05.2022
2050 Clouds 13 1017 80 10000 3.6 230 20:51 21.05.2022
2051 Rain 14 1017 78 10000 2.57 240 20:21 21.05.2022
2052 Clouds 14 1017 73 10000 5.66 220 19:25 21.05.2022
2053 Clouds 15 1018 71 10000 7.2 230 17:47 21.05.2022
2054 Clouds 14 1019 79 10000 7.72 220 15:44 21.05.2022
2055 Clouds 12 1019 85 10000 7.2 210 14:37 21.05.2022
2056 Rain 12 1019 83 6000 6.17 200 13:41 21.05.2022
2057 Clouds 12 1019 78 10000 8.23 220 12:41 21.05.2022
2058 Rain 13 1019 76 10000 9.26 210 11:56 21.05.2022
2059 Clouds 13 1018 73 10000 6.17 210 10:22 21.05.2022
2060 Clouds 13 1018 78 10000 4.63 220 09:38 21.05.2022
2061 Clouds 11 1018 81 10000 5.14 250 08:47 21.05.2022
2062 Clouds 10 1019 84 10000 4.51 256 06:22 21.05.2022
2063 Clouds 10 1015 84 10000 5.14 240 02:26 21.05.2022
2064 Clouds 11 1014 87 10000 5.14 240 23:47 20.05.2022
2065 Clouds 11 1013 87 10000 5.66 240 22:42 20.05.2022
2066 Clouds 11 1013 85 10000 6.69 230 22:22 20.05.2022
2067 Clouds 12 1013 85 10000 5.14 230 21:32 20.05.2022
2068 Clouds 13 1012 81 10000 5.66 260 20:53 20.05.2022
2069 Clouds 12 1012 83 10000 3.6 240 19:56 20.05.2022
2070 Rain 12 1012 90 5000 7.2 230 18:59 20.05.2022
2071 Rain 13 1011 89 8000 8.75 210 18:27 20.05.2022
2072 Rain 13 1012 84 8000 7.2 190 16:50 20.05.2022
2073 Rain 15 1012 75 10000 7.2 220 15:55 20.05.2022
2074 Clouds 15 1012 76 10000 7.2 220 15:32 20.05.2022
2075 Clouds 16 1013 67 10000 6.69 200 14:28 20.05.2022
2076 Clouds 16 1013 64 10000 6.69 190 13:44 20.05.2022
2077 Clouds 14 1015 69 10000 6.69 190 10:56 20.05.2022
2078 Clouds 14 1016 74 10000 7.72 180 09:50 20.05.2022
2079 Clouds 12 1016 81 10000 7.2 180 08:38 20.05.2022
2080 Clouds 11 1017 85 10000 6.17 180 06:45 20.05.2022
2081 Clouds 10 1017 85 10000 3.09 210 05:53 20.05.2022
2082 Clouds 11 1018 83 10000 2.06 360 02:53 20.05.2022
2083 Clouds 12 1018 79 10000 4.63 200 23:47 19.05.2022
2084 Clouds 13 1018 75 10000 4.63 180 22:39 19.05.2022
2085 Clouds 14 1018 69 10000 6.69 190 21:52 19.05.2022
2086 Clouds 15 1018 66 10000 7.2 190 21:24 19.05.2022
2087 Clouds 15 1018 66 10000 7.2 190 20:53 19.05.2022
2088 Clouds 16 1017 66 10000 9.26 200 19:57 19.05.2022
2089 Clouds 16 1017 64 10000 8.75 220 19:19 19.05.2022
2090 Clouds 17 1018 52 10000 9.26 210 17:47 19.05.2022
2091 Clouds 17 1018 56 10000 8.75 210 16:22 19.05.2022
2092 Clouds 16 1018 58 10000 9.26 220 14:50 19.05.2022
2093 Clouds 16 1018 60 10000 8.23 210 14:21 19.05.2022
2094 Clouds 16 1018 60 10000 8.23 210 14:21 19.05.2022
2095 Clouds 14 1017 69 10000 8.23 220 12:19 19.05.2022
2096 Clouds 13 1017 78 10000 7.2 210 10:31 19.05.2022
2097 Clouds 11 1016 82 10000 6.69 220 08:46 19.05.2022
2098 Clouds 10 1015 87 10000 4.63 220 07:24 19.05.2022
2099 Clouds 11 1013 86 10000 5.14 210 04:23 19.05.2022
2100 Clouds 12 1012 83 10000 10.8 200 01:28 19.05.2022
2101 Clouds 15 1012 71 10000 4.12 150 23:43 18.05.2022
2102 Clouds 15 1013 67 10000 4.63 130 22:44 18.05.2022
2103 Clouds 15 1013 66 10000 4.63 130 21:45 18.05.2022
2104 Clouds 15 1014 65 10000 4.63 140 21:23 18.05.2022
2105 Clouds 16 1015 60 10000 7.72 180 20:22 18.05.2022
2106 Clouds 17 1015 59 10000 5.66 170 19:18 18.05.2022
2107 Clouds 16 1016 62 10000 8.75 180 18:18 18.05.2022
2108 Clouds 17 1016 59 10000 8.75 180 17:40 18.05.2022
2109 Clouds 17 1017 59 10000 7.72 200 17:22 18.05.2022
2110 Clouds 18 1017 60 10000 7.72 190 15:58 18.05.2022
2111 Clouds 18 1017 61 10000 7.72 190 15:35 18.05.2022
2112 Clouds 17 1017 62 10000 7.72 210 14:21 18.05.2022
2113 Clouds 15 1017 64 10000 6.69 210 12:55 18.05.2022
2114 Clouds 15 1018 66 10000 7.2 210 12:24 18.05.2022
2115 Clouds 14 1017 67 10000 9.26 220 11:33 18.05.2022
2116 Clouds 13 1016 72 10000 11.32 210 10:43 18.05.2022
2117 Clouds 11 1014 81 10000 10.29 200 08:25 18.05.2022
2118 Clouds 11 1013 83 10000 7.72 200 07:27 18.05.2022
2119 Clouds 10 1013 89 10000 2.06 190 03:59 18.05.2022
2120 Clouds 11 1012 89 10000 3.6 190 00:51 18.05.2022
2121 Clouds 11 1011 87 10000 6.17 190 23:33 17.05.2022
2122 Rain 16 1009 82 10000 5.14 70 21:21 17.05.2022
2123 Clouds 16 1010 83 9000 4.12 70 20:44 17.05.2022
2124 Rain 17 1011 78 10000 3.09 70 19:41 17.05.2022
2125 Rain 17 1012 74 10000 3.6 70 19:20 17.05.2022
2126 Clouds 17 1014 74 10000 3.6 100 17:34 17.05.2022
2127 Clouds 16 1015 75 10000 4.63 140 16:57 17.05.2022
2128 Clouds 16 1016 74 10000 4.63 150 15:58 17.05.2022
2129 Clouds 16 1016 75 10000 5.14 150 14:55 17.05.2022
2130 Clouds 16 1016 75 10000 6.17 160 14:28 17.05.2022
2131 Clouds 16 1017 73 10000 4.63 130 12:39 17.05.2022
2132 Clouds 15 1017 79 10000 4.63 150 10:39 17.05.2022
2133 Clouds 12 1017 91 10000 2.57 80 08:51 17.05.2022
2134 Clouds 10 1017 92 6000 3.13 291 07:46 17.05.2022
2135 Fog 9 1016 93 900 3.09 50 06:21 17.05.2022
2136 Clouds 11 1016 91 6000 8.05 285 00:47 17.05.2022
2137 Clouds 11 1016 91 9000 8.05 288 23:35 16.05.2022
2138 Rain 11 1016 94 10000 8.49 295 22:33 16.05.2022
2139 Rain 12 1015 91 10000 9.83 282 21:18 16.05.2022
2140 Clouds 12 1015 91 10000 9.39 290 20:37 16.05.2022
2141 Clouds 12 1015 90 10000 5.66 70 18:46 16.05.2022
2142 Clouds 11 1015 91 10000 9.39 286 16:42 16.05.2022
2143 Clouds 11 1015 89 4400 6.69 60 14:58 16.05.2022
2144 Clouds 11 1015 88 7000 6.17 70 13:34 16.05.2022
2145 Clouds 11 1012 85 10000 6.69 70 12:34 16.05.2022
2146 Clouds 11 1012 89 10000 7.72 70 10:36 16.05.2022
2147 Rain 11 1015 87 10000 9.26 60 07:48 16.05.2022
2148 Clouds 11 1016 87 8000 7.2 60 05:44 16.05.2022
2149 Clouds 12 1015 84 10000 6.17 60 00:44 16.05.2022
2150 Clouds 14 1018 61 10000 7.72 80 22:42 15.05.2022
2151 Clouds 16 1014 48 10000 7.72 90 21:57 15.05.2022
2152 Clouds 17 1014 52 10000 7.2 90 21:36 15.05.2022
2153 Clouds 17 1014 67 10000 5.66 60 20:38 15.05.2022
2154 Clouds 17 1018 68 10000 7.2 60 18:37 15.05.2022
2155 Clouds 17 1019 75 10000 6.69 70 16:52 15.05.2022
2156 Clouds 15 1020 79 10000 4.63 50 14:26 15.05.2022
2157 Clouds 15 1021 80 10000 4.63 60 13:44 15.05.2022
2158 Clouds 12 1021 83 10000 4.12 80 11:55 15.05.2022
2159 Rain 12 1021 77 10000 5.14 80 10:43 15.05.2022
2160 Clouds 10 1023 83 10000 2.49 57 08:58 15.05.2022
2161 Clouds 9 1023 84 10000 2.11 51 07:22 15.05.2022
2162 Clouds 7 1024 88 10000 2.11 51 06:42 15.05.2022
2163 Clear 8 1022 91 10000 1.03 220 02:43 15.05.2022
2164 Clouds 10 1023 88 10000 1.54 260 00:22 15.05.2022
2165 Clouds 11 1023 84 10000 0.89 135 23:35 14.05.2022
2166 Clouds 14 1022 72 10000 2.06 230 21:45 14.05.2022
2167 Clouds 15 1022 68 10000 2.06 250 21:25 14.05.2022
2168 Clouds 16 1022 68 10000 3.6 230 20:25 14.05.2022
2169 Clouds 17 1022 65 10000 4.12 230 19:20 14.05.2022
2170 Clouds 17 1022 66 10000 4.63 220 18:51 14.05.2022
2171 Clouds 17 1022 66 10000 4.63 220 18:51 14.05.2022
2172 Clouds 17 1022 67 10000 4.63 230 17:43 14.05.2022
2173 Clouds 16 1022 65 10000 4.63 230 15:55 14.05.2022
2174 Clouds 16 1022 63 10000 4.12 250 14:37 14.05.2022
2175 Clouds 15 1022 69 10000 5.14 230 12:51 14.05.2022
2176 Clouds 13 1022 75 9000 5.14 220 11:37 14.05.2022
2177 Clouds 12 1022 80 9000 4.63 230 10:39 14.05.2022
2178 Clouds 12 1022 81 9000 4.63 220 10:18 14.05.2022
2179 Clouds 11 1021 85 8000 4.63 230 09:19 14.05.2022
2180 Clouds 10 1020 86 8000 6.71 131 07:23 14.05.2022
2181 Clouds 10 1019 89 7000 5.14 240 03:45 14.05.2022
2182 Drizzle 11 1019 90 3700 4.12 220 00:21 14.05.2022
2183 Clouds 11 1018 85 10000 6.17 240 23:24 13.05.2022
2184 Clouds 11 1018 83 10000 7.2 230 22:54 13.05.2022
2185 Clouds 11 1017 84 9000 6.17 240 22:20 13.05.2022
2186 Clouds 11 1016 84 10000 6.17 240 20:57 13.05.2022
2187 Clouds 12 1016 81 9000 6.17 250 20:30 13.05.2022
2188 Clouds 12 1015 82 9000 6.69 250 19:44 13.05.2022
2189 Clouds 12 1014 80 10000 10.29 260 18:44 13.05.2022
2190 Clouds 12 1014 79 9000 10.29 250 17:29 13.05.2022
2191 Clouds 13 1013 78 10000 11.83 250 16:29 13.05.2022
2192 Clouds 13 1013 80 10000 12.35 250 15:45 13.05.2022
2193 Clouds 13 1011 77 10000 12.35 250 14:24 13.05.2022
2194 Clouds 12 1011 79 9000 12.86 260 12:46 13.05.2022
2195 Clouds 12 1011 81 10000 9.77 230 11:36 13.05.2022
2196 Clouds 11 1011 80 10000 8.23 230 09:43 13.05.2022
2197 Clouds 11 1011 81 10000 8.75 240 08:51 13.05.2022
2198 Clouds 10 1011 86 10000 8.75 230 07:49 13.05.2022
2199 Clouds 10 1010 87 10000 7.72 250 06:44 13.05.2022
2200 Clouds 10 1011 86 10000 6.69 240 04:48 13.05.2022
2201 Rain 9 1010 90 10000 7.2 220 00:42 13.05.2022
2202 Clouds 9 1011 89 10000 5.14 220 22:47 12.05.2022
2203 Rain 10 1011 92 9000 6.17 240 21:59 12.05.2022
2204 Rain 10 1011 87 10000 6.17 230 20:38 12.05.2022
2205 Clouds 11 1012 83 10000 9.26 210 19:23 12.05.2022
2206 Clouds 13 1013 74 10000 9.26 220 17:59 12.05.2022
2207 Clouds 14 1013 67 10000 11.32 220 16:27 12.05.2022
2208 Clouds 13 1015 68 10000 9.26 220 14:47 12.05.2022
2209 Clouds 13 1015 70 10000 9.26 220 13:47 12.05.2022
2210 Clouds 12 1015 69 10000 6.17 230 11:25 12.05.2022
2211 Clouds 10 1015 77 10000 5.14 230 09:37 12.05.2022
2212 Clouds 9 1015 80 10000 4.12 240 08:51 12.05.2022
2213 Clouds 8 1014 81 10000 4.63 240 07:41 12.05.2022
2214 Clouds 7 1014 84 10000 3.6 240 06:39 12.05.2022
2215 Rain 8 1010 83 10000 5.66 240 02:59 12.05.2022
2216 Clouds 9 1012 86 10000 3.09 230 00:41 12.05.2022
2217 Clear 10 1011 76 10000 3.6 240 22:41 11.05.2022
2218 Clouds 11 1010 76 10000 3.13 133 21:55 11.05.2022
2219 Clouds 12 1010 71 10000 4.12 250 21:24 11.05.2022
2220 Clouds 13 1008 63 10000 6.17 260 19:36 11.05.2022
2221 Clouds 14 1006 62 10000 6.69 260 16:59 11.05.2022
2222 Clouds 13 1006 69 10000 7.6 166 15:50 11.05.2022
2223 Clouds 13 1005 69 10000 8.23 250 14:39 11.05.2022
2224 Clouds 13 1005 72 10000 7.2 250 14:19 11.05.2022
2225 Clouds 12 1004 72 10000 7.72 250 11:54 11.05.2022
2226 Clouds 12 1004 74 10000 6.69 250 11:23 11.05.2022
2227 Clouds 10 1003 82 10000 5.66 240 08:46 11.05.2022
2228 Clouds 9 1002 87 10000 6.17 240 05:31 11.05.2022
2229 Clouds 9 1004 87 7000 7.2 210 01:23 11.05.2022
2230 Rain 10 1006 85 10000 5.14 210 22:32 10.05.2022
2231 Clouds 10 1005 82 10000 5.66 210 21:58 10.05.2022
2232 Rain 12 1006 76 10000 7.2 210 20:58 10.05.2022
2233 Clouds 12 1007 78 10000 7.72 210 20:19 10.05.2022
2234 Rain 12 1007 73 10000 9.26 210 18:27 10.05.2022
2235 Clouds 14 1007 70 10000 8.75 210 17:34 10.05.2022
2236 Clouds 14 1008 71 10000 8.23 240 15:42 10.05.2022
2237 Clouds 13 1007 76 10000 11.83 220 12:48 10.05.2022
2238 Clouds 12 1007 85 7000 9.26 210 11:51 10.05.2022
2239 Rain 12 1008 80 10000 10.29 220 11:21 10.05.2022
2240 Rain 12 1008 78 10000 10.29 220 10:54 10.05.2022
2241 Clouds 10 1008 86 10000 5.66 220 09:27 10.05.2022
2242 Rain 10 1008 88 10000 7.72 220 07:32 10.05.2022
2243 Clouds 9 1008 88 10000 5.14 210 04:34 10.05.2022
2244 Clouds 10 1009 87 10000 4.92 117 01:34 10.05.2022
2245 Rain 13 1008 89 10000 9.26 210 23:26 09.05.2022
2246 Rain 13 1009 87 10000 8.75 190 21:58 09.05.2022
2247 Clouds 13 1009 87 10000 8.75 190 21:18 09.05.2022
2248 Rain 12 1010 89 10000 6.69 180 19:37 09.05.2022
2249 Rain 12 1013 87 10000 7.2 180 17:56 09.05.2022
2250 Rain 12 1014 87 7000 8.23 170 16:38 09.05.2022
2251 Rain 11 1015 86 8000 6.17 160 15:52 09.05.2022
2252 Rain 12 1015 86 8000 6.17 170 15:27 09.05.2022
2253 Rain 12 1016 82 10000 6.69 190 14:31 09.05.2022
2254 Rain 12 1017 83 10000 2.57 200 13:50 09.05.2022
2255 Rain 12 1019 82 10000 4.63 180 12:26 09.05.2022
2256 Rain 13 1019 81 10000 5.14 180 11:37 09.05.2022
2257 Rain 12 1020 82 10000 4.12 180 10:43 09.05.2022
2258 Rain 12 1021 80 10000 4.12 190 08:51 09.05.2022
2259 Clouds 12 1021 80 10000 5.14 180 07:54 09.05.2022
2260 Clouds 12 1024 84 10000 3.6 170 03:36 09.05.2022
2261 Clouds 12 1023 82 10000 2.57 150 23:37 08.05.2022
2262 Clouds 13 1026 83 10000 2.06 170 22:56 08.05.2022
2263 Clouds 14 1026 78 10000 4.63 190 21:55 08.05.2022
2264 Clouds 16 1027 70 10000 4.12 210 20:35 08.05.2022
2265 Clouds 16 1027 71 10000 4.12 200 19:45 08.05.2022
2266 Clouds 17 1027 70 10000 6.17 230 18:54 08.05.2022
2267 Clouds 17 1027 70 10000 5.66 200 18:18 08.05.2022
2268 Clouds 17 1025 68 10000 5.14 200 16:44 08.05.2022
2269 Clouds 17 1028 67 10000 6.17 190 15:39 08.05.2022
2270 Clouds 17 1029 66 10000 5.14 190 14:57 08.05.2022
2271 Clouds 15 1030 71 10000 1.79 344 12:33 08.05.2022
2272 Clouds 12 1031 79 10000 1.54 80 10:32 08.05.2022
2273 Clouds 11 1031 81 10000 2.06 70 09:58 08.05.2022
2274 Clouds 11 1031 82 10000 2.06 70 08:57 08.05.2022
2275 Clouds 10 1031 86 10000 2.57 50 07:25 08.05.2022
2276 Clouds 10 1031 84 10000 2.57 60 03:40 08.05.2022
2277 Clouds 10 1032 85 10000 3.6 70 02:47 08.05.2022
2278 Clouds 11 1032 84 10000 2.68 296 00:28 08.05.2022
2279 Clouds 11 1032 83 10000 2.57 50 23:50 07.05.2022
2280 Clouds 12 1031 81 10000 3.09 50 22:46 07.05.2022
2281 Clouds 13 1031 81 10000 2.57 40 21:59 07.05.2022
2282 Clouds 13 1031 80 10000 2.57 40 21:34 07.05.2022
2283 Clouds 14 1028 78 10000 3.09 60 20:28 07.05.2022
2284 Clouds 14 1031 75 10000 1.79 284 19:23 07.05.2022
2285 Clouds 15 1031 72 10000 3.09 220 17:34 07.05.2022
2286 Clouds 15 1031 70 10000 1.34 229 15:46 07.05.2022
2287 Clouds 14 1031 71 10000 1.03 0 13:39 07.05.2022
2288 Clouds 13 1031 79 10000 1.54 70 10:41 07.05.2022
2289 Clouds 10 1030 89 10000 1.54 270 08:57 07.05.2022
2290 Clouds 9 1029 90 10000 0.51 190 07:50 07.05.2022
2291 Clouds 9 1029 90 10000 2.06 220 06:43 07.05.2022
2292 Clouds 8 1028 89 10000 1.54 200 04:35 07.05.2022
2293 Clear 10 1024 81 10000 3.6 280 00:56 07.05.2022
2294 Clear 11 1026 80 10000 3.09 280 23:28 06.05.2022
2295 Clear 12 1026 75 10000 3.6 270 22:21 06.05.2022
2296 Clouds 13 1025 74 10000 4.12 280 21:36 06.05.2022
2297 Clouds 14 1025 68 10000 5.14 300 20:20 06.05.2022
2298 Clouds 15 1024 63 10000 6.17 270 19:29 06.05.2022
2299 Clouds 15 1024 64 10000 5.66 270 18:54 06.05.2022
2300 Clouds 15 1023 65 10000 6.69 290 17:38 06.05.2022
2301 Clouds 15 1023 78 10000 5.66 260 15:56 06.05.2022
2302 Clouds 14 1023 81 7000 6.17 250 15:33 06.05.2022
2303 Clouds 14 1023 82 10000 4.63 260 14:22 06.05.2022
2304 Clouds 14 1022 81 10000 4.63 240 12:52 06.05.2022
2305 Clouds 13 1022 87 10000 4.63 250 12:20 06.05.2022
2306 Clouds 12 1022 90 10000 5.81 121 11:33 06.05.2022
2307 Rain 12 1021 90 7000 8.23 220 09:48 06.05.2022
2308 Rain 12 1021 90 9000 8.05 104 09:19 06.05.2022
2309 Rain 12 1021 94 8000 8.23 220 07:56 06.05.2022
2310 Clouds 12 1022 90 6000 7.2 210 06:28 06.05.2022
2311 Rain 12 1022 90 10000 5.14 210 04:29 06.05.2022
2312 Drizzle 12 1023 91 4300 4.12 220 02:38 06.05.2022
2313 Clouds 12 1024 91 10000 4.12 240 23:25 05.05.2022
2314 Clouds 12 1024 92 4900 4.12 220 21:51 05.05.2022
2315 Clouds 12 1024 92 4000 5.14 220 20:37 05.05.2022
2316 Clouds 14 1024 81 10000 5.14 240 19:20 05.05.2022
2317 Clouds 15 1022 76 10000 5.66 210 16:49 05.05.2022
2318 Clouds 14 1025 80 10000 6.17 220 15:46 05.05.2022
2319 Clouds 13 1025 80 10000 6.17 220 13:41 05.05.2022
2320 Clouds 13 1024 79 10000 5.14 230 13:18 05.05.2022
2321 Clouds 12 1024 84 10000 6.17 220 11:42 05.05.2022
2322 Clouds 11 1024 88 10000 6.17 220 09:46 05.05.2022
2323 Clouds 11 1024 86 10000 6.69 220 08:54 05.05.2022
2324 Clouds 10 1023 86 10000 3.6 220 06:28 05.05.2022
2325 Clouds 9 1023 81 10000 3.6 240 02:27 05.05.2022
2326 Clouds 9 1023 83 10000 3.09 250 01:44 05.05.2022
2327 Clouds 9 1023 80 10000 2.57 240 00:49 05.05.2022
2328 Clouds 10 1022 77 10000 4.63 270 23:18 04.05.2022
2329 Clouds 11 1021 75 10000 5.66 260 21:59 04.05.2022
2330 Clouds 11 1021 75 10000 5.66 260 21:34 04.05.2022
2331 Clouds 12 1021 73 10000 5.14 240 20:52 04.05.2022
2332 Clouds 12 1020 71 10000 6.17 270 20:18 04.05.2022
2333 Clouds 13 1020 70 10000 6.69 270 19:35 04.05.2022
2334 Clouds 13 1020 70 10000 6.69 280 18:42 04.05.2022
2335 Clouds 13 1020 72 10000 6.69 270 18:18 04.05.2022
2336 Clouds 14 1019 69 10000 6.69 280 16:36 04.05.2022
2337 Clouds 13 1019 70 10000 7.72 260 15:32 04.05.2022
2338 Clouds 13 1018 75 10000 7.2 260 14:38 04.05.2022
2339 Clouds 13 1018 78 10000 8.23 250 14:19 04.05.2022
2340 Clouds 13 1017 83 10000 5.66 280 12:39 04.05.2022
2341 Clouds 12 1017 91 10000 4.63 230 11:28 04.05.2022
2342 Clouds 12 1017 91 10000 4.12 220 09:57 04.05.2022
2343 Rain 11 1016 94 7000 3.09 240 09:20 04.05.2022
2344 Clouds 11 1016 94 10000 1.79 82 07:33 04.05.2022
2345 Clouds 10 1017 91 10000 2.57 200 04:34 04.05.2022
2346 Clouds 10 1018 93 7000 2.06 230 02:33 04.05.2022
2347 Rain 11 1020 86 6000 3.6 230 22:59 03.05.2022
2348 Clouds 12 1020 83 10000 2.57 230 21:50 03.05.2022
2349 Clouds 12 1020 80 10000 3.09 240 21:23 03.05.2022
2350 Clouds 12 1021 74 10000 3.6 230 20:39 03.05.2022
2351 Clouds 13 1021 73 10000 3.6 240 19:21 03.05.2022
2352 Clouds 14 1021 72 10000 4.12 250 18:42 03.05.2022
2353 Clouds 13 1022 74 10000 1.03 0 17:20 03.05.2022
2354 Clouds 12 1023 78 10000 1.03 0 15:51 03.05.2022
2355 Clouds 11 1024 85 10000 1.03 0 14:23 03.05.2022
2356 Clouds 9 1025 88 10000 1.54 60 12:35 03.05.2022
2357 Clouds 8 1025 90 6000 3.09 50 11:24 03.05.2022
2358 Clouds 8 1025 90 8000 3.09 60 10:26 03.05.2022
2359 Drizzle 7 1025 91 5000 3.09 60 08:19 03.05.2022
2360 Clouds 7 1025 91 9000 3.6 60 06:45 03.05.2022
2361 Clouds 8 1027 89 10000 4.12 60 01:59 03.05.2022
2362 Clouds 9 1026 80 10000 5.14 60 22:56 02.05.2022
2363 Clouds 10 1026 77 10000 5.14 50 22:28 02.05.2022
2364 Clouds 10 1026 76 10000 6.17 50 21:27 02.05.2022
2365 Clouds 11 1026 78 10000 6.17 60 19:22 02.05.2022
2366 Clouds 12 1025 76 10000 5.66 50 18:25 02.05.2022
2367 Clouds 13 1025 74 10000 5.66 50 17:38 02.05.2022
2368 Clouds 13 1025 74 10000 6.17 60 16:37 02.05.2022
2369 Clouds 14 1025 72 10000 5.66 60 15:41 02.05.2022
2370 Clouds 14 1025 73 10000 4.02 275 14:27 02.05.2022
2371 Clouds 14 1025 74 10000 1.03 0 13:19 02.05.2022
2372 Clouds 13 1025 80 10000 1.54 280 11:41 02.05.2022
2373 Clouds 10 1025 91 10000 2.06 230 09:32 02.05.2022
2374 Mist 8 1024 93 5000 0.51 0 07:57 02.05.2022
2375 Mist 8 1024 92 5000 1.54 240 06:31 02.05.2022
2376 Clouds 11 1024 80 10000 2.06 210 00:44 02.05.2022
2377 Clouds 11 1024 79 10000 3.09 200 00:21 02.05.2022
2378 Clouds 13 1023 79 10000 1.03 230 22:53 01.05.2022
2379 Clouds 13 1023 78 10000 2.06 260 21:41 01.05.2022
2380 Clouds 14 1022 73 10000 1.03 0 20:29 01.05.2022
2381 Clouds 15 1022 70 10000 1.34 229 19:20 01.05.2022
2382 Clouds 15 1022 69 10000 2.06 160 18:52 01.05.2022
2383 Clouds 15 1022 71 10000 4.63 160 17:47 01.05.2022
2384 Clouds 15 1022 69 10000 3.6 180 16:26 01.05.2022
2385 Clouds 15 1022 67 10000 4.12 160 15:45 01.05.2022
2386 Clouds 15 1022 69 10000 4.63 130 14:41 01.05.2022
2387 Clouds 13 1022 83 10000 3.6 130 11:53 01.05.2022
2388 Rain 11 1022 89 10000 1.54 120 09:33 01.05.2022
2389 Clouds 11 1021 90 10000 1.54 90 08:49 01.05.2022
2390 Clouds 10 1021 91 10000 0.51 0 05:42 01.05.2022
2391 Clouds 10 1022 91 5000 6.17 200 01:32 01.05.2022
2392 Rain 10 1023 89 9000 7.2 200 21:59 30.04.2022
2393 Rain 10 1023 88 7000 6.69 200 21:30 30.04.2022
2394 Rain 10 1023 88 7000 6.69 200 21:30 30.04.2022
2395 Rain 10 1023 88 7000 6.69 200 21:30 30.04.2022
2396 Rain 10 1024 89 10000 6.17 190 19:48 30.04.2022
2397 Rain 10 1025 87 7000 4.63 200 18:51 30.04.2022
2398 Clouds 10 1024 84 10000 3.6 180 17:26 30.04.2022
2399 Rain 10 1028 80 9000 4.63 180 15:51 30.04.2022
2400 Rain 10 1029 77 10000 3.09 200 14:54 30.04.2022
2401 Rain 11 1029 73 10000 5.66 210 13:41 30.04.2022
2402 Clouds 12 1030 65 10000 5.14 220 11:39 30.04.2022
2403 Clouds 12 1031 65 10000 2.06 200 10:55 30.04.2022
2404 Clouds 10 1032 72 10000 1.03 0 09:54 30.04.2022
2405 Clouds 5 1030 89 10000 1.03 210 07:35 30.04.2022
2406 Clouds 5 1034 90 7000 0 0 03:45 30.04.2022
2407 Clouds 8 1032 79 10000 1.54 240 23:54 29.04.2022
2408 Clouds 9 1032 74 10000 2.57 240 22:36 29.04.2022
2409 Clouds 12 1031 62 10000 5.66 210 21:54 29.04.2022
2410 Clouds 12 1034 69 10000 5.14 220 21:21 29.04.2022
2411 Clouds 15 1031 58 10000 4.63 230 19:52 29.04.2022
2412 Clouds 17 1031 36 10000 3.09 160 18:58 29.04.2022
2413 Clouds 16 1034 39 10000 2.57 100 17:33 29.04.2022
2414 Clouds 17 1035 43 10000 2.06 220 15:58 29.04.2022
2415 Clouds 16 1036 47 10000 2.57 60 14:34 29.04.2022
2416 Clouds 15 1036 56 10000 1.34 2 13:27 29.04.2022
2417 Clouds 14 1037 60 10000 0.89 81 12:26 29.04.2022
2418 Clouds 7 1037 86 9000 0.51 0 09:48 29.04.2022
2419 Fog 3 1033 90 6000 0 0 07:52 29.04.2022
2420 Fog 2 1036 91 8000 0.51 190 07:24 29.04.2022
2421 Fog 2 1036 93 10000 1.03 210 05:57 29.04.2022
2422 Clouds 6 1037 84 10000 1.54 270 00:51 29.04.2022
2423 Clouds 7 1037 84 10000 1.03 250 23:49 28.04.2022
2424 Clouds 9 1036 78 10000 3.6 230 22:45 28.04.2022
2425 Clouds 10 1033 76 10000 3.6 230 21:55 28.04.2022
2426 Clouds 12 1035 66 10000 2.57 290 21:29 28.04.2022
2427 Clouds 13 1032 58 10000 3.6 240 20:37 28.04.2022
2428 Clouds 15 1032 41 10000 1.03 0 19:46 28.04.2022
2429 Clouds 14 1035 47 10000 2.06 220 19:23 28.04.2022
2430 Clouds 14 1035 48 10000 2.06 180 18:37 28.04.2022
2431 Clouds 14 1035 48 10000 2.24 299 17:32 28.04.2022
2432 Clouds 14 1036 52 10000 2.57 140 16:49 28.04.2022
2433 Clouds 13 1036 55 10000 2.57 160 16:19 28.04.2022
2434 Clouds 14 1036 53 10000 3.09 140 15:41 28.04.2022
2435 Clouds 13 1036 56 10000 1.79 333 14:38 28.04.2022
2436 Clouds 12 1036 61 10000 1.34 84 13:19 28.04.2022
2437 Clouds 11 1037 66 10000 1.34 32 12:28 28.04.2022
2438 Clouds 8 1037 75 10000 1.03 0 10:47 28.04.2022
2439 Clouds 7 1037 77 10000 0.89 314 10:26 28.04.2022
2440 Clouds 4 1037 89 10000 1.03 240 08:59 28.04.2022
2441 Clouds 1 1039 89 10000 0.45 9 07:38 28.04.2022
2442 Clouds 1 1039 89 10000 0.52 65 06:37 28.04.2022
2443 Clouds 1 1038 90 10000 0.8 62 05:39 28.04.2022
2444 Clear 2 1036 90 10000 1.54 70 04:41 28.04.2022
2445 Clouds 6 1035 77 10000 4.12 70 00:36 28.04.2022
2446 Clear 8 1034 67 10000 4.63 70 22:49 27.04.2022
2447 Clear 9 1034 60 10000 3.6 60 21:57 27.04.2022
2448 Clear 11 1034 57 10000 3.6 70 21:27 27.04.2022
2449 Clear 11 1033 47 10000 3.09 80 20:43 27.04.2022
2450 Clouds 13 1033 52 10000 3.09 100 19:39 27.04.2022
2451 Clouds 13 1033 52 10000 3.09 100 19:39 27.04.2022
2452 Clouds 13 1033 51 10000 2.68 300 19:18 27.04.2022
2453 Clouds 13 1033 52 10000 3.09 50 18:25 27.04.2022
2454 Clouds 13 1033 54 10000 3.09 70 17:26 27.04.2022
2455 Clouds 11 1034 61 10000 3.6 100 15:22 27.04.2022
2456 Clouds 9 1034 68 10000 2.24 294 12:27 27.04.2022
2457 Clouds 9 1034 68 10000 2.24 279 11:23 27.04.2022
2458 Clouds 7 1034 77 10000 1.34 292 09:59 27.04.2022
2459 Clouds 4 1033 87 10000 0.51 0 07:25 27.04.2022
2460 Clouds 4 1033 84 10000 1.54 50 05:50 27.04.2022
2461 Clouds 7 1032 79 10000 2.06 50 01:52 27.04.2022
2462 Clouds 7 1031 75 10000 4.63 70 00:52 27.04.2022
2463 Clouds 8 1031 74 10000 5.14 70 23:57 26.04.2022
2464 Clouds 8 1028 73 10000 5.14 70 23:23 26.04.2022
2465 Clouds 9 1030 69 10000 4.63 60 22:41 26.04.2022
2466 Clouds 10 1027 67 10000 5.14 70 21:48 26.04.2022
2467 Clouds 10 1029 64 10000 5.14 90 20:53 26.04.2022
2468 Clouds 10 1029 65 10000 4.12 80 20:33 26.04.2022
2469 Clouds 11 1029 62 10000 4.12 90 19:32 26.04.2022
2470 Clouds 11 1029 60 10000 3.6 100 18:45 26.04.2022
2471 Clouds 11 1029 62 10000 3.6 90 18:18 26.04.2022
2472 Clouds 11 1029 64 10000 3.6 80 17:22 26.04.2022
2473 Clouds 10 1029 70 10000 5.66 50 14:28 26.04.2022
2474 Clouds 10 1029 68 10000 3.6 90 13:33 26.04.2022
2475 Clouds 9 1028 72 10000 3.6 70 11:57 26.04.2022
2476 Clouds 9 1028 74 10000 2.68 292 10:37 26.04.2022
2477 Clouds 8 1028 79 10000 4.02 308 09:25 26.04.2022
2478 Clouds 6 1027 85 10000 1.54 50 07:38 26.04.2022
2479 Clouds 6 1027 80 10000 2.24 307 04:33 26.04.2022
2480 Clouds 6 1026 78 10000 3.6 70 01:30 26.04.2022
2481 Clouds 6 1025 75 10000 3.09 60 00:26 26.04.2022
2482 Clouds 8 1025 61 10000 3.6 60 22:36 25.04.2022
2483 Clouds 9 1024 55 10000 5.14 60 21:42 25.04.2022
2484 Clouds 11 1024 56 10000 4.12 50 20:40 25.04.2022
2485 Clouds 12 1023 55 10000 3.6 60 18:58 25.04.2022
2486 Clouds 12 1024 58 10000 4.63 60 17:54 25.04.2022
2487 Clouds 12 1024 61 10000 3.6 70 16:59 25.04.2022
2488 Clouds 11 1024 65 10000 3.58 282 15:29 25.04.2022
2489 Clouds 11 1024 70 10000 4.12 40 14:42 25.04.2022
2490 Clouds 10 1024 75 10000 4.92 277 13:33 25.04.2022
2491 Clouds 9 1023 78 10000 3.13 303 11:38 25.04.2022
2492 Clouds 8 1023 78 10000 3.13 286 10:26 25.04.2022
2493 Clouds 7 1023 81 10000 2.06 50 08:39 25.04.2022
2494 Clouds 7 1022 80 10000 2.57 20 06:39 25.04.2022
2495 Clouds 8 1022 80 10000 4.12 70 03:47 25.04.2022
2496 Clouds 8 1022 79 10000 4.63 90 00:43 25.04.2022
2497 Clouds 8 1022 77 10000 4.63 80 23:51 24.04.2022
2498 Clouds 9 1022 77 10000 6.17 80 22:41 24.04.2022
2499 Clouds 9 1022 77 10000 5.14 80 22:20 24.04.2022
2500 Clouds 9 1021 77 10000 6.17 80 21:24 24.04.2022
2501 Clouds 10 1021 76 10000 6.17 70 20:48 24.04.2022
2502 Clouds 10 1021 75 10000 5.14 100 20:22 24.04.2022
2503 Clouds 11 1021 73 10000 5.14 100 19:45 24.04.2022
2504 Clouds 13 1020 70 10000 5.14 100 18:20 24.04.2022
2505 Clouds 13 1020 70 10000 5.14 100 17:27 24.04.2022
2506 Clouds 13 1020 70 10000 5.14 80 16:58 24.04.2022
2507 Clouds 14 1020 64 10000 5.66 90 16:32 24.04.2022
2508 Clouds 14 1020 63 10000 7.72 80 15:53 24.04.2022
2509 Clouds 14 1020 58 10000 7.2 70 14:57 24.04.2022
2510 Clouds 14 1021 54 10000 6.69 60 13:45 24.04.2022
2511 Clouds 14 1021 56 10000 7.2 60 13:23 24.04.2022
2512 Clouds 12 1021 62 10000 7.2 60 11:55 24.04.2022
2513 Clouds 12 1021 65 10000 7.2 60 11:22 24.04.2022
2514 Clouds 9 1021 75 10000 4.92 292 09:51 24.04.2022
2515 Clouds 7 1021 81 10000 3.6 60 08:31 24.04.2022
2516 Clear 6 1020 85 10000 5.14 70 05:46 24.04.2022
2517 Clouds 7 1020 87 10000 3.09 60 02:59 24.04.2022
2518 Clear 7 1020 86 10000 4.12 70 01:18 24.04.2022
2519 Clear 8 1020 85 10000 4.12 70 23:55 23.04.2022
2520 Clear 8 1020 85 10000 4.12 70 23:25 23.04.2022
2521 Clouds 8 1019 87 10000 5.14 60 22:42 23.04.2022
2522 Clear 9 1019 84 10000 5.66 80 21:49 23.04.2022
2523 Clear 9 1019 82 10000 5.81 281 21:30 23.04.2022
2524 Clear 11 1018 74 10000 7.72 60 20:27 23.04.2022
2525 Clear 13 1018 65 10000 8.23 60 19:21 23.04.2022
2526 Clear 14 1017 62 10000 9.26 70 18:55 23.04.2022
2527 Clear 14 1017 59 10000 9.77 70 18:32 23.04.2022
2528 Clear 15 1017 57 10000 9.26 70 17:47 23.04.2022
2529 Clear 15 1018 56 10000 9.77 60 16:46 23.04.2022
2530 Clear 15 1018 59 10000 7.72 60 15:52 23.04.2022
2531 Clear 15 1018 59 10000 7.72 60 15:52 23.04.2022
2532 Clear 14 1019 61 10000 9.26 60 13:33 23.04.2022
2533 Clear 12 1019 67 10000 7.72 70 11:30 23.04.2022
2534 Clear 10 1019 71 10000 6.71 275 10:37 23.04.2022
2535 Clear 6 1017 85 10000 0.51 0 08:27 23.04.2022
2536 Clear 7 1019 82 10000 5.66 80 04:18 23.04.2022
2537 Clear 8 1019 79 10000 5.14 70 03:27 23.04.2022
2538 Clear 8 1020 79 10000 6.69 60 23:37 22.04.2022
2539 Clear 9 1020 76 10000 5.14 70 23:18 22.04.2022
2540 Clear 10 1020 72 10000 5.14 70 21:58 22.04.2022
2541 Clear 10 1020 71 10000 5.14 70 21:39 22.04.2022
2542 Clear 12 1019 65 10000 8.23 60 20:34 22.04.2022
2543 Clouds 14 1019 58 10000 8.75 50 19:26 22.04.2022
2544 Clouds 15 1019 56 10000 8.75 60 18:56 22.04.2022
2545 Clouds 15 1019 55 10000 8.75 70 18:24 22.04.2022
2546 Clouds 15 1020 54 10000 10.29 70 16:54 22.04.2022
2547 Clouds 15 1020 58 10000 11.32 60 15:58 22.04.2022
2548 Clouds 15 1021 61 10000 9.77 60 15:24 22.04.2022
2549 Clouds 15 1021 63 10000 9.26 60 14:38 22.04.2022
2550 Clouds 14 1021 65 10000 8.75 60 13:41 22.04.2022
2551 Clouds 13 1021 66 10000 10.8 70 12:36 22.04.2022
2552 Clouds 12 1022 67 10000 8.75 60 11:23 22.04.2022
2553 Clouds 12 1022 67 10000 8.23 70 10:56 22.04.2022
2554 Clouds 11 1022 68 10000 8.23 70 10:32 22.04.2022
2555 Clear 10 1022 71 10000 5.66 70 09:54 22.04.2022
2556 Clouds 9 1022 74 10000 4.02 291 09:21 22.04.2022
2557 Clouds 8 1022 76 10000 3.58 288 08:42 22.04.2022
2558 Clouds 7 1022 82 10000 3.09 80 06:38 22.04.2022
2559 Clouds 8 1023 87 10000 5.14 70 00:56 22.04.2022
2560 Clouds 8 1023 85 10000 4.63 70 23:31 21.04.2022
2561 Clouds 9 1023 82 10000 7.15 308 22:36 21.04.2022
2562 Clear 11 1022 71 10000 6.69 60 21:36 21.04.2022
2563 Clear 13 1021 65 10000 7.72 70 20:30 21.04.2022
2564 Clouds 14 1021 59 10000 9.77 70 18:49 21.04.2022
2565 Clouds 14 1021 59 10000 9.77 70 18:49 21.04.2022
2566 Clouds 14 1021 60 10000 9.77 70 18:26 21.04.2022
2567 Clouds 14 1021 63 10000 8.75 70 17:19 21.04.2022
2568 Clouds 13 1022 69 10000 8.75 80 15:24 21.04.2022
2569 Clouds 13 1022 70 10000 9.26 70 14:52 21.04.2022
2570 Clouds 12 1022 70 10000 7.72 70 13:59 21.04.2022
2571 Clouds 12 1022 71 10000 5.36 301 13:21 21.04.2022
2572 Clouds 9 1022 76 10000 5.66 60 11:46 21.04.2022
2573 Clouds 7 1022 85 10000 6.17 70 09:24 21.04.2022
2574 Clouds 6 1022 86 10000 6.17 70 08:38 21.04.2022
2575 Clouds 5 1021 85 10000 4.63 70 06:36 21.04.2022
2576 Clouds 7 1021 83 10000 6.17 70 03:39 21.04.2022
2577 Clouds 7 1021 83 10000 6.17 70 03:39 21.04.2022
2578 Clouds 7 1021 83 10000 6.69 70 03:20 21.04.2022
2579 Clouds 7 1021 83 10000 6.17 70 02:44 21.04.2022
2580 Clouds 8 1020 86 10000 5.14 70 00:27 21.04.2022
2581 Clouds 8 1020 87 10000 4.63 70 23:25 20.04.2022
2582 Clouds 9 1020 85 10000 6.17 70 22:58 20.04.2022
2583 Clouds 9 1020 85 10000 6.17 70 22:32 20.04.2022
2584 Clouds 11 1019 80 10000 6.26 315 21:35 20.04.2022
2585 Clouds 12 1019 77 10000 6.26 313 20:43 20.04.2022
2586 Clouds 12 1019 74 10000 6.71 305 20:20 20.04.2022
2587 Clouds 14 1019 68 10000 6.26 299 19:38 20.04.2022
2588 Clouds 14 1019 63 10000 6.17 80 18:43 20.04.2022
2589 Clouds 15 1020 58 10000 5.14 60 17:18 20.04.2022
2590 Clear 16 1020 54 10000 3.6 130 16:39 20.04.2022
2591 Clouds 16 1021 54 10000 5.14 100 14:55 20.04.2022
2592 Clear 13 1023 63 10000 3.13 287 12:18 20.04.2022
2593 Clear 12 1024 67 10000 2.57 90 11:36 20.04.2022
2594 Clear 9 1024 77 10000 2.24 322 10:30 20.04.2022
2595 Clear 6 1025 84 10000 1.79 315 09:27 20.04.2022
2596 Clouds 4 1024 86 10000 0.51 0 08:25 20.04.2022
2597 Clouds 4 1024 86 10000 0.51 0 08:25 20.04.2022
2598 Clouds 3 1025 90 10000 0.51 240 07:44 20.04.2022
2599 Clouds 3 1025 88 10000 1.03 300 05:19 20.04.2022
2600 Clouds 6 1025 82 10000 1.54 270 01:20 20.04.2022
2601 Clouds 7 1025 80 10000 2.06 250 00:21 20.04.2022
2602 Clouds 8 1024 71 10000 1.54 260 22:44 19.04.2022
2603 Clouds 9 1024 70 10000 1.54 280 22:22 19.04.2022
2604 Clouds 11 1021 58 10000 3.09 260 21:38 19.04.2022
2605 Clouds 12 1020 54 10000 3.6 300 20:57 19.04.2022
2606 Clouds 13 1023 51 10000 3.6 300 20:36 19.04.2022
2607 Clouds 14 1022 53 10000 2.57 0 19:32 19.04.2022
2608 Clouds 14 1022 51 10000 3.6 210 18:26 19.04.2022
2609 Clouds 13 1022 51 10000 3.6 220 16:47 19.04.2022
2610 Clouds 13 1022 53 10000 2.57 280 16:24 19.04.2022
2611 Clouds 13 1022 57 10000 2.24 153 15:23 19.04.2022
2612 Clouds 13 1022 59 10000 3.09 270 14:32 19.04.2022
2613 Clouds 12 1022 64 10000 2.06 180 12:52 19.04.2022
2614 Clouds 11 1022 68 10000 2.06 0 12:29 19.04.2022
2615 Clouds 9 1022 78 10000 1.03 0 11:23 19.04.2022
2616 Clouds 6 1021 89 10000 1.03 340 09:27 19.04.2022
2617 Fog 3 1020 92 10000 0.51 200 07:37 19.04.2022
2618 Clear 5 1019 88 10000 0.45 86 04:23 19.04.2022
2619 Clouds 7 1018 82 10000 4.63 220 01:18 19.04.2022
2620 Clouds 8 1018 82 10000 5.14 210 23:40 18.04.2022
2621 Clouds 8 1017 79 10000 2.57 240 21:56 18.04.2022
2622 Clouds 9 1017 77 10000 5.66 240 21:24 18.04.2022
2623 Clouds 11 1017 68 10000 6.17 230 20:38 18.04.2022
2624 Clouds 10 1017 72 10000 6.17 230 20:38 18.04.2022
2625 Clouds 11 1017 64 10000 6.69 220 19:59 18.04.2022
2626 Clouds 12 1016 61 10000 7.2 220 19:30 18.04.2022
2627 Clouds 12 1016 60 10000 6.69 220 18:37 18.04.2022
2628 Clouds 12 1017 63 10000 4.63 240 17:39 18.04.2022
2629 Clouds 12 1017 63 10000 4.63 240 17:39 18.04.2022
2630 Clouds 12 1017 63 10000 4.63 240 17:39 18.04.2022
2631 Clouds 12 1017 64 10000 7.72 260 17:19 18.04.2022
2632 Clouds 13 1016 58 10000 8.23 210 16:36 18.04.2022
2633 Clouds 13 1017 61 10000 8.23 220 15:30 18.04.2022
2634 Clouds 12 1016 65 10000 7.2 220 13:55 18.04.2022
2635 Clouds 10 1016 70 10000 6.17 250 12:41 18.04.2022
2636 Clouds 10 1016 73 10000 5.66 260 11:48 18.04.2022
2637 Clouds 9 1016 79 10000 6.69 250 10:46 18.04.2022
2638 Clouds 9 1015 85 10000 3.6 250 09:31 18.04.2022
2639 Clouds 8 1015 88 10000 4.63 240 08:37 18.04.2022
2640 Clouds 9 1014 88 10000 3.6 230 06:44 18.04.2022
2641 Clouds 11 1014 82 10000 4.63 160 02:27 18.04.2022
2642 Clouds 12 1015 79 10000 4.12 190 22:55 17.04.2022
2643 Clouds 13 1015 77 10000 2.57 140 22:32 17.04.2022
2644 Clouds 13 1015 77 10000 3.6 210 21:34 17.04.2022
2645 Clouds 13 1015 75 10000 5.14 240 20:51 17.04.2022
2646 Clouds 17 1015 60 10000 6.69 160 19:55 17.04.2022
2647 Clouds 18 1016 50 10000 9.77 160 18:34 17.04.2022
2648 Clouds 19 1017 59 10000 8.75 140 16:44 17.04.2022
2649 Clouds 18 1019 62 10000 6.17 140 15:33 17.04.2022
2650 Clouds 18 1022 67 10000 2.68 53 14:38 17.04.2022
2651 Clouds 16 1022 66 10000 4.12 160 13:23 17.04.2022
2652 Clouds 14 1022 74 10000 3.09 120 12:30 17.04.2022
2653 Clouds 12 1024 80 10000 2.06 80 10:48 17.04.2022
2654 Clouds 12 1024 80 10000 1.54 130 10:29 17.04.2022
2655 Clouds 11 1024 82 10000 1.54 80 09:50 17.04.2022
2656 Clouds 11 1024 82 10000 1.03 270 08:59 17.04.2022
2657 Clouds 11 1025 83 10000 2.06 190 08:27 17.04.2022
2658 Clouds 11 1025 82 10000 3.6 180 05:20 17.04.2022
2659 Clouds 12 1027 80 10000 5.66 190 01:47 17.04.2022
2660 Clouds 12 1027 79 10000 2.06 160 23:59 16.04.2022
2661 Clouds 11 1025 80 10000 3.09 180 22:56 16.04.2022
2662 Clouds 12 1025 70 10000 4.63 200 21:44 16.04.2022
2663 Clouds 13 1028 74 10000 3.09 180 20:54 16.04.2022
2664 Clouds 14 1028 69 10000 4.12 180 19:21 16.04.2022
2665 Clouds 14 1029 72 10000 4.63 210 18:33 16.04.2022
2666 Clouds 14 1030 72 10000 4.63 200 16:42 16.04.2022
2667 Clouds 13 1030 75 10000 4.12 240 15:46 16.04.2022
2668 Clouds 13 1030 73 10000 4.63 200 14:57 16.04.2022
2669 Clouds 13 1030 74 10000 4.12 240 13:58 16.04.2022
2670 Clouds 13 1030 74 10000 4.12 240 13:40 16.04.2022
2671 Clouds 14 1030 71 10000 3.6 200 12:33 16.04.2022
2672 Clouds 13 1030 74 10000 3.6 150 11:24 16.04.2022
2673 Clouds 11 1030 81 10000 1.54 110 09:59 16.04.2022
2674 Clouds 10 1030 84 10000 1.54 110 09:18 16.04.2022
2675 Clouds 10 1030 86 10000 2.06 100 08:31 16.04.2022
2676 Clouds 10 1030 87 10000 1.03 0 06:59 16.04.2022
2677 Clouds 10 1029 86 10000 2.06 100 03:48 16.04.2022
2678 Clouds 12 1029 79 10000 1.54 130 00:35 16.04.2022
2679 Clouds 12 1029 77 10000 2.57 120 23:27 15.04.2022
2680 Clouds 13 1029 77 10000 2.06 150 22:37 15.04.2022
2681 Clouds 13 1028 76 10000 2.57 130 21:58 15.04.2022
2682 Clouds 13 1028 76 10000 1.79 24 21:18 15.04.2022
2683 Clouds 14 1028 76 10000 4.12 170 20:24 15.04.2022
2684 Clouds 14 1028 75 10000 6.17 160 19:40 15.04.2022
2685 Clouds 14 1028 74 10000 4.63 140 18:54 15.04.2022
2686 Clouds 15 1028 72 10000 5.66 150 18:25 15.04.2022
2687 Clouds 14 1028 71 10000 5.14 140 17:35 15.04.2022
2688 Clouds 15 1028 70 10000 5.14 140 16:53 15.04.2022
2689 Clouds 15 1028 71 10000 4.12 150 16:19 15.04.2022
2690 Clouds 15 1027 71 10000 4.12 120 15:24 15.04.2022
2691 Clouds 14 1027 73 10000 3.6 100 13:41 15.04.2022
2692 Clouds 13 1027 75 10000 4.12 90 12:42 15.04.2022
2693 Clouds 12 1027 77 10000 4.12 80 11:57 15.04.2022
2694 Clouds 12 1027 77 10000 4.12 80 11:57 15.04.2022
2695 Clouds 12 1027 77 10000 4.12 80 11:34 15.04.2022
2696 Clouds 12 1027 78 10000 3.09 70 10:43 15.04.2022
2697 Clouds 11 1027 81 10000 3.09 70 09:46 15.04.2022
2698 Clouds 11 1027 82 10000 1.54 80 09:21 15.04.2022
2699 Clouds 10 1026 84 10000 3.09 80 07:32 15.04.2022
2700 Clouds 9 1026 87 10000 2.57 80 06:36 15.04.2022
2701 Clouds 10 1026 82 10000 2.06 100 02:48 15.04.2022
2702 Clouds 11 1025 79 10000 2.57 150 23:31 14.04.2022
2703 Clouds 12 1025 78 10000 3.09 170 22:49 14.04.2022
2704 Clouds 12 1025 77 10000 3.09 180 22:30 14.04.2022
2705 Clouds 12 1025 77 10000 3.09 190 21:59 14.04.2022
2706 Clouds 12 1024 77 10000 3.6 230 20:43 14.04.2022
2707 Clouds 13 1024 75 10000 2.57 250 19:23 14.04.2022
2708 Clouds 14 1023 75 10000 3.6 240 18:29 14.04.2022
2709 Clouds 13 1023 75 10000 4.63 240 17:40 14.04.2022
2710 Clouds 14 1023 75 10000 3.09 130 16:46 14.04.2022
2711 Clouds 13 1023 78 10000 3.6 180 15:24 14.04.2022
2712 Rain 13 1023 78 10000 1.03 0 13:46 14.04.2022
2713 Clouds 13 1023 81 10000 1.03 0 12:56 14.04.2022
2714 Clouds 13 1022 81 10000 0.51 0 12:31 14.04.2022
2715 Clouds 12 1022 82 10000 1.03 0 11:29 14.04.2022
2716 Clouds 11 1022 86 10000 1.54 60 10:53 14.04.2022
2717 Clouds 11 1022 87 10000 1.03 0 10:26 14.04.2022
2718 Mist 10 1022 93 5000 1.03 0 09:24 14.04.2022
2719 Mist 8 1021 94 3500 1.03 80 07:27 14.04.2022
2720 Mist 9 1021 90 5000 1.03 250 03:32 14.04.2022
2721 Clouds 10 1020 88 10000 4.12 230 23:26 13.04.2022
2722 Clouds 11 1019 85 10000 4.12 240 22:20 13.04.2022
2723 Clouds 11 1019 84 10000 3.09 230 21:36 13.04.2022
2724 Clouds 13 1018 81 10000 4.63 230 20:22 13.04.2022
2725 Clouds 13 1018 77 10000 5.14 260 19:36 13.04.2022
2726 Clouds 14 1016 72 10000 5.14 260 18:27 13.04.2022
2727 Clouds 14 1015 75 10000 5.66 260 17:24 13.04.2022
2728 Clouds 14 1015 75 10000 5.14 250 16:34 13.04.2022
2729 Clouds 14 1015 76 10000 6.17 240 15:40 13.04.2022
2730 Clouds 13 1014 77 10000 5.66 270 14:51 13.04.2022
2731 Clouds 12 1014 80 10000 5.14 270 14:26 13.04.2022
2732 Clouds 11 1014 84 10000 6.17 250 13:29 13.04.2022
2733 Clouds 10 1013 88 10000 7.6 130 12:27 13.04.2022
2734 Clouds 9 1012 91 10000 5.36 128 10:54 13.04.2022
2735 Clouds 8 1011 93 10000 6.71 133 09:44 13.04.2022
2736 Clouds 7 1011 95 8000 3.09 240 08:43 13.04.2022
2737 Drizzle 7 1009 93 2100 2.68 135 06:52 13.04.2022
2738 Drizzle 7 1009 93 5000 1.79 113 06:26 13.04.2022
2739 Drizzle 7 1009 93 3300 1.54 260 05:36 13.04.2022
2740 Clouds 7 1008 91 10000 5.81 301 00:23 13.04.2022
2741 Drizzle 7 1008 91 4900 6.26 310 23:45 12.04.2022
2742 Clouds 7 1008 94 4500 7.15 301 22:19 12.04.2022
2743 Rain 7 1008 91 4000 4.63 60 21:29 12.04.2022
2744 Drizzle 7 1008 88 3200 4.63 60 20:41 12.04.2022
2745 Clouds 8 1008 88 10000 6.17 70 19:50 12.04.2022
2746 Clouds 8 1008 88 10000 6.69 70 19:31 12.04.2022
2747 Rain 8 1008 90 10000 6.69 60 18:31 12.04.2022
2748 Rain 8 1009 88 10000 7.2 70 17:28 12.04.2022
2749 Rain 8 1008 88 10000 7.2 70 17:28 12.04.2022
2750 Rain 8 1009 89 7000 6.69 60 16:22 12.04.2022
2751 Rain 9 1009 84 9000 6.69 70 15:33 12.04.2022
2752 Clouds 9 1009 82 10000 7.2 60 14:26 12.04.2022
2753 Clouds 9 1010 82 9000 7.2 60 13:36 12.04.2022
2754 Clouds 9 1010 82 10000 7.2 60 12:52 12.04.2022
2755 Clouds 9 1010 81 10000 6.17 50 11:46 12.04.2022
2756 Clouds 8 1010 85 10000 6.17 60 10:35 12.04.2022
2757 Clouds 7 1010 86 10000 5.66 70 09:18 12.04.2022
2758 Clouds 7 1010 87 9000 4.12 80 07:55 12.04.2022
2759 Clouds 7 1010 87 9000 5.66 80 05:50 12.04.2022
2760 Clouds 7 1010 87 10000 6.17 70 05:31 12.04.2022
2761 Clouds 8 1010 80 10000 6.17 60 23:59 11.04.2022
2762 Rain 9 1007 74 10000 6.69 70 22:44 11.04.2022
2763 Clouds 10 1010 74 10000 7.72 70 21:37 11.04.2022
2764 Clouds 10 1010 72 10000 6.17 70 20:56 11.04.2022
2765 Clouds 10 1009 71 10000 7.2 70 20:29 11.04.2022
2766 Rain 10 1009 71 10000 8.23 70 19:54 11.04.2022
2767 Clouds 11 1009 70 10000 8.23 70 19:18 11.04.2022
2768 Clouds 12 1007 66 10000 7.72 70 18:47 11.04.2022
2769 Clouds 12 1010 67 10000 9.77 80 17:56 11.04.2022
2770 Clouds 13 1007 57 10000 10.29 80 16:54 11.04.2022
2771 Clouds 12 1012 57 10000 8.23 90 15:54 11.04.2022
2772 Clouds 12 1013 57 10000 7.2 80 13:59 11.04.2022
2773 Clouds 11 1014 64 10000 6.17 70 12:52 11.04.2022
2774 Clouds 11 1014 67 10000 5.66 80 12:31 11.04.2022
2775 Clouds 10 1014 69 10000 6.17 70 11:31 11.04.2022
2776 Clouds 8 1015 75 10000 4.92 303 10:24 11.04.2022
2777 Clouds 6 1015 80 10000 5.81 314 08:56 11.04.2022
2778 Clouds 6 1016 79 10000 3.6 70 06:21 11.04.2022
2779 Clouds 6 1018 75 10000 3.09 30 01:53 11.04.2022
2780 Clouds 8 1018 61 10000 4.12 130 22:34 10.04.2022
2781 Clouds 8 1018 63 10000 4.12 130 21:55 10.04.2022
2782 Clouds 9 1018 63 10000 3.6 130 21:28 10.04.2022
2783 Clouds 9 1018 59 10000 3.6 160 20:30 10.04.2022
2784 Clouds 10 1018 56 10000 4.12 170 19:41 10.04.2022
2785 Clouds 9 1018 58 10000 4.63 210 19:18 10.04.2022
2786 Clouds 9 1018 58 10000 4.63 210 19:18 10.04.2022
2787 Clouds 10 1018 56 10000 3.6 190 18:38 10.04.2022
2788 Clouds 11 1018 56 10000 2.57 190 17:51 10.04.2022
2789 Clouds 11 1018 57 10000 3.09 210 17:31 10.04.2022
2790 Clouds 11 1019 57 10000 3.09 180 15:56 10.04.2022
2791 Clouds 10 1019 59 10000 3.6 230 14:51 10.04.2022
2792 Clouds 11 1019 58 10000 4.63 220 13:49 10.04.2022
2793 Clouds 9 1020 69 10000 1.79 187 12:33 10.04.2022
2794 Clouds 8 1020 70 10000 1.34 242 11:45 10.04.2022
2795 Clouds 8 1020 74 10000 1.54 50 11:24 10.04.2022
2796 Clouds 5 1021 75 10000 1.03 0 10:38 10.04.2022
2797 Clouds 3 1021 81 10000 1.03 0 09:46 10.04.2022
2798 Clouds 1 1020 84 10000 1.03 0 08:40 10.04.2022
2799 Clouds 0 1020 88 10000 2.06 60 08:18 10.04.2022
2800 Clouds 0 1020 87 10000 1.03 0 06:59 10.04.2022
2801 Clouds 1 1020 87 10000 1.03 290 04:36 10.04.2022
2802 Clouds 2 1021 80 10000 0.51 280 02:19 10.04.2022
2803 Clouds 3 1020 74 10000 3.09 250 23:54 09.04.2022
2804 Clouds 4 1020 73 10000 5.14 220 22:56 09.04.2022
2805 Clouds 4 1020 70 10000 5.14 220 22:38 09.04.2022
2806 Clouds 7 1016 64 10000 3.6 300 21:23 09.04.2022
2807 Clouds 8 1019 57 10000 5.66 290 20:30 09.04.2022
2808 Clouds 8 1019 53 10000 6.17 280 19:57 09.04.2022
2809 Clouds 9 1019 51 10000 6.17 280 19:39 09.04.2022
2810 Clouds 9 1018 49 10000 7.2 290 18:23 09.04.2022
2811 Clouds 10 1018 50 10000 7.2 290 17:49 09.04.2022
2812 Clouds 9 1018 49 10000 5.66 280 16:57 09.04.2022
2813 Clouds 10 1018 50 10000 5.66 280 16:38 09.04.2022
2814 Clouds 10 1018 50 10000 5.66 280 16:38 09.04.2022
2815 Clouds 10 1018 50 10000 5.66 280 16:38 09.04.2022
2816 Clouds 9 1018 49 10000 5.66 280 16:38 09.04.2022
2817 Clouds 10 1018 50 10000 5.66 280 16:38 09.04.2022
2818 Clouds 9 1018 51 10000 5.66 300 15:49 09.04.2022
2819 Clouds 9 1018 52 10000 5.66 280 15:25 09.04.2022
2820 Clouds 9 1018 53 10000 5.66 300 14:25 09.04.2022
2821 Clouds 8 1018 58 10000 5.14 280 13:26 09.04.2022
2822 Clouds 7 1018 61 10000 6.69 290 12:54 09.04.2022
2823 Clouds 6 1017 66 10000 5.66 290 11:45 09.04.2022
2824 Clouds 5 1017 74 10000 3.58 146 10:51 09.04.2022
2825 Clouds 4 1017 77 10000 4.12 230 10:18 09.04.2022
2826 Clouds 3 1016 80 10000 3.6 230 09:22 09.04.2022
2827 Clouds 1 1015 80 10000 2.06 250 07:49 09.04.2022
2828 Clouds 2 1013 80 10000 4.12 250 03:57 09.04.2022
2829 Clouds 3 1014 77 10000 1.34 139 00:33 09.04.2022
2830 Clouds 4 1011 72 10000 4.63 310 23:20 08.04.2022
2831 Clouds 5 1009 71 10000 4.02 203 21:43 08.04.2022
2832 Clouds 7 1008 68 10000 5.66 300 20:43 08.04.2022
2833 Clouds 8 1007 64 10000 6.17 300 19:46 08.04.2022
2834 Clouds 8 1007 58 10000 5.36 213 18:42 08.04.2022
2835 Clouds 8 1006 61 10000 4.47 272 18:18 08.04.2022
2836 Clouds 8 1006 50 10000 3.13 226 17:27 08.04.2022
2837 Clouds 8 1006 56 10000 5.14 280 16:52 08.04.2022
2838 Clouds 8 1005 57 10000 5.14 280 16:22 08.04.2022
2839 Clouds 9 1005 53 10000 4.47 235 15:28 08.04.2022
2840 Clouds 9 1005 52 10000 5.14 330 14:44 08.04.2022
2841 Clouds 8 1005 54 10000 4.63 330 13:55 08.04.2022
2842 Clouds 8 1005 56 10000 5.14 340 13:30 08.04.2022
2843 Clouds 7 1005 58 10000 5.14 320 12:42 08.04.2022
2844 Clouds 6 1003 68 10000 4.63 310 10:56 08.04.2022
2845 Clouds 4 1003 78 10000 3.09 300 09:41 08.04.2022
2846 Clouds 1 1003 85 10000 1.03 0 08:58 08.04.2022
2847 Clouds 0 1002 85 10000 2.57 240 07:42 08.04.2022
2848 Clouds 0 1002 86 10000 2.06 230 06:44 08.04.2022
2849 Clouds 1 1001 84 10000 2.57 250 02:29 08.04.2022
2850 Clouds 3 1000 83 10000 2.57 250 00:28 08.04.2022
2851 Clouds 3 1000 83 10000 3.58 168 23:41 07.04.2022
2852 Clouds 3 999 82 10000 3.13 193 22:41 07.04.2022
2853 Clouds 3 998 82 10000 2.24 173 22:22 07.04.2022
2854 Clouds 3 998 82 10000 2.06 10 21:56 07.04.2022
2855 Clouds 4 997 80 10000 4.12 350 21:23 07.04.2022
2856 Rain 6 993 73 10000 5.66 290 20:42 07.04.2022
2857 Clouds 7 994 70 10000 7.2 300 18:58 07.04.2022
2858 Clouds 9 993 48 10000 6.17 290 17:28 07.04.2022
2859 Clouds 9 992 49 10000 7.72 290 16:45 07.04.2022
2860 Clouds 8 992 53 10000 6.17 290 16:25 07.04.2022
2861 Clouds 8 992 55 10000 5.66 330 15:37 07.04.2022
2862 Clouds 6 990 65 10000 6.17 330 13:51 07.04.2022
2863 Rain 6 989 66 10000 6.17 340 13:23 07.04.2022
2864 Clouds 6 985 67 10000 6.17 350 11:49 07.04.2022
2865 Rain 5 982 77 10000 5.66 350 10:30 07.04.2022
2866 Clouds 4 979 80 10000 8.23 310 08:40 07.04.2022
2867 Clouds 4 977 90 10000 4.02 172 06:58 07.04.2022
2868 Clouds 3 974 93 10000 2.06 30 04:26 07.04.2022
2869 Clouds 4 974 89 10000 1.03 0 02:29 07.04.2022
2870 Rain 5 975 86 8000 7.72 200 00:42 07.04.2022
2871 Rain 5 977 86 10000 4.12 150 22:59 06.04.2022
2872 Rain 5 977 86 10000 4.12 150 22:39 06.04.2022
2873 Clouds 5 979 87 10000 3.09 140 21:47 06.04.2022
2874 Clouds 6 980 84 10000 5.66 220 20:41 06.04.2022
2875 Rain 7 981 87 10000 5.14 230 19:59 06.04.2022
2876 Clouds 7 984 86 10000 2.24 114 18:53 06.04.2022
2877 Rain 7 983 86 7000 7.2 220 18:34 06.04.2022
2878 Rain 8 983 77 10000 10.29 220 17:35 06.04.2022
2879 Clouds 10 985 74 10000 8.75 210 16:39 06.04.2022
2880 Clouds 10 986 75 10000 9.26 210 15:49 06.04.2022
2881 Clouds 10 986 78 10000 9.26 220 15:30 06.04.2022
2882 Clouds 9 987 74 10000 9.77 220 13:30 06.04.2022
2883 Clouds 8 988 79 10000 10.29 220 12:28 06.04.2022
2884 Clouds 8 989 81 10000 9.77 220 10:57 06.04.2022
2885 Clouds 8 989 83 10000 8.23 220 10:32 06.04.2022
2886 Clouds 7 990 85 10000 8.23 220 09:43 06.04.2022
2887 Clouds 7 990 86 10000 8.05 124 08:36 06.04.2022
2888 Clouds 7 990 86 10000 7.15 110 07:56 06.04.2022
2889 Clouds 8 992 89 10000 8.23 230 04:42 06.04.2022
2890 Clouds 9 995 89 10000 12.52 147 23:57 05.04.2022
2891 Rain 9 994 93 3200 12.07 137 23:22 05.04.2022
2892 Clouds 9 996 90 8000 12.52 129 21:31 05.04.2022
2893 Rain 9 997 92 5000 9.39 124 20:44 05.04.2022
2894 Clouds 9 998 93 2300 9.39 122 20:19 05.04.2022
2895 Rain 9 1000 89 10000 8.23 230 18:24 05.04.2022
2896 Rain 10 1001 88 10000 9.26 240 16:55 05.04.2022
2897 Rain 10 1001 89 10000 9.26 240 16:35 05.04.2022
2898 Rain 10 1002 89 10000 8.75 250 15:43 05.04.2022
2899 Rain 10 1002 89 10000 8.75 250 15:43 05.04.2022
2900 Rain 10 1002 89 10000 8.75 250 15:24 05.04.2022
2901 Clouds 11 1003 84 10000 8.75 260 13:38 05.04.2022
2902 Rain 10 1004 91 10000 7.2 240 11:51 05.04.2022
2903 Rain 10 1004 91 10000 7.6 148 11:51 05.04.2022
2904 Rain 10 1004 91 10000 8.94 133 11:33 05.04.2022
2905 Rain 10 1004 90 10000 10.28 129 10:52 05.04.2022
2906 Rain 9 1005 91 10000 4.92 130 09:29 05.04.2022
2907 Clouds 9 1005 88 10000 8.49 141 07:32 05.04.2022
2908 Clouds 10 1007 86 10000 6.17 240 02:43 05.04.2022
2909 Clouds 10 1008 87 10000 6.71 160 23:18 04.04.2022
2910 Clouds 10 1008 85 10000 7.2 250 22:29 04.04.2022
2911 Clouds 10 1007 85 10000 6.17 250 21:22 04.04.2022
2912 Rain 10 1007 85 10000 6.17 250 20:53 04.04.2022
2913 Clouds 11 1007 84 10000 6.17 250 20:35 04.04.2022
2914 Clouds 11 1007 83 10000 6.69 260 19:26 04.04.2022
2915 Clouds 12 1007 77 10000 7.72 270 18:39 04.04.2022
2916 Clouds 12 1007 76 10000 8.75 280 16:41 04.04.2022
2917 Clouds 12 1007 75 10000 9.26 270 16:23 04.04.2022
2918 Clouds 12 1007 74 10000 9.26 280 15:33 04.04.2022
2919 Clouds 13 1007 75 10000 8.23 270 14:46 04.04.2022
2920 Clouds 13 1008 75 10000 7.2 280 13:40 04.04.2022
2921 Clouds 12 1008 81 10000 7.72 270 12:26 04.04.2022
2922 Clouds 12 1007 82 10000 8.23 260 11:29 04.04.2022
2923 Clouds 11 1007 86 10000 8.75 260 09:51 04.04.2022
2924 Rain 10 1009 89 9000 7.2 240 05:33 04.04.2022
2925 Clouds 10 1011 87 10000 7.6 140 02:47 04.04.2022
2926 Clouds 7 1015 89 10000 7.72 230 22:49 03.04.2022
2927 Clouds 7 1016 88 10000 6.69 230 21:58 03.04.2022
2928 Clouds 7 1017 87 10000 7.2 220 21:25 03.04.2022
2929 Clouds 6 1019 82 10000 6.69 230 19:52 03.04.2022
2930 Rain 7 1021 78 10000 7.72 240 18:37 03.04.2022
2931 Rain 8 1022 73 10000 7.72 250 17:50 03.04.2022
2932 Rain 9 1020 69 10000 6.69 240 17:32 03.04.2022
2933 Clouds 9 1023 69 10000 6.17 250 16:49 03.04.2022
2934 Clouds 9 1024 74 10000 6.69 260 15:42 03.04.2022
2935 Clouds 10 1025 65 10000 4.63 300 13:58 03.04.2022
2936 Clouds 9 1026 65 10000 5.81 166 12:58 03.04.2022
2937 Clouds 7 1027 66 10000 4.92 168 11:34 03.04.2022
2938 Clouds 3 1028 82 10000 2.06 210 09:41 03.04.2022
2939 Clouds 1 1028 85 10000 3.09 250 08:52 03.04.2022
2940 Clouds 1 1031 82 10000 0.89 121 05:45 03.04.2022
2941 Clouds 2 1029 79 10000 1.54 220 02:55 03.04.2022
2942 Clouds 4 1029 72 10000 3.09 230 23:27 02.04.2022
2943 Clouds 4 1029 71 10000 2.57 230 22:41 02.04.2022
2944 Clouds 5 1029 68 10000 2.06 280 21:55 02.04.2022
2945 Haze 7 1029 57 4900 0.51 260 21:19 02.04.2022
2946 Clouds 7 1029 58 10000 0.51 20 20:36 02.04.2022
2947 Clouds 9 1028 55 10000 2.06 20 18:47 02.04.2022
2948 Clouds 9 1028 55 10000 1.34 13 18:19 02.04.2022
2949 Clouds 9 1028 56 10000 2.06 110 16:45 02.04.2022
2950 Clouds 7 1029 59 10000 1.54 120 15:27 02.04.2022
2951 Clouds 7 1029 64 10000 3.6 100 14:52 02.04.2022
2952 Clouds 7 1029 66 10000 2.06 50 14:20 02.04.2022
2953 Clouds 6 1029 73 10000 2.57 60 13:29 02.04.2022
2954 Clouds 4 1028 81 10000 2.68 302 11:56 02.04.2022
2955 Clouds 2 1028 87 10000 1.54 280 10:22 02.04.2022
2956 Clouds -2 1026 95 10000 1.54 150 07:48 02.04.2022
2957 Clouds 1 1025 86 10000 2.06 250 04:25 02.04.2022
2958 Clouds 3 1026 86 10000 0.45 135 00:27 02.04.2022
2959 Clouds 4 1024 85 10000 3.09 230 23:53 01.04.2022
2960 Clouds 5 1024 81 10000 3.09 250 22:34 01.04.2022
2961 Clouds 6 1024 69 10000 3.09 270 20:54 01.04.2022
2962 Clouds 6 1024 68 10000 3.09 270 20:35 01.04.2022
2963 Clouds 7 1024 71 10000 3.09 280 19:41 01.04.2022
2964 Clouds 7 1024 71 10000 4.12 280 19:23 01.04.2022
2965 Clouds 7 1024 72 10000 4.63 290 18:36 01.04.2022
2966 Clouds 7 1024 72 10000 5.14 300 17:36 01.04.2022
2967 Clouds 7 1025 58 10000 6.17 300 15:46 01.04.2022
2968 Clouds 8 1025 45 10000 4.12 310 14:47 01.04.2022
2969 Clouds 7 1026 46 10000 2.68 153 13:39 01.04.2022
2970 Clouds 6 1026 55 10000 2.57 250 12:33 01.04.2022
2971 Clouds 5 1026 56 10000 2.06 270 11:45 01.04.2022
2972 Clouds 3 1026 71 10000 1.79 131 10:41 01.04.2022
2973 Clouds 1 1026 79 10000 1.03 0 09:35 01.04.2022
2974 Clouds -2 1026 83 10000 2.57 220 07:19 01.04.2022
2975 Clear -1 1026 80 10000 1.54 290 04:57 01.04.2022
2976 Clear -1 1025 79 10000 1.79 131 04:39 01.04.2022
2977 Clear 0 1025 73 10000 2.68 270 02:32 01.04.2022
2978 Clouds 1 1025 72 10000 2.06 320 01:31 01.04.2022
2979 Clouds 3 1024 67 10000 2.57 0 22:23 31.03.2022
2980 Clouds 4 1024 63 10000 3.09 360 21:37 31.03.2022
2981 Clouds 4 1023 60 10000 2.68 289 20:43 31.03.2022
2982 Clouds 5 1022 57 10000 6.17 360 20:25 31.03.2022
2983 Clouds 7 1022 51 10000 4.63 360 19:18 31.03.2022
2984 Clouds 7 1022 53 10000 5.14 10 17:55 31.03.2022
2985 Clouds 7 1022 52 10000 5.81 274 16:45 31.03.2022
2986 Clouds 7 1022 51 10000 4.47 270 15:50 31.03.2022
2987 Clouds 7 1022 54 10000 5.36 270 15:21 31.03.2022
2988 Clouds 7 1022 55 10000 4.92 261 14:44 31.03.2022
2989 Clouds 6 1023 58 10000 5.14 20 13:27 31.03.2022
2990 Clear 4 1022 66 10000 2.68 201 11:29 31.03.2022
2991 Clear 3 1022 69 10000 2.57 340 10:19 31.03.2022
2992 Clear 0 1022 75 10000 1.54 330 08:52 31.03.2022
2993 Clear -1 1021 78 10000 3.6 350 07:24 31.03.2022
2994 Clear 0 1019 77 10000 4.47 284 00:46 31.03.2022
2995 Clear 1 1018 83 10000 2.24 305 23:23 30.03.2022
2996 Clouds 2 1018 85 10000 2.57 70 21:43 30.03.2022
2997 Rain 2 1017 83 10000 2.57 50 21:25 30.03.2022
2998 Rain 3 1016 77 10000 2.06 130 20:21 30.03.2022
2999 Clouds 3 1016 75 10000 3.09 50 19:38 30.03.2022
3000 Clouds 5 1015 59 10000 5.81 335 18:34 30.03.2022
3001 Clouds 6 1015 52 10000 6.69 10 17:48 30.03.2022
3002 Clouds 7 1015 44 10000 6.17 30 16:57 30.03.2022
3003 Clouds 7 1015 44 10000 7.2 50 16:38 30.03.2022
3004 Clouds 6 1015 51 10000 6.17 30 15:24 30.03.2022
3005 Clouds 6 1015 54 10000 5.81 321 13:44 30.03.2022
3006 Clouds 5 1016 60 10000 7.2 70 12:58 30.03.2022
3007 Clouds 4 1016 67 10000 6.69 50 11:34 30.03.2022
3008 Clouds 3 1016 72 10000 4.92 320 10:31 30.03.2022
3009 Clouds 3 1016 74 10000 4.92 322 09:25 30.03.2022
3010 Clouds 3 1015 73 10000 4.12 60 07:33 30.03.2022
3011 Clouds 3 1015 78 10000 4.12 60 05:41 30.03.2022
3012 Clouds 4 1016 85 10000 4.63 70 03:59 30.03.2022
3013 Clouds 4 1017 86 10000 6.69 60 00:42 30.03.2022
3014 Clouds 5 1016 85 10000 7.2 70 22:28 29.03.2022
3015 Rain 6 1016 85 10000 7.2 60 21:45 29.03.2022
3016 Clouds 7 1016 82 10000 5.81 332 20:54 29.03.2022
3017 Rain 8 1015 76 10000 5.14 50 20:19 29.03.2022
3018 Clouds 10 1015 71 10000 4.02 325 18:56 29.03.2022
3019 Clouds 10 1015 72 10000 5.14 80 18:21 29.03.2022
3020 Clouds 10 1016 73 9000 4.92 324 17:35 29.03.2022
3021 Clouds 10 1016 77 8000 6.17 80 16:56 29.03.2022
3022 Clouds 12 1014 71 10000 4.63 50 15:57 29.03.2022
3023 Clouds 12 1014 68 10000 4.63 80 14:52 29.03.2022
3024 Clouds 11 1015 77 9000 3.6 70 13:56 29.03.2022
3025 Clouds 10 1015 81 8000 1.03 0 12:51 29.03.2022
3026 Clouds 8 1015 87 7000 1.03 230 11:43 29.03.2022
3027 Clouds 6 1019 87 7000 0.51 260 10:28 29.03.2022
3028 Clouds 6 1019 88 7000 0.51 180 09:33 29.03.2022
3029 Clouds 5 1019 88 7000 2.06 230 06:56 29.03.2022
3030 Clouds 6 1021 84 9000 1.03 0 03:49 29.03.2022
3031 Clouds 8 1022 79 10000 1.54 60 00:33 29.03.2022
3032 Clouds 9 1022 77 10000 3.09 60 23:19 28.03.2022
3033 Clouds 9 1022 69 10000 3.6 60 22:47 28.03.2022
3034 Clouds 10 1022 69 10000 4.12 60 22:22 28.03.2022
3035 Clouds 13 1022 51 10000 4.12 90 20:53 28.03.2022
3036 Clouds 14 1022 58 10000 4.12 70 19:59 28.03.2022
3037 Clouds 14 1022 51 10000 4.12 70 19:40 28.03.2022
3038 Clouds 15 1022 53 10000 3.13 320 18:52 28.03.2022
3039 Clouds 15 1023 55 10000 3.09 40 18:19 28.03.2022
3040 Clouds 15 1023 51 10000 3.09 0 17:30 28.03.2022
3041 Clouds 16 1024 54 10000 2.24 296 15:48 28.03.2022
3042 Clear 15 1026 53 10000 2.68 335 14:24 28.03.2022
3043 Clear 14 1026 60 10000 1.03 0 13:33 28.03.2022
3044 Clear 11 1027 75 9000 1.54 40 11:54 28.03.2022
3045 Clear 10 1024 90 10000 0.61 309 10:39 28.03.2022
3046 Mist 3 1025 98 4400 1.54 250 09:21 28.03.2022
3047 Mist 3 1025 93 4200 1.03 0 08:45 28.03.2022
3048 Fog 4 1025 93 200 0.51 350 08:21 28.03.2022
3049 Fog 3 1026 100 450 1.03 230 07:23 28.03.2022
3050 Mist 6 1028 85 5000 0.51 0 02:46 28.03.2022
3051 Clouds 9 1032 80 10000 2.57 250 22:57 27.03.2022
3052 Clouds 10 1032 77 10000 2.06 250 21:55 27.03.2022
3053 Clouds 11 1032 74 10000 2.06 250 21:36 27.03.2022
3054 Clouds 12 1029 71 10000 3.6 230 20:41 27.03.2022
3055 Clear 16 1030 48 10000 2.06 290 19:43 27.03.2022
3056 Clear 16 1033 56 10000 3.13 217 18:47 27.03.2022
3057 Clear 17 1033 53 10000 3.09 320 18:24 27.03.2022
3058 Clear 17 1034 55 10000 2.57 300 17:37 27.03.2022
3059 Clear 17 1034 48 10000 2.24 167 15:55 27.03.2022
3060 Clouds 15 1035 60 10000 1.34 129 13:59 27.03.2022
3061 Clouds 14 1036 63 10000 1.34 172 13:25 27.03.2022
3062 Clouds 12 1039 74 10000 0.45 135 11:41 27.03.2022
3063 Mist 4 1035 100 5000 1.03 260 09:49 27.03.2022
3064 Fog 2 1035 100 750 0.51 240 07:47 27.03.2022
3065 Clouds 3 1035 93 6000 0.51 330 04:49 27.03.2022
3066 Clouds 7 1040 79 10000 0.45 135 00:26 27.03.2022
3067 Clouds 8 1038 76 10000 0.89 135 22:52 26.03.2022
3068 Clouds 10 1040 74 10000 0.89 135 22:22 26.03.2022
3069 Clouds 11 1038 71 10000 1.54 270 21:30 26.03.2022
3070 Clouds 14 1034 58 10000 2.06 250 19:38 26.03.2022
3071 Clouds 16 1034 51 10000 3.09 230 18:44 26.03.2022
3072 Clouds 17 1037 54 10000 3.09 240 17:41 26.03.2022
3073 Clouds 18 1037 53 10000 3.09 240 16:40 26.03.2022
3074 Clouds 17 1037 53 10000 2.24 203 15:42 26.03.2022
3075 Clouds 16 1038 58 10000 1.03 0 13:56 26.03.2022
3076 Clouds 16 1038 59 10000 1.34 188 13:36 26.03.2022
3077 Clouds 13 1039 70 10000 1.03 0 12:18 26.03.2022
3078 Clouds 12 1041 82 10000 0.89 10 10:48 26.03.2022
3079 Fog 4 1035 100 10000 1.03 20 08:50 26.03.2022
3080 Clear 3 1035 90 10000 1.03 0 06:56 26.03.2022
3081 Fog 3 1034 90 10000 1.03 220 05:31 26.03.2022
3082 Clear 5 1034 89 10000 1.03 200 02:24 26.03.2022
3083 Clear 8 1036 83 10000 2.06 250 22:30 25.03.2022
3084 Clear 11 1036 74 10000 1.54 260 20:58 25.03.2022
3085 Clear 12 1035 72 10000 1.54 250 20:26 25.03.2022
3086 Clear 14 1035 66 10000 3.09 250 19:19 25.03.2022
3087 Clear 15 1035 62 10000 4.12 260 18:34 25.03.2022
3088 Clouds 16 1034 61 10000 3.58 171 17:29 25.03.2022
3089 Clouds 15 1034 62 10000 2.68 189 16:27 25.03.2022
3090 Clouds 16 1035 60 10000 2.24 162 15:33 25.03.2022
3091 Clear 15 1035 66 10000 1.79 185 13:28 25.03.2022
3092 Mist 11 1036 87 4300 1.03 0 10:50 25.03.2022
3093 Mist 7 1035 92 1700 0.51 0 09:28 25.03.2022
3094 Mist 6 1035 96 1400 0 0 08:49 25.03.2022
3095 Fog 5 1035 93 100 0 0 07:35 25.03.2022
3096 Fog 5 1034 93 50 0.89 112 06:29 25.03.2022
3097 Fog 6 1034 92 50 2.57 230 02:28 25.03.2022
3098 Haze 8 1034 88 4100 3.09 240 22:56 24.03.2022
3099 Clouds 9 1033 84 7000 2.57 240 21:56 24.03.2022
3100 Clouds 10 1033 80 8000 2.57 260 20:51 24.03.2022
3101 Clouds 11 1032 76 10000 3.09 230 19:49 24.03.2022
3102 Clouds 14 1032 71 10000 2.57 240 18:34 24.03.2022
3103 Clouds 14 1031 67 10000 3.6 230 17:32 24.03.2022
3104 Clouds 15 1032 64 10000 3.6 220 15:56 24.03.2022
3105 Clouds 15 1031 63 10000 3.6 230 14:51 24.03.2022
3106 Clouds 15 1032 60 10000 3.09 230 14:21 24.03.2022
3107 Clouds 15 1032 59 10000 2.57 210 13:26 24.03.2022
3108 Clouds 14 1032 57 10000 2.24 131 12:23 24.03.2022
3109 Clouds 11 1032 71 7000 0.51 0 10:32 24.03.2022
3110 Haze 8 1032 81 5000 0.51 240 09:23 24.03.2022
3111 Haze 6 1032 84 3800 1.03 310 07:39 24.03.2022
3112 Haze 6 1032 83 4500 0.51 0 04:34 24.03.2022
3113 Haze 7 1033 78 5000 1.03 0 23:21 23.03.2022
3114 Clear 9 1033 72 7000 2.57 250 21:53 23.03.2022
3115 Clear 10 1032 67 8000 5.14 220 21:20 23.03.2022
3116 Clear 13 1031 55 10000 2.06 190 19:46 23.03.2022
3117 Clear 15 1028 47 10000 3.09 210 18:59 23.03.2022
3118 Clear 18 1031 45 10000 5.14 210 17:39 23.03.2022
3119 Clear 18 1031 44 10000 5.14 210 16:53 23.03.2022
3120 Clear 18 1032 46 10000 1.03 0 14:52 23.03.2022
3121 Clear 18 1032 49 9000 1.54 0 14:32 23.03.2022
3122 Clouds 16 1033 62 7000 1.54 40 13:21 23.03.2022
3123 Haze 10 1034 82 4600 1.03 0 10:20 23.03.2022
3124 Mist 6 1032 90 2800 1.03 220 06:55 23.03.2022
3125 Mist 6 1032 89 3000 1.79 353 05:27 23.03.2022
3126 Clouds 8 1032 83 6000 2.57 40 00:35 23.03.2022
3127 Clouds 9 1032 79 9000 2.06 20 23:41 22.03.2022
3128 Clouds 12 1031 74 10000 2.57 90 21:31 22.03.2022
3129 Clouds 12 1031 73 10000 3.6 70 20:51 22.03.2022
3130 Clouds 13 1030 67 10000 4.63 70 19:52 22.03.2022
3131 Clouds 14 1030 65 10000 4.63 70 19:24 22.03.2022
3132 Clouds 14 1030 61 10000 4.47 315 18:45 22.03.2022
3133 Clouds 16 1030 56 10000 4.47 310 17:38 22.03.2022
3134 Clouds 17 1030 56 10000 4.12 70 16:28 22.03.2022
3135 Clouds 16 1031 59 10000 5.14 60 15:23 22.03.2022
3136 Clouds 16 1031 60 10000 4.63 50 14:57 22.03.2022
3137 Clouds 15 1031 60 10000 4.63 50 14:38 22.03.2022
3138 Clouds 14 1032 63 10000 3.6 60 13:36 22.03.2022
3139 Clouds 11 1032 68 10000 2.06 70 11:52 22.03.2022
3140 Clouds 9 1032 74 9000 2.68 322 10:44 22.03.2022
3141 Haze 4 1032 88 3800 1.54 30 08:36 22.03.2022
3142 Haze 4 1031 84 4800 1.03 0 06:53 22.03.2022
3143 Clouds 5 1031 84 6000 1.34 326 03:49 22.03.2022
3144 Clouds 5 1032 80 10000 1.34 337 00:28 22.03.2022
3145 Clouds 6 1030 78 10000 1.54 60 22:42 21.03.2022
3146 Clouds 8 1030 72 10000 1.03 0 21:18 21.03.2022
3147 Clouds 8 1029 71 10000 1.03 0 20:40 21.03.2022
3148 Clouds 10 1029 67 10000 1.79 314 19:58 21.03.2022
3149 Clouds 10 1029 65 10000 1.03 360 19:33 21.03.2022
3150 Clouds 11 1028 59 10000 1.54 250 18:31 21.03.2022
3151 Clouds 12 1028 55 10000 1.03 0 17:19 21.03.2022
3152 Clouds 12 1028 53 10000 1.34 252 16:44 21.03.2022
3153 Clouds 12 1028 51 10000 1.79 234 15:55 21.03.2022
3154 Clouds 12 1028 52 10000 1.54 0 15:19 21.03.2022
3155 Clouds 11 1029 56 10000 1.54 40 14:25 21.03.2022
3156 Clouds 8 1029 66 10000 2.57 100 12:40 21.03.2022
3157 Clouds 7 1030 71 9000 2.06 80 11:52 21.03.2022
3158 Clouds 4 1030 81 7000 1.34 349 10:40 21.03.2022
3159 Fog -1 1027 90 550 0 0 08:30 21.03.2022
3160 Mist -2 1030 90 1400 0.51 230 06:48 21.03.2022
3161 Clouds 2 1030 85 9000 3.09 70 02:52 21.03.2022
3162 Clouds 3 1030 80 10000 4.12 60 00:19 21.03.2022
3163 Clouds 5 1030 78 10000 4.63 70 22:44 20.03.2022
3164 Clouds 6 1030 75 10000 4.63 60 21:52 20.03.2022
3165 Clouds 6 1030 75 10000 4.63 60 21:52 20.03.2022
3166 Clouds 7 1030 73 10000 4.63 60 21:25 20.03.2022
3167 Clouds 7 1030 70 10000 3.13 331 20:43 20.03.2022
3168 Clouds 9 1029 66 10000 3.13 323 19:59 20.03.2022
3169 Clouds 10 1029 53 10000 3.6 160 19:31 20.03.2022
3170 Clear 12 1029 53 10000 4.63 150 18:22 20.03.2022
3171 Clear 12 1029 52 10000 4.12 120 17:33 20.03.2022
3172 Clear 13 1030 46 10000 4.63 130 16:57 20.03.2022
3173 Clear 12 1030 52 10000 6.17 130 15:35 20.03.2022
3174 Clear 12 1031 51 10000 5.66 100 14:35 20.03.2022
3175 Clear 10 1033 57 10000 7.2 110 12:35 20.03.2022
3176 Clear 8 1034 65 10000 4.63 90 11:23 20.03.2022
3177 Clear 5 1035 75 10000 3.6 70 09:26 20.03.2022
3178 Clear 3 1035 76 10000 3.6 80 07:28 20.03.2022
3179 Clear 3 1035 70 10000 6.71 328 05:40 20.03.2022
3180 Clear 6 1037 57 10000 5.66 70 01:56 20.03.2022
3181 Clear 7 1037 60 10000 4.63 50 00:45 20.03.2022
3182 Clear 8 1037 72 10000 5.14 30 23:19 19.03.2022
3183 Clear 10 1035 64 10000 6.69 70 21:28 19.03.2022
3184 Clear 10 1037 69 10000 6.17 80 20:49 19.03.2022
3185 Clouds 15 1035 36 10000 5.66 100 18:58 19.03.2022
3186 Clear 15 1038 42 10000 6.17 110 18:24 19.03.2022
3187 Clear 16 1038 39 10000 6.17 110 17:35 19.03.2022
3188 Clouds 16 1040 46 10000 7.2 100 15:46 19.03.2022
3189 Clouds 16 1040 48 10000 7.72 100 14:57 19.03.2022
3190 Clear 13 1042 58 10000 5.81 311 13:19 19.03.2022
3191 Clear 13 1042 58 10000 5.81 311 13:19 19.03.2022
3192 Clear 13 1043 59 10000 4.92 334 12:40 19.03.2022
3193 Clear 11 1043 68 10000 4.63 80 11:54 19.03.2022
3194 Clear 11 1043 68 10000 4.63 80 11:54 19.03.2022
3195 Clear 9 1044 84 10000 1.03 0 10:47 19.03.2022
3196 Fog 2 1045 92 400 1.03 0 06:51 19.03.2022
3197 Fog 3 1045 90 200 1.03 100 03:24 19.03.2022
3198 Clouds 3 1045 90 6000 0.51 0 02:29 19.03.2022
3199 Clouds 6 1045 87 10000 1.54 140 23:44 18.03.2022
3200 Clouds 6 1045 85 10000 1.54 80 22:27 18.03.2022
3201 Clouds 8 1045 79 10000 1.54 120 21:37 18.03.2022
3202 Clouds 10 1044 72 10000 4.63 160 19:51 18.03.2022
3203 Clouds 11 1044 66 10000 4.63 160 19:21 18.03.2022
3204 Clouds 13 1043 59 10000 4.63 190 17:50 18.03.2022
3205 Clouds 14 1043 56 10000 4.63 190 16:48 18.03.2022
3206 Clouds 13 1043 59 10000 5.14 210 15:26 18.03.2022
3207 Clouds 12 1044 62 10000 6.17 200 14:22 18.03.2022
3208 Clouds 10 1044 66 10000 5.14 200 12:27 18.03.2022
3209 Clouds 7 1044 74 10000 3.09 40 10:52 18.03.2022
3210 Clouds 3 1043 84 10000 1.54 60 09:29 18.03.2022
3211 Clouds 1 1043 86 9000 2.06 60 08:30 18.03.2022
3212 Clouds 2 1041 86 10000 0.51 0 06:34 18.03.2022
3213 Clouds 3 1038 84 10000 4.63 240 02:51 18.03.2022
3214 Clouds 5 1037 77 10000 5.66 250 00:22 18.03.2022
3215 Clouds 5 1036 74 10000 7.2 250 23:22 17.03.2022
3216 Clouds 4 1035 81 10000 4.63 230 22:24 17.03.2022
3217 Clouds 5 1034 78 10000 4.63 230 21:48 17.03.2022
3218 Clouds 6 1033 73 10000 5.14 210 21:21 17.03.2022
3219 Clouds 5 1033 76 10000 4.63 230 20:42 17.03.2022
3220 Clouds 6 1031 71 10000 4.12 250 19:47 17.03.2022
3221 Clouds 8 1030 64 10000 6.69 250 18:57 17.03.2022
3222 Clouds 8 1029 65 10000 6.71 134 18:37 17.03.2022
3223 Clouds 9 1027 78 10000 8.75 250 16:48 17.03.2022
3224 Clouds 9 1025 82 10000 7.2 220 15:44 17.03.2022
3225 Clouds 9 1025 86 10000 9.26 220 15:23 17.03.2022
3226 Clouds 9 1024 79 10000 10.29 210 13:50 17.03.2022
3227 Clouds 9 1024 80 10000 10.29 210 12:51 17.03.2022
3228 Clouds 8 1024 81 10000 10.29 210 12:21 17.03.2022
3229 Clouds 6 1023 83 10000 6.17 200 11:27 17.03.2022
3230 Rain 5 1024 85 10000 5.66 200 09:57 17.03.2022
3231 Clouds 2 1024 91 9000 1.03 0 08:34 17.03.2022
3232 Clouds 2 1024 91 9000 1.03 0 08:34 17.03.2022
3233 Clouds 0 1024 92 9000 2.57 60 07:32 17.03.2022
3234 Mist 0 1025 92 3600 1.54 20 05:47 17.03.2022
3235 Clouds 1 1025 85 10000 1.34 116 00:46 17.03.2022
3236 Clouds 2 1025 83 10000 1.54 260 23:39 16.03.2022
3237 Clouds 2 1025 82 10000 3.6 240 22:44 16.03.2022
3238 Clouds 2 1024 81 10000 3.6 240 22:21 16.03.2022
3239 Clouds 4 1026 76 10000 0.45 135 21:34 16.03.2022
3240 Clouds 7 1023 65 10000 3.09 280 19:27 16.03.2022
3241 Clouds 8 1023 62 10000 4.63 290 18:58 16.03.2022
3242 Clouds 8 1023 61 10000 4.63 290 18:35 16.03.2022
3243 Clouds 9 1023 61 10000 5.14 290 17:41 16.03.2022
3244 Clouds 8 1022 67 10000 4.12 280 16:50 16.03.2022
3245 Clouds 8 1022 70 10000 4.12 280 15:53 16.03.2022
3246 Clouds 8 1022 72 10000 3.6 290 14:24 16.03.2022
3247 Clouds 8 1021 76 10000 3.6 290 13:22 16.03.2022
3248 Clouds 7 1021 81 10000 3.6 290 11:51 16.03.2022
3249 Clouds 7 1021 84 10000 3.13 162 11:19 16.03.2022
3250 Clouds 6 1020 90 10000 3.09 280 09:59 16.03.2022
3251 Clouds 6 1020 90 10000 1.54 250 08:37 16.03.2022
3252 Rain 7 1017 88 10000 3.6 180 03:33 16.03.2022
3253 Rain 7 1018 86 10000 5.14 200 23:39 15.03.2022
3254 Clouds 8 1017 82 10000 4.63 190 22:37 15.03.2022
3255 Clouds 8 1017 81 10000 4.63 190 21:33 15.03.2022
3256 Clouds 9 1017 76 10000 6.69 180 19:47 15.03.2022
3257 Rain 9 1017 71 10000 5.14 200 18:38 15.03.2022
3258 Clouds 10 1017 68 10000 5.66 190 16:45 15.03.2022
3259 Clouds 10 1017 68 10000 5.66 190 16:18 15.03.2022
3260 Clouds 9 1018 65 10000 8.23 190 14:55 15.03.2022
3261 Clouds 9 1018 67 10000 7.72 200 14:30 15.03.2022
3262 Clouds 9 1019 71 10000 5.66 190 13:24 15.03.2022
3263 Clouds 8 1020 76 10000 7.2 190 11:48 15.03.2022
3264 Clouds 7 1020 79 10000 6.17 190 10:56 15.03.2022
3265 Clouds 6 1020 83 10000 5.14 180 09:30 15.03.2022
3266 Clouds 5 1017 80 10000 3.09 0 08:32 15.03.2022
3267 Clouds 4 1021 85 10000 1.54 10 07:39 15.03.2022
3268 Clouds 3 1021 86 10000 1.54 30 06:32 15.03.2022
3269 Clear 2 1023 89 10000 0.51 0 01:59 15.03.2022
3270 Clouds 4 1023 87 10000 2.57 230 23:32 14.03.2022
3271 Clouds 5 1024 85 10000 5.14 240 22:54 14.03.2022
3272 Clouds 6 1023 84 10000 4.12 250 21:56 14.03.2022
3273 Clouds 6 1023 81 10000 4.63 240 21:18 14.03.2022
3274 Clouds 7 1022 79 10000 7.15 148 20:30 14.03.2022
3275 Clouds 8 1021 83 10000 6.69 260 19:33 14.03.2022
3276 Rain 8 1018 89 8000 7.2 250 17:59 14.03.2022
3277 Rain 8 1018 89 8000 7.2 250 17:41 14.03.2022
3278 Clouds 8 1017 90 3100 1.03 0 16:33 14.03.2022
3279 Rain 7 1017 85 10000 5.66 160 14:52 14.03.2022
3280 Rain 7 1018 84 10000 6.69 190 13:57 14.03.2022
3281 Clouds 8 1018 75 10000 6.17 180 11:27 14.03.2022
3282 Clouds 8 1017 76 10000 6.17 180 09:57 14.03.2022
3283 Clouds 8 1017 76 10000 6.17 180 09:35 14.03.2022
3284 Clouds 7 1017 77 10000 4.63 180 08:58 14.03.2022
3285 Clouds 7 1017 77 10000 4.12 170 08:28 14.03.2022
3286 Clouds 7 1016 76 10000 3.6 180 06:47 14.03.2022
3287 Clouds 7 1013 79 10000 5.14 180 03:27 14.03.2022
3288 Clouds 8 1012 78 10000 3.09 180 01:39 14.03.2022
3289 Clouds 8 1010 80 10000 5.14 190 00:29 14.03.2022
3290 Clouds 9 1007 80 10000 5.14 140 21:49 13.03.2022
3291 Clouds 9 1007 78 10000 4.12 110 21:21 13.03.2022
3292 Clouds 9 1006 77 10000 4.63 130 20:46 13.03.2022
3293 Clouds 9 1006 77 10000 5.14 160 20:22 13.03.2022
3294 Clouds 9 1005 75 10000 5.66 150 19:42 13.03.2022
3295 Clouds 9 1004 74 10000 5.66 150 19:22 13.03.2022
3296 Clouds 9 1004 74 10000 5.66 150 19:22 13.03.2022
3297 Clouds 10 1004 73 10000 6.69 150 18:45 13.03.2022
3298 Clouds 10 1003 71 10000 7.2 150 18:25 13.03.2022
3299 Clouds 11 1003 67 10000 8.23 160 17:36 13.03.2022
3300 Clouds 11 1002 63 10000 10.29 150 16:45 13.03.2022
3301 Clouds 12 1002 62 10000 9.77 160 16:21 13.03.2022
3302 Clouds 12 1001 62 10000 8.75 150 15:39 13.03.2022
3303 Clouds 12 1001 61 10000 10.29 150 14:36 13.03.2022
3304 Clouds 11 998 65 10000 7.72 150 13:27 13.03.2022
3305 Clouds 10 998 73 10000 5.14 130 12:21 13.03.2022
3306 Clouds 9 1001 79 10000 6.17 100 11:36 13.03.2022
3307 Clouds 9 1001 81 10000 6.69 80 10:49 13.03.2022
3308 Clouds 8 1001 80 10000 5.66 90 10:25 13.03.2022
3309 Clouds 8 1001 82 10000 5.14 90 09:41 13.03.2022
3310 Clouds 8 1001 82 10000 4.63 90 08:49 13.03.2022
3311 Clouds 8 1001 82 10000 4.63 80 08:21 13.03.2022
3312 Clouds 7 1001 84 10000 5.66 80 06:40 13.03.2022
3313 Rain 7 1003 84 10000 6.17 100 03:56 13.03.2022
3314 Rain 7 1004 84 10000 5.14 80 00:48 13.03.2022
3315 Clouds 7 1006 78 10000 5.66 60 22:48 12.03.2022
3316 Clouds 6 1007 79 10000 3.09 70 20:59 12.03.2022
3317 Clouds 6 1007 77 10000 2.57 150 19:58 12.03.2022
3318 Clouds 6 1007 77 10000 2.57 150 19:39 12.03.2022
3319 Clouds 7 1006 77 10000 4.63 210 18:31 12.03.2022
3320 Clouds 8 1006 76 10000 5.14 220 17:43 12.03.2022
3321 Clouds 9 1005 77 10000 6.69 210 16:25 12.03.2022
3322 Clouds 9 1004 84 10000 8.23 210 15:24 12.03.2022
3323 Clouds 9 1003 82 10000 6.69 210 14:52 12.03.2022
3324 Clouds 9 1003 81 10000 6.69 200 13:53 12.03.2022
3325 Clouds 9 1003 81 10000 6.69 200 13:53 12.03.2022
3326 Clouds 7 1001 87 10000 6.26 141 12:25 12.03.2022
3327 Rain 6 1001 88 10000 11.18 132 11:51 12.03.2022
3328 Rain 7 1000 88 10000 6.71 108 11:19 12.03.2022
3329 Rain 8 1000 90 10000 3.13 30 09:58 12.03.2022
3330 Clouds 8 1000 90 10000 4.02 43 09:38 12.03.2022
3331 Clouds 7 1000 90 10000 4.12 100 07:50 12.03.2022
3332 Clouds 8 1000 87 10000 1.79 22 04:50 12.03.2022
3333 Rain 9 998 90 10000 2.57 130 00:21 12.03.2022
3334 Rain 9 998 90 10000 2.06 100 23:19 11.03.2022
3335 Rain 9 998 90 10000 2.06 100 23:19 11.03.2022
3336 Rain 9 998 84 10000 3.6 120 21:43 11.03.2022
3337 Rain 10 998 82 10000 3.6 140 20:57 11.03.2022
3338 Clouds 10 998 81 10000 3.6 140 20:37 11.03.2022
3339 Clouds 10 997 79 10000 7.2 130 19:52 11.03.2022
3340 Clouds 10 997 80 10000 7.72 120 19:22 11.03.2022
3341 Rain 11 997 79 10000 7.72 110 17:34 11.03.2022
3342 Rain 12 998 72 10000 8.75 120 16:38 11.03.2022
3343 Rain 12 999 68 10000 7.72 120 15:55 11.03.2022
3344 Clouds 12 1000 63 10000 7.2 120 14:20 11.03.2022
3345 Clouds 12 1001 67 10000 8.23 130 12:45 11.03.2022
3346 Clouds 12 1001 68 10000 8.23 120 12:21 11.03.2022
3347 Clouds 12 1002 70 10000 8.23 130 11:53 11.03.2022
3348 Clouds 9 1003 86 10000 4.63 60 09:59 11.03.2022
3349 Clouds 8 1004 87 10000 3.6 60 08:56 11.03.2022
3350 Clouds 7 1004 87 10000 4.02 328 08:24 11.03.2022
3351 Clouds 7 1005 88 10000 4.63 70 07:45 11.03.2022
3352 Clouds 5 1006 88 10000 3.09 40 05:44 11.03.2022
3353 Clouds 6 1008 88 10000 3.13 317 03:41 11.03.2022
3354 Clouds 6 1011 79 10000 2.68 335 23:36 10.03.2022
3355 Clouds 6 1012 75 10000 2.57 140 22:30 10.03.2022
3356 Clouds 7 1012 73 10000 4.12 150 21:27 10.03.2022
3357 Clouds 7 1012 72 10000 6.17 160 20:55 10.03.2022
3358 Clouds 8 1011 77 10000 3.09 190 19:23 10.03.2022
3359 Clouds 10 1011 76 10000 3.58 90 18:40 10.03.2022
3360 Clouds 10 1011 78 10000 5.66 170 16:54 10.03.2022
3361 Clouds 11 1011 78 10000 7.72 160 15:49 10.03.2022
3362 Clouds 11 1011 78 10000 7.72 160 14:39 10.03.2022
3363 Clouds 11 1012 78 10000 7.2 160 12:53 10.03.2022
3364 Clouds 11 1012 79 10000 6.17 160 11:42 10.03.2022
3365 Clouds 10 1013 82 10000 4.02 72 10:24 10.03.2022
3366 Clouds 9 1013 87 10000 4.92 63 08:49 10.03.2022
3367 Clouds 8 1010 91 4800 2.06 60 06:36 10.03.2022
3368 Drizzle 6 1011 92 3600 1.54 100 03:42 10.03.2022
3369 Rain 4 1011 90 9000 2.06 220 00:23 10.03.2022
3370 Rain 4 1010 89 10000 2.06 220 22:45 09.03.2022
3371 Rain 5 1010 89 10000 3.09 270 21:48 09.03.2022
3372 Rain 5 1009 89 10000 3.6 280 21:23 09.03.2022
3373 Rain 7 1008 87 9000 4.12 280 19:40 09.03.2022
3374 Rain 9 1006 86 4700 2.06 270 18:19 09.03.2022
3375 Rain 9 1005 82 7000 8.75 160 17:26 09.03.2022
3376 Rain 9 1005 80 9000 8.75 150 16:23 09.03.2022
3377 Clouds 9 1005 79 10000 9.26 160 14:27 09.03.2022
3378 Clouds 9 1005 76 10000 8.75 160 13:51 09.03.2022
3379 Clouds 9 1005 78 10000 8.75 160 12:27 09.03.2022
3380 Clouds 9 1005 76 10000 8.23 170 11:48 09.03.2022
3381 Clouds 9 1005 74 10000 7.2 150 10:59 09.03.2022
3382 Clouds 8 1005 76 10000 6.17 130 09:40 09.03.2022
3383 Clouds 8 1004 76 10000 6.69 140 08:45 09.03.2022
3384 Clouds 8 1005 77 10000 7.2 150 06:25 09.03.2022
3385 Clouds 7 1009 82 10000 3.6 140 00:59 09.03.2022
3386 Clouds 7 1009 82 10000 4.12 150 23:48 08.03.2022
3387 Clouds 7 1008 83 10000 6.69 180 22:46 08.03.2022
3388 Clouds 7 1008 84 10000 9.26 180 21:47 08.03.2022
3389 Rain 8 1007 82 10000 9.77 170 21:19 08.03.2022
3390 Clouds 8 1007 78 10000 10.8 160 20:19 08.03.2022
3391 Clouds 8 1006 75 10000 11.83 150 18:57 08.03.2022
3392 Rain 9 1006 71 10000 10.8 150 18:21 08.03.2022
3393 Clouds 10 1007 57 10000 5.66 140 16:40 08.03.2022
3394 Clear 9 1009 52 10000 8.75 130 14:36 08.03.2022
3395 Clear 8 1010 56 10000 6.69 110 13:23 08.03.2022
3396 Clear 6 1011 59 10000 5.66 100 12:20 08.03.2022
3397 Clear 5 1012 61 10000 7.2 120 11:41 08.03.2022
3398 Clouds 3 1013 66 10000 5.66 110 10:27 08.03.2022
3399 Clouds 2 1014 71 10000 4.63 80 08:30 08.03.2022
3400 Clouds 2 1016 73 10000 6.17 110 05:48 08.03.2022
3401 Clear 1 1019 81 10000 5.66 80 01:49 08.03.2022
3402 Clear 2 1021 78 10000 3.09 60 22:41 07.03.2022
3403 Clear 3 1022 75 10000 2.24 338 21:36 07.03.2022
3404 Clear 3 1022 75 10000 2.57 110 20:55 07.03.2022
3405 Clear 3 1023 74 10000 2.57 120 20:26 07.03.2022
3406 Clear 4 1023 68 10000 2.57 120 19:41 07.03.2022
3407 Clouds 6 1024 66 10000 2.57 130 18:47 07.03.2022
3408 Clouds 7 1024 62 10000 4.63 170 17:58 07.03.2022
3409 Clouds 7 1025 63 10000 3.6 110 16:56 07.03.2022
3410 Clouds 7 1025 63 10000 4.12 170 16:30 07.03.2022
3411 Clouds 7 1027 66 10000 3.09 130 14:31 07.03.2022
3412 Clouds 5 1029 74 10000 1.54 140 12:33 07.03.2022
3413 Clouds 3 1032 87 10000 0.89 272 10:39 07.03.2022
3414 Clouds 2 1027 94 10000 0.8 165 09:47 07.03.2022
3415 Clouds -2 1028 93 10000 1.03 0 06:35 07.03.2022
3416 Clouds 0 1034 88 10000 0.51 0 00:23 07.03.2022
3417 Clouds 1 1034 86 10000 1.54 130 23:41 06.03.2022
3418 Clouds 1 1034 83 10000 1.03 0 22:57 06.03.2022
3419 Clouds 2 1034 83 10000 0.51 320 22:24 06.03.2022
3420 Clouds 3 1033 76 10000 1.54 240 20:51 06.03.2022
3421 Clouds 3 1033 73 10000 2.57 220 20:26 06.03.2022
3422 Clouds 6 1033 67 10000 2.06 300 19:23 06.03.2022
3423 Clouds 8 1033 59 10000 1.54 310 18:25 06.03.2022
3424 Clouds 8 1033 59 10000 1.54 310 18:25 06.03.2022
3425 Clouds 9 1033 55 10000 1.03 0 17:21 06.03.2022
3426 Clouds 9 1034 57 10000 1.03 0 16:43 06.03.2022
3427 Clouds 9 1034 56 10000 1.54 270 15:54 06.03.2022
3428 Clouds 9 1035 59 10000 1.54 0 14:57 06.03.2022
3429 Clouds 9 1036 61 10000 1.54 0 14:33 06.03.2022
3430 Clouds 7 1036 68 10000 1.34 71 13:30 06.03.2022
3431 Clouds 7 1037 72 10000 0.89 62 12:35 06.03.2022
3432 Clouds 4 1038 80 10000 0.89 1 11:18 06.03.2022
3433 Clouds 2 1040 90 10000 0.89 1 10:27 06.03.2022
3434 Fog -2 1035 96 10000 1.03 0 08:30 06.03.2022
3435 Fog -2 1035 96 10000 1.03 0 08:30 06.03.2022
3436 Fog -2 1035 93 10000 1.03 0 07:35 06.03.2022
3437 Fog -1 1034 92 10000 0.51 30 05:40 06.03.2022
3438 Clear 0 1037 86 10000 1.03 0 00:51 06.03.2022
3439 Clear 1 1039 82 10000 0.64 51 00:30 06.03.2022
3440 Clear 2 1039 76 10000 0.89 69 23:21 05.03.2022
3441 Clear 2 1037 76 10000 2.57 230 22:47 05.03.2022
3442 Clear 4 1036 72 10000 1.03 0 21:46 05.03.2022
3443 Clear 4 1036 68 10000 0.51 0 21:21 05.03.2022
3444 Clear 5 1036 66 10000 2.06 350 19:44 05.03.2022
3445 Clouds 7 1035 58 10000 4.63 20 18:54 05.03.2022
3446 Clouds 8 1035 57 10000 2.57 30 18:27 05.03.2022
3447 Clouds 9 1034 52 10000 5.66 20 16:34 05.03.2022
3448 Clouds 10 1034 51 10000 5.66 20 15:31 05.03.2022
3449 Clouds 9 1034 54 10000 5.14 30 14:47 05.03.2022
3450 Clouds 9 1035 55 10000 4.63 40 14:29 05.03.2022
3451 Clear 8 1035 59 10000 4.47 288 13:21 05.03.2022
3452 Clear 6 1035 69 10000 2.57 270 11:48 05.03.2022
3453 Clear 5 1035 74 10000 1.79 205 11:18 05.03.2022
3454 Clear 2 1034 84 10000 1.03 230 09:59 05.03.2022
3455 Clear 0 1030 86 10000 1.54 220 08:59 05.03.2022
3456 Clear -1 1032 86 10000 1.54 200 07:37 05.03.2022
3457 Clear -1 1031 87 10000 1.54 230 05:42 05.03.2022
3458 Clear 1 1030 83 10000 2.06 220 02:20 05.03.2022
3459 Clouds 2 1028 82 10000 3.09 270 23:36 04.03.2022
3460 Clouds 3 1030 77 10000 1.79 166 22:42 04.03.2022
3461 Clouds 4 1027 75 10000 1.54 310 21:47 04.03.2022
3462 Clouds 5 1027 74 10000 4.12 310 20:51 04.03.2022
3463 Clouds 5 1026 72 10000 3.09 300 20:21 04.03.2022
3464 Clouds 6 1026 71 10000 3.6 300 19:35 04.03.2022
3465 Clouds 7 1025 65 10000 4.63 290 18:37 04.03.2022
3466 Clouds 8 1025 67 10000 5.14 310 17:30 04.03.2022
3467 Clouds 8 1025 67 10000 6.17 290 16:43 04.03.2022
3468 Clouds 9 1024 71 10000 6.17 290 15:28 04.03.2022
3469 Clouds 9 1024 68 10000 5.66 290 14:19 04.03.2022
3470 Clouds 8 1024 70 10000 4.63 290 13:24 04.03.2022
3471 Clouds 6 1024 80 10000 4.63 290 11:40 04.03.2022
3472 Clouds 5 1024 84 10000 4.63 290 10:42 04.03.2022
3473 Clouds 4 1025 87 10000 0.89 116 09:28 04.03.2022
3474 Clouds 3 1025 88 10000 2.24 131 08:34 04.03.2022
3475 Clouds 3 1022 89 10000 2.06 220 07:23 04.03.2022
3476 Clouds 4 1022 92 10000 2.06 260 03:43 04.03.2022
3477 Clouds 5 1021 87 10000 2.57 230 00:22 04.03.2022
3478 Rain 6 1022 83 10000 0.89 135 22:21 03.03.2022
3479 Clouds 6 1020 84 10000 2.57 240 21:39 03.03.2022
3480 Rain 6 1020 84 10000 2.57 240 20:59 03.03.2022
3481 Clouds 7 1019 83 10000 2.06 270 19:48 03.03.2022
3482 Clouds 7 1019 81 10000 3.09 280 18:49 03.03.2022
3483 Clouds 8 1018 79 10000 3.09 280 17:46 03.03.2022
3484 Clouds 8 1018 78 10000 3.6 280 17:26 03.03.2022
3485 Rain 8 1018 78 10000 3.09 280 15:47 03.03.2022
3486 Clouds 8 1017 80 10000 4.02 191 14:53 03.03.2022
3487 Clouds 8 1017 81 10000 3.6 260 14:32 03.03.2022
3488 Clouds 8 1016 87 10000 3.6 250 12:52 03.03.2022
3489 Clouds 8 1015 89 6000 5.66 200 11:39 03.03.2022
3490 Haze 7 1015 89 5000 5.66 170 10:40 03.03.2022
3491 Rain 7 1014 88 10000 4.12 100 08:45 03.03.2022
3492 Rain 7 1013 87 9000 4.63 110 07:25 03.03.2022
3493 Rain 7 1013 86 9000 5.66 120 06:33 03.03.2022
3494 Clouds 7 1015 86 10000 1.79 339 01:21 03.03.2022
3495 Clouds 7 1016 88 9000 5.14 80 23:29 02.03.2022
3496 Clouds 7 1016 88 10000 5.66 70 22:49 02.03.2022
3497 Clouds 7 1016 88 10000 6.69 70 21:29 02.03.2022
3498 Rain 7 1017 86 10000 6.17 70 20:44 02.03.2022
3499 Rain 7 1017 88 10000 5.66 60 19:56 02.03.2022
3500 Rain 7 1017 88 10000 5.66 60 19:56 02.03.2022
3501 Rain 7 1018 89 10000 5.66 60 19:33 02.03.2022
3502 Rain 7 1018 89 10000 4.02 342 18:44 02.03.2022
3503 Rain 7 1019 86 10000 5.14 80 17:57 02.03.2022
3504 Rain 7 1019 84 10000 6.69 80 17:21 02.03.2022
3505 Clouds 7 1020 83 10000 6.17 70 16:42 02.03.2022
3506 Clouds 6 1022 82 10000 6.17 70 14:43 02.03.2022
3507 Clouds 6 1023 79 10000 5.81 337 13:24 02.03.2022
3508 Clouds 5 1024 81 10000 8.23 70 12:42 02.03.2022
3509 Clouds 5 1024 80 10000 7.72 60 11:40 02.03.2022
3510 Clouds 4 1025 82 10000 6.69 70 11:21 02.03.2022
3511 Clear 2 1026 86 10000 5.14 80 09:41 02.03.2022
3512 Clear 0 1027 89 10000 4.92 333 08:54 02.03.2022
3513 Clear -1 1027 88 10000 4.02 332 07:28 02.03.2022
3514 Clear 0 1027 87 10000 4.63 90 06:40 02.03.2022
3515 Clear 1 1031 86 10000 2.06 70 00:58 02.03.2022
3516 Clear 2 1031 85 10000 2.06 60 23:47 01.03.2022
3517 Clear 2 1032 84 10000 0.89 22 22:45 01.03.2022
3518 Clear 3 1032 82 10000 2.06 110 21:57 01.03.2022
3519 Clear 3 1032 82 10000 1.03 0 21:23 01.03.2022
3520 Clear 4 1032 79 10000 2.06 30 20:29 01.03.2022
3521 Clouds 6 1032 69 10000 1.54 60 19:24 01.03.2022
3522 Clouds 8 1032 65 10000 0.89 357 18:37 01.03.2022
3523 Clouds 9 1032 63 10000 2.06 20 18:18 01.03.2022
3524 Clouds 10 1032 60 10000 1.03 0 16:54 01.03.2022
3525 Clouds 10 1033 61 10000 0.89 52 16:30 01.03.2022
3526 Clouds 9 1033 66 10000 1.54 230 15:23 01.03.2022
3527 Clouds 9 1033 66 10000 1.34 95 14:34 01.03.2022
3528 Clear 8 1034 73 10000 0.89 196 13:27 01.03.2022
3529 Clear 7 1034 80 10000 1.34 250 12:58 01.03.2022
3530 Clouds 7 1034 82 10000 1.03 0 12:22 01.03.2022
3531 Clouds 3 1034 91 10000 1.54 30 10:27 01.03.2022
3532 Clouds 1 1033 93 10000 1.03 0 08:41 01.03.2022
3533 Clouds 1 1032 93 10000 1.54 140 07:36 01.03.2022
3534 Clear 1 1030 88 10000 1.03 70 04:28 01.03.2022
3535 Clouds 3 1028 89 10000 1.03 120 00:59 01.03.2022
3536 Clouds 3 1028 86 10000 2.57 250 23:48 28.02.2022
3537 Clouds 3 1027 86 10000 1.03 0 22:52 28.02.2022
3538 Clouds 3 1026 85 10000 2.57 280 21:48 28.02.2022
3539 Clouds 4 1025 85 10000 2.57 260 21:24 28.02.2022
3540 Clouds 5 1023 81 10000 2.68 125 19:52 28.02.2022
3541 Clouds 6 1023 80 10000 4.12 240 19:22 28.02.2022
3542 Clouds 6 1022 80 10000 3.6 240 18:36 28.02.2022
3543 Clouds 8 1021 76 10000 5.66 240 17:23 28.02.2022
3544 Clouds 8 1020 75 10000 6.17 250 16:32 28.02.2022
3545 Clouds 9 1019 78 10000 6.17 250 15:23 28.02.2022
3546 Clouds 10 1019 76 10000 6.69 250 14:30 28.02.2022
3547 Clouds 9 1018 83 10000 5.14 230 13:34 28.02.2022
3548 Clouds 9 1017 84 10000 4.12 270 12:31 28.02.2022
3549 Clouds 9 1017 89 10000 6.69 220 11:37 28.02.2022
3550 Clouds 8 1016 91 10000 4.12 200 10:24 28.02.2022
3551 Drizzle 8 1016 91 4900 4.63 200 09:59 28.02.2022
3552 Clouds 8 1016 90 10000 4.63 180 09:27 28.02.2022
3553 Clouds 8 1015 90 10000 5.14 190 08:26 28.02.2022
3554 Drizzle 8 1015 91 4100 6.69 190 06:53 28.02.2022
3555 Rain 7 1015 89 6000 3.58 100 04:31 28.02.2022
3556 Rain 8 1016 88 10000 4.12 180 02:41 28.02.2022
3557 Clouds 8 1015 75 10000 6.69 160 23:18 27.02.2022
3558 Clouds 8 1016 76 10000 5.66 150 22:33 27.02.2022
3559 Clouds 8 1016 74 10000 7.72 150 21:46 27.02.2022
3560 Clouds 8 1016 72 10000 7.2 140 20:54 27.02.2022
3561 Clouds 8 1017 70 10000 7.2 140 20:25 27.02.2022
3562 Clouds 8 1017 70 10000 5.14 140 19:50 27.02.2022
3563 Clouds 8 1018 68 10000 5.66 140 19:26 27.02.2022
3564 Clouds 7 1018 68 10000 5.14 150 18:39 27.02.2022
3565 Clouds 8 1018 68 10000 5.66 170 17:53 27.02.2022
3566 Clouds 8 1019 66 10000 8.23 170 16:36 27.02.2022
3567 Clouds 9 1019 66 10000 5.66 160 15:42 27.02.2022
3568 Clouds 8 1021 67 10000 4.12 130 12:53 27.02.2022
3569 Clouds 8 1021 68 10000 5.66 110 12:29 27.02.2022
3570 Clouds 6 1022 72 10000 5.66 130 10:47 27.02.2022
3571 Clouds 5 1022 76 10000 4.63 120 09:58 27.02.2022
3572 Clouds 4 1022 77 10000 4.12 120 09:27 27.02.2022
3573 Clouds 4 1022 77 10000 5.14 130 08:54 27.02.2022
3574 Clouds 5 1021 75 10000 4.63 120 06:43 27.02.2022
3575 Clouds 6 1021 76 10000 5.66 140 04:26 27.02.2022
3576 Clouds 7 1021 75 10000 4.63 120 00:37 27.02.2022
3577 Clouds 7 1021 77 10000 3.6 130 22:51 26.02.2022
3578 Clouds 7 1021 76 10000 4.63 130 21:38 26.02.2022
3579 Clouds 8 1020 74 10000 4.92 115 20:48 26.02.2022
3580 Clouds 8 1020 72 10000 5.66 180 19:59 26.02.2022
3581 Clouds 8 1020 72 10000 5.66 180 19:59 26.02.2022
3582 Clouds 8 1020 72 10000 5.66 180 19:34 26.02.2022
3583 Clouds 9 1020 72 10000 7.2 190 18:46 26.02.2022
3584 Clouds 9 1020 75 10000 9.77 180 17:40 26.02.2022
3585 Clouds 8 1021 76 10000 7.2 180 16:48 26.02.2022
3586 Clouds 9 1021 76 10000 6.69 190 15:48 26.02.2022
3587 Clouds 9 1021 76 10000 7.2 180 15:20 26.02.2022
3588 Clouds 9 1022 76 10000 6.17 200 14:52 26.02.2022
3589 Clouds 9 1022 75 10000 6.69 180 14:25 26.02.2022
3590 Clouds 9 1022 75 10000 5.14 190 13:18 26.02.2022
3591 Clouds 8 1023 80 10000 8.23 190 11:54 26.02.2022
3592 Clouds 9 1023 77 10000 7.72 180 11:28 26.02.2022
3593 Clouds 8 1023 78 10000 10.8 200 10:31 26.02.2022
3594 Clouds 8 1022 76 10000 10.8 200 08:45 26.02.2022
3595 Clouds 8 1023 77 10000 7.72 190 06:46 26.02.2022
3596 Clouds 8 1025 82 10000 6.69 200 00:38 26.02.2022
3597 Clouds 7 1025 82 10000 7.2 200 22:45 25.02.2022
3598 Clouds 7 1025 83 10000 6.69 190 21:37 25.02.2022
3599 Clouds 7 1025 83 10000 6.17 200 21:18 25.02.2022
3600 Clouds 7 1025 82 10000 5.66 190 20:31 25.02.2022
3601 Rain 7 1026 78 10000 5.14 190 18:41 25.02.2022
3602 Clouds 7 1026 81 10000 6.69 210 17:23 25.02.2022
3603 Clouds 7 1026 81 10000 6.69 220 16:21 25.02.2022
3604 Clouds 8 1026 79 10000 6.69 220 15:42 25.02.2022
3605 Clouds 8 1026 76 10000 6.69 220 15:19 25.02.2022
3606 Clouds 8 1026 76 10000 6.69 220 14:41 25.02.2022
3607 Clouds 8 1026 74 10000 4.02 176 13:36 25.02.2022
3608 Clouds 7 1025 75 10000 4.63 240 12:45 25.02.2022
3609 Clouds 6 1024 76 10000 1.79 153 11:28 25.02.2022
3610 Clouds 5 1023 78 10000 2.06 190 10:28 25.02.2022
3611 Clouds 4 1023 80 10000 3.6 230 09:53 25.02.2022
3612 Clouds 3 1018 82 6000 1.03 0 08:46 25.02.2022
3613 Clear 3 1017 81 10000 5.66 270 07:37 25.02.2022
3614 Clouds 3 1017 81 10000 3.6 260 05:47 25.02.2022
3615 Clouds 4 1013 79 10000 6.69 290 02:58 25.02.2022
3616 Clouds 3 1007 84 10000 6.17 240 22:56 24.02.2022
3617 Clouds 3 1006 86 10000 5.81 139 21:54 24.02.2022
3618 Clouds 3 1005 86 10000 6.26 136 21:31 24.02.2022
3619 Clouds 3 1005 87 10000 8.49 140 20:57 24.02.2022
3620 Clouds 3 1004 85 10000 9.77 240 19:38 24.02.2022
3621 Rain 3 1003 85 10000 6.69 230 18:38 24.02.2022
3622 Rain 3 1002 85 10000 7.72 210 18:18 24.02.2022
3623 Clouds 3 1002 88 10000 9.77 220 17:33 24.02.2022
3624 Clouds 3 1002 88 10000 9.77 220 17:33 24.02.2022
3625 Rain 2 1003 88 10000 7.2 230 16:29 24.02.2022
3626 Rain 2 1003 87 10000 5.66 220 15:47 24.02.2022
3627 Clouds 2 1003 91 10000 7.2 240 14:53 24.02.2022
3628 Rain 2 999 90 7000 9.26 230 14:24 24.02.2022
3629 Clouds 3 1002 88 6000 9.26 210 13:39 24.02.2022
3630 Rain 2 1002 87 10000 11.83 230 12:33 24.02.2022
3631 Snow 1 1001 92 10000 6.17 220 10:40 24.02.2022
3632 Clouds 0 1001 94 3900 7.2 230 08:58 24.02.2022
3633 Snow 0 1001 93 3900 7.2 230 08:39 24.02.2022
3634 Rain 2 1000 83 10000 9.26 220 05:52 24.02.2022
3635 Clouds 2 1003 87 3600 7.72 230 01:56 24.02.2022
3636 Clouds 2 1003 85 10000 6.69 230 22:38 23.02.2022
3637 Clouds 2 1003 85 10000 6.69 230 22:38 23.02.2022
3638 Rain 3 1003 79 10000 10.8 250 21:37 23.02.2022
3639 Clouds 4 1003 81 10000 10.8 240 20:31 23.02.2022
3640 Clouds 4 1003 83 10000 8.23 240 19:44 23.02.2022
3641 Rain 4 1003 87 10000 8.23 260 18:32 23.02.2022
3642 Rain 6 1002 87 4900 12.35 250 17:30 23.02.2022
3643 Rain 8 1003 88 6000 12.86 250 14:34 23.02.2022
3644 Clouds 8 1004 81 10000 15.43 200 12:37 23.02.2022
3645 Clouds 8 1006 79 10000 15.43 200 11:24 23.02.2022
3646 Clouds 8 1007 79 10000 14.4 200 10:31 23.02.2022
3647 Clouds 7 1009 81 10000 13.38 190 08:58 23.02.2022
3648 Clouds 7 1010 81 10000 13.38 200 07:57 23.02.2022
3649 Clouds 6 1014 82 10000 10.8 210 03:48 23.02.2022
3650 Clouds 5 1016 85 10000 4.63 210 00:26 23.02.2022
3651 Clouds 5 1016 84 10000 5.66 210 23:35 22.02.2022
3652 Clouds 5 1016 85 10000 5.66 260 22:31 22.02.2022
3653 Clouds 5 1015 84 10000 8.23 240 21:49 22.02.2022
3654 Clouds 5 1015 84 10000 4.12 250 21:28 22.02.2022
3655 Clouds 5 1016 84 4900 7.2 280 20:51 22.02.2022
3656 Clouds 5 1015 85 10000 4.12 250 20:29 22.02.2022
3657 Clouds 5 1015 85 10000 4.12 250 20:29 22.02.2022
3658 Rain 5 1015 84 10000 4.12 230 19:36 22.02.2022
3659 Clouds 5 1014 82 10000 6.69 260 19:18 22.02.2022
3660 Clouds 6 1013 82 6000 9.77 260 17:40 22.02.2022
3661 Clouds 6 1013 82 10000 6.69 260 17:19 22.02.2022
3662 Rain 6 1013 77 10000 7.2 260 16:36 22.02.2022
3663 Clouds 6 1012 82 10000 8.23 260 15:38 22.02.2022
3664 Clouds 7 1011 81 10000 9.26 250 14:43 22.02.2022
3665 Clouds 7 1009 73 10000 8.23 250 12:20 22.02.2022
3666 Clouds 7 1007 81 10000 8.23 250 10:28 22.02.2022
3667 Rain 8 1004 88 6000 12.35 270 07:48 22.02.2022
3668 Rain 9 1002 92 3600 13.89 210 07:25 22.02.2022
3669 Rain 7 1011 89 8000 6.69 190 02:52 22.02.2022
3670 Clouds 6 1015 87 10000 5.14 190 00:49 22.02.2022
3671 Rain 6 1017 82 10000 0.51 0 22:41 21.02.2022
3672 Clouds 6 1017 78 10000 2.06 250 21:30 21.02.2022
3673 Clouds 6 1018 79 10000 3.6 220 20:29 21.02.2022
3674 Clouds 7 1017 70 10000 3.6 280 18:41 21.02.2022
3675 Clouds 9 1015 63 10000 7.72 280 16:50 21.02.2022
3676 Clouds 10 1011 69 10000 10.8 300 14:24 21.02.2022
3677 Clouds 10 1010 69 10000 11.83 290 13:59 21.02.2022
3678 Clouds 9 1007 74 10000 12.86 290 12:59 21.02.2022
3679 Clouds 9 1005 73 10000 9.77 300 12:22 21.02.2022
3680 Clouds 8 1002 78 10000 7.72 300 10:45 21.02.2022
3681 Clouds 7 996 80 10000 8.23 300 08:44 21.02.2022
3682 Rain 5 984 88 9000 12.35 240 02:31 21.02.2022
3683 Snow 3 988 85 6000 10.8 260 22:45 20.02.2022
3684 Rain 3 987 80 10000 7.72 260 22:18 20.02.2022
3685 Snow 3 987 78 10000 8.75 250 21:41 20.02.2022
3686 Clouds 3 987 80 9000 8.23 260 20:51 20.02.2022
3687 Rain 3 987 80 10000 8.23 260 20:21 20.02.2022
3688 Clouds 3 987 81 7000 8.05 218 19:21 20.02.2022
3689 Rain 4 985 79 10000 6.69 270 18:42 20.02.2022
3690 Clouds 4 985 79 10000 9.39 194 18:23 20.02.2022
3691 Clouds 5 985 80 10000 9.77 270 17:30 20.02.2022
3692 Rain 7 985 78 10000 9.26 250 15:30 20.02.2022
3693 Clouds 8 985 77 10000 7.72 250 14:33 20.02.2022
3694 Rain 10 986 75 7000 8.75 240 13:22 20.02.2022
3695 Clouds 10 990 77 10000 5.36 175 11:56 20.02.2022
3696 Clouds 10 988 79 10000 10.29 260 10:21 20.02.2022
3697 Clouds 10 987 81 8000 12.86 260 09:52 20.02.2022
3698 Clouds 10 989 87 10000 14.4 240 06:44 20.02.2022
3699 Rain 3 997 91 4600 4.12 150 00:33 20.02.2022
3700 Rain 3 999 91 7000 6.17 190 23:39 19.02.2022
3701 Rain 4 1002 88 10000 5.66 170 22:25 19.02.2022
3702 Rain 4 1002 87 10000 4.63 180 21:52 19.02.2022
3703 Clouds 4 1004 86 10000 5.14 190 20:45 19.02.2022
3704 Rain 4 1005 83 10000 5.66 190 19:36 19.02.2022
3705 Clouds 5 1005 82 10000 4.63 190 18:41 19.02.2022
3706 Clouds 5 1005 81 10000 5.66 210 17:58 19.02.2022
3707 Clouds 6 1005 78 10000 2.57 260 17:23 19.02.2022
3708 Clouds 6 1005 79 10000 2.68 270 15:59 19.02.2022
3709 Clouds 6 1005 77 10000 2.57 290 14:55 19.02.2022
3710 Clouds 6 1005 81 10000 2.24 283 13:58 19.02.2022
3711 Clouds 4 1004 88 10000 3.09 240 11:58 19.02.2022
3712 Clouds 3 1004 90 10000 2.57 230 11:24 19.02.2022
3713 Rain 3 1003 89 10000 4.47 254 08:59 19.02.2022
3714 Rain 3 1002 89 10000 4.92 281 06:48 19.02.2022
3715 Clouds 2 1000 88 10000 6.17 260 00:42 19.02.2022
3716 Clouds 2 998 86 10000 4.63 270 22:28 18.02.2022
3717 Rain 2 997 88 4900 6.71 267 21:22 18.02.2022
3718 Clouds 3 995 84 10000 5.66 300 20:18 18.02.2022
3719 Clouds 3 993 86 10000 6.26 284 19:25 18.02.2022
3720 Clouds 4 991 83 10000 6.71 286 18:29 18.02.2022
3721 Clouds 4 990 83 10000 7.2 280 17:56 18.02.2022
3722 Clouds 3 987 81 10000 11.32 290 16:19 18.02.2022
3723 Clouds 3 981 84 10000 10.8 290 14:19 18.02.2022
3724 Clouds 3 980 86 10000 13.41 317 13:45 18.02.2022
3725 Rain 2 979 90 10000 8.94 307 12:48 18.02.2022
3726 Rain 2 978 95 10000 4.02 290 11:56 18.02.2022
3727 Snow 2 977 93 3800 3.09 260 10:42 18.02.2022
3728 Snow 1 984 92 2900 12.96 57 07:20 18.02.2022
3729 Rain 2 990 90 6000 7.6 73 05:43 18.02.2022
3730 Rain 3 996 86 10000 3.13 75 03:47 18.02.2022
3731 Clouds 4 1005 82 10000 3.6 220 21:59 17.02.2022
3732 Clouds 4 1005 82 10000 5.14 220 21:33 17.02.2022
3733 Clouds 4 1006 82 10000 5.66 230 20:42 17.02.2022
3734 Clouds 4 1006 82 10000 5.14 230 19:54 17.02.2022
3735 Clouds 4 1005 77 10000 5.14 240 18:57 17.02.2022
3736 Clouds 5 1002 72 10000 5.14 260 18:18 17.02.2022
3737 Clouds 7 1005 66 10000 8.75 260 16:43 17.02.2022
3738 Clouds 8 1004 66 10000 8.75 250 15:44 17.02.2022
3739 Clouds 7 1004 72 10000 10.29 250 14:29 17.02.2022
3740 Clouds 6 1003 75 10000 9.77 270 12:51 17.02.2022
3741 Rain 6 998 73 10000 8.75 260 11:30 17.02.2022
3742 Clouds 4 1000 83 10000 8.23 250 09:38 17.02.2022
3743 Rain 5 996 77 10000 8.23 270 06:37 17.02.2022
3744 Rain 7 982 78 10000 9.26 270 23:21 16.02.2022
3745 Clouds 7 981 78 10000 9.26 270 22:20 16.02.2022
3746 Rain 7 979 86 9000 14.4 260 20:19 16.02.2022
3747 Clouds 8 978 80 10000 13.38 250 18:43 16.02.2022
3748 Clouds 8 976 78 10000 12.86 260 17:54 16.02.2022
3749 Clouds 10 975 84 10000 7.2 240 15:58 16.02.2022
3750 Clouds 9 976 93 7000 1.54 140 15:20 16.02.2022
3751 Rain 8 983 93 10000 3.09 240 13:31 16.02.2022
3752 Rain 8 985 90 10000 6.69 230 12:20 16.02.2022
3753 Rain 8 985 86 10000 10.29 230 11:31 16.02.2022
3754 Rain 9 985 83 10000 10.8 250 10:34 16.02.2022
3755 Clouds 9 983 81 10000 14.92 260 08:24 16.02.2022
3756 Clouds 10 979 81 8000 11.32 250 06:43 16.02.2022
3757 Rain 5 991 93 10000 2.57 150 23:45 15.02.2022
3758 Rain 5 993 92 9000 2.06 150 22:33 15.02.2022
3759 Rain 5 995 90 10000 6.17 210 21:48 15.02.2022
3760 Rain 5 995 89 10000 5.14 200 21:29 15.02.2022
3761 Rain 5 996 87 10000 6.69 210 20:56 15.02.2022
3762 Rain 5 997 85 10000 6.69 230 19:59 15.02.2022
3763 Clouds 5 997 85 10000 6.17 230 19:21 15.02.2022
3764 Clouds 5 994 81 10000 4.12 270 18:23 15.02.2022
3765 Clouds 5 997 82 4900 10.29 240 17:50 15.02.2022
3766 Rain 6 997 78 10000 6.17 240 17:19 15.02.2022
3767 Clouds 7 998 78 10000 7.2 250 15:32 15.02.2022
3768 Clouds 5 998 89 10000 4.12 240 13:28 15.02.2022
3769 Clouds 4 998 89 10000 4.63 260 12:53 15.02.2022
3770 Clouds 4 997 87 7000 7.72 260 11:40 15.02.2022
3771 Clouds 5 996 89 10000 6.17 200 09:47 15.02.2022
3772 Rain 6 995 91 7000 10.8 210 06:59 15.02.2022
3773 Rain 5 997 91 10000 8.75 190 05:32 15.02.2022
3774 Clouds 4 1003 87 10000 4.63 240 23:33 14.02.2022
3775 Clouds 5 1003 82 10000 5.66 270 21:54 14.02.2022
3776 Clouds 5 1002 81 10000 4.12 250 20:40 14.02.2022
3777 Clouds 6 1002 78 10000 5.66 290 19:44 14.02.2022
3778 Clouds 6 1001 78 10000 2.57 270 19:25 14.02.2022
3779 Clouds 7 1000 78 10000 4.63 290 18:23 14.02.2022
3780 Clouds 8 999 75 10000 5.66 290 17:26 14.02.2022
3781 Clouds 8 1001 76 10000 7.2 290 16:25 14.02.2022
3782 Clouds 9 997 77 10000 5.66 280 14:31 14.02.2022
3783 Clouds 8 999 83 10000 5.66 300 13:33 14.02.2022
3784 Clouds 8 999 83 10000 5.66 300 13:33 14.02.2022
3785 Clouds 7 995 83 10000 5.14 290 12:52 14.02.2022
3786 Clouds 6 998 88 10000 4.12 290 11:55 14.02.2022
3787 Clouds 6 997 89 10000 4.63 290 10:56 14.02.2022
3788 Clouds 5 995 93 10000 2.57 230 08:45 14.02.2022
3789 Clouds 5 994 92 10000 2.06 260 07:32 14.02.2022
3790 Rain 5 992 94 10000 1.54 270 02:27 14.02.2022
3791 Rain 5 990 94 7000 3.09 300 22:42 13.02.2022
3792 Clouds 5 990 94 10000 2.06 320 22:24 13.02.2022
3793 Rain 5 989 94 10000 2.06 310 21:32 13.02.2022
3794 Rain 5 989 94 5000 0.51 0 20:36 13.02.2022
3795 Rain 5 989 94 3800 1.03 220 19:45 13.02.2022
3796 Drizzle 5 988 94 4300 0.51 0 18:49 13.02.2022
3797 Drizzle 5 988 94 3400 1.54 30 18:28 13.02.2022
3798 Rain 6 990 92 10000 6.17 50 15:54 13.02.2022
3799 Rain 6 990 92 10000 6.69 50 15:24 13.02.2022
3800 Rain 6 991 93 10000 5.66 50 14:31 13.02.2022
3801 Rain 6 994 95 8000 4.12 70 12:51 13.02.2022
3802 Rain 6 995 95 6000 3.6 40 11:44 13.02.2022
3803 Rain 6 996 93 7000 2.06 90 10:33 13.02.2022
3804 Rain 7 997 91 10000 2.06 90 09:45 13.02.2022
3805 Clouds 7 998 91 10000 3.09 230 07:48 13.02.2022
3806 Clouds 8 1002 88 6000 9.26 220 00:35 13.02.2022
3807 Clouds 7 1003 88 10000 9.77 210 23:42 12.02.2022
3808 Clouds 8 1003 86 10000 8.75 220 22:33 12.02.2022
3809 Clouds 7 1003 88 10000 6.17 210 21:30 12.02.2022
3810 Clouds 8 1003 85 10000 6.69 200 20:45 12.02.2022
3811 Clouds 8 1000 81 10000 9.26 230 19:30 12.02.2022
3812 Clouds 7 1000 83 10000 8.23 230 18:53 12.02.2022
3813 Clouds 7 1000 84 10000 8.23 230 18:35 12.02.2022
3814 Clouds 8 1003 87 10000 6.69 240 17:19 12.02.2022
3815 Clouds 8 1003 90 10000 10.29 220 16:26 12.02.2022
3816 Rain 9 1003 91 10000 10.29 220 15:51 12.02.2022
3817 Rain 9 1003 91 10000 10.29 220 15:51 12.02.2022
3818 Clouds 9 1004 89 5000 10.29 210 14:31 12.02.2022
3819 Rain 9 1005 87 9000 12.86 210 13:22 12.02.2022
3820 Clouds 9 1007 89 10000 10.29 200 10:42 12.02.2022
3821 Clouds 8 1007 88 10000 11.83 210 09:50 12.02.2022
3822 Clouds 8 1007 89 10000 12.35 210 09:26 12.02.2022
3823 Clouds 8 1005 88 10000 11.83 210 08:44 12.02.2022
3824 Clouds 7 1011 93 3900 9.26 200 05:40 12.02.2022
3825 Rain 7 1013 87 10000 9.26 200 04:30 12.02.2022
3826 Clouds 6 1015 90 10000 11.83 200 02:18 12.02.2022
3827 Rain 5 1020 87 10000 9.77 190 22:37 11.02.2022
3828 Rain 5 1021 87 7000 7.2 190 22:18 11.02.2022
3829 Rain 6 1020 79 10000 7.2 180 20:41 11.02.2022
3830 Clouds 5 1021 78 10000 5.14 180 19:47 11.02.2022
3831 Clouds 5 1022 75 10000 6.69 170 19:27 11.02.2022
3832 Clouds 5 1026 78 10000 6.17 180 17:59 11.02.2022
3833 Clouds 5 1026 77 10000 5.66 190 17:26 11.02.2022
3834 Clouds 6 1027 76 10000 7.2 200 16:23 11.02.2022
3835 Clouds 6 1029 84 10000 6.17 200 14:43 11.02.2022
3836 Clouds 6 1029 85 10000 4.63 200 14:21 11.02.2022
3837 Clouds 5 1030 87 10000 1.03 0 13:59 11.02.2022
3838 Clouds 5 1030 88 10000 1.03 0 13:39 11.02.2022
3839 Clouds 3 1028 86 10000 2.89 199 11:47 11.02.2022
3840 Clouds -1 1028 92 10000 1.54 110 09:59 11.02.2022
3841 Clouds -2 1028 91 10000 1.03 250 08:49 11.02.2022
3842 Clouds -2 1028 89 10000 1.03 10 08:27 11.02.2022
3843 Clear -2 1028 92 9000 1.03 170 07:18 11.02.2022
3844 Clear -1 1026 86 10000 2.57 240 02:26 11.02.2022
3845 Clear -1 1025 85 10000 1.54 220 00:52 11.02.2022
3846 Clear 0 1024 84 10000 1.54 250 22:51 10.02.2022
3847 Clear 2 1023 76 10000 2.57 280 21:46 10.02.2022
3848 Clear 3 1023 75 10000 4.63 270 21:18 10.02.2022
3849 Clear 3 1022 77 10000 2.06 230 20:38 10.02.2022
3850 Clouds 4 1019 80 10000 6.17 280 19:26 10.02.2022
3851 Clouds 5 1019 77 10000 5.66 300 18:46 10.02.2022
3852 Clouds 6 1016 76 10000 6.69 290 17:26 10.02.2022
3853 Clouds 6 1015 75 10000 7.72 290 16:50 10.02.2022
3854 Clouds 6 1017 78 10000 8.75 280 15:51 10.02.2022
3855 Clouds 6 1017 80 10000 9.26 290 15:30 10.02.2022
3856 Clouds 6 1016 79 10000 10.29 270 14:48 10.02.2022
3857 Clouds 6 1016 79 10000 10.29 270 14:48 10.02.2022
3858 Rain 6 1016 83 10000 10.29 270 14:24 10.02.2022
3859 Clouds 6 1012 79 10000 9.77 260 13:29 10.02.2022
3860 Rain 6 1015 84 10000 7.72 260 12:45 10.02.2022
3861 Clouds 4 1015 89 10000 5.66 220 11:33 10.02.2022
3862 Clouds 3 1015 91 10000 8.75 220 10:44 10.02.2022
3863 Rain 3 1015 91 6000 11.83 230 09:57 10.02.2022
3864 Clouds 3 1015 92 10000 2.06 230 09:23 10.02.2022
3865 Rain 2 1015 91 10000 10.29 220 07:28 10.02.2022
3866 Clouds 2 1016 91 10000 4.12 220 04:55 10.02.2022
3867 Rain 2 1015 91 10000 6.69 210 01:48 10.02.2022
3868 Snow 2 1018 92 10000 4.12 230 00:47 10.02.2022
3869 Clouds 1 1018 93 10000 5.66 220 00:27 10.02.2022
3870 Rain 2 1018 90 10000 6.69 230 23:22 09.02.2022
3871 Snow 2 1018 91 10000 5.66 220 22:35 09.02.2022
3872 Rain 3 1019 89 5000 13.38 230 21:50 09.02.2022
3873 Rain 2 1019 91 10000 4.63 230 21:28 09.02.2022
3874 Clouds 3 1018 89 10000 4.12 250 20:47 09.02.2022
3875 Rain 3 1019 89 10000 4.12 250 20:24 09.02.2022
3876 Clouds 3 1019 89 10000 4.63 230 19:45 09.02.2022
3877 Rain 3 1019 89 4900 8.23 240 19:22 09.02.2022
3878 Clouds 3 1019 85 10000 4.12 230 17:35 09.02.2022
3879 Rain 5 1019 83 10000 4.63 220 16:32 09.02.2022
3880 Clouds 5 1020 85 10000 3.6 300 15:33 09.02.2022
3881 Rain 4 1020 88 10000 5.66 230 14:25 09.02.2022
3882 Rain 4 1019 84 10000 6.69 210 12:27 09.02.2022
3883 Clouds 4 1016 82 10000 3.6 220 10:37 09.02.2022
3884 Clouds 3 1018 85 10000 5.14 230 09:59 09.02.2022
3885 Clouds 3 1015 84 10000 4.63 240 09:23 09.02.2022
3886 Clouds 4 1015 81 10000 5.14 250 08:51 09.02.2022
3887 Clouds 5 1014 80 10000 5.14 250 07:34 09.02.2022
3888 Clouds 5 1016 87 10000 7.72 240 05:30 09.02.2022
3889 Clouds 6 1016 89 10000 7.72 230 03:50 09.02.2022
3890 Clouds 7 1016 85 10000 8.75 220 00:21 09.02.2022
3891 Clouds 7 1017 84 10000 9.77 220 23:29 08.02.2022
3892 Clouds 7 1017 83 10000 9.26 230 22:39 08.02.2022
3893 Clouds 7 1017 83 10000 9.77 230 22:20 08.02.2022
3894 Clouds 7 1017 86 10000 7.2 230 21:38 08.02.2022
3895 Clouds 7 1017 84 10000 7.2 230 21:19 08.02.2022
3896 Rain 6 1018 83 10000 4.12 230 20:41 08.02.2022
3897 Clouds 6 1018 86 10000 6.17 240 19:31 08.02.2022
3898 Clouds 7 1018 80 10000 7.2 230 18:24 08.02.2022
3899 Clouds 7 1018 77 10000 7.2 250 17:30 08.02.2022
3900 Clouds 8 1016 75 10000 9.77 230 15:47 08.02.2022
3901 Clouds 8 1019 75 10000 8.75 250 15:28 08.02.2022
3902 Clouds 8 1020 81 10000 10.8 240 13:50 08.02.2022
3903 Clouds 7 1020 81 10000 9.77 240 12:24 08.02.2022
3904 Clouds 6 1017 84 10000 6.69 220 10:52 08.02.2022
3905 Clouds 6 1016 85 10000 5.14 220 09:50 08.02.2022
3906 Clouds 6 1016 85 10000 6.17 240 08:53 08.02.2022
3907 Clouds 6 1016 85 10000 6.17 240 08:53 08.02.2022
3908 Clouds 7 1015 87 10000 5.66 240 06:49 08.02.2022
3909 Clouds 7 1014 87 10000 7.72 240 04:40 08.02.2022
3910 Clouds 7 1014 87 10000 7.2 210 04:22 08.02.2022
3911 Clouds 7 1014 87 10000 6.69 220 03:36 08.02.2022
3912 Clouds 7 1014 87 10000 6.69 230 03:18 08.02.2022
3913 Clouds 7 1014 88 10000 7.2 240 02:59 08.02.2022
3914 Rain 7 1017 90 10000 7.2 240 02:36 08.02.2022
3915 Rain 8 1017 91 10000 7.72 260 02:18 08.02.2022
3916 Rain 8 1016 94 7000 6.69 260 01:44 08.02.2022
3917 Rain 9 1016 96 8000 7.2 260 01:25 08.02.2022
3918 Rain 9 1015 95 6000 5.66 250 00:55 08.02.2022
3919 Rain 10 1015 93 2600 10.8 230 00:21 08.02.2022
3920 Rain 10 1014 93 3900 11.83 220 23:44 07.02.2022
3921 Rain 10 1014 93 2900 10.29 220 23:18 07.02.2022
3922 Rain 10 1014 93 2400 9.77 220 22:59 07.02.2022
3923 Clouds 10 1015 93 2600 11.83 220 22:19 07.02.2022
3924 Rain 9 1015 93 2700 11.32 210 21:50 07.02.2022
3925 Rain 9 1015 92 4500 9.26 220 21:27 07.02.2022
3926 Rain 10 1012 87 4600 10.29 220 20:45 07.02.2022
3927 Rain 10 1012 87 4400 10.8 220 20:27 07.02.2022
3928 Clouds 10 1015 85 10000 7.72 220 19:47 07.02.2022
3929 Clouds 10 1013 82 10000 7.72 230 18:37 07.02.2022
3930 Clouds 9 1018 86 10000 7.68 239 17:23 07.02.2022
3931 Clouds 10 1016 86 10000 10.29 220 16:52 07.02.2022
3932 Drizzle 9 1018 93 3300 7.72 230 15:48 07.02.2022
3933 Clouds 7 1019 93 3100 8.75 220 13:51 07.02.2022
3934 Drizzle 7 1019 93 4400 4.63 210 13:26 07.02.2022
3935 Drizzle 5 1020 93 4600 2.06 170 12:18 07.02.2022
3936 Clouds 5 1020 91 5000 3.6 180 11:38 07.02.2022
3937 Rain 4 1018 88 6000 1.54 150 10:59 07.02.2022
3938 Rain 4 1018 88 6000 1.54 150 10:41 07.02.2022
3939 Clouds 4 1018 87 10000 3.47 199 10:22 07.02.2022
3940 Clouds 3 1018 89 10000 1.54 0 09:47 07.02.2022
3941 Clouds 2 1018 89 10000 1.03 0 09:18 07.02.2022
3942 Clouds 2 1019 83 10000 2.45 194 07:34 07.02.2022
3943 Clouds 1 1019 87 10000 1.54 230 06:34 07.02.2022
3944 Clouds 2 1017 82 10000 1.54 210 04:22 07.02.2022
3945 Clear 1 1015 82 10000 3.09 260 01:29 07.02.2022
3946 Clear 1 1016 86 10000 4.12 180 23:50 06.02.2022
3947 Clear 1 1015 87 10000 3.09 180 23:19 06.02.2022
3948 Clear 2 1011 85 10000 4.63 270 22:37 06.02.2022
3949 Clear 2 1012 87 10000 7.72 300 21:37 06.02.2022
3950 Clear 1 1008 88 10000 4.12 280 20:58 06.02.2022
3951 Snow 1 1008 88 10000 4.12 280 20:36 06.02.2022
3952 Rain 2 1006 82 10000 4.63 290 19:46 06.02.2022
3953 Clouds 2 1004 88 10000 5.14 290 18:50 06.02.2022
3954 Clouds 3 1006 86 10000 6.69 300 18:24 06.02.2022
3955 Clouds 3 1003 85 10000 6.17 280 17:26 06.02.2022
3956 Rain 3 1002 88 10000 6.17 280 16:48 06.02.2022
3957 Rain 4 1000 85 10000 8.23 260 15:50 06.02.2022
3958 Clouds 4 999 85 10000 7.2 270 15:27 06.02.2022
3959 Clouds 4 999 84 10000 7.72 270 14:50 06.02.2022
3960 Clouds 4 998 84 10000 7.72 280 13:51 06.02.2022
3961 Clouds 3 998 87 10000 7.72 290 13:20 06.02.2022
3962 Rain 2 997 93 6000 7.72 270 11:39 06.02.2022
3963 Rain 2 997 90 10000 7.2 270 10:31 06.02.2022
3964 Rain 2 997 90 10000 7.2 270 10:31 06.02.2022
3965 Clouds 3 997 89 10000 7.72 270 09:25 06.02.2022
3966 Rain 3 997 90 4900 6.69 270 08:40 06.02.2022
3967 Rain 4 997 87 10000 5.66 280 05:36 06.02.2022
3968 Clouds 4 997 89 10000 6.17 240 03:31 06.02.2022
3969 Clouds 4 999 88 10000 5.66 260 02:24 06.02.2022
3970 Clouds 4 1000 91 10000 4.63 240 00:30 06.02.2022
3971 Clouds 4 1000 91 10000 5.14 230 23:18 05.02.2022
3972 Rain 4 1001 91 10000 6.69 230 21:33 05.02.2022
3973 Rain 4 1001 92 8000 3.09 250 20:25 05.02.2022
3974 Rain 5 1001 88 10000 5.14 250 19:49 05.02.2022
3975 Rain 5 998 84 10000 7.2 260 19:18 05.02.2022
3976 Rain 6 1001 88 10000 5.66 250 17:45 05.02.2022
3977 Clouds 6 1001 88 10000 6.17 260 17:27 05.02.2022
3978 Clouds 7 1001 86 7000 10.29 250 15:42 05.02.2022
3979 Clouds 7 1001 86 10000 11.32 240 15:21 05.02.2022
3980 Rain 7 1003 91 7000 11.83 240 12:54 05.02.2022
3981 Rain 7 1003 90 7000 11.83 230 12:31 05.02.2022
3982 Rain 6 1004 92 5000 10.8 220 10:52 05.02.2022
3983 Rain 6 1005 92 7000 11.32 220 10:22 05.02.2022
3984 Rain 6 1005 92 7000 11.32 220 09:44 05.02.2022
3985 Rain 5 1008 90 9000 11.83 210 07:54 05.02.2022
3986 Clouds 5 1009 90 9000 10.8 210 06:57 05.02.2022
3987 Rain 4 1012 86 10000 10.29 230 04:30 05.02.2022
3988 Clouds 3 1010 82 10000 6.17 250 01:19 05.02.2022
3989 Clouds 3 1013 86 10000 8.23 230 00:53 05.02.2022
3990 Clouds 3 1010 79 10000 6.69 240 23:41 04.02.2022
3991 Clouds 3 1010 79 10000 5.66 240 23:23 04.02.2022
3992 Clouds 2 1011 83 10000 7.2 270 21:54 04.02.2022
3993 Clouds 3 1008 79 10000 7.2 270 21:36 04.02.2022
3994 Clouds 3 1008 78 10000 6.69 270 21:18 04.02.2022
3995 Clouds 3 1007 83 10000 7.72 260 19:39 04.02.2022
3996 Clouds 3 1008 88 6000 7.72 260 17:43 04.02.2022
3997 Rain 5 1006 82 10000 8.23 250 15:39 04.02.2022
3998 Clouds 4 1003 85 10000 6.17 270 14:54 04.02.2022
3999 Rain 3 1006 88 10000 4.63 260 13:31 04.02.2022
4000 Rain 4 1003 87 10000 4.63 220 12:43 04.02.2022
4001 Rain 2 1005 90 6000 4.63 230 11:41 04.02.2022
4002 Clouds 3 1005 89 10000 5.66 240 10:34 04.02.2022
4003 Clouds 2 1005 91 10000 5.66 220 08:34 04.02.2022
4004 Clouds 2 1005 88 10000 7.2 240 06:18 04.02.2022
4005 Clouds 4 1001 75 10000 7.72 250 02:42 04.02.2022
4006 Clouds 4 1001 79 10000 6.69 250 01:22 04.02.2022
4007 Clouds 5 1001 81 10000 6.17 270 23:29 03.02.2022
4008 Clouds 5 1000 85 10000 6.17 260 22:31 03.02.2022
4009 Clouds 5 1000 86 10000 8.23 270 21:48 03.02.2022
4010 Rain 6 999 88 10000 6.17 270 20:36 03.02.2022
4011 Rain 6 1002 90 10000 5.66 270 20:18 03.02.2022
4012 Rain 9 1000 90 3400 13.38 250 19:26 03.02.2022
4013 Rain 10 997 84 6000 10.8 200 18:28 03.02.2022
4014 Clouds 10 998 83 10000 10.8 210 17:32 03.02.2022
4015 Clouds 10 1003 88 10000 11.32 220 15:53 03.02.2022
4016 Clouds 10 1004 88 10000 9.77 210 14:26 03.02.2022
4017 Rain 9 1006 91 10000 9.77 220 12:37 03.02.2022
4018 Clouds 9 1008 92 10000 7.72 210 10:35 03.02.2022
4019 Clouds 8 1008 93 10000 6.17 220 08:23 03.02.2022
4020 Clouds 9 1010 92 10000 5.66 220 03:28 03.02.2022
4021 Clouds 9 1012 92 10000 4.12 210 00:30 03.02.2022
4022 Clouds 9 1015 93 10000 4.63 210 22:47 02.02.2022
4023 Clouds 9 1016 93 3800 6.69 220 21:53 02.02.2022
4024 Drizzle 9 1016 93 4200 6.69 220 21:29 02.02.2022
4025 Rain 9 1017 93 3200 7.2 230 20:28 02.02.2022
4026 Clouds 10 1017 90 10000 8.23 230 19:49 02.02.2022
4027 Clouds 10 1014 88 10000 7.72 240 19:20 02.02.2022
4028 Clouds 10 1018 92 6000 8.23 250 18:25 02.02.2022
4029 Clouds 10 1018 90 10000 6.69 260 17:23 02.02.2022
4030 Clouds 10 1018 92 10000 7.2 250 16:59 02.02.2022
4031 Clouds 10 1019 90 10000 6.17 250 15:49 02.02.2022
4032 Clouds 10 1020 90 10000 6.17 250 12:47 02.02.2022
4033 Clouds 10 1020 91 8000 6.69 250 11:51 02.02.2022
4034 Clouds 10 1019 91 10000 8.23 260 11:30 02.02.2022
4035 Drizzle 8 1019 94 4900 1.03 260 09:18 02.02.2022
4036 Clouds 8 1019 92 10000 4.12 230 04:57 02.02.2022
4037 Clouds 8 1020 82 9000 5.14 260 22:34 01.02.2022
4038 Clouds 8 1020 78 8000 7.2 290 20:55 01.02.2022
4039 Clouds 9 1016 74 8000 6.17 280 19:39 01.02.2022
4040 Clouds 9 1016 75 7000 7.2 280 17:37 01.02.2022
4041 Clouds 9 1018 76 9000 7.72 280 16:31 01.02.2022
4042 Clouds 11 1017 73 10000 10.29 280 13:27 01.02.2022
4043 Clouds 11 1017 74 10000 9.26 280 12:21 01.02.2022
4044 Clouds 10 1013 78 10000 10.8 280 08:52 01.02.2022
4045 Clouds 10 1017 91 10000 9.26 270 02:20 01.02.2022
4046 Rain 8 1019 93 10000 6.69 230 23:37 31.01.2022
4047 Rain 7 1021 93 3500 7.2 230 22:33 31.01.2022
4048 Rain 6 1022 91 8000 6.69 220 21:35 31.01.2022
4049 Rain 6 1022 91 8000 6.69 220 21:35 31.01.2022
4050 Rain 6 1024 91 10000 5.14 220 20:35 31.01.2022
4051 Rain 6 1024 91 10000 5.66 220 19:57 31.01.2022
4052 Clouds 6 1025 85 10000 5.14 220 18:32 31.01.2022
4053 Clouds 6 1025 85 10000 5.14 220 18:32 31.01.2022
4054 Clouds 6 1026 83 10000 6.17 220 17:57 31.01.2022
4055 Clouds 6 1023 80 10000 5.14 230 17:18 31.01.2022
4056 Rain 7 1024 73 10000 4.12 280 16:21 31.01.2022
4057 Clouds 7 1027 71 10000 6.69 280 14:51 31.01.2022
4058 Clouds 7 1027 70 10000 8.75 290 13:29 31.01.2022
4059 Clouds 6 1026 74 10000 7.72 290 12:37 31.01.2022
4060 Clouds 5 1026 73 10000 5.66 290 11:20 31.01.2022
4061 Clouds 5 1025 71 10000 4.63 270 10:47 31.01.2022
4062 Clouds 4 1025 73 10000 8.23 290 09:36 31.01.2022
4063 Clouds 4 1024 71 10000 4.63 270 08:56 31.01.2022
4064 Clouds 4 1021 69 10000 3.6 270 08:20 31.01.2022
4065 Clouds 4 1020 70 10000 5.66 290 07:37 31.01.2022
4066 Rain 4 1017 69 10000 9.77 290 05:24 31.01.2022
4067 Clouds 6 1011 77 10000 13.89 290 00:23 31.01.2022
4068 Rain 6 1011 84 10000 9.77 280 22:33 30.01.2022
4069 Rain 6 1010 85 10000 9.77 280 21:45 30.01.2022
4070 Rain 6 1010 84 10000 10.8 280 21:24 30.01.2022
4071 Clouds 6 1010 84 10000 11.32 270 20:51 30.01.2022
4072 Rain 6 1010 85 6000 10.29 270 20:31 30.01.2022
4073 Rain 6 1009 87 4900 11.83 270 19:55 30.01.2022
4074 Rain 7 1012 92 3400 12.35 230 18:51 30.01.2022
4075 Rain 6 1013 93 2900 10.8 200 18:22 30.01.2022
4076 Clouds 5 1016 91 5000 7.2 180 17:30 30.01.2022
4077 Rain 5 1019 88 10000 7.2 200 16:42 30.01.2022
4078 Rain 6 1020 86 8000 7.2 180 16:23 30.01.2022
4079 Rain 6 1021 85 10000 9.26 190 15:54 30.01.2022
4080 Clouds 6 1022 85 10000 9.26 190 15:32 30.01.2022
4081 Clouds 7 1024 86 8000 8.75 200 14:47 30.01.2022
4082 Clouds 6 1027 84 10000 6.17 190 13:44 30.01.2022
4083 Clouds 6 1028 89 10000 3.6 200 12:44 30.01.2022
4084 Clouds 4 1032 91 10000 2.06 60 10:39 30.01.2022
4085 Clouds 3 1030 90 10000 2.06 30 09:58 30.01.2022
4086 Clouds 3 1030 87 10000 2.06 90 09:22 30.01.2022
4087 Clouds 3 1031 87 10000 0.51 0 07:58 30.01.2022
4088 Clouds 2 1035 89 10000 3.6 240 02:44 30.01.2022
4089 Clouds 3 1031 84 10000 3.6 270 01:52 30.01.2022
4090 Clouds 4 1030 78 10000 4.63 250 23:49 29.01.2022
4091 Clouds 5 1030 79 10000 4.12 210 22:50 29.01.2022
4092 Clouds 5 1029 75 10000 4.63 280 21:29 29.01.2022
4093 Clouds 5 1028 76 10000 4.12 290 20:53 29.01.2022
4094 Clouds 6 1027 71 10000 3.6 290 19:51 29.01.2022
4095 Clouds 6 1027 71 10000 3.6 280 19:30 29.01.2022
4096 Clouds 6 1026 73 10000 6.69 270 18:43 29.01.2022
4097 Clouds 6 1024 75 10000 10.8 280 17:46 29.01.2022
4098 Clouds 8 1022 65 10000 11.83 300 16:43 29.01.2022
4099 Clouds 8 1020 65 10000 9.77 300 15:20 29.01.2022
4100 Clouds 8 1021 77 5000 12.86 290 13:48 29.01.2022
4101 Rain 8 1017 77 10000 12.86 280 13:26 29.01.2022
4102 Clouds 8 1017 78 10000 12.35 280 12:52 29.01.2022
4103 Clouds 8 1018 81 6000 12.86 280 11:39 29.01.2022
4104 Rain 9 1013 78 6000 14.92 260 10:31 29.01.2022
4105 Rain 10 1014 89 2400 14.4 230 07:57 29.01.2022
4106 Clouds 11 1021 90 10000 12.86 240 01:37 29.01.2022
4107 Clouds 10 1022 90 6000 12.35 250 00:31 29.01.2022
4108 Clouds 10 1022 90 10000 13.38 250 23:29 28.01.2022
4109 Clouds 10 1022 90 7000 12.35 250 22:46 28.01.2022
4110 Clouds 10 1023 90 8000 11.32 250 22:18 28.01.2022
4111 Clouds 10 1023 92 10000 8.75 240 20:40 28.01.2022
4112 Clouds 10 1023 89 9000 7.2 240 19:53 28.01.2022
4113 Clouds 9 1024 88 10000 4.63 240 18:51 28.01.2022
4114 Clouds 9 1024 89 10000 6.17 210 17:52 28.01.2022
4115 Clouds 9 1026 92 4400 6.17 220 15:46 28.01.2022
4116 Haze 8 1027 91 4400 5.66 230 14:20 28.01.2022
4117 Clouds 8 1029 85 10000 7.2 230 12:35 28.01.2022
4118 Clouds 7 1030 86 10000 5.14 220 11:38 28.01.2022
4119 Clouds 6 1031 84 10000 3.6 240 10:22 28.01.2022
4120 Clouds 6 1031 84 10000 3.6 240 10:22 28.01.2022
4121 Clouds 6 1031 86 10000 5.14 240 09:45 28.01.2022
4122 Clouds 5 1032 91 10000 2.06 220 07:40 28.01.2022
4123 Clouds 5 1031 88 10000 2.57 240 05:24 28.01.2022
4124 Clouds 5 1034 91 10000 3.09 220 03:47 28.01.2022
4125 Clouds 6 1031 86 10000 0.51 0 02:23 28.01.2022
4126 Clouds 5 1032 89 10000 0.51 0 01:34 28.01.2022
4127 Clouds 5 1034 90 10000 1.03 0 23:46 27.01.2022
4128 Clouds 6 1030 85 10000 4.12 250 21:54 27.01.2022
4129 Clouds 6 1030 84 10000 4.12 250 21:32 27.01.2022
4130 Clouds 6 1032 83 10000 2.57 250 20:53 27.01.2022
4131 Clouds 7 1031 85 10000 3.6 240 19:30 27.01.2022
4132 Clouds 7 1030 85 10000 3.6 210 17:56 27.01.2022
4133 Clouds 9 1025 75 10000 5.14 280 15:30 27.01.2022
4134 Clouds 9 1027 76 10000 7.72 290 13:39 27.01.2022
4135 Clouds 8 1027 78 10000 5.14 270 12:46 27.01.2022
4136 Clouds 7 1022 83 9000 7.2 290 10:46 27.01.2022
4137 Clouds 7 1021 84 10000 3.09 270 09:19 27.01.2022
4138 Clouds 7 1023 85 10000 3.6 250 08:37 27.01.2022
4139 Clouds 7 1021 85 9000 5.14 250 05:59 27.01.2022
4140 Clouds 8 1016 87 3700 8.75 260 02:57 27.01.2022
4141 Clouds 10 1019 91 10000 5.66 250 23:32 26.01.2022
4142 Drizzle 9 1018 96 4100 10.29 230 21:59 26.01.2022
4143 Drizzle 9 1018 96 4100 10.29 230 21:35 26.01.2022
4144 Rain 9 1018 94 2900 11.83 220 20:36 26.01.2022
4145 Rain 9 1018 94 2900 11.83 220 20:36 26.01.2022
4146 Clouds 9 1019 93 2500 12.35 210 19:59 26.01.2022
4147 Rain 9 1019 93 3300 9.77 200 19:20 26.01.2022
4148 Rain 9 1020 91 8000 10.8 210 18:45 26.01.2022
4149 Clouds 8 1021 93 10000 12.35 220 17:50 26.01.2022
4150 Clouds 8 1021 93 5000 11.32 220 17:22 26.01.2022
4151 Clouds 8 1022 92 2800 12.35 220 16:31 26.01.2022
4152 Clouds 8 1023 92 4000 13.38 220 15:49 26.01.2022
4153 Clouds 7 1026 92 10000 7.2 210 13:58 26.01.2022
4154 Haze 8 1028 94 3000 6.17 230 11:48 26.01.2022
4155 Mist 7 1029 96 5000 4.12 230 10:27 26.01.2022
4156 Clouds 7 1029 96 7000 4.12 230 09:45 26.01.2022
4157 Clouds 8 1030 93 10000 8.23 250 07:37 26.01.2022
4158 Clouds 7 1032 94 7000 7.2 230 01:53 26.01.2022
4159 Haze 7 1032 92 4600 7.2 220 23:56 25.01.2022
4160 Clouds 7 1032 89 10000 4.63 240 22:56 25.01.2022
4161 Clouds 7 1032 87 10000 6.17 230 22:21 25.01.2022
4162 Clouds 7 1032 89 10000 6.69 230 21:52 25.01.2022
4163 Clouds 6 1033 91 10000 4.12 250 20:46 25.01.2022
4164 Clouds 6 1033 90 10000 4.12 240 20:22 25.01.2022
4165 Clouds 6 1033 86 10000 2.57 240 19:46 25.01.2022
4166 Clouds 6 1033 84 10000 4.12 230 18:24 25.01.2022
4167 Clouds 6 1033 83 10000 6.17 220 17:42 25.01.2022
4168 Clouds 6 1033 82 10000 6.17 230 16:35 25.01.2022
4169 Clouds 6 1033 78 10000 6.69 210 15:47 25.01.2022
4170 Clouds 6 1033 80 10000 6.17 210 15:28 25.01.2022
4171 Clouds 7 1033 80 10000 5.14 220 14:57 25.01.2022
4172 Clouds 7 1033 80 10000 5.14 220 14:57 25.01.2022
4173 Clouds 6 1034 87 10000 3.09 230 13:28 25.01.2022
4174 Clouds 6 1035 89 9000 3.09 190 10:35 25.01.2022
4175 Clouds 5 1035 89 8000 3.09 250 08:33 25.01.2022
4176 Clouds 6 1035 88 10000 4.63 220 07:28 25.01.2022
4177 Clouds 6 1035 88 10000 4.12 220 06:22 25.01.2022
4178 Clouds 7 1035 88 10000 2.57 230 01:34 25.01.2022
4179 Clouds 6 1036 90 10000 3.6 200 23:36 24.01.2022
4180 Clouds 6 1036 92 9000 0.51 0 23:18 24.01.2022
4181 Clouds 6 1036 92 10000 3.09 200 22:59 24.01.2022
4182 Clouds 6 1036 92 10000 3.09 200 22:41 24.01.2022
4183 Clouds 6 1036 91 10000 1.03 0 21:45 24.01.2022
4184 Clouds 6 1035 92 10000 3.09 190 21:27 24.01.2022
4185 Clouds 6 1035 91 10000 4.63 210 20:29 24.01.2022
4186 Clouds 6 1035 91 10000 4.12 210 19:39 24.01.2022
4187 Clouds 7 1031 87 10000 4.12 210 18:55 24.01.2022
4188 Clouds 7 1034 87 10000 4.63 210 17:43 24.01.2022
4189 Clouds 8 1034 84 10000 5.66 220 17:23 24.01.2022
4190 Clouds 8 1034 82 10000 7.2 220 16:32 24.01.2022
4191 Clouds 9 1033 83 10000 7.72 220 15:52 24.01.2022
4192 Clouds 8 1033 84 10000 8.23 220 14:27 24.01.2022
4193 Clouds 8 1033 87 10000 7.72 210 12:36 24.01.2022
4194 Clouds 8 1033 88 10000 6.69 210 11:45 24.01.2022
4195 Clouds 7 1033 88 10000 5.14 200 10:23 24.01.2022
4196 Clouds 7 1033 87 10000 3.09 210 09:46 24.01.2022
4197 Clouds 7 1032 87 10000 4.63 220 08:18 24.01.2022
4198 Clouds 7 1031 84 10000 8.75 210 02:29 24.01.2022
4199 Clouds 7 1031 84 10000 8.23 200 01:26 24.01.2022
4200 Clouds 7 1031 84 10000 8.23 200 01:26 24.01.2022
4201 Clouds 7 1030 83 10000 8.23 210 00:31 24.01.2022
4202 Clouds 6 1031 80 10000 7.2 210 23:40 23.01.2022
4203 Clouds 6 1031 80 10000 7.72 200 22:20 23.01.2022
4204 Clouds 6 1031 81 10000 7.72 210 21:40 23.01.2022
4205 Clouds 6 1031 81 10000 6.69 200 21:20 23.01.2022
4206 Clouds 6 1031 80 10000 10.29 210 20:22 23.01.2022
4207 Clouds 6 1031 83 10000 7.72 220 18:56 23.01.2022
4208 Clouds 6 1031 83 10000 7.2 230 18:24 23.01.2022
4209 Clouds 7 1032 82 10000 6.69 220 17:19 23.01.2022
4210 Clouds 7 1029 78 10000 6.17 220 15:59 23.01.2022
4211 Clouds 7 1032 82 10000 6.69 220 14:52 23.01.2022
4212 Clouds 7 1032 82 10000 6.69 220 14:18 23.01.2022
4213 Clouds 7 1033 83 10000 5.14 230 12:46 23.01.2022
4214 Clouds 7 1033 83 10000 6.17 220 12:20 23.01.2022
4215 Clouds 7 1033 83 10000 5.14 220 11:26 23.01.2022
4216 Clouds 7 1033 83 10000 5.14 230 10:57 23.01.2022
4217 Clouds 7 1033 84 10000 5.14 230 10:25 23.01.2022
4218 Clouds 7 1033 84 10000 5.14 230 09:31 23.01.2022
4219 Clouds 7 1034 85 10000 6.17 230 08:49 23.01.2022
4220 Clouds 7 1035 91 10000 4.63 220 03:49 23.01.2022
4221 Clouds 8 1035 93 10000 4.63 230 01:38 23.01.2022
4222 Clouds 8 1035 93 10000 5.14 220 00:47 23.01.2022
4223 Clouds 8 1036 93 10000 3.6 220 23:59 22.01.2022
4224 Clouds 8 1036 93 10000 4.63 200 22:53 22.01.2022
4225 Clouds 8 1036 93 10000 3.09 200 22:19 22.01.2022
4226 Clouds 8 1036 93 10000 4.12 230 20:33 22.01.2022
4227 Clouds 8 1037 93 10000 4.63 220 19:46 22.01.2022
4228 Clouds 8 1036 93 10000 5.66 220 18:37 22.01.2022
4229 Clouds 8 1036 91 10000 5.14 240 17:46 22.01.2022
4230 Clouds 8 1036 91 10000 5.66 230 17:25 22.01.2022
4231 Clouds 8 1036 90 10000 5.66 240 16:54 22.01.2022
4232 Clouds 9 1036 90 10000 4.63 240 15:45 22.01.2022
4233 Clouds 9 1036 90 10000 5.14 250 14:55 22.01.2022
4234 Clouds 9 1037 90 10000 4.12 240 13:31 22.01.2022
4235 Clouds 9 1037 90 10000 4.63 250 12:40 22.01.2022
4236 Clouds 9 1037 90 10000 5.14 240 12:20 22.01.2022
4237 Clouds 8 1036 93 10000 4.63 220 10:54 22.01.2022
4238 Drizzle 7 1036 93 3900 6.17 220 10:25 22.01.2022
4239 Clouds 7 1036 93 10000 4.63 230 08:59 22.01.2022
4240 Clouds 7 1036 93 10000 4.63 230 08:39 22.01.2022
4241 Clouds 7 1036 93 10000 6.17 230 06:46 22.01.2022
4242 Clouds 7 1037 92 10000 4.63 240 02:40 22.01.2022
4243 Clouds 7 1038 93 10000 5.14 220 23:52 21.01.2022
4244 Clouds 7 1038 93 10000 4.63 220 23:21 21.01.2022
4245 Clouds 6 1038 92 10000 4.63 230 21:45 21.01.2022
4246 Clouds 6 1038 89 10000 5.14 230 19:48 21.01.2022
4247 Clouds 7 1038 89 10000 5.14 240 17:53 21.01.2022
4248 Clouds 8 1036 81 10000 6.69 260 16:37 21.01.2022
4249 Clouds 8 1039 86 10000 4.63 270 15:23 21.01.2022
4250 Clouds 8 1037 89 10000 5.66 270 12:48 21.01.2022
4251 Clouds 6 1039 92 10000 4.63 250 11:29 21.01.2022
4252 Clouds 6 1039 90 10000 4.12 240 10:47 21.01.2022
4253 Clouds 5 1040 92 10000 5.14 240 08:59 21.01.2022
4254 Clouds 5 1039 90 10000 5.14 250 08:20 21.01.2022
4255 Clouds 3 1041 89 10000 1.54 210 01:55 21.01.2022
4256 Clouds 2 1039 85 10000 2.06 260 22:51 20.01.2022
4257 Clouds 2 1039 86 10000 1.54 240 21:49 20.01.2022
4258 Clouds 2 1039 87 10000 1.54 250 21:25 20.01.2022
4259 Clouds 3 1039 84 10000 2.57 220 19:54 20.01.2022
4260 Clouds 3 1039 82 10000 2.57 240 19:18 20.01.2022
4261 Clouds 4 1038 81 10000 2.06 230 17:37 20.01.2022
4262 Clouds 5 1038 75 10000 2.57 260 16:24 20.01.2022
4263 Clouds 6 1038 74 10000 1.03 0 15:31 20.01.2022
4264 Clouds 5 1039 78 10000 1.54 210 14:20 20.01.2022
4265 Clouds 4 1039 83 10000 2.06 280 12:49 20.01.2022
4266 Clouds 3 1039 84 10000 1.54 260 12:29 20.01.2022
4267 Clouds 2 1039 85 10000 1.51 252 11:19 20.01.2022
4268 Clear 0 1038 90 10000 0.51 0 09:50 20.01.2022
4269 Clear 0 1038 90 10000 1.03 170 08:45 20.01.2022
4270 Clear 0 1036 89 10000 1.54 300 06:57 20.01.2022
4271 Clear 3 1033 77 10000 4.12 300 00:40 20.01.2022
4272 Clear 4 1031 77 10000 2.57 260 22:38 19.01.2022
4273 Clear 5 1031 79 10000 3.1 295 21:34 19.01.2022
4274 Clouds 5 1029 79 10000 3.6 260 20:56 19.01.2022
4275 Clouds 5 1029 77 10000 3.6 270 20:30 19.01.2022
4276 Clouds 6 1028 73 10000 3.6 280 18:59 19.01.2022
4277 Clouds 6 1030 73 10000 4.12 270 17:51 19.01.2022
4278 Clouds 6 1027 75 10000 4.63 280 17:18 19.01.2022
4279 Clouds 6 1027 75 10000 4.63 280 17:18 19.01.2022
4280 Clouds 6 1027 75 10000 4.63 280 17:18 19.01.2022
4281 Clouds 6 1027 75 10000 4.63 280 17:18 19.01.2022
4282 Clouds 7 1028 75 10000 6.17 290 15:32 19.01.2022
4283 Clouds 7 1027 79 10000 6.69 290 13:25 19.01.2022
4284 Clouds 7 1024 77 10000 7.2 290 11:58 19.01.2022
4285 Clouds 7 1024 78 10000 7.2 290 11:38 19.01.2022
4286 Clouds 6 1021 80 10000 5.14 280 09:35 19.01.2022
4287 Clouds 7 1020 79 10000 7.2 300 08:38 19.01.2022
4288 Clouds 9 1016 90 7000 9.77 240 05:20 19.01.2022
4289 Clouds 9 1024 91 10000 10.8 220 00:21 19.01.2022
4290 Clouds 9 1025 90 10000 9.77 210 23:18 18.01.2022
4291 Clouds 8 1027 90 10000 8.75 210 21:45 18.01.2022
4292 Clouds 8 1028 90 10000 8.23 210 20:34 18.01.2022
4293 Clouds 8 1029 91 10000 9.26 210 19:49 18.01.2022
4294 Clouds 8 1029 91 10000 8.23 210 19:31 18.01.2022
4295 Rain 8 1030 90 9000 7.72 200 18:19 18.01.2022
4296 Rain 8 1031 89 9000 5.66 210 17:32 18.01.2022
4297 Rain 8 1031 85 10000 5.14 210 16:20 18.01.2022
4298 Clouds 8 1032 84 10000 3.6 230 15:25 18.01.2022
4299 Clouds 8 1033 84 10000 3.6 210 14:22 18.01.2022
4300 Clouds 7 1035 87 10000 4.12 200 11:37 18.01.2022
4301 Clouds 5 1035 92 10000 4.63 190 10:25 18.01.2022
4302 Clouds 3 1036 90 10000 2.06 60 08:29 18.01.2022
4303 Clouds 2 1036 89 10000 1.54 100 07:43 18.01.2022
4304 Clouds 3 1039 92 10000 0.51 0 00:39 18.01.2022
4305 Clouds 4 1037 91 10000 1.03 0 22:40 17.01.2022
4306 Clouds 5 1036 88 10000 1.54 250 21:42 17.01.2022
4307 Clouds 5 1039 89 10000 1.54 210 20:44 17.01.2022
4308 Clouds 6 1039 88 10000 4.63 230 18:46 17.01.2022
4309 Clouds 6 1040 85 10000 2.57 250 18:24 17.01.2022
4310 Clouds 7 1040 87 10000 4.63 230 17:19 17.01.2022
4311 Clouds 7 1039 85 10000 4.63 220 15:47 17.01.2022
4312 Clouds 8 1039 83 10000 4.63 230 14:58 17.01.2022
4313 Clouds 8 1040 84 10000 4.63 220 14:31 17.01.2022
4314 Clouds 8 1040 84 10000 5.66 260 13:18 17.01.2022
4315 Clouds 7 1040 86 10000 5.66 250 11:51 17.01.2022
4316 Clouds 7 1039 87 10000 5.14 250 10:47 17.01.2022
4317 Clouds 7 1038 88 10000 4.12 240 09:35 17.01.2022
4318 Clouds 6 1038 88 10000 4.12 230 08:43 17.01.2022
4319 Clouds 7 1038 87 10000 4.12 250 07:20 17.01.2022
4320 Clouds 6 1036 84 10000 4.12 260 00:58 17.01.2022
4321 Clouds 7 1035 81 10000 5.66 260 23:27 16.01.2022
4322 Clouds 6 1033 80 10000 4.63 250 20:50 16.01.2022
4323 Clouds 6 1029 75 10000 6.69 260 19:55 16.01.2022
4324 Clouds 6 1029 76 10000 4.12 270 18:45 16.01.2022
4325 Clouds 6 1031 76 10000 5.14 260 17:46 16.01.2022
4326 Clouds 7 1028 71 10000 4.63 260 16:50 16.01.2022
4327 Clouds 7 1027 73 10000 6.17 260 15:34 16.01.2022
4328 Clouds 7 1026 74 10000 6.17 270 14:29 16.01.2022
4329 Clear 6 1026 80 10000 4.12 230 12:51 16.01.2022
4330 Clear 5 1025 81 10000 2.57 260 11:48 16.01.2022
4331 Clear 5 1024 79 10000 3.6 270 10:58 16.01.2022
4332 Clear 5 1023 82 10000 4.12 220 10:26 16.01.2022
4333 Clouds 5 1022 83 10000 4.63 250 09:54 16.01.2022
4334 Clear 5 1025 85 10000 3.6 200 09:22 16.01.2022
4335 Clear 5 1024 85 10000 3.09 280 08:47 16.01.2022
4336 Clouds 6 1020 89 10000 1.54 230 03:58 16.01.2022
4337 Clouds 6 1021 92 10000 2.06 240 23:50 15.01.2022
4338 Clouds 6 1021 92 10000 2.06 240 23:50 15.01.2022
4339 Clouds 6 1021 95 10000 4.12 220 22:19 15.01.2022
4340 Clouds 6 1021 95 2800 2.57 240 21:19 15.01.2022
4341 Drizzle 6 1021 93 4800 2.06 210 20:40 15.01.2022
4342 Drizzle 6 1022 93 2200 1.03 0 19:30 15.01.2022
4343 Mist 6 1022 93 1300 0.51 0 18:45 15.01.2022
4344 Drizzle 6 1022 93 1900 0.51 0 17:30 15.01.2022
4345 Clouds 6 1023 89 6000 0 0 15:59 15.01.2022
4346 Haze 6 1024 91 4900 1.03 30 13:56 15.01.2022
4347 Clouds 5 1026 91 6000 0.51 0 12:18 15.01.2022
4348 Clouds 5 1026 92 10000 2.06 210 10:38 15.01.2022
4349 Clouds 5 1027 89 10000 2.06 200 08:31 15.01.2022
4350 Clouds 5 1030 86 10000 2.57 160 00:28 15.01.2022
4351 Clouds 6 1034 87 10000 2.06 180 21:52 14.01.2022
4352 Clouds 6 1035 92 10000 3.09 130 20:37 14.01.2022
4353 Clouds 6 1032 92 10000 2.06 140 19:58 14.01.2022
4354 Clouds 6 1035 92 10000 2.06 140 18:48 14.01.2022
4355 Clouds 6 1035 89 10000 5.14 200 17:57 14.01.2022
4356 Clouds 7 1035 91 10000 3.09 210 16:48 14.01.2022
4357 Clouds 8 1036 90 10000 3.6 230 15:37 14.01.2022
4358 Clouds 8 1037 90 10000 3.6 220 14:38 14.01.2022
4359 Haze 8 1038 93 5000 4.63 210 13:34 14.01.2022
4360 Clouds 8 1038 92 10000 4.12 210 12:24 14.01.2022
4361 Clouds 8 1038 93 10000 0.45 183 10:47 14.01.2022
4362 Clouds 8 1038 93 10000 2.57 240 08:54 14.01.2022
4363 Clouds 8 1038 93 10000 3.09 230 08:20 14.01.2022
4364 Clouds 8 1039 92 10000 0.89 126 03:55 14.01.2022
4365 Clouds 8 1039 92 10000 1.34 74 00:50 14.01.2022
4366 Clouds 7 1038 92 10000 1.34 79 22:35 13.01.2022
4367 Clouds 7 1038 89 10000 1.34 323 21:30 13.01.2022
4368 Clouds 7 1038 89 10000 1.34 66 20:54 13.01.2022
4369 Clouds 8 1038 89 10000 1.34 86 19:32 13.01.2022
4370 Clouds 8 1038 88 10000 1.34 79 18:57 13.01.2022
4371 Clouds 8 1038 87 10000 1.79 96 17:25 13.01.2022
4372 Clouds 8 1038 85 10000 2.24 59 16:19 13.01.2022
4373 Clouds 8 1038 84 10000 2.24 90 15:35 13.01.2022
4374 Clouds 8 1039 85 10000 1.79 107 13:47 13.01.2022
4375 Clouds 8 1040 84 10000 2.68 79 12:20 13.01.2022
4376 Clouds 8 1039 84 10000 2.24 88 09:38 13.01.2022
4377 Clouds 8 1039 84 10000 2.24 91 08:54 13.01.2022
4378 Clouds 8 1039 84 10000 1.79 93 08:24 13.01.2022
4379 Clouds 8 1039 86 10000 2.24 90 07:21 13.01.2022
4380 Clouds 8 1039 86 10000 2.24 85 05:57 13.01.2022
4381 Clouds 8 1039 84 10000 2.24 88 05:18 13.01.2022
4382 Clouds 8 1040 88 10000 2.68 82 01:49 13.01.2022
4383 Clouds 8 1040 91 10000 1.34 50 23:54 12.01.2022
4384 Clouds 8 1040 91 10000 1.34 326 23:35 12.01.2022
4385 Clouds 8 1040 86 10000 2.24 98 22:56 12.01.2022
4386 Clouds 9 1040 86 10000 2.24 94 21:56 12.01.2022
4387 Clouds 8 1039 86 10000 2.68 95 21:21 12.01.2022
4388 Clouds 9 1040 88 10000 2.68 62 20:56 12.01.2022
4389 Clouds 9 1040 85 10000 2.68 62 19:28 12.01.2022
4390 Clouds 9 1039 87 10000 1.79 77 18:28 12.01.2022
4391 Clouds 9 1039 89 10000 2.68 95 16:59 12.01.2022
4392 Clouds 9 1039 88 10000 3.13 58 15:53 12.01.2022
4393 Clouds 9 1039 88 10000 1.79 85 14:46 12.01.2022
4394 Clouds 9 1039 88 10000 2.24 78 12:58 12.01.2022
4395 Clouds 9 1039 88 10000 2.24 78 12:58 12.01.2022
4396 Clouds 9 1039 87 10000 0.89 37 09:59 12.01.2022
4397 Clouds 8 1038 90 10000 1.34 46 08:33 12.01.2022
4398 Clouds 8 1038 90 10000 2.24 62 07:33 12.01.2022
4399 Clouds 8 1037 90 10000 1.79 66 05:30 12.01.2022
4400 Clouds 7 1035 89 10000 2.24 71 23:29 11.01.2022
4401 Clouds 7 1034 89 10000 1.79 65 22:41 11.01.2022
4402 Clouds 7 1034 87 10000 1.79 66 22:20 11.01.2022
4403 Clouds 7 1034 87 10000 1.34 101 20:40 11.01.2022
4404 Clouds 7 1033 87 10000 1.34 21 19:41 11.01.2022
4405 Clouds 7 1032 86 10000 1.79 337 18:22 11.01.2022
4406 Clouds 7 1032 86 10000 1.34 76 17:18 11.01.2022
4407 Clouds 8 1031 84 10000 1.34 96 16:36 11.01.2022
4408 Clouds 8 1030 84 10000 1.79 80 14:57 11.01.2022
4409 Clouds 8 1031 84 10000 1.79 42 14:39 11.01.2022
4410 Clouds 7 1030 85 10000 2.24 33 13:53 11.01.2022
4411 Clouds 7 1027 86 10000 5.14 210 13:31 11.01.2022
4412 Clouds 6 1030 88 10000 1.34 69 12:37 11.01.2022
4413 Clouds 4 1029 88 10000 2.57 290 10:45 11.01.2022
4414 Clouds 4 1027 88 10000 3.6 220 08:27 11.01.2022
4415 Clouds 5 1024 88 10000 0.45 353 04:30 11.01.2022
4416 Clouds 5 1024 88 10000 0.45 353 04:30 11.01.2022
4417 Clouds 6 1021 89 10000 0.89 206 00:28 11.01.2022
4418 Clouds 7 1020 89 10000 1.34 5 23:40 10.01.2022
4419 Clouds 8 1019 90 10000 0.89 88 22:42 10.01.2022
4420 Clouds 8 1019 90 10000 1.34 104 22:18 10.01.2022
4421 Clouds 8 1018 90 4500 0.89 158 21:36 10.01.2022
4422 Clouds 9 1017 90 10000 0.45 199 21:18 10.01.2022
4423 Rain 9 1017 90 10000 0.89 124 20:54 10.01.2022
4424 Rain 9 1016 92 10000 2.24 118 20:19 10.01.2022
4425 Clouds 10 1015 93 10000 1.79 101 19:39 10.01.2022
4426 Clouds 10 1015 93 4000 3.58 52 19:19 10.01.2022
4427 Clouds 10 1014 93 6000 3.13 340 18:46 10.01.2022
4428 Clouds 10 1013 92 2700 0.45 237 16:49 10.01.2022
4429 Clouds 9 1013 92 6000 6.69 190 16:27 10.01.2022
4430 Clouds 9 1013 92 10000 0.45 214 14:44 10.01.2022
4431 Drizzle 8 1013 93 3900 0.45 232 13:35 10.01.2022
4432 Clouds 7 1013 93 3900 0.45 211 11:57 10.01.2022
4433 Clouds 6 1013 96 8000 0.45 217 10:50 10.01.2022
4434 Clouds 6 1012 96 8000 3.09 50 09:40 10.01.2022
4435 Clouds 4 1011 96 2700 0.51 0 05:52 10.01.2022
4436 Fog 3 1010 98 350 0.89 233 02:38 10.01.2022
4437 Mist 3 1006 98 3700 1.03 0 01:21 10.01.2022
4438 Mist 3 1008 96 4000 0.45 1 00:21 10.01.2022
4439 Clouds 3 1006 95 10000 1.54 90 22:47 09.01.2022
4440 Clouds 4 1006 95 10000 2.06 30 22:21 09.01.2022
4441 Clouds 4 1005 95 10000 0.51 120 21:41 09.01.2022
4442 Clouds 4 1005 95 10000 0.51 120 21:41 09.01.2022
4443 Clouds 4 1004 95 10000 1.54 10 21:22 09.01.2022
4444 Clouds 3 1004 95 10000 1.54 10 21:22 09.01.2022
4445 Clouds 4 1001 94 7000 1.03 190 20:46 09.01.2022
4446 Clouds 4 1003 95 10000 0.45 1 20:28 09.01.2022
4447 Clouds 4 1002 94 10000 1.03 0 19:39 09.01.2022
4448 Clouds 4 1002 93 10000 0.45 1 19:20 09.01.2022
4449 Clouds 4 1001 92 10000 2.06 260 18:38 09.01.2022
4450 Clouds 4 1000 92 10000 1.54 270 18:18 09.01.2022
4451 Clouds 5 999 92 10000 3.09 230 17:30 09.01.2022
4452 Clouds 6 999 88 10000 3.09 240 16:49 09.01.2022
4453 Clouds 6 998 90 10000 4.63 220 15:46 09.01.2022
4454 Clouds 6 997 90 10000 0.45 1 15:25 09.01.2022
4455 Clouds 6 997 92 10000 0.45 237 14:39 09.01.2022
4456 Clouds 6 997 90 10000 0.45 76 13:48 09.01.2022
4457 Clouds 5 996 91 7000 1.79 67 11:58 09.01.2022
4458 Rain 5 996 89 10000 1.34 102 11:28 09.01.2022
4459 Clouds 5 996 90 10000 1.34 124 09:55 09.01.2022
4460 Clouds 4 995 92 10000 1.34 136 09:20 09.01.2022
4461 Clouds 3 995 91 10000 0.89 90 06:57 09.01.2022
4462 Clouds 3 993 89 10000 1.34 90 01:30 09.01.2022
4463 Clouds 4 993 89 10000 0.89 90 00:38 09.01.2022
4464 Rain 4 992 88 7000 2.24 91 23:34 08.01.2022
4465 Clouds 4 992 87 10000 0.89 138 22:48 08.01.2022
4466 Clouds 3 991 88 10000 2.24 95 21:28 08.01.2022
4467 Clouds 3 991 87 10000 1.34 132 20:43 08.01.2022
4468 Clouds 4 991 87 10000 1.34 108 20:22 08.01.2022
4469 Clouds 4 991 87 10000 2.68 90 19:22 08.01.2022
4470 Clouds 4 991 88 10000 4.63 230 17:38 08.01.2022
4471 Clouds 4 991 87 10000 0.45 116 16:45 08.01.2022
4472 Clouds 5 991 85 10000 0.89 84 15:33 08.01.2022
4473 Clouds 6 991 86 10000 1.79 98 13:58 08.01.2022
4474 Clouds 6 991 85 8000 1.79 105 11:41 08.01.2022
4475 Clouds 6 991 91 10000 1.79 85 10:33 08.01.2022
4476 Clouds 6 991 95 10000 5.14 250 09:57 08.01.2022
4477 Clouds 6 991 96 10000 5.14 250 09:33 08.01.2022
4478 Rain 4 996 93 3500 0.45 231 06:18 08.01.2022
4479 Rain 1 1007 93 8000 2.06 50 01:41 08.01.2022
4480 Clouds 0 1009 94 10000 1.54 60 23:31 07.01.2022
4481 Clear 0 1007 91 10000 1.03 0 21:49 07.01.2022
4482 Clouds 0 1009 89 10000 1.03 0 20:32 07.01.2022
4483 Clouds 1 1009 89 10000 3.09 240 19:27 07.01.2022
4484 Clouds 1 1009 89 10000 3.09 240 19:27 07.01.2022
4485 Clouds 1 1008 91 10000 4.12 230 18:49 07.01.2022
4486 Clouds 0 1008 91 10000 2.57 210 18:21 07.01.2022
4487 Clouds 1 1007 86 10000 1.34 97 17:23 07.01.2022
4488 Clouds 2 1005 88 10000 1.79 106 14:55 07.01.2022
4489 Rain 2 1005 90 10000 0.45 18 13:52 07.01.2022
4490 Clouds 2 1004 91 10000 0.89 154 12:51 07.01.2022
4491 Clouds 1 1003 93 10000 4.12 220 11:22 07.01.2022
4492 Rain 2 1000 91 10000 2.24 101 04:25 07.01.2022
4493 Rain 2 1000 92 10000 1.79 127 02:46 07.01.2022
4494 Rain 2 1000 91 10000 2.24 115 01:48 07.01.2022
4495 Rain 2 1000 91 10000 2.68 73 01:48 07.01.2022
4496 Rain 3 1000 90 10000 2.68 85 01:25 07.01.2022
4497 Rain 3 1000 88 9000 1.34 110 00:30 07.01.2022
4498 Rain 4 999 87 10000 2.24 81 22:33 06.01.2022
4499 Clouds 5 999 88 10000 2.24 70 20:51 06.01.2022
4500 Rain 4 999 88 10000 1.34 121 20:18 06.01.2022
4501 Rain 5 996 84 10000 4.12 270 19:36 06.01.2022
4502 Clouds 6 998 83 10000 3.13 101 17:51 06.01.2022
4503 Clouds 6 998 88 10000 2.24 130 17:23 06.01.2022
4504 Clouds 7 998 88 10000 0.45 296 16:32 06.01.2022
4505 Clouds 6 999 90 10000 1.79 300 15:44 06.01.2022
4506 Rain 6 999 90 10000 2.24 304 15:21 06.01.2022
4507 Clouds 5 1001 92 10000 1.79 276 14:20 06.01.2022
4508 Rain 4 1002 91 3900 3.58 251 13:33 06.01.2022
4509 Rain 4 1004 90 4000 2.24 278 12:20 06.01.2022
4510 Rain 3 1006 89 8000 1.34 258 11:29 06.01.2022
4511 Rain 3 1009 80 10000 2.24 308 09:56 06.01.2022
4512 Clouds 2 1014 81 10000 0.89 231 06:37 06.01.2022
4513 Clouds 0 1020 84 10000 0.45 241 00:27 06.01.2022
4514 Clear 0 1021 87 10000 0.45 160 23:22 05.01.2022
4515 Clear 0 1021 85 10000 1.03 0 22:42 05.01.2022
4516 Clear -1 1021 85 10000 1.03 0 22:21 05.01.2022
4517 Clear -1 1021 85 10000 1.03 260 21:25 05.01.2022
4518 Clear -1 1021 83 10000 1.03 0 20:30 05.01.2022
4519 Clear 0 1021 80 10000 1.54 250 19:29 05.01.2022
4520 Clear 1 1020 77 10000 3.09 220 18:20 05.01.2022
4521 Clear 3 1019 71 10000 2.06 220 16:56 05.01.2022
4522 Clear 4 1019 67 10000 0.45 125 16:18 05.01.2022
4523 Clear 5 1019 67 10000 0.45 112 14:56 05.01.2022
4524 Clear 5 1018 69 10000 0.89 104 13:34 05.01.2022
4525 Clear 3 1017 75 10000 1.79 99 12:20 05.01.2022
4526 Clear 2 1010 81 10000 3.09 280 08:29 05.01.2022
4527 Clear 2 1012 83 10000 3.6 260 06:37 05.01.2022
4528 Clouds 3 1007 75 10000 1.79 110 01:24 05.01.2022
4529 Clouds 3 1006 74 10000 2.68 88 23:42 04.01.2022
4530 Clouds 3 1006 74 10000 1.79 100 23:19 04.01.2022
4531 Clouds 3 1005 77 10000 1.79 100 21:36 04.01.2022
4532 Clouds 2 1005 75 10000 2.68 86 20:41 04.01.2022
4533 Clear 2 1004 73 10000 2.24 85 18:35 04.01.2022
4534 Clear 2 1004 74 10000 1.79 105 17:19 04.01.2022
4535 Clear 3 1004 74 10000 0.89 339 16:31 04.01.2022
4536 Clouds 3 1004 71 10000 2.24 104 14:58 04.01.2022
4537 Clouds 3 1004 71 10000 2.68 111 14:37 04.01.2022
4538 Clouds 3 1004 73 10000 1.79 114 13:55 04.01.2022
4539 Clear 2 1004 77 10000 2.24 94 11:44 04.01.2022
4540 Clear 1 1004 79 10000 0.89 127 10:18 04.01.2022
4541 Clear 1 1004 80 10000 1.34 111 08:36 04.01.2022
4542 Clouds 0 1004 87 10000 0.89 124 04:24 04.01.2022
4543 Clouds -1 1005 88 10000 2.06 260 00:42 04.01.2022
4544 Clouds -1 1005 86 10000 3.6 240 23:49 03.01.2022
4545 Clouds 0 1004 86 10000 2.57 230 22:21 03.01.2022
4546 Clouds 0 1007 88 10000 1.98 257 21:38 03.01.2022
4547 Clouds 1 1004 80 10000 3.09 340 20:34 03.01.2022
4548 Clouds 3 1004 78 10000 1.34 154 18:54 03.01.2022
4549 Clouds 3 1003 86 10000 0.45 192 18:29 03.01.2022
4550 Clouds 4 1003 85 10000 0.89 216 17:20 03.01.2022
4551 Clouds 5 1002 86 10000 0.89 205 16:28 03.01.2022
4552 Clouds 6 1000 91 10000 1.34 205 14:31 03.01.2022
4553 Clouds 8 999 91 10000 0.45 177 12:51 03.01.2022
4554 Rain 7 999 92 10000 0.89 143 11:50 03.01.2022
4555 Rain 8 998 90 10000 2.24 100 10:37 03.01.2022
4556 Rain 8 997 87 10000 2.68 91 08:54 03.01.2022
4557 Rain 8 996 88 10000 2.68 86 07:52 03.01.2022
4558 Rain 8 997 90 4900 4.02 82 02:28 03.01.2022
4559 Clouds 9 997 84 10000 3.13 30 23:22 02.01.2022
4560 Clouds 9 997 84 10000 2.68 104 22:56 02.01.2022
4561 Clouds 9 997 87 10000 2.68 50 21:52 02.01.2022
4562 Clouds 9 997 87 10000 3.58 81 20:45 02.01.2022
4563 Rain 9 997 88 7000 3.58 61 20:25 02.01.2022
4564 Rain 9 997 85 10000 3.58 24 19:31 02.01.2022
4565 Clouds 9 997 82 10000 3.13 35 18:51 02.01.2022
4566 Clouds 9 997 83 10000 3.13 48 17:56 02.01.2022
4567 Clouds 9 997 83 10000 3.58 5 17:38 02.01.2022
4568 Clouds 9 997 83 10000 3.13 87 17:18 02.01.2022
4569 Clouds 9 997 84 6000 3.13 56 16:27 02.01.2022
4570 Clouds 10 999 81 10000 3.58 57 14:38 02.01.2022
4571 Clouds 10 1000 82 10000 2.68 50 12:57 02.01.2022
4572 Clouds 10 1000 83 10000 3.13 22 12:25 02.01.2022
4573 Clouds 9 1000 84 10000 2.68 57 11:33 02.01.2022
4574 Clouds 9 1001 86 10000 2.68 57 10:49 02.01.2022
4575 Clouds 9 1001 87 10000 2.24 49 09:45 02.01.2022
4576 Clouds 7 1003 88 10000 1.34 349 05:51 02.01.2022
4577 Clouds 8 1006 87 10000 1.79 315 01:48 02.01.2022
4578 Clouds 9 1006 85 10000 1.79 84 23:40 01.01.2022
4579 Clouds 9 1006 86 10000 2.24 89 22:57 01.01.2022
4580 Clouds 10 1005 86 10000 2.24 75 22:23 01.01.2022
4581 Clouds 10 1005 88 10000 1.79 112 21:44 01.01.2022
4582 Clouds 10 1004 88 10000 2.68 43 20:55 01.01.2022
4583 Clouds 11 1004 90 10000 2.68 46 19:58 01.01.2022
4584 Clouds 11 1005 89 9000 2.68 67 19:26 01.01.2022
4585 Rain 11 1004 85 4300 2.68 340 17:59 01.01.2022
4586 Clouds 12 1004 78 9000 4.02 345 16:41 01.01.2022
4587 Clouds 12 1005 77 10000 2.68 31 16:19 01.01.2022
4588 Clouds 13 1004 76 10000 3.58 357 15:26 01.01.2022
4589 Clouds 13 1004 74 10000 4.47 44 13:58 01.01.2022
4590 Clouds 13 1004 76 9000 3.58 31 12:50 01.01.2022
4591 Clouds 13 1004 81 9000 3.13 37 11:56 01.01.2022
4592 Clouds 13 1003 82 8000 2.24 76 11:22 01.01.2022
4593 Clouds 14 1003 82 9000 3.58 351 10:27 01.01.2022
4594 Clouds 13 1003 83 9000 4.02 17 09:45 01.01.2022
4595 Clouds 13 1004 84 10000 1.79 309 08:25 01.01.2022
4596 Clouds 13 1006 81 10000 1.34 307 07:44 01.01.2022
4597 Clouds 12 1006 82 10000 1.79 336 06:47 01.01.2022
4598 Clouds 12 1008 88 10000 0.45 247 05:26 01.01.2022
4599 Clouds 12 1008 90 10000 0.45 244 04:37 01.01.2022
4600 Rain 11 1011 90 8000 0.89 236 01:59 01.01.2022
4601 Clouds 11 1013 91 10000 0.45 235 23:36 31.12.2021
4602 Clouds 11 1012 92 10000 0.51 0 21:53 31.12.2021
4603 Rain 12 1013 90 10000 2.24 84 20:37 31.12.2021
4604 Clouds 12 1012 87 10000 3.13 75 19:30 31.12.2021
4605 Clouds 12 1009 87 10000 6.17 210 18:35 31.12.2021
4606 Clouds 12 1011 87 10000 1.34 61 17:38 31.12.2021
4607 Clouds 12 1010 87 10000 1.34 61 17:18 31.12.2021
4608 Clouds 12 1010 87 8000 2.68 99 16:24 31.12.2021
4609 Clouds 12 1009 87 10000 3.13 99 15:56 31.12.2021
4610 Clouds 12 1009 88 6000 3.13 95 15:28 31.12.2021
4611 Clouds 12 1008 89 4500 2.68 78 14:52 31.12.2021
4612 Clouds 12 1008 92 5000 3.13 67 14:29 31.12.2021
4613 Haze 12 1008 93 5000 2.68 107 13:36 31.12.2021
4614 Haze 12 1007 93 4300 2.24 163 12:45 31.12.2021
4615 Clouds 12 1006 94 10000 1.79 93 11:47 31.12.2021
4616 Clouds 12 1005 94 9000 1.79 146 11:29 31.12.2021
4617 Rain 11 1005 96 3700 0.45 225 10:35 31.12.2021
4618 Drizzle 11 1004 96 4000 0.45 225 09:54 31.12.2021
4619 Rain 11 1004 97 3100 0.89 224 09:32 31.12.2021
4620 Drizzle 10 1004 97 3400 0.45 235 08:27 31.12.2021
4621 Drizzle 10 1004 96 3500 1.34 249 07:30 31.12.2021
4622 Mist 11 1006 94 4500 0.45 105 23:23 30.12.2021
4623 Clouds 11 1006 96 9000 0.89 123 22:33 30.12.2021
4624 Clouds 11 1006 96 9000 0.89 123 22:33 30.12.2021
4625 Clouds 11 1005 93 8000 0.89 112 21:56 30.12.2021
4626 Clouds 11 1005 93 8000 0.89 112 21:56 30.12.2021
4627 Clouds 11 1005 93 8000 4.12 220 21:36 30.12.2021
4628 Clouds 11 1005 93 10000 1.34 132 20:46 30.12.2021
4629 Clouds 11 1005 93 10000 0.89 133 20:25 30.12.2021
4630 Clouds 11 1005 93 10000 1.34 109 19:45 30.12.2021
4631 Clouds 11 1006 93 10000 1.34 69 18:45 30.12.2021
4632 Clouds 11 1006 93 10000 1.34 92 18:18 30.12.2021
4633 Clouds 12 1006 91 10000 1.34 89 16:19 30.12.2021
4634 Clouds 12 1006 90 10000 1.79 105 15:51 30.12.2021
4635 Clouds 12 1006 88 10000 1.34 113 14:39 30.12.2021
4636 Clouds 12 1005 88 10000 2.24 74 13:55 30.12.2021
4637 Clouds 12 1005 88 10000 2.24 74 13:55 30.12.2021
4638 Clouds 12 1004 89 10000 1.34 97 12:40 30.12.2021
4639 Clouds 12 1003 90 10000 2.68 137 10:59 30.12.2021
4640 Clouds 12 1002 95 10000 2.68 99 09:59 30.12.2021
4641 Clouds 12 1002 95 10000 2.68 99 09:59 30.12.2021
4642 Clouds 12 1001 92 10000 2.24 62 09:21 30.12.2021
4643 Clouds 12 1000 94 5000 2.24 50 06:54 30.12.2021
4644 Clouds 11 1000 85 10000 1.34 23 03:43 30.12.2021
4645 Clouds 11 1000 85 10000 1.79 104 03:23 30.12.2021
4646 Clouds 10 1000 87 9000 2.24 81 23:50 29.12.2021
4647 Clouds 10 999 87 9000 2.24 94 23:23 29.12.2021
4648 Clouds 11 999 84 10000 1.79 101 22:22 29.12.2021
4649 Clouds 10 999 82 10000 2.24 100 21:43 29.12.2021
4650 Clouds 10 998 83 10000 3.13 79 20:39 29.12.2021
4651 Clouds 10 998 85 9000 2.68 70 19:50 29.12.2021
4652 Clouds 10 997 88 8000 4.02 73 18:54 29.12.2021
4653 Clouds 10 996 91 6000 3.13 97 17:56 29.12.2021
4654 Rain 10 995 87 7000 3.58 60 17:28 29.12.2021
4655 Clouds 11 993 85 10000 4.02 83 16:41 29.12.2021
4656 Clouds 11 992 87 10000 3.58 120 15:59 29.12.2021
4657 Drizzle 9 988 94 3600 1.34 76 14:24 29.12.2021
4658 Rain 6 989 97 3300 2.24 189 12:39 29.12.2021
4659 Rain 5 990 94 4000 4.02 214 11:49 29.12.2021
4660 Rain 5 994 93 8000 2.68 208 09:59 29.12.2021
4661 Clouds 4 997 96 10000 0.45 225 07:52 29.12.2021
4662 Clouds 4 997 96 10000 0.45 225 07:52 29.12.2021
4663 Clouds 3 999 96 8000 0.45 225 06:40 29.12.2021
4664 Clouds 3 1000 93 6000 0.45 225 06:22 29.12.2021
4665 Mist 3 1000 95 5000 1.54 60 05:40 29.12.2021
4666 Clouds 4 1002 95 10000 1.03 40 02:48 29.12.2021
4667 Clouds 5 1002 95 10000 0.51 0 00:24 29.12.2021
4668 Mist 4 1002 92 5000 2.06 230 23:45 28.12.2021
4669 Clouds 4 1002 93 10000 0.51 0 22:42 28.12.2021
4670 Clouds 5 1002 92 10000 0.51 120 22:24 28.12.2021
4671 Clouds 5 1002 96 10000 1.54 40 21:52 28.12.2021
4672 Clouds 6 999 93 10000 2.06 210 20:40 28.12.2021
4673 Clouds 6 1001 92 10000 1.03 0 19:31 28.12.2021
4674 Clouds 6 1000 92 10000 1.03 0 18:41 28.12.2021
4675 Clouds 6 999 94 10000 2.06 240 17:59 28.12.2021
4676 Clouds 7 998 91 10000 2.06 270 16:34 28.12.2021
4677 Clouds 8 998 88 10000 2.57 290 15:50 28.12.2021
4678 Clouds 8 997 88 10000 3.09 280 15:22 28.12.2021
4679 Clouds 8 997 85 10000 2.57 10 14:50 28.12.2021
4680 Clouds 8 997 86 10000 2.57 350 14:21 28.12.2021
4681 Clouds 8 996 86 10000 3.09 350 13:42 28.12.2021
4682 Clouds 8 993 90 10000 3.09 330 13:24 28.12.2021
4683 Clouds 7 995 90 10000 0.89 167 12:49 28.12.2021
4684 Clouds 7 994 90 10000 0.89 181 11:46 28.12.2021
4685 Drizzle 6 991 96 4100 2.24 207 08:53 28.12.2021
4686 Mist 6 991 96 5000 2.24 227 06:58 28.12.2021
4687 Clouds 5 992 93 10000 2.68 179 00:34 28.12.2021
4688 Clouds 5 993 94 10000 1.79 207 23:26 27.12.2021
4689 Clouds 5 993 94 7000 1.79 162 21:46 27.12.2021
4690 Clouds 5 993 94 6000 2.24 172 21:24 27.12.2021
4691 Clouds 5 993 94 10000 2.68 235 20:24 27.12.2021
4692 Clouds 5 993 96 10000 3.13 194 19:42 27.12.2021
4693 Clouds 5 993 94 10000 2.68 182 18:52 27.12.2021
4694 Clouds 5 993 94 7000 1.34 193 17:49 27.12.2021
4695 Clouds 5 993 96 7000 1.34 229 16:55 27.12.2021
4696 Clouds 6 993 94 7000 0.45 231 15:52 27.12.2021
4697 Clouds 6 994 94 10000 1.03 0 14:33 27.12.2021
4698 Clouds 6 994 94 9000 0.89 202 13:40 27.12.2021
4699 Clouds 5 995 97 4900 0.89 215 12:40 27.12.2021
4700 Clouds 4 995 94 7000 0.89 215 10:32 27.12.2021
4701 Clouds 4 995 97 9000 1.34 222 09:47 27.12.2021
4702 Mist 4 995 96 5000 0.89 208 07:50 27.12.2021
4703 Mist 4 995 96 4700 1.34 205 07:29 27.12.2021
4704 Clouds 4 998 94 8000 1.34 212 02:21 27.12.2021
4705 Clouds 4 999 93 4500 1.34 228 23:58 26.12.2021
4706 Drizzle 4 999 93 5000 1.34 237 23:39 26.12.2021
4707 Clouds 3 1000 93 10000 1.79 219 22:34 26.12.2021
4708 Rain 4 1001 92 6000 1.79 222 20:59 26.12.2021
4709 Clouds 4 1001 89 8000 1.79 174 19:49 26.12.2021
4710 Clouds 4 1001 88 10000 2.24 216 18:24 26.12.2021
4711 Clouds 3 1002 91 10000 2.24 175 17:24 26.12.2021
4712 Clouds 4 1003 87 10000 2.68 182 14:29 26.12.2021
4713 Clouds 3 1003 87 10000 3.13 188 13:41 26.12.2021
4714 Clouds 3 1004 86 10000 3.13 186 13:20 26.12.2021
4715 Clouds 3 1004 87 10000 2.68 175 12:33 26.12.2021
4716 Clouds 3 1004 87 10000 2.68 175 12:33 26.12.2021
4717 Clouds 2 1005 89 10000 2.24 197 10:42 26.12.2021
4718 Rain 2 1004 86 10000 2.24 203 09:26 26.12.2021
4719 Clouds 2 1004 85 9000 3.58 222 08:44 26.12.2021
4720 Rain 2 1005 80 10000 3.13 188 07:59 26.12.2021
4721 Clouds 2 1007 72 10000 4.02 177 01:30 26.12.2021
4722 Rain 2 1007 73 10000 2.68 174 23:58 25.12.2021
4723 Rain 2 1008 72 10000 3.13 187 23:27 25.12.2021
4724 Clouds 2 1008 73 10000 2.68 190 22:28 25.12.2021
4725 Clouds 2 1008 73 10000 3.13 181 21:00 25.12.2021
4726 Clouds 2 1009 73 10000 2.68 194 19:28 25.12.2021
4727 Clouds 2 1009 75 10000 2.68 203 18:57 25.12.2021
4728 Clouds 2 1009 74 10000 3.13 173 18:21 25.12.2021
4729 Clouds 3 1009 73 10000 2.68 213 16:42 25.12.2021
4730 Clouds 3 1010 68 10000 3.13 202 15:26 25.12.2021
4731 Clouds 4 1010 70 10000 3.58 252 13:41 25.12.2021
4732 Clouds 4 1011 71 10000 3.13 251 11:54 25.12.2021
4733 Clouds 3 1010 77 10000 2.68 231 10:18 25.12.2021
4734 Clouds 3 1010 79 10000 3.13 207 09:42 25.12.2021
4735 Clouds 2 1010 78 10000 2.24 212 04:36 25.12.2021
4736 Clouds 3 1010 76 10000 1.34 168 01:30 25.12.2021
4737 Clouds 4 1010 68 10000 2.24 243 23:55 24.12.2021
4738 Clouds 4 1009 72 10000 2.24 224 20:53 24.12.2021
4739 Clouds 4 1009 73 10000 3.58 224 19:25 24.12.2021
4740 Clouds 5 1009 79 10000 3.13 251 18:23 24.12.2021
4741 Clouds 5 1008 90 10000 4.02 255 16:30 24.12.2021
4742 Clouds 6 1008 90 10000 4.02 185 15:49 24.12.2021
4743 Clouds 6 1008 89 10000 4.02 164 15:20 24.12.2021
4744 Clouds 6 1008 89 10000 3.13 164 14:31 24.12.2021
4745 Clouds 6 1008 90 10000 3.58 200 13:44 24.12.2021
4746 Clouds 5 1008 94 10000 3.13 247 12:49 24.12.2021
4747 Clouds 5 1008 94 10000 3.58 191 12:23 24.12.2021
4748 Clouds 5 1008 94 10000 3.13 186 11:40 24.12.2021
4749 Clouds 5 1008 94 10000 2.68 186 11:18 24.12.2021
4750 Clouds 5 1008 94 10000 2.68 169 10:33 24.12.2021
4751 Clouds 4 1008 94 10000 1.79 194 08:38 24.12.2021
4752 Clouds 4 1008 94 10000 2.24 187 07:58 24.12.2021
4753 Haze 4 1007 92 3100 1.79 184 06:18 24.12.2021
4754 Mist 6 1006 95 2300 1.34 227 00:20 24.12.2021
4755 Mist 5 1006 97 3500 0.89 237 23:33 23.12.2021
4756 Mist 5 1006 97 5000 1.34 222 22:44 23.12.2021
4757 Clouds 5 1006 97 10000 1.34 225 22:22 23.12.2021
4758 Clouds 6 1005 98 10000 1.79 225 21:39 23.12.2021
4759 Clouds 6 1005 95 7000 2.24 218 20:22 23.12.2021
4760 Rain 5 1005 97 6000 1.79 211 19:27 23.12.2021
4761 Drizzle 5 1004 97 2800 3.13 179 17:58 23.12.2021
4762 Drizzle 5 1004 97 2600 3.13 208 17:18 23.12.2021
4763 Clouds 5 1004 95 3300 3.13 194 16:26 23.12.2021
4764 Drizzle 5 1004 95 2200 3.13 195 15:32 23.12.2021
4765 Clouds 5 1004 95 3700 3.58 209 14:58 23.12.2021
4766 Clouds 5 1004 95 3700 3.58 193 14:38 23.12.2021
4767 Rain 5 1005 95 10000 3.13 198 13:25 23.12.2021
4768 Clouds 4 1006 95 6000 2.24 234 11:20 23.12.2021
4769 Drizzle 3 1006 97 2500 2.24 194 09:53 23.12.2021
4770 Drizzle 4 1006 97 2500 1.79 225 09:33 23.12.2021
4771 Drizzle 3 1006 97 2100 1.34 239 08:25 23.12.2021
4772 Drizzle 3 1008 94 2100 0.89 255 05:23 23.12.2021
4773 Drizzle 2 1010 96 1500 0.89 237 00:34 23.12.2021
4774 Drizzle 2 1011 94 1400 1.34 226 22:49 22.12.2021
4775 Drizzle 2 1012 94 2100 1.79 214 21:57 22.12.2021
4776 Clouds 2 1012 94 3400 1.34 233 21:30 22.12.2021
4777 Rain 2 1012 94 2300 1.79 219 20:53 22.12.2021
4778 Rain 2 1012 94 2300 1.79 219 20:53 22.12.2021
4779 Drizzle 2 1012 96 2700 0.89 232 20:33 22.12.2021
4780 Drizzle 1 1013 96 1700 0.89 244 19:42 22.12.2021
4781 Drizzle 1 1013 95 3300 1.34 236 18:19 22.12.2021
4782 Rain 1 1014 94 2500 2.24 216 17:37 22.12.2021
4783 Rain 2 1015 92 3400 2.24 192 15:49 22.12.2021
4784 Snow 2 1017 85 7000 0.45 269 13:57 22.12.2021
4785 Clouds 2 1018 84 8000 0.45 270 12:47 22.12.2021
4786 Clouds 1 1019 85 8000 0.89 248 11:37 22.12.2021
4787 Clouds 2 1020 87 8000 0.45 270 09:43 22.12.2021
4788 Clouds 2 1021 87 8000 0.45 248 07:55 22.12.2021
4789 Clouds 2 1022 86 9000 0.45 270 05:51 22.12.2021
4790 Clouds 2 1022 87 10000 2.57 80 05:31 22.12.2021
4791 Clouds 2 1022 89 8000 2.06 60 04:55 22.12.2021
4792 Clouds 2 1023 87 8000 0.45 248 04:35 22.12.2021
4793 Clouds 2 1023 87 8000 2.57 50 03:34 22.12.2021
4794 Clouds 2 1024 86 10000 0.45 270 02:25 22.12.2021
4795 Clouds 2 1025 86 10000 2.57 100 23:47 21.12.2021
4796 Clouds 2 1026 87 10000 2.06 110 22:29 21.12.2021
4797 Clouds 2 1026 88 10000 2.06 110 21:53 21.12.2021
4798 Clouds 2 1025 87 10000 1.54 170 21:26 21.12.2021
4799 Clouds 2 1026 88 10000 3.6 180 20:24 21.12.2021
4800 Clouds 2 1026 87 10000 0.45 260 19:52 21.12.2021
4801 Clouds 2 1026 88 10000 2.57 200 19:26 21.12.2021
4802 Clouds 2 1026 89 10000 0.45 141 18:22 21.12.2021
4803 Clouds 3 1026 89 10000 1.03 0 17:51 21.12.2021
4804 Clouds 3 1026 89 10000 0.45 68 16:39 21.12.2021
4805 Clouds 3 1026 88 10000 2.06 110 15:29 21.12.2021
4806 Clouds 2 1028 89 10000 0.45 7 13:51 21.12.2021
4807 Clouds 2 1028 89 10000 0.45 270 13:31 21.12.2021
4808 Clouds 2 1028 89 10000 2.06 210 12:20 21.12.2021
4809 Clouds 3 1028 92 6000 1.03 170 10:37 21.12.2021
4810 Clouds 3 1028 92 9000 1.54 170 09:35 21.12.2021
4811 Clouds 3 1028 92 10000 0.45 270 08:30 21.12.2021
4812 Clouds 3 1028 92 9000 0.45 270 07:32 21.12.2021
4813 Clouds 3 1029 92 8000 1.54 150 06:54 21.12.2021
4814 Clouds 3 1030 91 9000 1.03 0 03:20 21.12.2021
4815 Clouds 4 1031 89 10000 1.03 0 00:46 21.12.2021
4816 Clouds 4 1031 89 10000 0.51 0 23:34 20.12.2021
4817 Clouds 4 1031 89 10000 1.03 0 22:34 20.12.2021
4818 Clouds 4 1032 88 10000 1.54 110 21:48 20.12.2021
4819 Clouds 4 1032 88 10000 1.54 100 21:24 20.12.2021
4820 Clouds 4 1032 86 10000 0.89 310 20:48 20.12.2021
4821 Clouds 4 1032 89 10000 1.54 150 19:55 20.12.2021
4822 Clouds 4 1032 89 10000 0.45 300 19:32 20.12.2021
4823 Clouds 4 1032 89 10000 0.45 270 18:55 20.12.2021
4824 Clouds 4 1032 88 10000 1.54 100 17:55 20.12.2021
4825 Clouds 4 1032 88 10000 2.06 110 17:37 20.12.2021
4826 Clouds 4 1032 86 10000 2.06 130 16:43 20.12.2021
4827 Clouds 5 1033 86 10000 0.45 282 15:52 20.12.2021
4828 Clouds 5 1033 88 10000 2.57 150 14:56 20.12.2021
4829 Clouds 5 1034 90 10000 0.51 0 13:18 20.12.2021
4830 Clouds 4 1034 93 10000 1.03 0 11:23 20.12.2021
4831 Clouds 4 1034 92 10000 1.54 80 09:51 20.12.2021
4832 Clouds 4 1034 92 10000 1.54 130 09:31 20.12.2021
4833 Clouds 4 1034 90 10000 1.54 0 08:42 20.12.2021
4834 Clouds 5 1034 90 10000 0.45 270 07:50 20.12.2021
4835 Clouds 5 1035 90 10000 1.54 80 07:30 20.12.2021
4836 Clouds 4 1035 90 10000 0.45 248 04:36 20.12.2021
4837 Clouds 5 1037 93 10000 1.54 40 23:59 19.12.2021
4838 Clouds 4 1037 94 10000 0.45 254 22:52 19.12.2021
4839 Clouds 4 1037 96 10000 2.06 50 21:50 19.12.2021
4840 Clouds 4 1037 94 10000 0.45 248 21:30 19.12.2021
4841 Clouds 4 1037 97 10000 0.45 248 20:32 19.12.2021
4842 Clouds 4 1038 97 10000 0.89 254 19:51 19.12.2021
4843 Clouds 4 1038 97 10000 0.89 224 19:22 19.12.2021
4844 Clouds 4 1038 97 10000 0.89 254 18:29 19.12.2021
4845 Clouds 4 1038 97 10000 1.34 237 17:53 19.12.2021
4846 Clouds 3 1038 97 6000 1.34 251 17:19 19.12.2021
4847 Clouds 3 1038 97 8000 0.89 227 16:26 19.12.2021
4848 Clouds 3 1038 97 8000 0.89 227 16:26 19.12.2021
4849 Clouds 3 1038 97 10000 1.79 224 15:42 19.12.2021
4850 Clouds 3 1038 97 10000 1.34 211 15:20 19.12.2021
4851 Clouds 3 1039 97 8000 2.68 212 14:41 19.12.2021
4852 Mist 3 1039 97 5000 1.79 223 13:22 19.12.2021
4853 Mist 3 1040 97 3900 1.34 231 12:36 19.12.2021
4854 Mist 2 1040 97 2900 1.79 236 12:18 19.12.2021
4855 Mist 2 1040 96 1200 1.34 236 11:18 19.12.2021
4856 Mist 2 1040 96 1500 0.89 258 10:25 19.12.2021
4857 Mist 2 1040 96 1100 0.89 253 09:41 19.12.2021
4858 Fog 2 1040 96 500 0.45 248 08:25 19.12.2021
4859 Fog 2 1041 96 650 2.06 40 04:45 19.12.2021
4860 Fog 2 1041 96 650 2.06 40 04:45 19.12.2021
4861 Fog 2 1042 97 200 1.79 238 01:19 19.12.2021
4862 Fog 2 1042 96 200 1.79 219 00:52 19.12.2021
4863 Fog 2 1039 100 150 0.51 0 22:36 18.12.2021
4864 Fog 1 1039 100 150 0.51 0 21:57 18.12.2021
4865 Fog 1 1039 100 150 0.51 0 21:35 18.12.2021
4866 Fog 2 1042 99 150 0.51 0 20:44 18.12.2021
4867 Fog 2 1042 95 150 0.51 0 19:59 18.12.2021
4868 Fog 3 1042 99 100 0 0 19:20 18.12.2021
4869 Fog 2 1042 98 150 0.51 0 18:21 18.12.2021
4870 Fog 2 1042 96 150 0.51 0 17:48 18.12.2021
4871 Fog 3 1042 99 200 1.03 0 16:26 18.12.2021
4872 Fog 4 1042 99 250 0.51 0 15:26 18.12.2021
4873 Fog 4 1043 99 200 1.03 0 14:32 18.12.2021
4874 Fog 4 1043 99 200 0.51 0 13:20 18.12.2021
4875 Fog 3 1043 97 350 1.54 210 11:21 18.12.2021
4876 Fog 3 1043 96 250 1.54 150 09:39 18.12.2021
4877 Fog 4 1043 96 200 1.54 160 08:46 18.12.2021
4878 Fog 3 1043 96 150 1.54 170 08:19 18.12.2021
4879 Clouds 5 1044 93 10000 1.54 170 02:51 18.12.2021
4880 Clouds 6 1044 89 10000 2.06 140 00:27 18.12.2021
4881 Clouds 6 1044 88 10000 1.54 150 23:39 17.12.2021
4882 Clouds 7 1044 87 10000 1.03 0 21:56 17.12.2021
4883 Clouds 7 1044 85 10000 1.03 0 20:58 17.12.2021
4884 Clouds 7 1044 85 10000 1.03 0 20:38 17.12.2021
4885 Clouds 7 1044 85 10000 0.51 0 19:18 17.12.2021
4886 Clouds 7 1044 86 10000 1.03 210 18:38 17.12.2021
4887 Clouds 8 1044 84 10000 0.45 135 17:26 17.12.2021
4888 Clouds 8 1045 84 10000 1.54 140 16:44 17.12.2021
4889 Clouds 8 1044 84 10000 1.54 170 16:21 17.12.2021
4890 Clouds 9 1044 84 10000 1.54 180 15:20 17.12.2021
4891 Clouds 9 1045 84 10000 1.54 150 14:38 17.12.2021
4892 Clouds 9 1045 86 10000 1.54 200 12:46 17.12.2021
4893 Clouds 8 1045 91 10000 1.54 250 11:27 17.12.2021
4894 Clouds 8 1044 92 10000 1.54 230 09:55 17.12.2021
4895 Clouds 8 1044 92 9000 2.57 220 08:58 17.12.2021
4896 Clouds 8 1044 93 8000 2.57 230 08:20 17.12.2021
4897 Clouds 8 1043 93 7000 2.57 240 05:25 17.12.2021
4898 Clouds 7 1043 96 10000 0.45 267 02:52 17.12.2021
4899 Clouds 8 1042 93 10000 1.54 290 23:20 16.12.2021
4900 -273 0 0 0 0 0 22:23 16.12.2021
4901 -273 0 0 0 0 0 22:23 16.12.2021
4902 Clouds 8 1042 92 10000 2.06 220 22:23 16.12.2021
4903 Clouds 8 1042 92 10000 2.06 220 22:23 16.12.2021
4904 Clouds 8 1042 92 10000 0.45 225 21:44 16.12.2021
4905 Clouds 9 1041 92 10000 0.45 45 20:48 16.12.2021
4906 Clouds 9 1042 91 10000 1.03 0 20:22 16.12.2021
4907 Clouds 9 1041 92 10000 0.45 45 19:31 16.12.2021
4908 Clouds 9 1041 91 10000 0.45 90 18:36 16.12.2021
4909 Clouds 10 1040 89 10000 2.57 250 17:48 16.12.2021
4910 Clouds 10 1040 88 10000 0.89 54 16:37 16.12.2021
4911 Clouds 10 1040 88 10000 0.45 71 16:18 16.12.2021
4912 Clouds 10 1039 88 10000 0.45 52 13:47 16.12.2021
4913 Clouds 10 1038 89 10000 1.34 110 12:30 16.12.2021
4914 Clouds 9 1038 91 10000 1.34 173 11:19 16.12.2021
4915 Clouds 9 1038 92 10000 1.34 161 10:41 16.12.2021
4916 Clouds 10 1037 90 10000 1.34 258 09:43 16.12.2021
4917 Clouds 10 1035 93 10000 0.89 237 06:51 16.12.2021
4918 Clouds 10 1035 93 6000 0.45 245 06:18 16.12.2021
4919 Rain 10 1032 96 8000 0.89 208 23:58 15.12.2021
4920 Rain 10 1031 96 7000 0.89 246 22:50 15.12.2021
4921 Mist 10 1031 96 3600 0.89 235 22:21 15.12.2021
4922 Mist 10 1031 96 3600 0.89 114 21:31 15.12.2021
4923 Clouds 10 1030 96 6000 1.34 192 20:51 15.12.2021
4924 Clouds 10 1030 96 10000 0.89 191 19:53 15.12.2021
4925 Mist 10 1029 96 4200 1.34 254 19:18 15.12.2021
4926 Clouds 10 1028 96 10000 0.89 229 18:19 15.12.2021
4927 Mist 10 1028 95 5000 0.89 233 17:45 15.12.2021
4928 Clouds 10 1028 95 3600 1.34 109 17:21 15.12.2021
4929 Rain 11 1023 92 3300 5.14 220 15:48 15.12.2021
4930 Clouds 11 1023 92 7000 4.63 220 15:29 15.12.2021
4931 Clouds 10 1026 95 7000 0.89 243 14:44 15.12.2021
4932 Clouds 10 1025 94 3300 0.89 279 13:28 15.12.2021
4933 Clouds 10 1024 92 7000 1.79 88 11:41 15.12.2021
4934 Clouds 10 1023 89 10000 2.24 81 10:18 15.12.2021
4935 Clouds 9 1022 92 7000 2.68 86 07:55 15.12.2021
4936 Rain 9 1021 92 10000 2.68 103 04:22 15.12.2021
4937 Rain 9 1021 92 8000 2.68 178 23:53 14.12.2021
4938 Rain 9 1020 91 10000 2.68 61 22:55 14.12.2021
4939 Clouds 9 1020 91 10000 2.24 77 22:37 14.12.2021
4940 Clouds 9 1020 91 10000 3.58 86 21:38 14.12.2021
4941 Clouds 9 1020 91 5000 2.68 88 20:20 14.12.2021
4942 Clouds 9 1020 88 10000 2.24 71 19:21 14.12.2021
4943 Clouds 9 1020 88 10000 2.24 82 18:38 14.12.2021
4944 Clouds 9 1020 88 10000 1.79 107 17:51 14.12.2021
4945 Clouds 9 1020 89 10000 3.58 81 16:43 14.12.2021
4946 Clouds 8 1020 91 10000 2.24 90 15:54 14.12.2021
4947 Clouds 8 1020 91 8000 1.79 91 13:35 14.12.2021
4948 Rain 8 1021 92 8000 2.24 135 12:47 14.12.2021
4949 Rain 7 1020 89 8000 1.79 140 11:25 14.12.2021
4950 Rain 8 1020 87 10000 2.68 85 10:28 14.12.2021
4951 Clouds 8 1020 87 10000 2.24 65 09:53 14.12.2021
4952 Clouds 7 1020 85 10000 1.79 85 08:40 14.12.2021
4953 Clouds 7 1021 85 10000 2.24 54 08:20 14.12.2021
4954 Clouds 6 1021 88 10000 1.34 194 06:27 14.12.2021
4955 Clouds 4 1023 89 10000 4.63 220 23:40 13.12.2021
4956 Clouds 5 1020 90 10000 5.14 210 22:18 13.12.2021
4957 Clouds 5 1020 89 10000 5.66 220 21:34 13.12.2021
4958 Clouds 4 1023 91 10000 5.14 230 20:50 13.12.2021
4959 Clouds 5 1025 89 10000 0.45 93 19:59 13.12.2021
4960 Clouds 5 1022 88 10000 0.89 107 19:27 13.12.2021
4961 Clouds 6 1022 84 10000 0.89 101 17:27 13.12.2021
4962 Clouds 7 1021 83 10000 1.79 84 16:24 13.12.2021
4963 Clouds 7 1021 83 10000 1.79 60 15:43 13.12.2021
4964 Clouds 7 1021 83 10000 1.79 60 15:43 13.12.2021
4965 Clouds 7 1021 83 10000 1.34 79 13:57 13.12.2021
4966 Clouds 7 1021 83 10000 1.34 117 13:31 13.12.2021
4967 Clouds 7 1021 86 10000 1.34 59 12:36 13.12.2021
4968 Clouds 7 1023 87 10000 0.89 18 11:40 13.12.2021
4969 Clouds 7 1020 87 10000 0.89 153 11:19 13.12.2021
4970 Clouds 7 1019 84 10000 1.34 96 10:21 13.12.2021
4971 Clouds 7 1017 83 10000 2.68 70 08:31 13.12.2021
4972 Clouds 7 1015 86 10000 0.89 35 05:37 13.12.2021
4973 Clouds 8 1014 85 10000 2.68 65 03:57 13.12.2021
4974 Clouds 12 1007 84 10000 1.79 275 23:43 12.12.2021
4975 Rain 12 1007 86 10000 3.13 337 21:56 12.12.2021
4976 Clouds 12 1009 88 9000 1.79 262 20:46 12.12.2021
4977 Clouds 11 1010 90 10000 0.89 245 19:33 12.12.2021
4978 Clouds 10 1011 94 9000 2.57 110 17:46 12.12.2021
4979 Rain 9 1012 95 2500 0.89 231 16:28 12.12.2021
4980 Drizzle 9 1012 94 2500 0.89 230 15:51 12.12.2021
4981 Clouds 9 1012 91 3800 0.45 243 15:26 12.12.2021
4982 Clouds 9 1013 89 10000 0.45 200 14:37 12.12.2021
4983 Clouds 9 1014 89 10000 0.45 232 13:34 12.12.2021
4984 Rain 9 1015 89 10000 3.6 210 12:32 12.12.2021
4985 Rain 8 1015 91 10000 3.09 190 11:44 12.12.2021
4986 Rain 8 1015 91 10000 1.03 0 11:25 12.12.2021
4987 Clouds 7 1015 94 10000 2.06 70 10:39 12.12.2021
4988 Clouds 7 1014 92 10000 1.03 0 09:44 12.12.2021
4989 Clouds 8 1014 92 10000 0.45 227 08:38 12.12.2021
4990 Clouds 8 1013 90 10000 0.45 169 06:34 12.12.2021
4991 Clouds 8 1012 89 10000 4.12 210 05:22 12.12.2021
4992 Clouds 8 1012 88 10000 3.6 190 03:57 12.12.2021
4993 Clouds 9 1010 86 10000 0.45 105 23:48 11.12.2021
4994 Clouds 10 1009 86 10000 1.79 114 22:24 11.12.2021
4995 Clouds 10 1008 86 10000 2.24 95 21:52 11.12.2021
4996 Clouds 10 1008 84 10000 1.79 101 21:21 11.12.2021
4997 Clouds 10 1007 92 10000 1.79 128 19:37 11.12.2021
4998 Clouds 11 1007 95 8000 2.68 108 18:53 11.12.2021
4999 Clouds 10 1006 96 10000 2.24 116 18:30 11.12.2021
5000 Rain 10 1006 94 9000 1.79 101 17:37 11.12.2021
5001 Drizzle 9 1007 95 4200 1.54 0 15:55 11.12.2021
5002 Drizzle 8 1007 95 4200 1.54 0 15:35 11.12.2021
5003 Rain 7 1008 94 4300 0.45 225 13:21 11.12.2021
5004 Rain 6 1010 93 7000 2.06 80 11:46 11.12.2021
5005 Rain 5 1011 92 10000 3.09 150 09:47 11.12.2021
5006 Clouds 4 1011 92 9000 1.54 50 09:18 11.12.2021
5007 Clouds 1 1011 95 7000 1.03 110 02:40 11.12.2021
5008 Clear 1 1008 94 7000 1.03 10 00:40 11.12.2021
5009 Fog 1 1009 94 550 0.45 248 23:23 10.12.2021
5010 Clear 1 1008 93 10000 1.03 0 21:57 10.12.2021
5011 Clear 1 1008 93 10000 0.45 243 21:36 10.12.2021
5012 Clouds 2 1006 91 10000 2.06 210 19:22 10.12.2021
5013 Clouds 3 1006 89 10000 1.54 240 18:39 10.12.2021
5014 Rain 3 1003 88 10000 1.03 0 16:57 10.12.2021
5015 Clouds 3 1003 90 10000 0.45 130 16:29 10.12.2021
5016 Clouds 4 1002 88 10000 4.63 260 15:41 10.12.2021
5017 Rain 5 1003 87 10000 0.89 123 15:21 10.12.2021
5018 Clouds 5 1001 82 10000 0.45 199 13:52 10.12.2021
5019 Clouds 5 1001 84 10000 0.45 157 13:26 10.12.2021
5020 Clouds 4 1001 85 10000 1.34 123 12:45 10.12.2021
5021 Rain 3 999 88 10000 1.03 0 11:30 10.12.2021
5022 Clouds 2 999 89 10000 2.06 200 10:38 10.12.2021
5023 Clouds 2 997 89 10000 3.6 250 08:58 10.12.2021
5024 Clouds 2 996 90 10000 1.79 122 06:59 10.12.2021
5025 Clouds 3 993 87 10000 0.89 138 02:50 10.12.2021
5026 Rain 4 991 85 10000 1.34 118 00:55 10.12.2021
5027 Rain 6 990 85 10000 0.45 132 23:23 09.12.2021
5028 Clouds 6 990 87 10000 1.79 126 22:28 09.12.2021
5029 Clouds 6 990 85 10000 1.79 121 21:59 09.12.2021
5030 Clouds 6 989 93 9000 1.34 127 21:19 09.12.2021
5031 Rain 6 990 93 7000 0.45 225 20:28 09.12.2021
5032 Clouds 5 990 92 10000 2.06 90 19:22 09.12.2021
5033 Clouds 5 991 88 10000 3.6 100 18:49 09.12.2021
5034 Rain 5 992 86 10000 3.09 110 17:56 09.12.2021
5035 Rain 5 993 85 10000 3.6 150 17:26 09.12.2021
5036 Clouds 5 993 85 10000 3.6 160 16:55 09.12.2021
5037 Clouds 6 994 84 10000 0.45 301 15:46 09.12.2021
5038 Clouds 6 995 84 10000 0.89 287 14:50 09.12.2021
5039 Clouds 6 997 85 10000 0.89 129 13:25 09.12.2021
5040 Clouds 6 997 89 10000 0.89 150 12:42 09.12.2021
5041 Clouds 5 997 94 10000 2.57 230 11:24 09.12.2021
5042 Clouds 4 998 94 5000 1.54 240 09:44 09.12.2021
5043 Clouds 1 997 93 10000 1.03 0 06:50 09.12.2021
5044 Clear 2 996 90 10000 0.89 126 03:43 09.12.2021
5045 Clouds 4 994 87 10000 0.45 142 23:45 08.12.2021
5046 Clouds 4 993 87 10000 0.89 132 23:21 08.12.2021
5047 Clouds 4 993 86 10000 2.24 74 22:49 08.12.2021
5048 Clouds 4 991 87 10000 1.34 130 21:46 08.12.2021
5049 Clouds 4 991 88 10000 1.79 124 21:27 08.12.2021
5050 Clouds 5 989 88 10000 2.57 270 19:59 08.12.2021
5051 Clouds 5 989 89 10000 0.45 148 19:36 08.12.2021
5052 Clouds 5 988 88 10000 0.45 158 18:46 08.12.2021
5053 Clouds 5 987 88 10000 0.45 149 17:37 08.12.2021
5054 Clouds 6 984 89 10000 0.45 145 15:57 08.12.2021
5055 Clouds 6 984 89 10000 2.57 300 15:28 08.12.2021
5056 Clouds 6 983 89 10000 3.09 290 14:40 08.12.2021
5057 Clouds 4 980 95 10000 0.45 203 11:36 08.12.2021
5058 Clouds 4 978 93 6000 2.06 230 10:31 08.12.2021
5059 Rain 4 977 90 10000 1.03 0 09:25 08.12.2021
5060 Clouds 4 975 90 10000 2.24 206 07:26 08.12.2021
5061 Clouds 4 972 89 10000 2.24 220 04:57 08.12.2021
5062 Rain 5 971 84 10000 4.47 174 23:34 07.12.2021
5063 Clouds 5 969 83 10000 8.75 70 21:51 07.12.2021
5064 Clouds 5 973 84 10000 4.47 211 21:23 07.12.2021
5065 Clouds 5 974 84 10000 4.02 251 20:20 07.12.2021
5066 Clouds 4 975 84 10000 4.02 236 18:43 07.12.2021
5067 Rain 4 976 84 10000 4.92 203 17:52 07.12.2021
5068 Clouds 4 977 87 10000 4.02 242 17:19 07.12.2021
5069 Clouds 4 979 88 10000 4.47 230 16:31 07.12.2021
5070 Clouds 3 980 92 10000 4.92 250 15:33 07.12.2021
5071 Rain 2 984 92 7000 5.81 199 14:18 07.12.2021
5072 Rain 3 989 85 10000 4.47 231 12:55 07.12.2021
5073 Rain 3 993 89 10000 3.13 228 11:29 07.12.2021
5074 Rain 2 995 91 10000 2.24 232 10:33 07.12.2021
5075 Clouds 2 1000 91 10000 0.89 239 08:26 07.12.2021
5076 Clouds 3 1002 91 10000 1.54 160 06:19 07.12.2021
5077 Clouds 2 1002 92 10000 0.45 44 05:37 07.12.2021
5078 Rain 3 1003 89 10000 2.68 84 23:47 06.12.2021
5079 Clouds 3 1003 90 10000 2.06 220 22:57 06.12.2021
5080 Clouds 3 1003 90 10000 0.89 143 22:35 06.12.2021
5081 Clouds 3 1003 91 10000 1.34 130 21:51 06.12.2021
5082 Clouds 3 1002 89 10000 1.79 101 20:33 06.12.2021
5083 Rain 3 1002 89 10000 2.06 260 19:55 06.12.2021
5084 Clouds 3 1001 91 10000 0.45 141 19:20 06.12.2021
5085 Clouds 4 1001 89 10000 0.89 111 18:23 06.12.2021
5086 Clouds 4 1001 87 10000 2.24 99 17:40 06.12.2021
5087 Clouds 4 1000 88 10000 0.45 149 16:32 06.12.2021
5088 Rain 4 1000 89 9000 1.34 132 15:38 06.12.2021
5089 Clouds 5 1001 85 10000 1.34 108 13:46 06.12.2021
5090 Clouds 5 1001 86 10000 5.14 240 12:39 06.12.2021
5091 Rain 4 1002 91 10000 3.13 96 10:38 06.12.2021
5092 Rain 4 1003 92 6000 0.89 243 08:45 06.12.2021
5093 Rain 3 1007 90 8000 6.69 190 06:39 06.12.2021
5094 Clouds -2 1015 91 10000 0.51 0 22:54 05.12.2021
5095 Clouds -2 1016 89 7000 0.51 0 21:43 05.12.2021
5096 Clouds -1 1016 91 10000 0.51 160 21:19 05.12.2021
5097 Clouds -1 1017 89 10000 1.54 240 20:19 05.12.2021
5098 Clouds -1 1019 88 9000 0.45 232 19:33 05.12.2021
5099 Clear 0 1019 86 10000 1.03 260 18:43 05.12.2021
5100 Clear 0 1020 85 10000 1.54 230 18:19 05.12.2021
5101 Clear 0 1020 84 10000 2.06 230 17:48 05.12.2021
5102 Clear 3 1019 76 10000 1.03 250 16:45 05.12.2021
5103 Clear 4 1019 72 10000 2.06 280 16:26 05.12.2021
5104 Clear 5 1019 67 10000 2.06 280 14:49 05.12.2021
5105 Clear 5 1019 69 10000 0.45 149 14:31 05.12.2021
5106 Clear 5 1019 70 10000 0.89 125 13:50 05.12.2021
5107 Clear 5 1019 71 10000 2.57 300 13:22 05.12.2021
5108 Clear 3 1019 78 10000 0.45 135 12:31 05.12.2021
5109 Clear 2 1018 82 10000 1.03 210 11:57 05.12.2021
5110 Clear 2 1020 80 10000 1.34 166 10:52 05.12.2021
5111 Clear 1 1017 78 10000 0.89 158 09:59 05.12.2021
5112 Clouds 3 1015 75 10000 2.57 300 07:55 05.12.2021
5113 Clouds 4 1009 79 10000 1.79 98 02:28 05.12.2021
5114 Clouds 5 1006 76 10000 0.45 14 23:31 04.12.2021
5115 Clouds 5 1004 74 10000 2.24 164 21:54 04.12.2021
5116 Clouds 5 1002 75 10000 4.92 149 20:55 04.12.2021
5117 Clouds 5 1002 80 10000 6.26 156 19:55 04.12.2021
5118 Clouds 5 1001 80 10000 4.47 155 19:31 04.12.2021
5119 Clouds 5 999 82 10000 2.24 149 17:59 04.12.2021
5120 Clouds 5 998 81 10000 3.13 133 17:38 04.12.2021
5121 Clouds 5 998 81 10000 1.34 139 16:48 04.12.2021
5122 Clouds 5 998 81 10000 1.34 139 16:48 04.12.2021
5123 Clouds 5 997 81 10000 1.79 112 16:30 04.12.2021
5124 Clouds 5 997 81 10000 1.79 115 16:30 04.12.2021
5125 Clouds 5 996 82 10000 3.13 148 15:18 04.12.2021
5126 Rain 3 992 94 10000 0.89 186 11:47 04.12.2021
5127 Rain 3 992 94 4300 1.34 134 11:29 04.12.2021
5128 Rain 2 992 95 10000 0.89 170 10:43 04.12.2021
5129 Clouds 3 990 92 10000 0.51 0 08:45 04.12.2021
5130 Rain 4 991 91 10000 1.54 230 06:24 04.12.2021
5131 Clouds 4 991 91 10000 0.89 90 04:41 04.12.2021
5132 Clouds 7 994 89 10000 2.68 103 23:49 03.12.2021
5133 Clouds 7 994 89 10000 2.68 103 23:49 03.12.2021
5134 Clouds 7 994 89 10000 2.68 103 23:49 03.12.2021
5135 Clouds 7 995 88 10000 2.24 359 22:57 03.12.2021
5136 Clouds 8 995 88 10000 1.79 28 22:38 03.12.2021
5137 Clouds 8 996 88 10000 1.34 57 21:25 03.12.2021
5138 Clouds 7 997 87 10000 1.34 82 20:46 03.12.2021
5139 Clouds 7 997 91 10000 0.89 126 19:40 03.12.2021
5140 Clouds 7 998 85 10000 0.45 107 18:28 03.12.2021
5141 Clouds 6 998 86 10000 0.45 90 17:58 03.12.2021
5142 Clouds 8 1000 82 10000 2.68 99 14:23 03.12.2021
5143 Clouds 7 1001 86 10000 3.58 97 12:52 03.12.2021
5144 Clouds 7 1002 85 10000 2.24 105 11:38 03.12.2021
5145 Clouds 7 1002 85 10000 1.79 127 10:32 03.12.2021
5146 Clouds 6 1002 82 10000 3.58 82 08:25 03.12.2021
5147 Clouds 7 1002 82 10000 3.58 89 07:38 03.12.2021
5148 Drizzle 4 1003 93 3300 2.06 60 02:24 03.12.2021
5149 Rain 3 1005 89 7000 3.09 170 00:47 03.12.2021
5150 Rain 3 1007 89 8000 0.45 222 23:46 02.12.2021
5151 Rain 3 1009 88 10000 1.54 160 21:43 02.12.2021
5152 Rain 3 1010 87 10000 0.45 203 21:20 02.12.2021
5153 Clouds 2 1011 85 10000 2.06 40 20:38 02.12.2021
5154 Clouds 2 1012 80 10000 1.03 0 19:31 02.12.2021
5155 Clouds 3 1015 77 10000 1.03 230 17:43 02.12.2021
5156 Clouds 4 1016 72 10000 0.45 139 15:42 02.12.2021
5157 Clouds 4 1016 71 10000 0.89 123 14:59 02.12.2021
5158 Clouds 4 1016 71 10000 1.34 134 14:33 02.12.2021
5159 Clouds 3 1017 78 10000 0.89 125 12:52 02.12.2021
5160 Clouds 2 1018 78 10000 0.89 142 12:18 02.12.2021
5161 Clouds 1 1017 72 10000 1.34 166 09:41 02.12.2021
5162 Clouds 1 1017 69 10000 1.79 163 08:52 02.12.2021
5163 Clouds 1 1015 74 10000 1.34 134 04:54 02.12.2021
5164 Clear 1 1013 82 10000 0.45 153 00:53 02.12.2021
5165 Clear 2 1015 79 10000 0.45 151 23:28 01.12.2021
5166 Clear 2 1013 79 10000 0.89 142 22:24 01.12.2021
5167 Clear 2 1012 72 10000 0.89 166 20:53 01.12.2021
5168 Clear 3 1012 68 10000 1.79 95 19:57 01.12.2021
5169 Clouds 3 1012 67 10000 1.34 138 19:28 01.12.2021
5170 Clouds 4 1010 67 10000 0.45 175 17:45 01.12.2021
5171 Clouds 4 1009 68 10000 2.24 175 16:46 01.12.2021
5172 Clouds 5 1006 64 10000 6.71 209 14:52 01.12.2021
5173 Clouds 6 1005 70 10000 4.92 173 13:45 01.12.2021
5174 Clouds 6 1004 77 10000 3.58 183 12:50 01.12.2021
5175 Rain 6 1000 87 10000 2.68 210 10:42 01.12.2021
5176 Clouds 6 997 87 10000 0.89 95 09:20 01.12.2021
5177 Clouds 6 997 87 10000 1.34 111 08:29 01.12.2021
5178 Clouds 6 996 85 10000 2.24 122 07:33 01.12.2021
5179 Clouds 6 996 84 10000 2.24 109 06:34 01.12.2021
5180 Clouds 7 995 86 10000 1.34 112 03:45 01.12.2021
5181 Rain 7 996 93 10000 0.89 122 00:59 01.12.2021
5182 Rain 7 995 92 10000 0.45 194 23:54 30.11.2021
5183 Rain 7 995 90 10000 1.79 211 23:23 30.11.2021
5184 Rain 10 994 94 6000 3.6 220 21:30 30.11.2021
5185 Rain 10 995 96 7000 0.89 121 20:44 30.11.2021
5186 Rain 10 996 95 10000 1.34 294 19:53 30.11.2021
5187 Rain 10 997 93 10000 1.34 76 19:30 30.11.2021
5188 Rain 11 998 93 8000 1.34 97 18:35 30.11.2021
5189 Clouds 11 1001 92 9000 2.68 99 16:49 30.11.2021
5190 Clouds 11 1003 94 10000 2.24 102 15:18 30.11.2021
5191 Clouds 11 1005 94 10000 2.68 102 14:20 30.11.2021
5192 Rain 11 1006 95 10000 2.24 100 13:25 30.11.2021
5193 Rain 11 1007 94 7000 2.68 93 12:45 30.11.2021
5194 Clouds 11 1007 93 10000 2.24 89 11:27 30.11.2021
5195 Clouds 11 1008 93 10000 3.13 87 10:56 30.11.2021
5196 Clouds 10 1008 95 10000 3.13 76 10:31 30.11.2021
5197 Clouds 10 1009 92 10000 2.24 104 08:52 30.11.2021
5198 Clouds 10 1009 92 10000 2.68 88 08:20 30.11.2021
5199 Drizzle 10 1009 92 5000 3.13 87 07:47 30.11.2021
5200 Clouds 10 1010 90 10000 3.13 83 02:41 30.11.2021
5201 Clouds 10 1010 92 10000 4.02 94 01:41 30.11.2021
5202 Clouds 10 1010 90 10000 2.68 98 00:19 30.11.2021
5203 Clouds 10 1009 92 10000 3.13 90 23:23 29.11.2021
5204 Clouds 10 1009 92 10000 3.58 89 22:52 29.11.2021
5205 Clouds 10 1009 92 10000 4.47 89 22:32 29.11.2021
5206 Clouds 10 1010 92 10000 4.47 100 21:23 29.11.2021
5207 Clouds 10 1010 93 10000 3.58 75 20:57 29.11.2021
5208 Clouds 10 1010 93 7000 2.24 108 20:29 29.11.2021
5209 Clouds 10 1010 93 10000 2.68 114 19:55 29.11.2021
5210 Clouds 10 1010 93 10000 2.68 107 19:33 29.11.2021
5211 Clouds 9 1010 93 10000 3.13 94 18:48 29.11.2021
5212 Clouds 7 1007 98 729 4.25 249 17:22 29.11.2021
5213 Clouds 7 1007 98 729 4.25 249 16:59 29.11.2021
5214 Rain 6 1008 98 4902 3.84 228 16:29 29.11.2021
5215 Clouds 5 1009 98 4848 3.69 224 15:32 29.11.2021
5216 Clouds 5 1009 98 4848 3.69 224 14:42 29.11.2021
5217 Clouds 4 1010 96 10000 3.38 226 13:32 29.11.2021
5218 Clouds 3 1011 88 10000 2.34 218 12:28 29.11.2021
5219 Clouds 3 1011 88 10000 2.34 218 11:35 29.11.2021
5220 Clouds 2 1012 82 10000 2.14 226 10:32 29.11.2021
5221 Clouds 0 1012 86 10000 0.51 0 09:24 29.11.2021
5222 Clouds -1 1012 86 10000 1.03 80 06:19 29.11.2021
5223 Clouds -3 1013 93 10000 1.03 220 01:40 29.11.2021
5224 Clouds -3 1013 93 10000 0.51 0 00:39 29.11.2021
5225 Clouds -2 1013 86 10000 2.06 250 23:43 28.11.2021
5226 Clouds -1 1013 80 10000 0.51 0 22:47 28.11.2021
5227 Clouds -1 1013 80 10000 2.06 280 21:42 28.11.2021
5228 Clouds 1 1012 69 10000 1.03 0 21:19 28.11.2021
5229 Clouds 0 1012 80 10000 1.03 0 19:58 28.11.2021
5230 Clouds 1 1012 75 10000 1.54 0 18:45 28.11.2021
5231 Clouds 2 1011 75 10000 2.57 30 18:27 28.11.2021
5232 Clouds 2 1010 69 10000 3.6 20 17:49 28.11.2021
5233 Clouds 3 1010 70 10000 2.06 350 17:30 28.11.2021
5234 Clouds 4 1009 70 10000 4.12 20 16:28 28.11.2021
5235 Clouds 5 1009 70 10000 3.09 350 15:53 28.11.2021
5236 Clouds 4 1009 87 10000 2.06 250 14:57 28.11.2021
5237 Clouds 4 1009 87 10000 2.06 250 14:35 28.11.2021
5238 Clouds 2 1008 93 10000 3.6 270 12:58 28.11.2021
5239 Clouds 1 1008 100 10000 3.09 270 12:29 28.11.2021
5240 Clouds 0 1008 100 10000 1.03 300 10:53 28.11.2021
5241 Clouds 0 1008 100 10000 1.03 10 10:20 28.11.2021
5242 Clouds 0 1007 100 7000 1.03 0 09:36 28.11.2021
5243 Snow 1 1008 80 10000 2.06 270 06:29 28.11.2021
5244 Clouds 0 1012 80 10000 2.57 270 23:33 27.11.2021
5245 Clouds 2 1013 60 10000 3.09 300 20:33 27.11.2021
5246 Clouds 2 1012 60 10000 7.2 340 18:49 27.11.2021
5247 Clouds 3 1012 56 10000 5.66 330 16:31 27.11.2021
5248 Clouds 4 1012 52 10000 4.12 350 15:32 27.11.2021
5249 Clouds 4 1012 56 10000 5.14 340 13:46 27.11.2021
5250 Clouds 3 1012 60 10000 4.63 330 12:29 27.11.2021
5251 Clouds 3 1011 56 10000 3.09 360 10:31 27.11.2021
5252 Clouds 2 1010 55 10000 3.09 10 09:41 27.11.2021
5253 Clouds 3 1008 52 10000 7.72 360 07:44 27.11.2021
5254 Clouds 4 1006 56 10000 7.2 350 04:56 27.11.2021
5255 Clouds 5 1001 52 10000 7.2 350 00:55 27.11.2021
5256 Clouds 5 998 52 10000 10.29 340 23:29 26.11.2021
5257 Clouds 5 997 56 10000 10.8 350 22:25 26.11.2021
5258 Clouds 5 996 56 10000 12.86 350 21:34 26.11.2021
5259 Clouds 5 994 65 10000 8.23 340 20:45 26.11.2021
5260 Clouds 5 993 65 10000 8.23 330 19:56 26.11.2021
5261 Rain 5 992 65 10000 9.77 330 19:28 26.11.2021
5262 Rain 4 991 70 10000 7.72 310 17:55 26.11.2021
5263 Clouds 4 990 65 10000 8.23 300 17:21 26.11.2021
5264 Clear 6 990 61 10000 9.26 300 15:46 26.11.2021
5265 Clear 6 995 66 10000 6.26 324 13:35 26.11.2021
5266 Clouds 6 996 72 10000 5.81 327 11:58 26.11.2021
5267 Clouds 5 996 84 10000 1.34 265 10:37 26.11.2021
5268 Clouds 5 995 84 10000 1.79 273 08:57 26.11.2021
5269 Clouds 6 995 82 10000 0.89 258 08:21 26.11.2021
5270 Clouds 6 994 84 10000 2.68 322 07:25 26.11.2021
5271 Clouds 7 994 84 10000 4.02 305 06:26 26.11.2021
5272 Clouds 8 995 88 10000 3.58 281 03:57 26.11.2021
5273 Rain 8 999 89 10000 5.36 276 01:53 26.11.2021
5274 Rain 7 1007 89 10000 5.36 272 22:48 25.11.2021
5275 Rain 6 1011 86 10000 4.02 269 21:26 25.11.2021
5276 Clouds 5 1013 88 10000 2.24 257 20:27 25.11.2021
5277 Clouds 4 1017 85 10000 3.58 275 18:46 25.11.2021
5278 Clouds 4 1018 82 10000 2.24 270 17:47 25.11.2021
5279 Clouds 5 1018 80 10000 3.13 277 17:25 25.11.2021
5280 Clouds 5 1019 78 10000 4.02 293 16:32 25.11.2021
5281 Clouds 5 1021 77 10000 2.68 286 14:59 25.11.2021
5282 Clouds 5 1023 81 10000 1.34 251 13:26 25.11.2021
5283 Clouds 5 1024 82 10000 1.79 301 12:23 25.11.2021
5284 Clouds 4 1024 82 10000 0.45 1 11:48 25.11.2021
5285 Clouds 2 1024 89 10000 1.34 276 09:25 25.11.2021
5286 Clear 4 1023 81 10000 1.34 333 05:27 25.11.2021
5287 Clear 3 1022 82 10000 1.34 203 02:48 25.11.2021
5288 Clear 3 1021 89 10000 0.89 189 22:45 24.11.2021
5289 Clear 3 1021 87 10000 0.89 223 22:23 24.11.2021
5290 Clear 3 1021 86 10000 1.79 287 21:28 24.11.2021
5291 Clear 3 1020 86 10000 1.34 268 20:46 24.11.2021
5292 Clear 4 1019 84 10000 1.79 278 20:18 24.11.2021
5293 Clouds 4 1019 86 10000 1.34 271 18:30 24.11.2021
5294 Clouds 4 1019 86 10000 1.34 271 18:30 24.11.2021
5295 Clouds 5 1019 85 10000 1.79 269 16:53 24.11.2021
5296 Clouds 7 1019 79 10000 1.79 272 15:23 24.11.2021
5297 Clouds 7 1019 81 10000 1.79 266 14:42 24.11.2021
5298 Clouds 7 1019 83 10000 2.24 270 14:19 24.11.2021
5299 Clouds 7 1021 87 10000 2.68 276 11:51 24.11.2021
5300 Clouds 7 1020 87 10000 2.68 282 11:20 24.11.2021
5301 Clouds 7 1020 89 10000 2.24 267 10:47 24.11.2021
5302 Rain 7 1021 89 10000 2.24 270 10:21 24.11.2021
5303 Clouds 9 1021 85 10000 3.13 249 07:46 24.11.2021
5304 Clouds 9 1022 83 10000 3.13 260 06:51 24.11.2021
5305 Clouds 9 1025 82 10000 4.02 272 03:50 24.11.2021
5306 Clouds 9 1029 81 10000 2.24 271 23:44 23.11.2021
5307 Clouds 9 1030 84 10000 2.68 261 22:39 23.11.2021
5308 Clouds 9 1030 82 10000 4.47 266 21:46 23.11.2021
5309 Clouds 9 1031 88 10000 2.68 260 20:48 23.11.2021
5310 Clouds 8 1031 86 10000 2.24 279 19:37 23.11.2021
5311 Clouds 9 1032 84 10000 3.13 270 18:37 23.11.2021
5312 Clouds 9 1032 88 10000 2.24 270 17:57 23.11.2021
5313 Clouds 9 1033 88 10000 2.24 270 16:55 23.11.2021
5314 Clouds 9 1033 87 10000 3.13 276 15:57 23.11.2021
5315 Clouds 9 1033 85 10000 2.68 289 15:19 23.11.2021
5316 Clouds 9 1034 85 10000 3.58 283 13:43 23.11.2021
5317 Clouds 8 1035 93 10000 2.68 267 10:41 23.11.2021
5318 Clouds 7 1035 93 10000 2.68 273 09:57 23.11.2021
5319 Clouds 6 1035 95 10000 1.79 256 08:43 23.11.2021
5320 Clouds 6 1035 92 10000 0.45 227 05:57 23.11.2021
5321 Clouds 6 1036 93 10000 1.79 271 03:42 23.11.2021
5322 Clouds 7 1036 91 10000 1.34 250 00:28 23.11.2021
5323 Clouds 8 1033 87 10000 3.6 240 23:20 22.11.2021
5324 Clouds 8 1033 87 10000 3.09 240 22:32 22.11.2021
5325 Clouds 8 1033 87 10000 4.12 240 21:46 22.11.2021
5326 Clouds 8 1033 87 10000 3.09 230 21:26 22.11.2021
5327 Clouds 8 1033 87 10000 4.12 230 20:49 22.11.2021
5328 Clouds 8 1033 87 10000 4.12 230 20:49 22.11.2021
5329 Clouds 8 1033 81 10000 4.12 240 19:26 22.11.2021
5330 Clouds 8 1033 87 10000 5.14 250 18:50 22.11.2021
5331 Clouds 8 1033 87 10000 5.14 250 18:50 22.11.2021
5332 Clouds 8 1033 87 10000 5.14 250 18:31 22.11.2021
5333 Clouds 8 1033 81 10000 4.12 250 16:56 22.11.2021
5334 Clouds 8 1035 84 10000 0.45 265 15:42 22.11.2021
5335 Clouds 5 1037 88 10000 0.45 272 12:56 22.11.2021
5336 Clouds 3 1034 93 10000 0.51 0 11:39 22.11.2021
5337 Clouds 1 1033 93 10000 1.03 0 10:36 22.11.2021
5338 Clouds 0 1033 93 10000 1.03 0 08:46 22.11.2021
5339 Clouds 0 1033 91 10000 0.51 0 08:24 22.11.2021
5340 Clear 0 1035 92 10000 0.89 141 02:31 22.11.2021
5341 Clouds 1 1034 88 10000 0.45 185 23:22 21.11.2021
5342 Clouds 1 1034 88 10000 1.54 0 22:46 21.11.2021
5343 Clouds 3 1033 85 10000 0.45 232 21:33 21.11.2021
5344 Clouds 3 1032 81 10000 0.45 282 20:38 21.11.2021
5345 Clouds 4 1032 79 10000 0.45 222 19:43 21.11.2021
5346 Clouds 4 1032 79 10000 0.45 222 19:43 21.11.2021
5347 Clouds 5 1031 74 10000 3.13 350 17:59 21.11.2021
5348 Clouds 5 1031 74 10000 2.68 356 17:36 21.11.2021
5349 Clouds 8 1029 64 10000 1.34 10 15:21 21.11.2021
5350 Clouds 8 1029 66 10000 1.79 17 14:42 21.11.2021
5351 Clouds 7 1029 72 10000 2.68 329 13:23 21.11.2021
5352 Clear 6 1029 77 10000 1.79 287 12:27 21.11.2021
5353 Clear 5 1029 78 10000 2.24 297 11:39 21.11.2021
5354 Clear 4 1028 80 10000 0.89 256 10:19 21.11.2021
5355 Clear 3 1027 81 10000 2.24 325 09:47 21.11.2021
5356 Clear 3 1027 84 10000 1.79 309 08:34 21.11.2021
5357 Clear 2 1026 85 10000 2.24 284 07:54 21.11.2021
5358 Clouds 3 1026 86 10000 1.79 271 07:33 21.11.2021
5359 Clouds 3 1025 86 10000 1.79 270 05:43 21.11.2021
5360 Clear 5 1025 83 10000 0.89 131 04:35 21.11.2021
5361 Clear 5 1023 83 10000 0.89 195 02:57 21.11.2021
5362 Clear 5 1023 84 10000 0.89 195 02:32 21.11.2021
5363 Rain 5 1022 82 10000 2.24 276 00:51 21.11.2021
5364 Clear 5 1022 88 10000 1.79 269 22:55 20.11.2021
5365 Clear 6 1022 85 10000 2.24 273 21:34 20.11.2021
5366 Clear 6 1022 85 10000 1.34 254 20:33 20.11.2021
5367 Clouds 7 1021 83 10000 2.68 273 18:45 20.11.2021
5368 Clouds 8 1020 83 10000 3.58 273 18:24 20.11.2021
5369 Clouds 9 1020 80 10000 3.13 281 17:22 20.11.2021
5370 Clouds 10 1020 77 10000 3.58 279 15:40 20.11.2021
5371 Rain 10 1020 83 10000 2.24 278 14:39 20.11.2021
5372 Clouds 10 1020 86 10000 2.68 267 14:20 20.11.2021
5373 Drizzle 11 1020 93 2900 5.36 275 11:56 20.11.2021
5374 Haze 10 1020 92 5000 3.13 279 09:59 20.11.2021
5375 Clouds 10 1021 91 10000 3.58 217 08:48 20.11.2021
5376 Clouds 10 1022 89 10000 2.24 254 06:57 20.11.2021
5377 Clouds 10 1023 90 10000 4.02 266 05:21 20.11.2021
5378 Clouds 11 1023 90 10000 4.92 274 04:50 20.11.2021
5379 Clouds 11 1026 89 10000 4.47 270 00:45 20.11.2021
5380 Clouds 11 1026 88 10000 3.58 267 00:26 20.11.2021
5381 Clouds 12 1026 89 10000 3.58 262 22:54 19.11.2021
5382 Clouds 12 1026 91 10000 3.13 269 21:36 19.11.2021
5383 Clouds 12 1027 88 10000 2.68 270 20:48 19.11.2021
5384 Clouds 12 1027 88 10000 3.13 256 20:29 19.11.2021
5385 Clouds 12 1027 87 10000 3.58 254 19:47 19.11.2021
5386 Clouds 13 1027 86 10000 3.58 267 18:49 19.11.2021
5387 Clouds 13 1027 88 10000 1.79 244 18:18 19.11.2021
5388 Clouds 13 1027 88 10000 1.79 269 16:47 19.11.2021
5389 Clouds 13 1027 87 10000 6.71 276 15:31 19.11.2021
5390 Clouds 13 1027 88 9000 5.81 269 12:43 19.11.2021
5391 Clouds 13 1026 88 10000 5.36 271 10:26 19.11.2021
5392 Clouds 13 1025 88 10000 5.36 281 08:39 19.11.2021
5393 Clouds 13 1025 88 10000 6.71 275 07:26 19.11.2021
5394 Clouds 13 1024 85 10000 4.47 261 04:22 19.11.2021
5395 Clouds 13 1025 85 10000 4.92 273 23:59 18.11.2021
5396 Clouds 13 1025 85 10000 4.47 275 23:41 18.11.2021
5397 Clouds 13 1025 88 10000 8.05 288 21:41 18.11.2021
5398 Clouds 13 1025 89 10000 6.26 270 20:46 18.11.2021
5399 Clouds 13 1025 88 10000 5.36 272 20:28 18.11.2021
5400 Clouds 13 1024 89 10000 5.36 264 19:43 18.11.2021
5401 Clouds 13 1024 89 10000 4.92 270 18:40 18.11.2021
5402 Clouds 13 1024 89 10000 3.58 240 17:58 18.11.2021
5403 Clouds 13 1024 89 10000 5.81 270 17:36 18.11.2021
5404 Clouds 13 1023 92 10000 4.92 266 16:43 18.11.2021
5405 Clouds 13 1023 92 9000 4.47 261 15:24 18.11.2021
5406 Clouds 13 1024 90 10000 5.81 278 13:21 18.11.2021
5407 Clouds 13 1024 91 10000 5.81 263 11:45 18.11.2021
5408 Clouds 13 1023 91 10000 4.47 259 11:26 18.11.2021
5409 Clouds 13 1023 93 10000 5.36 268 10:55 18.11.2021
5410 Clouds 13 1022 93 10000 4.47 269 09:28 18.11.2021
5411 Clouds 13 1021 93 10000 4.92 271 07:34 18.11.2021
5412 Clouds 13 1020 93 10000 5.81 282 05:47 18.11.2021
5413 Drizzle 11 1020 94 5000 5.36 272 02:46 18.11.2021
5414 Clouds 11 1021 93 10000 5.36 274 01:21 18.11.2021
5415 Clouds 10 1021 92 3100 3.58 249 22:41 17.11.2021
5416 Drizzle 10 1021 92 8000 3.13 245 22:20 17.11.2021
5417 Drizzle 10 1021 92 6000 2.68 242 21:36 17.11.2021
5418 Clouds 10 1022 90 10000 3.58 272 20:18 17.11.2021
5419 Clouds 10 1021 83 10000 3.13 279 17:44 17.11.2021
5420 Clouds 10 1021 82 10000 4.02 277 16:59 17.11.2021
5421 Rain 10 1021 84 10000 3.13 265 13:59 17.11.2021
5422 Clouds 10 1020 82 10000 3.58 263 12:39 17.11.2021
5423 Rain 9 1020 85 10000 3.13 270 11:37 17.11.2021
5424 Clouds 8 1020 87 10000 3.13 271 10:28 17.11.2021
5425 Clouds 7 1020 85 10000 2.24 252 09:23 17.11.2021
5426 Clouds 7 1019 87 10000 1.79 272 07:41 17.11.2021
5427 Clouds 5 1017 90 10000 0.89 259 03:31 17.11.2021
5428 Rain 7 1016 86 10000 3.58 276 00:46 17.11.2021
5429 Rain 8 1016 84 10000 4.47 259 22:41 16.11.2021
5430 Clouds 9 1015 82 10000 2.68 274 20:20 16.11.2021
5431 Rain 9 1015 83 10000 3.13 270 19:57 16.11.2021
5432 Clouds 10 1014 87 10000 4.47 279 18:53 16.11.2021
5433 Clouds 10 1014 91 10000 6.26 281 18:29 16.11.2021
5434 Rain 11 1013 92 10000 4.02 246 17:31 16.11.2021
5435 Clouds 10 1013 92 5000 3.58 247 16:31 16.11.2021
5436 Rain 10 1014 92 7000 4.02 237 15:48 16.11.2021
5437 Clouds 10 1016 87 8000 4.92 254 13:49 16.11.2021
5438 Clouds 10 1016 87 10000 7.72 220 10:52 16.11.2021
5439 Clouds 9 1019 88 9000 2.24 226 09:44 16.11.2021
5440 Clouds 9 1020 86 10000 2.24 258 08:24 16.11.2021
5441 Clouds 9 1021 83 10000 2.24 230 07:30 16.11.2021
5442 Clouds 9 1026 84 10000 2.24 270 01:20 16.11.2021
5443 Clouds 8 1027 90 10000 0.45 225 22:48 15.11.2021
5444 Clouds 7 1027 93 10000 0.45 225 22:20 15.11.2021
5445 Clouds 7 1027 93 10000 0.45 225 21:51 15.11.2021
5446 Clouds 7 1027 90 10000 0.45 225 21:25 15.11.2021
5447 Clouds 8 1028 89 10000 0.45 225 19:41 15.11.2021
5448 Clouds 8 1028 86 10000 0.89 253 17:50 15.11.2021
5449 Clouds 10 1028 80 10000 2.24 268 16:19 15.11.2021
5450 Clouds 11 1028 82 10000 2.24 272 15:39 15.11.2021
5451 Clouds 11 1028 82 10000 1.79 268 15:19 15.11.2021
5452 Rain 11 1028 89 10000 1.79 275 12:43 15.11.2021
5453 Clouds 10 1028 94 10000 0.45 244 10:53 15.11.2021
5454 Mist 9 1028 96 3200 1.79 268 09:24 15.11.2021
5455 Clouds 9 1026 96 10000 0.89 263 07:26 15.11.2021
5456 Rain 11 1026 96 10000 1.79 283 04:45 15.11.2021
5457 Clouds 10 1027 92 10000 1.54 0 22:47 14.11.2021
5458 Clouds 10 1027 91 10000 0.45 90 22:28 14.11.2021
5459 Clouds 10 1027 92 10000 2.06 40 19:36 14.11.2021
5460 Clouds 10 1027 94 10000 0.45 111 19:18 14.11.2021
5461 Clouds 10 1027 92 8000 0.45 111 18:54 14.11.2021
5462 Clouds 10 1027 92 8000 0.89 112 18:36 14.11.2021
5463 Clouds 10 1027 92 6000 0.89 112 18:18 14.11.2021
5464 Clouds 10 1027 91 7000 0.45 111 17:54 14.11.2021
5465 Clouds 10 1027 91 7000 0.45 111 17:36 14.11.2021
5466 Clouds 10 1027 91 10000 0.45 111 17:18 14.11.2021
5467 Clouds 10 1027 91 10000 0.45 112 16:43 14.11.2021
5468 Clouds 11 1027 91 10000 2.57 50 16:19 14.11.2021
5469 Clouds 10 1027 91 10000 0.89 112 15:21 14.11.2021
5470 Clouds 10 1027 91 10000 1.34 111 14:45 14.11.2021
5471 Clouds 10 1027 91 10000 0.89 135 14:22 14.11.2021
5472 Clouds 10 1028 94 10000 0.45 157 13:52 14.11.2021
5473 Clouds 10 1028 92 10000 0.45 158 13:28 14.11.2021
5474 Haze 9 1028 89 5000 0.45 135 12:23 14.11.2021
5475 Clouds 9 1028 92 10000 0.45 135 11:28 14.11.2021
5476 Clouds 8 1028 92 10000 0.45 135 10:39 14.11.2021
5477 Clouds 8 1028 93 10000 0.45 135 09:41 14.11.2021
5478 Clouds 7 1027 93 10000 0.51 0 08:51 14.11.2021
5479 Clouds 6 1026 96 10000 0 0 04:47 14.11.2021
5480 Fog 5 1025 93 10000 1.54 90 23:20 13.11.2021
5481 Fog 6 1025 95 10000 0.45 248 22:21 13.11.2021
5482 Fog 6 1025 95 10000 1.54 0 21:36 13.11.2021
5483 Fog 6 1024 92 10000 1.54 30 20:46 13.11.2021
5484 Clouds 7 1024 92 10000 1.03 0 19:32 13.11.2021
5485 Fog 8 1022 90 10000 1.03 350 18:32 13.11.2021
5486 Clouds 9 1022 87 10000 0.89 248 17:41 13.11.2021
5487 Clear 11 1022 82 10000 0.89 256 16:29 13.11.2021
5488 Clear 12 1021 78 10000 1.34 256 14:45 13.11.2021
5489 Clear 12 1021 79 10000 0.89 277 13:56 13.11.2021
5490 Clear 12 1020 81 10000 0.45 306 12:43 13.11.2021
5491 Clear 10 1020 88 10000 0.45 225 11:51 13.11.2021
5492 Clear 9 1019 91 10000 0.45 270 11:22 13.11.2021
5493 Clouds 7 1019 92 10000 0.89 203 10:34 13.11.2021
5494 Clear 7 1019 94 10000 0.89 262 09:49 13.11.2021
5495 Clear 7 1018 94 10000 0.45 247 09:28 13.11.2021
5496 Clouds 6 1018 92 10000 0.45 270 08:49 13.11.2021
5497 Clear 7 1017 89 10000 1.34 275 07:51 13.11.2021
5498 Clouds 8 1014 88 10000 3.13 293 04:43 13.11.2021
5499 Clouds 8 1014 88 10000 2.68 288 04:20 13.11.2021
5500 Clouds 10 1009 85 10000 4.92 304 00:18 13.11.2021
5501 -273 0 0 0 0 0 22:34 12.11.2021
5502 Clouds 11 1007 86 10000 2.68 311 22:34 12.11.2021
5503 Clouds 11 1004 92 10000 2.24 269 20:49 12.11.2021
5504 Clouds 11 1002 90 10000 2.24 289 19:32 12.11.2021
5505 Clouds 11 1002 90 10000 2.24 289 19:32 12.11.2021
5506 Clouds 11 1000 93 10000 3.58 272 18:59 12.11.2021
5507 Clouds 11 999 91 10000 3.13 275 18:20 12.11.2021
5508 Clouds 11 997 92 4300 3.13 240 15:55 12.11.2021
5509 Clouds 12 997 92 10000 3.58 237 13:46 12.11.2021
5510 Rain 11 998 93 5000 1.79 226 11:26 12.11.2021
5511 Rain 11 999 92 3300 2.24 204 10:40 12.11.2021
5512 Rain 10 1000 89 10000 1.34 181 08:59 12.11.2021
5513 Clouds 10 1000 88 10000 2.68 207 08:29 12.11.2021
5514 Clouds 12 1008 87 10000 2.68 101 00:37 12.11.2021
5515 Clouds 12 1010 88 6000 2.24 165 23:30 11.11.2021
5516 Rain 12 1011 85 10000 3.13 177 22:21 11.11.2021
5517 Rain 12 1012 84 10000 2.24 209 21:26 11.11.2021
5518 Rain 12 1014 87 10000 1.79 192 20:18 11.11.2021
5519 Clouds 11 1015 88 10000 1.79 101 18:42 11.11.2021
5520 Rain 10 1016 89 10000 2.24 125 17:42 11.11.2021
5521 Clouds 11 1018 81 10000 1.34 144 15:51 11.11.2021
5522 Clouds 11 1019 76 10000 0.89 168 14:42 11.11.2021
5523 Clouds 11 1020 76 10000 0.89 179 14:22 11.11.2021
5524 Clouds 11 1021 76 10000 0.89 172 13:35 11.11.2021
5525 Clouds 10 1022 80 10000 0.45 213 12:27 11.11.2021
5526 Clouds 8 1022 91 10000 0.89 261 09:59 11.11.2021
5527 Clouds 8 1022 91 10000 0.89 249 09:23 11.11.2021
5528 Clouds 9 1022 88 10000 0.45 312 07:33 11.11.2021
5529 Clouds 9 1022 82 10000 0.89 253 00:40 11.11.2021
5530 Clouds 7 1023 89 10000 4.12 210 22:46 10.11.2021
5531 Clouds 7 1023 88 10000 0.45 261 21:54 10.11.2021
5532 Clouds 6 1023 90 10000 0.45 225 20:56 10.11.2021
5533 Clouds 6 1023 88 10000 1.54 0 20:25 10.11.2021
5534 Clouds 7 1023 88 10000 0.45 203 19:45 10.11.2021
5535 Clouds 8 1023 85 10000 1.34 250 17:28 10.11.2021
5536 Clouds 10 1023 78 10000 2.68 269 15:47 10.11.2021
5537 Clouds 11 1024 81 10000 2.24 267 14:25 10.11.2021
5538 Clouds 10 1024 82 10000 0.45 301 13:37 10.11.2021
5539 Clouds 9 1025 85 10000 0.45 350 12:24 10.11.2021
5540 Clouds 5 1023 92 10000 1.03 0 09:21 10.11.2021
5541 Clouds 5 1023 91 10000 1.54 0 08:41 10.11.2021
5542 Clouds 6 1022 89 10000 0.51 0 06:45 10.11.2021
5543 Clouds 6 1021 87 10000 0.45 15 05:58 10.11.2021
5544 Clouds 7 1021 86 10000 1.34 260 04:58 10.11.2021
5545 Clouds 10 1018 88 10000 2.24 240 22:29 09.11.2021
5546 Clouds 10 1018 86 10000 0.89 235 20:50 09.11.2021
5547 Clouds 10 1018 89 10000 0.89 203 19:36 09.11.2021
5548 Clouds 10 1018 88 10000 2.24 266 18:50 09.11.2021
5549 Clouds 11 1017 83 10000 2.68 240 16:57 09.11.2021
5550 Clouds 12 1017 79 10000 3.13 274 15:36 09.11.2021
5551 Clouds 12 1018 79 10000 4.47 279 13:50 09.11.2021
5552 Clouds 12 1017 84 10000 2.68 271 12:47 09.11.2021
5553 Clouds 11 1017 89 10000 3.58 272 11:18 09.11.2021
5554 Clouds 11 1017 93 10000 1.34 220 09:59 09.11.2021
5555 Clouds 11 1017 94 10000 1.34 217 09:21 09.11.2021
5556 Clouds 11 1016 93 10000 1.34 215 07:52 09.11.2021
5557 Rain 12 1016 93 6000 2.24 263 02:37 09.11.2021
5558 Rain 12 1015 95 8000 3.58 252 01:51 09.11.2021
5559 Rain 13 1015 95 10000 3.13 278 00:39 09.11.2021
5560 Clouds 14 1014 93 5000 4.92 279 23:30 08.11.2021
5561 Clouds 14 1014 92 8000 4.47 260 22:38 08.11.2021
5562 Haze 14 1014 92 4900 4.02 242 21:45 08.11.2021
5563 Rain 14 1015 93 10000 3.13 238 20:34 08.11.2021
5564 Clouds 14 1015 92 10000 3.58 224 19:27 08.11.2021
5565 Clouds 13 1016 96 6000 1.79 243 17:41 08.11.2021
5566 Clouds 12 1016 96 6000 0.45 319 15:49 08.11.2021
5567 Clouds 12 1019 94 10000 2.89 192 14:56 08.11.2021
5568 Clouds 11 1017 93 4000 0.45 18 14:24 08.11.2021
5569 Drizzle 10 1019 93 1900 0.45 22 12:59 08.11.2021
5570 Mist 9 1019 91 2100 0.89 10 11:54 08.11.2021
5571 Clouds 8 1020 89 6000 0.45 225 10:41 08.11.2021
5572 Clouds 7 1021 88 10000 0.45 225 08:56 08.11.2021
5573 Clouds 7 1021 90 10000 2.06 20 08:18 08.11.2021
5574 Clouds 6 1022 89 10000 2.06 60 06:55 08.11.2021
5575 Clouds 5 1023 91 10000 0.45 225 03:35 08.11.2021
5576 Clouds 6 1023 83 10000 0.45 183 00:18 08.11.2021
5577 Clouds 7 1023 81 10000 3.13 272 22:48 07.11.2021
5578 Clouds 7 1023 77 10000 1.79 199 21:24 07.11.2021
5579 Clouds 8 1022 75 10000 1.34 262 20:18 07.11.2021
5580 Clouds 9 1021 71 10000 5.36 281 18:30 07.11.2021
5581 Clouds 9 1020 71 10000 6.26 275 17:40 07.11.2021
5582 Clouds 10 1020 67 10000 3.58 294 16:21 07.11.2021
5583 Clouds 11 1019 66 10000 6.26 277 14:47 07.11.2021
5584 Clouds 11 1019 64 10000 5.81 284 14:24 07.11.2021
5585 Clouds 10 1018 69 10000 7.6 277 11:58 07.11.2021
5586 Clouds 10 1018 69 10000 7.15 299 11:18 07.11.2021
5587 Clouds 9 1016 76 10000 6.71 273 08:58 07.11.2021
5588 Clouds 8 1015 77 10000 6.71 285 02:49 07.11.2021
5589 Clouds 8 1015 75 10000 5.81 282 00:18 07.11.2021
5590 Rain 8 1014 82 10000 4.02 266 22:54 06.11.2021
5591 Clouds 8 1014 80 10000 5.36 276 21:43 06.11.2021
5592 Rain 9 1013 79 10000 5.36 277 20:52 06.11.2021
5593 Clouds 9 1013 79 10000 6.26 266 19:39 06.11.2021
5594 Clouds 10 1011 81 10000 6.26 274 17:25 06.11.2021
5595 Clouds 12 1010 82 8000 4.92 265 15:46 06.11.2021
5596 Drizzle 12 1010 93 2900 6.26 223 13:39 06.11.2021
5597 Drizzle 12 1010 93 2900 6.26 223 13:39 06.11.2021
5598 Rain 11 1011 93 4200 4.92 243 12:38 06.11.2021
5599 Rain 10 1015 92 4900 2.24 211 09:49 06.11.2021
5600 Clouds 10 1018 91 10000 4.02 252 08:24 06.11.2021
5601 Clouds 10 1022 91 10000 2.24 245 03:22 06.11.2021
5602 Clouds 10 1024 91 10000 2.24 253 23:40 05.11.2021
5603 Clouds 10 1024 91 10000 1.79 223 22:52 05.11.2021
5604 Clouds 10 1025 91 10000 2.68 261 21:55 05.11.2021
5605 Clouds 10 1025 90 10000 2.68 260 20:21 05.11.2021
5606 Clouds 10 1025 90 10000 3.13 262 19:49 05.11.2021
5607 Clouds 10 1026 88 10000 2.24 261 18:42 05.11.2021
5608 Clouds 11 1025 87 10000 2.24 258 17:34 05.11.2021
5609 Clouds 11 1025 87 10000 3.13 260 16:35 05.11.2021
5610 Clouds 12 1025 84 10000 2.68 270 13:59 05.11.2021
5611 Clouds 11 1025 87 10000 3.13 239 11:43 05.11.2021
5612 Clouds 9 1025 91 10000 1.79 271 08:57 05.11.2021
5613 Clouds 9 1024 92 10000 1.79 266 07:45 05.11.2021
5614 Clouds 9 1023 91 10000 1.79 263 05:33 05.11.2021
5615 Clouds 8 1024 92 10000 2.06 220 02:27 05.11.2021
5616 Clouds 6 1024 90 10000 0.89 239 00:53 05.11.2021
5617 Clouds 6 1024 86 10000 2.06 250 23:25 04.11.2021
5618 Clouds 6 1024 87 10000 1.54 0 22:20 04.11.2021
5619 Clouds 5 1024 87 10000 0.89 242 21:44 04.11.2021
5620 Clouds 5 1024 88 10000 0.89 225 21:19 04.11.2021
5621 Clouds 6 1024 83 10000 0.45 225 20:23 04.11.2021
5622 Clouds 6 1023 79 10000 0.45 225 19:48 04.11.2021
5623 Clouds 6 1023 80 10000 0.45 230 19:19 04.11.2021
5624 Clouds 7 1023 75 10000 0.45 248 18:20 04.11.2021
5625 Clouds 8 1023 72 10000 1.79 271 16:53 04.11.2021
5626 Clouds 9 1022 69 10000 3.58 309 15:34 04.11.2021
5627 Clouds 8 1022 71 10000 1.79 310 13:40 04.11.2021
5628 Clouds 3 1021 91 10000 0.89 210 09:50 04.11.2021
5629 Clouds 1 1021 95 10000 0.45 229 08:31 04.11.2021
5630 Clouds 1 1020 93 10000 0.89 265 07:35 04.11.2021
5631 Clouds 1 1020 94 10000 1.54 0 06:18 04.11.2021
5632 Clouds 5 1017 84 10000 2.68 321 22:53 03.11.2021
5633 Clouds 5 1017 82 10000 4.02 327 21:50 03.11.2021
5634 Clouds 5 1017 87 10000 3.13 333 21:31 03.11.2021
5635 Clear 6 1016 85 10000 2.68 325 20:38 03.11.2021
5636 Clouds 6 1016 82 10000 3.58 330 20:18 03.11.2021
5637 Clouds 7 1015 80 10000 0.89 288 19:19 03.11.2021
5638 Clouds 8 1015 74 10000 2.68 328 18:25 03.11.2021
5639 Clouds 8 1014 73 10000 1.34 314 17:36 03.11.2021
5640 Clouds 10 1013 67 10000 2.24 348 16:26 03.11.2021
5641 Clouds 10 1013 67 10000 1.34 308 15:44 03.11.2021
5642 Clouds 10 1013 69 10000 3.13 352 13:57 03.11.2021
5643 Clouds 10 1012 75 10000 2.24 335 12:33 03.11.2021
5644 Clouds 8 1011 86 10000 0.89 248 11:27 03.11.2021
5645 Clouds 7 1011 88 10000 1.34 247 10:49 03.11.2021
5646 Clouds 4 1010 92 10000 0.45 247 09:31 03.11.2021
5647 Clouds 3 1009 93 10000 0.89 198 08:23 03.11.2021
5648 Clouds 4 1009 91 10000 1.34 261 07:39 03.11.2021
5649 Clouds 5 1010 90 10000 0.89 267 05:35 03.11.2021
5650 Clouds 5 1006 90 10000 0.45 286 02:28 03.11.2021
5651 Clouds 5 1001 89 10000 3.09 230 23:51 02.11.2021
5652 Clouds 6 1001 89 10000 2.57 230 22:46 02.11.2021
5653 Clouds 6 1003 89 10000 0.89 271 21:29 02.11.2021
5654 Clouds 7 1002 89 10000 0.45 303 20:33 02.11.2021
5655 Clouds 8 1002 87 10000 1.34 307 19:51 02.11.2021
5656 Clouds 8 1001 85 10000 0.45 244 18:59 02.11.2021
5657 Clouds 9 1000 83 10000 0.45 251 17:59 02.11.2021
5658 Clouds 9 1000 83 10000 0.89 233 17:38 02.11.2021
5659 Clouds 11 999 77 10000 0.89 241 16:31 02.11.2021
5660 Clouds 11 999 77 10000 0.89 245 15:32 02.11.2021
5661 Clouds 11 999 74 10000 0.89 252 14:28 02.11.2021
5662 Clouds 11 999 77 10000 2.68 265 13:27 02.11.2021
5663 Clouds 10 998 82 10000 1.79 251 12:39 02.11.2021
5664 Clouds 9 998 90 10000 0.89 254 11:33 02.11.2021
5665 Clouds 7 998 93 10000 0.89 256 10:53 02.11.2021
5666 Clouds 7 997 96 10000 2.57 210 10:27 02.11.2021
5667 Clouds 6 999 94 10000 0.45 125 08:43 02.11.2021
5668 Clouds 5 995 93 10000 0.89 240 06:53 02.11.2021
5669 Clouds 5 994 92 10000 3.09 220 03:48 02.11.2021
5670 Clouds 5 994 91 10000 0.89 186 02:21 02.11.2021
5671 Clouds 6 993 89 10000 0.89 216 22:47 01.11.2021
5672 Clouds 7 992 87 10000 1.34 248 20:52 01.11.2021
5673 Clouds 7 992 87 10000 2.24 255 20:33 01.11.2021
5674 Clouds 7 991 86 10000 1.79 258 19:52 01.11.2021
5675 Clouds 8 991 85 10000 2.68 257 19:24 01.11.2021
5676 Clouds 8 990 83 10000 1.34 249 18:21 01.11.2021
5677 Clouds 9 990 80 10000 2.68 268 17:19 01.11.2021
5678 Clouds 9 989 79 10000 4.92 269 16:43 01.11.2021
5679 Clouds 9 989 77 10000 5.36 270 15:46 01.11.2021
5680 Clouds 10 988 76 10000 6.71 272 15:20 01.11.2021
5681 Clouds 10 988 76 10000 6.71 272 15:20 01.11.2021
5682 Clouds 10 988 76 10000 7.15 267 14:41 01.11.2021
5683 Clouds 10 987 75 10000 6.26 270 14:19 01.11.2021
5684 Clouds 10 986 76 10000 5.81 284 13:18 01.11.2021
5685 Clouds 9 984 79 10000 4.47 280 11:56 01.11.2021
5686 Clouds 9 983 83 10000 5.81 271 10:23 01.11.2021
5687 Clouds 9 980 82 10000 4.92 290 08:43 01.11.2021
5688 Clouds 9 979 87 10000 4.92 274 07:47 01.11.2021
5689 Clouds 7 974 95 10000 1.88 228 03:58 01.11.2021
5690 Clouds 7 974 95 10000 1.88 228 03:39 01.11.2021
5691 Fog 6 978 95 200 1.03 30 23:58 31.10.2021
5692 Fog 6 978 96 100 1.54 280 21:26 31.10.2021
5693 Fog 6 978 96 150 0.51 0 20:24 31.10.2021
5694 Fog 8 978 92 8000 0.89 225 18:43 31.10.2021
5695 Clouds 8 978 92 10000 1.54 360 18:21 31.10.2021
5696 Clouds 10 978 90 7000 0.45 181 16:48 31.10.2021
5697 Clouds 10 978 90 7000 0.45 181 16:48 31.10.2021
5698 Clouds 11 980 88 10000 0.89 121 14:53 31.10.2021
5699 Clouds 9 982 96 4500 1.34 97 12:58 31.10.2021
5700 Clouds 9 982 96 4500 1.34 97 12:58 31.10.2021
5701 Rain 8 983 94 8000 3.13 96 12:19 31.10.2021
5702 Rain 8 985 92 9000 4.02 107 10:51 31.10.2021
5703 Rain 7 988 92 10000 3.13 62 09:26 31.10.2021
5704 Rain 7 988 92 10000 3.58 65 08:46 31.10.2021
5705 Clouds 5 996 95 10000 0.89 105 02:54 31.10.2021
5706 Clouds 7 996 93 10000 2.06 120 23:42 30.10.2021
5707 Clouds 7 995 90 10000 0.45 224 21:46 30.10.2021
5708 Clouds 7 994 90 10000 0.45 212 21:25 30.10.2021
5709 Clouds 9 994 89 10000 1.79 217 19:35 30.10.2021
5710 Clouds 10 992 85 10000 2.24 217 17:43 30.10.2021
5711 Clouds 11 991 83 10000 2.24 236 15:30 30.10.2021
5712 Clouds 11 991 87 10000 2.24 232 13:56 30.10.2021
5713 Clouds 10 991 86 10000 1.79 247 13:22 30.10.2021
5714 Clouds 10 991 92 10000 1.34 216 12:57 30.10.2021
5715 Clouds 10 990 94 10000 1.03 0 11:49 30.10.2021
5716 Clouds 9 990 94 10000 0.45 135 10:32 30.10.2021
5717 Clouds 9 989 94 10000 0.45 131 08:54 30.10.2021
5718 Clouds 9 989 94 10000 1.34 153 07:42 30.10.2021
5719 Rain 9 990 94 10000 2.24 115 05:44 30.10.2021
5720 Clouds 7 993 94 10000 0.45 123 01:37 30.10.2021
5721 Clouds 8 994 91 10000 0.45 187 22:54 29.10.2021
5722 Clouds 8 994 93 10000 0.89 174 22:32 29.10.2021
5723 Clouds 9 993 93 10000 1.34 236 20:46 29.10.2021
5724 Clouds 9 993 93 10000 1.34 233 20:24 29.10.2021
5725 Clouds 10 991 94 10000 0.89 227 18:36 29.10.2021
5726 Clouds 9 990 97 10000 1.34 254 16:54 29.10.2021
5727 Rain 9 990 94 10000 3.13 273 15:21 29.10.2021
5728 Rain 10 990 97 10000 3.13 256 12:24 29.10.2021
5729 Rain 10 992 97 8000 0.45 248 10:46 29.10.2021
5730 Drizzle 11 993 97 5000 0.45 248 08:41 29.10.2021
5731 Clouds 12 996 95 3300 0.45 68 00:37 29.10.2021
5732 Rain 11 997 97 7000 0.45 104 23:27 28.10.2021
5733 Clouds 11 997 97 10000 0.89 95 22:18 28.10.2021
5734 Clouds 11 998 95 10000 0.89 125 20:54 28.10.2021
5735 Clouds 12 998 94 10000 0.89 114 19:51 28.10.2021
5736 Clouds 12 998 92 10000 0.45 164 18:26 28.10.2021
5737 Clouds 12 998 92 10000 0.89 68 17:18 28.10.2021
5738 Clouds 12 999 92 10000 3.09 160 15:48 28.10.2021
5739 Rain 12 1000 92 10000 0.45 135 14:23 28.10.2021
5740 Clouds 13 1001 94 10000 0.45 135 13:24 28.10.2021
5741 Clouds 13 1001 95 10000 0.89 199 12:41 28.10.2021
5742 Clouds 12 1001 95 10000 0.45 158 10:57 28.10.2021
5743 Clouds 12 1001 95 10000 2.06 230 09:39 28.10.2021
5744 Clouds 12 1001 96 10000 2.06 220 08:59 28.10.2021
5745 Clouds 12 1001 97 10000 2.06 220 08:34 28.10.2021
5746 Clouds 12 1001 97 10000 0.51 0 07:20 28.10.2021
5747 Rain 13 1004 94 10000 0.89 177 23:59 27.10.2021
5748 Rain 14 1004 94 10000 1.34 225 22:31 27.10.2021
5749 Clouds 14 1004 94 10000 1.34 222 21:33 27.10.2021
5750 Clouds 14 1004 94 10000 1.34 248 20:53 27.10.2021
5751 Clouds 14 1004 94 10000 0.89 238 20:33 27.10.2021
5752 Rain 14 1001 96 10000 2.57 230 19:40 27.10.2021
5753 Rain 14 1001 96 2900 0.51 0 18:52 27.10.2021
5754 Rain 15 1005 92 10000 1.34 201 16:27 27.10.2021
5755 Rain 15 1005 92 10000 2.24 232 15:32 27.10.2021
5756 Clouds 15 1006 92 10000 3.58 203 14:40 27.10.2021
5757 Clouds 16 1006 88 10000 4.02 198 12:33 27.10.2021
5758 Rain 15 1006 89 10000 3.58 250 10:58 27.10.2021
5759 Clouds 15 1006 90 10000 2.68 237 09:51 27.10.2021
5760 Clouds 13 1006 94 10000 1.34 225 08:22 27.10.2021
5761 Rain 13 1006 93 10000 2.68 244 07:22 27.10.2021
5762 Rain 14 1006 93 7000 3.13 255 02:24 27.10.2021
5763 Rain 14 1005 91 4600 4.47 256 00:56 27.10.2021
5764 Rain 15 1005 89 4000 5.36 217 00:26 27.10.2021
5765 Rain 15 1004 88 5000 4.92 268 23:41 26.10.2021
5766 Rain 15 1004 88 8000 4.47 223 22:37 26.10.2021
5767 Rain 15 1004 87 10000 5.81 226 21:57 26.10.2021
5768 Clouds 15 1004 84 10000 4.02 220 20:27 26.10.2021
5769 Clouds 15 1005 86 10000 5.36 229 19:26 26.10.2021
5770 Clouds 15 1005 87 10000 4.02 221 18:40 26.10.2021
5771 Rain 14 1005 90 10000 4.47 235 16:22 26.10.2021
5772 Clouds 14 1006 92 3900 3.58 220 14:19 26.10.2021
5773 Drizzle 12 1007 91 3000 2.68 234 11:34 26.10.2021
5774 Clouds 10 1008 93 6000 0.45 182 09:59 26.10.2021
5775 Rain 9 1009 89 10000 1.34 166 07:24 26.10.2021
5776 Rain 10 1011 88 10000 1.34 212 03:37 26.10.2021
5777 Clouds 9 1011 85 10000 0.89 188 23:49 25.10.2021
5778 Clouds 8 1011 90 10000 0.89 155 22:39 25.10.2021
5779 Clouds 8 1011 91 10000 0.45 138 22:18 25.10.2021
5780 Clouds 8 1011 88 10000 0.89 92 21:26 25.10.2021
5781 Clouds 8 1011 87 10000 1.79 232 19:45 25.10.2021
5782 Clouds 8 1011 87 10000 1.79 242 19:25 25.10.2021
5783 Clouds 8 1011 84 10000 2.24 215 18:51 25.10.2021
5784 Clouds 9 1010 83 10000 2.24 247 17:43 25.10.2021
5785 Clouds 12 1010 73 10000 4.47 238 15:38 25.10.2021
5786 Clouds 11 1009 78 10000 3.58 240 13:54 25.10.2021
5787 Clouds 10 1008 82 10000 3.13 241 11:58 25.10.2021
5788 Clouds 9 1008 85 10000 1.79 244 09:58 25.10.2021
5789 Clouds 9 1007 85 10000 2.24 238 07:40 25.10.2021
5790 Clouds 9 1007 84 10000 2.24 238 05:55 25.10.2021
5791 Clouds 11 1006 88 10000 2.68 217 00:53 25.10.2021
5792 Clouds 11 1006 88 10000 2.24 242 00:34 25.10.2021
5793 Clouds 11 1007 90 10000 2.24 207 23:45 24.10.2021
5794 Clouds 11 1006 87 10000 2.24 209 22:40 24.10.2021
5795 Clouds 11 1006 89 10000 2.24 209 22:20 24.10.2021
5796 Clouds 12 1009 88 10000 1.34 219 21:33 24.10.2021
5797 Rain 13 1006 83 10000 2.68 148 20:42 24.10.2021
5798 Clouds 13 1007 83 10000 2.24 176 19:49 24.10.2021
5799 Clear 13 1007 80 10000 2.24 200 18:30 24.10.2021
5800 Clouds 14 1007 78 10000 3.58 232 17:48 24.10.2021
5801 Clouds 15 1008 77 10000 4.47 224 15:57 24.10.2021
5802 Clouds 15 1008 79 10000 4.02 235 15:19 24.10.2021
5803 Clouds 15 1009 82 10000 3.13 186 13:19 24.10.2021
5804 Clouds 14 1009 85 10000 2.68 181 12:23 24.10.2021
5805 Clouds 14 1009 88 10000 3.58 204 11:34 24.10.2021
5806 Clouds 13 1009 89 10000 1.79 202 10:38 24.10.2021
5807 Clouds 13 1009 90 10000 1.79 181 10:38 24.10.2021
5808 Clouds 13 1008 92 6000 3.58 232 08:39 24.10.2021
5809 Rain 12 1012 89 10000 1.34 196 01:53 24.10.2021
5810 Clouds 13 1013 84 10000 4.02 182 23:51 23.10.2021
5811 Clouds 12 1014 87 10000 3.13 202 22:40 23.10.2021
5812 Rain 13 1015 83 9000 2.68 190 20:42 23.10.2021
5813 Clouds 13 1015 79 10000 3.13 223 19:26 23.10.2021
5814 Clouds 13 1015 78 10000 2.24 198 18:41 23.10.2021
5815 Clouds 13 1015 77 10000 1.34 192 17:44 23.10.2021
5816 Clouds 13 1015 77 10000 1.34 192 17:44 23.10.2021
5817 Clouds 14 1016 74 10000 1.79 190 16:45 23.10.2021
5818 Clouds 14 1017 74 10000 3.13 223 14:45 23.10.2021
5819 Clouds 10 1019 84 10000 0.89 128 09:45 23.10.2021
5820 Clouds 7 1023 92 10000 0.51 0 00:28 23.10.2021
5821 Mist 7 1023 94 3000 1.03 40 23:23 22.10.2021
5822 Clouds 8 1023 87 10000 0.89 215 20:56 22.10.2021
5823 Clouds 10 1022 74 10000 0.89 216 18:57 22.10.2021
5824 Clouds 11 1021 71 10000 2.24 243 17:44 22.10.2021
5825 Clouds 12 1021 65 10000 3.13 254 15:57 22.10.2021
5826 Clouds 12 1020 67 10000 3.13 265 14:30 22.10.2021
5827 Clouds 11 1019 75 10000 2.24 252 12:38 22.10.2021
5828 Clouds 9 1017 82 10000 1.79 270 10:48 22.10.2021
5829 Clouds 8 1016 81 10000 3.13 254 09:56 22.10.2021
5830 Clouds 8 1016 81 10000 3.13 254 09:56 22.10.2021
5831 Clouds 8 1015 85 10000 3.58 265 09:30 22.10.2021
5832 Clouds 9 1014 82 10000 1.79 222 07:26 22.10.2021
5833 Clouds 9 1012 83 10000 3.58 258 03:48 22.10.2021
5834 Rain 8 1013 86 9000 4.02 247 00:24 22.10.2021
5835 Rain 8 1013 82 10000 4.02 254 23:40 21.10.2021
5836 Clouds 8 1013 82 10000 7.6 256 22:21 21.10.2021
5837 Clouds 8 1014 78 10000 2.68 238 20:53 21.10.2021
5838 Clouds 8 1014 75 10000 3.58 250 20:19 21.10.2021
5839 Rain 8 1014 74 10000 4.47 248 19:30 21.10.2021
5840 Rain 8 1014 74 10000 4.47 248 19:30 21.10.2021
5841 Clouds 9 1014 75 10000 3.58 257 18:52 21.10.2021
5842 Clouds 9 1014 75 10000 4.02 256 18:22 21.10.2021
5843 Clouds 9 1014 75 10000 4.92 265 17:42 21.10.2021
5844 Clouds 10 1014 68 10000 6.26 253 16:18 21.10.2021
5845 Clouds 10 1013 64 10000 4.47 282 15:21 21.10.2021
5846 Clouds 10 1013 62 10000 4.02 270 14:39 21.10.2021
5847 Clouds 10 1013 68 10000 4.47 285 13:26 21.10.2021
5848 Clear 6 1011 80 10000 1.79 254 11:27 21.10.2021
5849 Clear 4 1008 80 10000 3.58 312 08:59 21.10.2021
5850 Clear 5 1005 79 10000 0.45 259 07:29 21.10.2021
5851 Clear 4 1002 78 10000 0.89 228 05:33 21.10.2021
5852 Clouds 6 994 86 10000 4.92 1 23:45 20.10.2021
5853 Rain 9 993 78 10000 1.79 240 22:21 20.10.2021
5854 Clouds 9 993 82 10000 1.79 234 21:43 20.10.2021
5855 Clouds 9 993 86 10000 2.68 239 20:56 20.10.2021
5856 Clouds 9 993 84 10000 2.68 239 20:35 20.10.2021
5857 Clouds 9 994 82 10000 2.68 253 19:59 20.10.2021
5858 Clouds 10 994 80 10000 3.58 233 18:56 20.10.2021
5859 Clouds 11 994 79 10000 3.58 246 17:51 20.10.2021
5860 Rain 12 995 72 10000 5.36 269 15:44 20.10.2021
5861 Clouds 11 996 82 10000 2.68 249 11:42 20.10.2021
5862 Clouds 10 997 84 10000 2.68 258 08:54 20.10.2021
5863 Clouds 11 999 86 10000 2.24 262 04:50 20.10.2021
5864 Clouds 13 1000 90 10000 4.47 251 00:48 20.10.2021
5865 Rain 14 999 89 10000 3.58 241 00:18 20.10.2021
5866 Clouds 15 999 92 10000 2.24 207 21:44 19.10.2021
5867 Clouds 15 999 92 10000 2.24 202 20:54 19.10.2021
5868 Clouds 16 999 92 10000 2.24 242 20:25 19.10.2021
5869 Rain 16 999 93 10000 1.34 241 19:41 19.10.2021
5870 Clouds 16 999 91 10000 1.79 230 19:19 19.10.2021
5871 Clouds 17 1000 91 10000 1.34 221 17:59 19.10.2021
5872 Drizzle 16 1001 93 4000 0.45 135 15:48 19.10.2021
5873 Drizzle 15 1002 93 4600 1.03 0 15:20 19.10.2021
5874 Clouds 15 1003 93 6000 2.06 130 14:26 19.10.2021
5875 Rain 15 1004 93 5000 0.45 119 13:29 19.10.2021
5876 Clouds 15 1005 93 10000 0.45 107 11:36 19.10.2021
5877 Rain 15 1006 94 10000 1.54 0 10:23 19.10.2021
5878 Clouds 14 1004 95 8000 1.54 0 08:58 19.10.2021
5879 Rain 14 1008 96 7000 1.54 60 06:50 19.10.2021
5880 Clouds 15 1010 93 10000 1.79 245 00:24 19.10.2021
5881 Clouds 15 1010 95 10000 1.34 252 23:50 18.10.2021
5882 Clouds 15 1010 93 10000 0.89 235 23:19 18.10.2021
5883 Clouds 15 1010 95 10000 1.34 236 22:53 18.10.2021
5884 Clouds 15 1009 96 10000 0.89 218 21:19 18.10.2021
5885 Drizzle 15 1009 96 5000 0.89 259 20:41 18.10.2021
5886 Clouds 15 1008 93 10000 0.89 265 19:53 18.10.2021
5887 Clouds 15 1008 93 10000 0.89 253 19:30 18.10.2021
5888 Clouds 15 1008 91 10000 0.89 164 18:54 18.10.2021
5889 Drizzle 15 1009 92 5000 0.89 163 15:32 18.10.2021
5890 Drizzle 13 1010 95 3200 1.34 93 13:32 18.10.2021
5891 Rain 14 1011 93 10000 0.89 90 10:42 18.10.2021
5892 Clouds 13 1012 97 10000 0.45 128 09:28 18.10.2021
5893 Clouds 13 1015 96 8000 0.89 94 03:22 18.10.2021
5894 Mist 12 1015 96 4700 0.89 83 23:31 17.10.2021
5895 Clouds 13 1014 95 2600 0.89 72 21:55 17.10.2021
5896 Clouds 13 1014 96 7000 1.34 72 21:18 17.10.2021
5897 Clouds 12 1014 97 7000 0.89 69 20:38 17.10.2021
5898 Mist 13 1014 97 3900 0.89 69 19:39 17.10.2021
5899 Clouds 13 1016 96 10000 0.45 45 18:58 17.10.2021
5900 Drizzle 13 1013 95 2000 0.89 57 17:34 17.10.2021
5901 Clouds 12 1013 95 3300 0.89 94 15:42 17.10.2021
5902 Clouds 11 1013 97 2700 0.89 73 14:24 17.10.2021
5903 Drizzle 11 1013 97 1900 0.89 72 13:42 17.10.2021
5904 Drizzle 10 1013 97 2800 0.89 91 11:57 17.10.2021
5905 Drizzle 9 1012 96 3100 0.45 22 10:34 17.10.2021
5906 Drizzle 9 1012 97 2100 1.03 260 09:30 17.10.2021
5907 Clouds 9 1011 97 5000 1.03 250 07:19 17.10.2021
5908 Rain 10 1015 94 6000 0.89 22 00:53 17.10.2021
5909 Rain 9 1015 95 4100 1.34 13 00:22 17.10.2021
5910 Drizzle 9 1016 95 5000 2.24 77 21:49 16.10.2021
5911 Rain 9 1017 95 4200 1.79 30 20:32 16.10.2021
5912 Rain 8 1017 95 8000 1.34 37 19:46 16.10.2021
5913 Rain 8 1018 92 6000 1.34 33 19:23 16.10.2021
5914 Rain 9 1018 92 10000 0.89 169 18:56 16.10.2021
5915 Rain 9 1018 91 10000 0.89 170 18:37 16.10.2021
5916 Rain 9 1018 91 10000 0.89 162 18:18 16.10.2021
5917 Clouds 9 1018 90 10000 1.34 172 17:25 16.10.2021
5918 Clouds 9 1019 82 10000 0.45 181 15:25 16.10.2021
5919 Clouds 7 1023 86 10000 0.45 181 11:55 16.10.2021
5920 Clouds 6 1021 89 10000 1.54 0 10:43 16.10.2021
5921 Clouds 6 1021 90 10000 2.06 50 08:20 16.10.2021
5922 Clouds 7 1024 82 10000 1.03 260 01:25 16.10.2021
5923 Clouds 6 1024 84 10000 1.03 0 23:55 15.10.2021
5924 Clouds 7 1024 81 10000 1.54 0 23:20 15.10.2021
5925 Clouds 7 1024 81 10000 1.03 0 22:19 15.10.2021
5926 Clouds 7 1024 81 10000 0.45 248 21:26 15.10.2021
5927 Clouds 7 1024 80 10000 0.45 219 20:46 15.10.2021
5928 Clouds 8 1024 75 10000 0.45 248 19:31 15.10.2021
5929 Clouds 9 1024 71 10000 0.89 254 18:40 15.10.2021
5930 Clouds 11 1025 66 10000 1.79 288 16:28 15.10.2021
5931 Clouds 11 1025 64 10000 1.34 238 15:36 15.10.2021
5932 Clouds 8 1026 82 10000 0.89 290 12:42 15.10.2021
5933 Clouds 6 1026 90 10000 0.45 213 11:36 15.10.2021
5934 Clear 4 1023 91 10000 0.34 127 10:46 15.10.2021
5935 Fog 2 1022 92 10000 0.51 0 09:46 15.10.2021
5936 Clear 3 1023 91 10000 0.45 301 05:31 15.10.2021
5937 Clouds 7 1020 87 10000 1.34 318 00:48 15.10.2021
5938 Clouds 7 1019 87 10000 0.45 290 00:21 15.10.2021
5939 Clouds 9 1018 85 10000 0.45 149 22:51 14.10.2021
5940 Clouds 9 1018 85 10000 0.45 149 22:51 14.10.2021
5941 Clouds 10 1017 84 10000 0.89 240 21:44 14.10.2021
5942 Clouds 11 1015 85 10000 2.68 296 20:38 14.10.2021
5943 Clouds 12 1015 86 10000 2.68 296 20:18 14.10.2021
5944 Clouds 13 1014 92 10000 4.92 260 19:33 14.10.2021
5945 Drizzle 13 1014 92 5000 4.92 242 17:30 14.10.2021
5946 Clouds 13 1015 91 9000 1.79 240 16:49 14.10.2021
5947 Clouds 13 1016 88 10000 3.13 241 15:35 14.10.2021
5948 Clouds 13 1014 88 3700 10.29 240 14:41 14.10.2021
5949 Clouds 13 1018 86 10000 4.47 252 13:37 14.10.2021
5950 Clouds 12 1019 86 10000 4.47 234 11:44 14.10.2021
5951 Clouds 12 1020 83 10000 3.58 221 09:55 14.10.2021
5952 Clouds 12 1024 84 10000 3.13 226 06:54 14.10.2021
5953 Clouds 12 1028 81 10000 2.24 240 00:57 14.10.2021
5954 Clouds 12 1028 79 10000 1.34 248 00:22 14.10.2021
5955 Clouds 12 1027 83 10000 2.24 245 21:53 13.10.2021
5956 Clouds 12 1027 86 10000 1.79 222 21:32 13.10.2021
5957 Clouds 12 1027 84 10000 2.68 240 19:48 13.10.2021
5958 Clouds 13 1026 84 10000 2.68 243 18:49 13.10.2021
5959 Clouds 13 1027 84 10000 4.02 261 17:49 13.10.2021
5960 Clouds 14 1027 79 10000 3.58 267 15:24 13.10.2021
5961 Clouds 14 1027 83 10000 3.13 228 14:44 13.10.2021
5962 Clouds 13 1028 83 10000 3.13 246 12:55 13.10.2021
5963 Clouds 12 1028 86 10000 3.13 251 11:55 13.10.2021
5964 Clouds 12 1028 86 10000 2.68 250 10:39 13.10.2021
5965 Clouds 13 1028 90 10000 2.24 243 07:58 13.10.2021
5966 Clouds 13 1028 89 10000 1.79 240 06:33 13.10.2021
5967 Clouds 13 1028 92 10000 2.24 256 02:24 13.10.2021
5968 Clouds 13 1028 92 10000 4.12 240 23:55 12.10.2021
5969 Clouds 13 1029 93 10000 2.57 250 23:29 12.10.2021
5970 Clouds 13 1029 93 10000 2.57 260 22:43 12.10.2021
5971 Clouds 13 1029 90 10000 0.51 20 21:30 12.10.2021
5972 Clouds 12 1029 92 10000 0.51 30 20:34 12.10.2021
5973 Clouds 13 1028 88 10000 0.51 360 19:52 12.10.2021
5974 Clouds 14 1028 86 10000 0.45 67 18:27 12.10.2021
5975 Clouds 14 1028 85 10000 0.45 346 17:38 12.10.2021
5976 Clouds 13 1028 86 10000 0.89 1 16:38 12.10.2021
5977 Clouds 13 1029 87 10000 0.89 24 15:44 12.10.2021
5978 Clouds 13 1029 90 10000 0.89 358 14:30 12.10.2021
5979 Clouds 12 1029 88 10000 2.24 47 13:42 12.10.2021
5980 Clouds 13 1028 90 10000 1.34 288 11:36 12.10.2021
5981 Clouds 13 1028 88 10000 2.68 270 09:41 12.10.2021
5982 Clouds 13 1028 88 10000 3.13 260 08:42 12.10.2021
5983 Clouds 13 1027 89 10000 3.13 265 06:49 12.10.2021
5984 Clouds 13 1028 92 10000 2.68 247 05:29 12.10.2021
5985 Clouds 12 1028 92 10000 2.24 250 04:29 12.10.2021
5986 Clouds 12 1029 88 10000 2.68 250 00:18 12.10.2021
5987 Clouds 12 1029 88 10000 2.68 250 00:18 12.10.2021
5988 Clouds 12 1029 88 10000 1.34 234 00:18 12.10.2021
5989 Clouds 12 1029 88 10000 1.34 234 00:18 12.10.2021
5990 Clouds 12 1029 87 10000 2.24 253 23:37 11.10.2021
5991 Clouds 12 1029 88 10000 3.58 254 22:56 11.10.2021
5992 Clouds 12 1030 88 10000 2.68 262 21:41 11.10.2021
5993 Clouds 12 1030 87 10000 0.89 205 20:32 11.10.2021
5994 Clouds 12 1030 87 10000 3.13 257 19:36 11.10.2021
5995 Clouds 13 1031 79 10000 2.68 245 18:24 11.10.2021
5996 Clouds 14 1031 74 10000 3.13 254 16:41 11.10.2021
5997 Clouds 14 1031 74 10000 2.68 252 16:21 11.10.2021
5998 Clouds 14 1031 77 10000 2.68 250 15:45 11.10.2021
5999 Clouds 14 1032 81 10000 2.68 263 14:54 11.10.2021
6000 Clouds 14 1032 79 10000 5.36 262 14:22 11.10.2021
6001 Clouds 14 1032 78 10000 3.13 237 13:35 11.10.2021
6002 Clouds 12 1033 87 10000 1.34 256 11:24 11.10.2021
6003 Clouds 11 1033 89 10000 0.45 248 09:47 11.10.2021
6004 Clouds 10 1033 91 10000 0.89 260 08:40 11.10.2021
6005 Clouds 10 1033 87 10000 4.47 261 01:47 11.10.2021
6006 Clouds 10 1032 88 10000 4.02 270 00:59 11.10.2021
6007 Clouds 10 1032 88 10000 4.02 270 00:59 11.10.2021
6008 Clouds 10 1032 88 10000 4.02 270 00:41 11.10.2021
6009 Clouds 10 1032 88 10000 2.24 308 22:42 10.10.2021
6010 Clouds 10 1032 87 10000 1.79 260 21:50 10.10.2021
6011 Clouds 10 1032 87 10000 2.68 258 21:20 10.10.2021
6012 Clouds 10 1032 86 10000 1.79 243 20:40 10.10.2021
6013 Clouds 11 1032 85 10000 1.34 248 20:40 10.10.2021
6014 Clouds 10 1032 87 10000 1.34 233 20:19 10.10.2021
6015 Clouds 11 1032 86 10000 1.34 231 19:44 10.10.2021
6016 Clouds 11 1032 85 10000 2.24 250 19:26 10.10.2021
6017 Clouds 12 1032 82 10000 4.47 266 18:20 10.10.2021
6018 Clouds 13 1031 79 10000 3.58 263 15:54 10.10.2021
6019 Clouds 13 1031 77 10000 2.68 262 15:35 10.10.2021
6020 Clouds 13 1032 81 10000 3.58 266 13:41 10.10.2021
6021 Clouds 12 1032 84 10000 2.24 229 12:43 10.10.2021
6022 Clouds 11 1032 91 10000 1.79 209 11:31 10.10.2021
6023 Clouds 10 1032 93 10000 1.79 229 10:29 10.10.2021
6024 Clouds 9 1032 96 10000 0.89 189 09:19 10.10.2021
6025 Clouds 8 1032 96 10000 0.89 201 08:50 10.10.2021
6026 Mist 9 1032 93 3300 2.06 230 04:51 10.10.2021
6027 Clouds 10 1032 93 10000 0.45 314 02:20 10.10.2021
6028 Clouds 11 1032 93 10000 2.57 230 00:50 10.10.2021
6029 Clouds 10 1032 92 10000 0.45 292 23:45 09.10.2021
6030 Clouds 11 1031 90 10000 0.89 270 22:20 09.10.2021
6031 Clouds 12 1031 90 10000 3.58 265 21:30 09.10.2021
6032 Clouds 13 1030 93 10000 2.24 187 20:19 09.10.2021
6033 Clouds 14 1030 93 10000 1.79 185 19:41 09.10.2021
6034 Clouds 14 1029 93 10000 1.79 176 18:48 09.10.2021
6035 Clouds 15 1029 93 6000 1.34 168 17:57 09.10.2021
6036 Clouds 15 1029 93 10000 1.34 175 16:20 09.10.2021
6037 Clouds 15 1029 93 4700 1.34 177 14:28 09.10.2021
6038 Clouds 15 1029 93 6000 0.89 158 13:38 09.10.2021
6039 Rain 15 1028 92 10000 0.45 157 12:27 09.10.2021
6040 Clouds 15 1028 92 10000 0.45 158 10:45 09.10.2021
6041 Rain 15 1028 92 10000 0.89 158 10:19 09.10.2021
6042 Clouds 15 1028 88 10000 2.06 180 08:45 09.10.2021
6043 Clouds 15 1028 88 10000 1.54 0 08:20 09.10.2021
6044 Clouds 15 1028 91 10000 1.54 110 06:37 09.10.2021
6045 Clouds 15 1029 87 10000 1.54 0 04:43 09.10.2021
6046 Clouds 15 1029 88 10000 3.09 190 02:46 09.10.2021
6047 Clouds 15 1029 88 10000 0.89 157 00:24 09.10.2021
6048 Clouds 15 1029 89 10000 1.34 152 23:31 08.10.2021
6049 Clouds 15 1026 88 10000 2.06 0 22:46 08.10.2021
6050 Clouds 15 1029 89 10000 0.45 158 21:44 08.10.2021
6051 Clouds 15 1029 86 10000 0.89 157 19:49 08.10.2021
6052 Clouds 17 1029 85 10000 3.6 200 18:23 08.10.2021
6053 Clouds 16 1026 88 10000 4.63 170 16:55 08.10.2021
6054 Clouds 16 1026 89 10000 4.12 170 16:24 08.10.2021
6055 Clouds 16 1026 92 10000 5.14 180 14:56 08.10.2021
6056 Clouds 16 1026 92 10000 3.6 160 13:45 08.10.2021
6057 Clouds 16 1025 90 10000 4.63 170 11:41 08.10.2021
6058 Clouds 15 1024 93 10000 2.57 160 10:42 08.10.2021
6059 Rain 15 1024 93 10000 3.6 200 09:46 08.10.2021
6060 Rain 16 1022 93 10000 2.57 190 03:36 08.10.2021
6061 Clouds 16 1019 92 10000 6.17 210 23:24 07.10.2021
6062 Rain 17 1019 92 9000 5.14 190 21:48 07.10.2021
6063 Rain 17 1018 92 7000 6.17 190 21:28 07.10.2021
6064 Rain 17 1018 92 8000 6.17 200 20:29 07.10.2021
6065 Rain 17 1017 89 10000 7.2 200 19:32 07.10.2021
6066 Clouds 17 1017 91 10000 5.66 200 18:40 07.10.2021
6067 Clouds 18 1017 90 9000 6.17 200 17:27 07.10.2021
6068 Rain 18 1017 88 10000 7.72 200 15:58 07.10.2021
6069 Clouds 18 1016 88 10000 4.63 180 14:48 07.10.2021
6070 Rain 17 1016 91 10000 6.17 180 13:43 07.10.2021
6071 Drizzle 17 1016 89 5000 3.6 180 12:49 07.10.2021
6072 Clouds 17 1016 89 10000 5.66 190 10:57 07.10.2021
6073 Clouds 16 1016 91 10000 6.17 190 10:22 07.10.2021
6074 Clouds 16 1016 92 10000 6.69 190 09:34 07.10.2021
6075 Clouds 16 1015 88 6000 5.66 200 08:52 07.10.2021
6076 Clouds 16 1015 88 10000 4.63 180 07:57 07.10.2021
6077 Clouds 16 1015 88 10000 4.63 180 07:37 07.10.2021
6078 Clouds 14 1015 95 10000 1.54 0 04:24 07.10.2021
6079 Drizzle 12 1016 93 3400 3.09 60 00:29 07.10.2021
6080 Drizzle 12 1016 90 5000 1.54 0 22:55 06.10.2021
6081 Clouds 11 1016 90 10000 1.54 90 22:23 06.10.2021
6082 Rain 12 1017 82 10000 4.12 150 20:43 06.10.2021
6083 Rain 12 1017 78 10000 4.12 170 20:20 06.10.2021
6084 Clouds 13 1017 72 10000 2.06 140 18:43 06.10.2021
6085 Clouds 14 1017 68 10000 3.09 200 16:58 06.10.2021
6086 Clouds 14 1017 68 10000 3.09 200 16:58 06.10.2021
6087 Clouds 14 1017 68 10000 3.09 200 16:58 06.10.2021
6088 Clouds 15 1017 63 10000 2.57 210 15:33 06.10.2021
6089 Clouds 14 1018 65 10000 0.51 0 14:30 06.10.2021
6090 Clouds 13 1017 68 10000 0.51 0 13:23 06.10.2021
6091 Clouds 12 1018 72 10000 0.51 0 12:44 06.10.2021
6092 Clouds 11 1017 75 10000 0.51 0 12:22 06.10.2021
6093 Clear 6 1016 90 10000 1.54 0 10:23 06.10.2021
6094 Clear 5 1017 88 10000 0.66 259 09:39 06.10.2021
6095 Clear 4 1016 93 10000 2.06 280 08:52 06.10.2021
6096 Clouds 4 1015 89 10000 3.09 220 07:50 06.10.2021
6097 Clouds 5 1014 85 10000 3.6 240 05:27 06.10.2021
6098 Clouds 5 1014 85 10000 3.6 240 05:27 06.10.2021
6099 Clouds 8 1011 71 10000 3.6 300 01:23 06.10.2021
6100 Clouds 9 1010 70 10000 6.69 330 00:18 06.10.2021
6101 Clouds 9 1010 72 10000 6.17 330 23:45 05.10.2021
6102 Clouds 9 1010 75 10000 5.14 310 23:27 05.10.2021
6103 Clouds 9 1009 76 10000 3.09 280 22:28 05.10.2021
6104 Clouds 10 1008 77 10000 3.6 330 21:50 05.10.2021
6105 Clouds 11 1008 74 10000 5.14 310 20:48 05.10.2021
6106 Clouds 11 1007 73 10000 5.14 310 20:24 05.10.2021
6107 Clouds 12 1006 68 10000 4.63 320 19:47 05.10.2021
6108 Clouds 13 1005 64 10000 6.17 330 18:57 05.10.2021
6109 Clouds 13 1004 63 10000 5.14 330 16:48 05.10.2021
6110 Clouds 13 1003 74 10000 5.14 330 14:38 05.10.2021
6111 Clouds 11 1003 82 10000 4.12 300 13:35 05.10.2021
6112 Clouds 10 1002 86 10000 4.12 290 12:48 05.10.2021
6113 Clouds 10 1002 84 10000 4.63 300 12:18 05.10.2021
6114 Clouds 8 1002 91 10000 4.12 330 11:19 05.10.2021
6115 Clouds 6 1001 96 10000 1.54 250 09:26 05.10.2021
6116 Fog 5 1001 94 250 0.51 0 04:47 05.10.2021
6117 Fog 7 1001 91 8000 1.54 0 23:53 04.10.2021
6118 Clear 8 1001 93 10000 1.03 0 22:38 04.10.2021
6119 Clouds 11 1001 85 10000 3.09 200 19:59 04.10.2021
6120 Clouds 12 1000 81 10000 5.66 210 18:34 04.10.2021
6121 Clouds 13 1000 79 10000 8.23 210 16:24 04.10.2021
6122 Clouds 13 1000 81 10000 6.69 200 15:31 04.10.2021
6123 Clouds 13 1000 80 10000 7.72 200 14:42 04.10.2021
6124 Clouds 13 1000 84 10000 4.12 220 13:57 04.10.2021
6125 Clouds 13 1000 81 10000 5.14 200 13:24 04.10.2021
6126 Clouds 12 1000 86 10000 4.12 230 12:26 04.10.2021
6127 Clouds 11 1000 90 9000 5.14 190 11:30 04.10.2021
6128 Clouds 10 999 91 10000 4.12 170 10:18 04.10.2021
6129 Clouds 9 999 90 9000 3.09 190 08:41 04.10.2021
6130 Rain 9 998 90 10000 3.09 170 07:26 04.10.2021
6131 Clouds 10 995 88 10000 5.14 210 00:33 04.10.2021
6132 Clouds 10 993 90 10000 5.66 240 22:35 03.10.2021
6133 Clouds 11 992 87 10000 5.14 220 21:39 03.10.2021
6134 Clouds 11 992 87 10000 4.63 210 21:19 03.10.2021
6135 Clouds 11 990 87 10000 5.14 220 19:58 03.10.2021
6136 Rain 12 988 80 10000 7.72 240 18:56 03.10.2021
6137 Rain 12 988 81 10000 7.2 240 18:27 03.10.2021
6138 Clouds 12 986 78 10000 7.2 240 16:34 03.10.2021
6139 Clouds 13 984 79 10000 7.2 250 14:46 03.10.2021
6140 Clouds 13 984 78 10000 7.2 250 14:46 03.10.2021
6141 Clouds 12 983 83 10000 7.72 220 13:58 03.10.2021
6142 Clouds 12 983 88 10000 8.23 220 13:22 03.10.2021
6143 Clouds 12 982 86 10000 7.2 220 12:29 03.10.2021
6144 Clouds 10 982 89 10000 3.6 210 10:37 03.10.2021
6145 Clouds 8 980 90 10000 2.57 180 08:36 03.10.2021
6146 Fog 5 982 94 500 0.51 0 01:44 03.10.2021
6147 Clouds 7 983 92 10000 2.06 220 22:40 02.10.2021
6148 Clouds 9 985 89 10000 2.06 270 20:56 02.10.2021
6149 Clouds 10 985 84 10000 2.06 240 19:40 02.10.2021
6150 Clouds 11 985 85 10000 3.6 200 18:51 02.10.2021
6151 Clouds 11 985 87 10000 3.09 210 17:41 02.10.2021
6152 Rain 11 985 90 10000 3.09 80 17:19 02.10.2021
6153 Rain 10 988 94 10000 6.17 80 14:49 02.10.2021
6154 Rain 14 1004 83 10000 7.72 220 15:49 30.09.2021
6155 Rain 14 1005 88 10000 5.66 230 14:48 30.09.2021
6156 Clouds 15 1005 89 10000 8.23 230 12:36 30.09.2021
6157 Clouds 15 1005 90 10000 7.2 230 11:34 30.09.2021
6158 Clouds 14 1005 93 10000 8.23 220 10:40 30.09.2021
6159 Rain 12 1006 94 4800 3.6 60 08:56 30.09.2021
6160 Rain 12 1007 94 5000 2.57 70 08:27 30.09.2021
6161 Rain 9 1012 89 10000 3.6 100 05:53 30.09.2021
6162 Rain 8 1017 87 10000 1.03 0 02:59 30.09.2021
6163 Clouds 7 1019 87 10000 1.03 10 00:40 30.09.2021
6164 Clouds 7 1019 87 10000 1.54 250 23:29 29.09.2021
6165 Clouds 8 1020 80 10000 4.12 240 21:55 29.09.2021
6166 Clouds 9 1019 74 10000 5.14 250 20:57 29.09.2021
6167 Clouds 10 1019 72 10000 4.63 250 20:22 29.09.2021
6168 Clouds 12 1019 69 10000 4.12 280 19:28 29.09.2021
6169 Clouds 12 1019 70 10000 5.14 290 18:18 29.09.2021
6170 Clouds 13 1018 68 10000 6.17 280 16:56 29.09.2021
6171 Clouds 12 1018 73 10000 6.17 270 16:29 29.09.2021
6172 Clouds 12 1018 78 10000 4.63 260 15:35 29.09.2021
6173 Clouds 13 1017 70 10000 7.72 270 14:38 29.09.2021
6174 Clouds 13 1016 67 10000 5.14 280 13:33 29.09.2021
6175 Clouds 12 1016 72 10000 4.63 270 12:39 29.09.2021
6176 Clear 11 1015 77 10000 3.09 280 11:23 29.09.2021
6177 Clear 9 1014 88 10000 1.03 0 10:31 29.09.2021
6178 Clear 7 1013 93 10000 2.57 260 09:42 29.09.2021
6179 Clouds 6 1012 94 10000 1.54 0 07:52 29.09.2021
6180 Clouds 5 1011 95 10000 1.03 0 06:46 29.09.2021
6181 Clouds 7 1008 91 10000 2.06 240 00:28 29.09.2021
6182 Clouds 8 1007 87 10000 2.06 230 22:26 28.09.2021
6183 Clouds 9 1007 87 10000 3.09 260 21:54 28.09.2021
6184 Clouds 9 1007 85 10000 1.54 230 21:21 28.09.2021
6185 Clouds 11 1006 76 10000 3.09 210 19:49 28.09.2021
6186 Clouds 12 1006 75 10000 3.09 210 19:29 28.09.2021
6187 Clouds 12 1006 74 10000 4.12 200 18:41 28.09.2021
6188 Clouds 13 1007 73 10000 4.63 200 16:57 28.09.2021
6189 Clouds 13 1007 75 10000 4.63 210 15:21 28.09.2021
6190 Clouds 13 1008 75 10000 4.12 190 13:27 28.09.2021
6191 Clouds 12 1008 78 10000 5.66 180 12:24 28.09.2021
6192 Clouds 12 1008 79 10000 6.17 180 11:48 28.09.2021
6193 Clouds 12 1008 79 10000 4.63 180 11:27 28.09.2021
6194 Clouds 10 1008 84 10000 5.14 180 10:27 28.09.2021
6195 Clouds 9 1008 88 10000 5.14 190 09:29 28.09.2021
6196 Clouds 8 1008 88 10000 5.66 190 08:43 28.09.2021
6197 Clouds 9 1008 85 10000 6.69 190 08:18 28.09.2021
6198 Clouds 9 1008 89 10000 5.14 170 06:46 28.09.2021
6199 Clouds 9 1007 87 10000 1.54 0 01:35 28.09.2021
6200 Clouds 10 1007 87 10000 4.12 190 00:30 28.09.2021
6201 Clouds 9 1006 85 10000 5.66 180 23:49 27.09.2021
6202 Clouds 9 1006 86 10000 4.63 170 23:24 27.09.2021
6203 Clear 9 1006 86 10000 1.54 0 22:20 27.09.2021
6204 Clear 10 1005 80 10000 3.6 210 20:54 27.09.2021
6205 Clouds 11 1004 79 10000 4.63 220 20:26 27.09.2021
6206 Clouds 12 1004 73 10000 5.66 240 19:37 27.09.2021
6207 Clouds 13 1003 70 10000 8.75 240 18:52 27.09.2021
6208 Clouds 13 1003 70 10000 8.75 240 18:52 27.09.2021
6209 Clouds 13 1002 78 10000 9.77 240 17:37 27.09.2021
6210 Clouds 14 1001 73 10000 9.26 250 16:56 27.09.2021
6211 Clouds 14 1001 72 10000 9.26 250 16:33 27.09.2021
6212 Clouds 12 1000 81 10000 6.69 250 15:36 27.09.2021
6213 Clouds 13 999 79 10000 6.69 250 13:44 27.09.2021
6214 Clouds 10 999 92 10000 3.09 230 12:22 27.09.2021
6215 Rain 9 999 95 10000 3.09 230 10:48 27.09.2021
6216 Rain 9 998 93 8000 1.54 240 09:40 27.09.2021
6217 Rain 10 999 93 8000 2.06 260 07:44 27.09.2021
6218 Rain 12 1001 93 10000 1.03 270 03:31 27.09.2021
6219 Rain 14 1001 91 10000 2.57 260 23:42 26.09.2021
6220 Rain 16 1000 90 10000 5.14 150 21:55 26.09.2021
6221 Rain 17 1000 90 10000 5.14 160 21:27 26.09.2021
6222 Clouds 17 1001 88 9000 3.6 130 20:25 26.09.2021
6223 Clouds 17 1001 87 4900 4.63 160 19:54 26.09.2021
6224 Rain 17 1004 84 10000 0.89 221 19:25 26.09.2021
6225 Rain 17 1004 84 10000 0.89 221 19:25 26.09.2021
6226 Rain 17 1004 84 10000 0.89 221 19:25 26.09.2021
6227 Rain 17 1004 84 10000 0.89 221 19:25 26.09.2021
6228 Rain 17 1004 84 10000 0.89 221 19:25 26.09.2021
6229 Rain 18 1005 79 3900 0.89 221 18:34 26.09.2021
6230 Clouds 19 1005 73 10000 1.34 178 17:37 26.09.2021
6231 Clouds 19 1005 73 10000 0.89 143 17:18 26.09.2021
6232 Clouds 18 1006 83 10000 0.45 150 16:22 26.09.2021
6233 Clouds 18 1006 84 10000 0.45 125 15:22 26.09.2021
6234 Clouds 18 1007 79 10000 0.89 161 14:18 26.09.2021
6235 Clouds 17 1004 83 10000 7.2 180 13:42 26.09.2021
6236 Clouds 18 1007 81 10000 0.89 202 12:26 26.09.2021
6237 Clouds 18 1007 81 10000 1.34 226 11:53 26.09.2021
6238 Clouds 17 1008 86 10000 0.45 199 10:59 26.09.2021
6239 Clouds 17 1007 88 10000 0.45 158 09:38 26.09.2021
6240 Clouds 16 1008 89 10000 3.6 190 08:30 26.09.2021
6241 Clouds 17 1011 86 10000 2.06 140 00:28 26.09.2021
6242 Clouds 16 1011 90 10000 1.54 90 23:43 25.09.2021
6243 Clouds 16 1011 90 10000 1.54 90 23:43 25.09.2021
6244 Clouds 16 1011 91 10000 0.51 0 22:39 25.09.2021
6245 Clouds 16 1011 91 10000 1.03 0 22:18 25.09.2021
6246 Clouds 16 1011 91 10000 1.03 0 22:18 25.09.2021
6247 Clouds 16 1011 91 10000 2.06 200 21:40 25.09.2021
6248 Clouds 17 1011 88 10000 1.54 200 20:52 25.09.2021
6249 Clouds 18 1012 88 10000 0.45 209 19:33 25.09.2021
6250 Clouds 18 1012 89 10000 0.45 221 18:28 25.09.2021
6251 Clouds 18 1012 87 9000 1.79 241 17:21 25.09.2021
6252 Clouds 19 1013 82 10000 0.45 196 14:30 25.09.2021
6253 Clouds 19 1014 83 10000 0.45 200 13:54 25.09.2021
6254 Clouds 17 1014 86 10000 2.57 220 12:36 25.09.2021
6255 Clouds 15 1014 91 10000 1.54 0 10:36 25.09.2021
6256 Clouds 15 1014 92 10000 2.06 220 09:56 25.09.2021
6257 Clouds 14 1014 93 10000 2.57 220 08:52 25.09.2021
6258 Clouds 14 1014 92 10000 3.09 220 07:46 25.09.2021
6259 Clouds 14 1014 88 10000 1.79 262 00:50 25.09.2021
6260 Clouds 14 1014 88 10000 1.79 262 00:50 25.09.2021
6261 Clouds 15 1013 87 10000 0.89 250 21:57 24.09.2021
6262 Clouds 15 1013 87 10000 1.79 256 21:25 24.09.2021
6263 Clouds 15 1012 89 10000 0.89 221 20:19 24.09.2021
6264 Clouds 16 1011 87 10000 2.68 249 18:36 24.09.2021
6265 Clouds 17 1011 87 7000 2.68 250 17:56 24.09.2021
6266 Clouds 17 1011 86 7000 3.13 245 17:38 24.09.2021
6267 Clouds 17 1011 83 10000 3.13 257 17:19 24.09.2021
6268 Clouds 18 1011 85 10000 2.68 253 15:38 24.09.2021
6269 Clouds 17 1010 88 10000 2.24 223 13:20 24.09.2021
6270 Clouds 17 1010 89 10000 3.13 253 12:41 24.09.2021
6271 Clouds 16 1011 90 10000 1.79 263 12:23 24.09.2021
6272 Clouds 16 1008 88 10000 8.23 250 10:28 24.09.2021
6273 Clouds 15 1008 92 10000 4.12 220 08:57 24.09.2021
6274 Clouds 14 1008 94 3700 6.69 210 07:39 24.09.2021
6275 Clouds 14 1008 92 6000 8.23 220 06:50 24.09.2021
6276 Clouds 14 1009 88 10000 9.77 230 05:21 24.09.2021
6277 Clouds 14 1013 86 10000 6.69 230 00:48 24.09.2021
6278 Clouds 15 1014 89 10000 7.72 250 22:36 23.09.2021
6279 Clouds 14 1015 90 10000 4.62 243 21:56 23.09.2021
6280 Clouds 14 1015 92 7000 7.2 240 20:37 23.09.2021
6281 Mist 14 1015 91 4600 6.17 230 20:19 23.09.2021
6282 Clouds 15 1015 87 10000 4.63 250 18:25 23.09.2021
6283 Clouds 16 1015 83 10000 6.69 250 15:37 23.09.2021
6284 Clouds 16 1015 84 10000 7.2 240 15:18 23.09.2021
6285 Clouds 16 1015 81 10000 7.2 260 13:49 23.09.2021
6286 Clouds 16 1015 79 10000 5.14 270 13:22 23.09.2021
6287 Clouds 16 1015 79 10000 6.69 270 12:53 23.09.2021
6288 Clouds 15 1014 82 10000 7.2 270 12:23 23.09.2021
6289 Clouds 15 1014 83 8000 6.69 260 11:55 23.09.2021
6290 Clouds 14 1013 87 10000 7.2 250 10:27 23.09.2021
6291 Clouds 14 1013 87 10000 8.23 260 09:53 23.09.2021
6292 Clouds 13 1013 87 8000 7.2 260 08:31 23.09.2021
6293 Clouds 13 1013 81 10000 6.17 260 04:41 23.09.2021
6294 Clouds 13 1016 88 10000 1.54 0 23:35 22.09.2021
6295 Clouds 14 1016 93 10000 4.12 280 22:37 22.09.2021
6296 Clouds 14 1016 92 10000 3.6 260 21:56 22.09.2021
6297 Clouds 14 1016 92 10000 3.6 260 21:34 22.09.2021
6298 Clouds 15 1016 93 7000 6.69 260 20:57 22.09.2021
6299 Drizzle 16 1017 89 4700 6.69 250 19:33 22.09.2021
6300 Clouds 16 1017 90 10000 10.8 230 18:40 22.09.2021
6301 Clouds 16 1017 90 10000 10.8 230 18:39 22.09.2021
6302 Rain 16 1017 88 10000 7.2 231 17:48 22.09.2021
6303 Rain 17 1018 86 10000 7.44 229 16:38 22.09.2021
6304 Clouds 18 1019 81 10000 12.86 220 15:29 22.09.2021
6305 Clouds 16 1020 85 3600 11.32 220 13:58 22.09.2021
6306 Clouds 15 1021 82 10000 13.38 220 11:59 22.09.2021
6307 Clouds 15 1021 81 10000 10.29 210 10:52 22.09.2021
6308 Clouds 15 1022 82 10000 7.2 210 09:25 22.09.2021
6309 Clouds 14 1022 81 10000 10.8 210 08:29 22.09.2021
6310 Clouds 14 1023 81 10000 7.2 220 07:19 22.09.2021
6311 Clouds 14 1023 81 10000 4.12 240 05:56 22.09.2021
6312 Clouds 14 1023 81 10000 4.12 240 05:34 22.09.2021
6313 Clouds 15 1024 79 10000 4.63 260 03:50 22.09.2021
6314 Clouds 16 1025 87 10000 4.12 250 00:22 22.09.2021
6315 Clouds 16 1025 83 10000 5.14 220 22:54 21.09.2021
6316 Clouds 16 1026 83 10000 6.17 220 21:36 21.09.2021
6317 Clouds 16 1026 82 10000 3.13 215 20:26 21.09.2021
6318 Clouds 16 1026 80 10000 3.6 219 19:22 21.09.2021
6319 Clouds 17 1026 79 10000 4.41 234 17:36 21.09.2021
6320 Clouds 17 1027 77 10000 8.75 230 16:35 21.09.2021
6321 Clouds 17 1028 76 10000 6.69 220 15:39 21.09.2021
6322 Clouds 18 1028 74 10000 6.69 230 14:57 21.09.2021
6323 Clouds 17 1028 75 10000 7.2 220 13:56 21.09.2021
6324 Clouds 17 1028 75 10000 7.2 220 13:56 21.09.2021
6325 Clouds 17 1028 76 10000 7.2 220 13:36 21.09.2021
6326 Clouds 14 1029 84 9000 4.63 220 11:45 21.09.2021
6327 Clouds 12 1028 94 7000 3.09 220 09:58 21.09.2021
6328 Clouds 10 1028 100 6000 3.6 220 08:28 21.09.2021
6329 Clouds 11 1028 93 7000 3.09 220 06:41 21.09.2021
6330 Clouds 12 1026 94 10000 3.6 230 23:59 20.09.2021
6331 Clouds 13 1025 94 10000 5.66 240 22:25 20.09.2021
6332 Clouds 14 1025 88 10000 4.12 240 21:38 20.09.2021
6333 Clouds 15 1024 88 10000 5.14 230 20:31 20.09.2021
6334 Clouds 16 1024 80 10000 6.69 240 19:30 20.09.2021
6335 Clouds 16 1024 81 10000 5.14 240 17:46 20.09.2021
6336 Clouds 16 1024 86 10000 6.17 230 16:43 20.09.2021
6337 Clouds 17 1023 80 10000 7.2 220 15:49 20.09.2021
6338 Clouds 17 1023 78 10000 7.2 220 15:25 20.09.2021
6339 Clouds 17 1023 79 10000 4.12 220 14:24 20.09.2021
6340 Clouds 15 1024 87 10000 1.54 0 12:35 20.09.2021
6341 Clouds 13 1023 93 8000 1.03 0 11:26 20.09.2021
6342 Mist 10 1023 95 5000 0.51 0 10:18 20.09.2021
6343 Fog 10 1023 95 500 1.03 0 09:36 20.09.2021
6344 Fog 8 1023 95 450 0.51 0 09:18 20.09.2021
6345 Clouds 8 1022 95 10000 1.03 0 07:45 20.09.2021
6346 Clear 10 1020 92 10000 1.03 250 00:36 20.09.2021
6347 Clear 11 1018 88 10000 2.06 280 22:26 19.09.2021
6348 Clear 12 1018 84 10000 1.71 235 21:43 19.09.2021
6349 Clear 13 1016 82 10000 1.54 250 20:43 19.09.2021
6350 Clouds 15 1015 73 10000 5.14 260 19:31 19.09.2021
6351 Clouds 17 1015 70 10000 5.66 240 18:29 19.09.2021
6352 Clouds 17 1014 72 10000 5.66 260 17:23 19.09.2021
6353 Clouds 17 1014 78 9000 3.6 250 15:59 19.09.2021
6354 Clouds 17 1013 76 10000 5.66 230 15:30 19.09.2021
6355 Clouds 17 1013 76 10000 5.66 230 15:30 19.09.2021
6356 Clouds 16 1013 78 10000 4.12 220 14:48 19.09.2021
6357 Clouds 15 1013 86 10000 3.09 230 13:24 19.09.2021
6358 Clouds 15 1013 86 10000 2.57 210 12:50 19.09.2021
6359 Clouds 14 1012 89 10000 1.54 0 11:28 19.09.2021
6360 Clouds 13 1012 91 10000 0.51 0 10:47 19.09.2021
6361 Rain 13 1011 92 6000 1.03 0 09:40 19.09.2021
6362 Rain 13 1011 92 6000 1.03 0 09:40 19.09.2021
6363 Drizzle 13 1010 93 5000 1.54 0 08:35 19.09.2021
6364 Rain 13 1009 94 10000 1.03 0 06:41 19.09.2021
6365 Rain 15 1011 88 10000 1.54 0 23:38 18.09.2021
6366 Clouds 16 1012 84 10000 1.03 340 22:23 18.09.2021
6367 Clouds 16 1011 79 10000 1.54 270 20:52 18.09.2021
6368 Clouds 17 1011 78 10000 1.54 270 20:32 18.09.2021
6369 Clouds 18 1011 73 10000 2.57 240 19:39 18.09.2021
6370 Clouds 18 1011 71 10000 0.51 0 19:20 18.09.2021
6371 Clouds 19 1012 67 10000 0.51 0 18:32 18.09.2021
6372 Clouds 19 1012 67 10000 2.57 260 17:31 18.09.2021
6373 Clouds 19 1013 70 10000 1.03 0 16:18 18.09.2021
6374 Clouds 17 1014 85 10000 2.06 40 13:49 18.09.2021
6375 Clouds 16 1014 86 10000 2.06 60 13:29 18.09.2021
6376 Clouds 15 1014 89 10000 2.06 30 12:49 18.09.2021
6377 Clouds 15 1014 89 10000 2.06 30 12:49 18.09.2021
6378 Clouds 14 1014 94 10000 1.54 0 11:40 18.09.2021
6379 Mist 12 1014 95 1000 1.54 40 10:31 18.09.2021
6380 Fog 11 1014 95 450 1.54 0 09:27 18.09.2021
6381 Fog 11 1014 95 550 0.51 0 08:55 18.09.2021
6382 Clouds 13 1013 92 10000 1.73 253 02:50 18.09.2021
6383 Clouds 13 1012 91 10000 1.6 227 00:41 18.09.2021
6384 Clouds 13 1012 91 10000 1.96 226 23:47 17.09.2021
6385 Rain 14 1011 92 10000 1.79 208 22:37 17.09.2021
6386 Rain 13 1011 91 10000 2.06 230 22:18 17.09.2021
6387 Rain 14 1010 91 10000 3.6 260 20:45 17.09.2021
6388 Drizzle 16 1008 86 5000 5.14 180 18:54 17.09.2021
6389 Clouds 18 1008 84 10000 5.14 170 16:51 17.09.2021
6390 Clouds 18 1008 82 10000 4.12 170 16:24 17.09.2021
6391 Clouds 17 1009 77 10000 4.63 150 12:37 17.09.2021
6392 Clouds 17 1009 79 10000 3.09 150 10:41 17.09.2021
6393 Clouds 15 1009 86 10000 2.06 90 08:25 17.09.2021
6394 Clouds 15 1009 85 10000 2.06 130 06:49 17.09.2021
6395 Clouds 15 1012 88 10000 3.09 80 00:49 17.09.2021
6396 Clouds 15 1013 85 10000 1.31 176 22:50 16.09.2021
6397 Rain 15 1013 85 10000 1.65 172 22:24 16.09.2021
6398 Rain 15 1013 83 10000 1.54 0 21:39 16.09.2021
6399 Clouds 15 1013 85 10000 4.63 160 20:43 16.09.2021
6400 Clouds 16 1013 84 10000 3.6 170 19:41 16.09.2021
6401 Clouds 16 1013 85 6000 5.14 210 18:19 16.09.2021
6402 Clouds 18 1013 75 10000 5.14 210 17:22 16.09.2021
6403 Clouds 18 1015 69 10000 5.66 210 14:53 16.09.2021
6404 Clouds 17 1015 70 10000 5.66 200 13:48 16.09.2021
6405 Clouds 16 1015 75 10000 4.63 220 12:47 16.09.2021
6406 Clouds 16 1015 75 10000 4.63 210 12:26 16.09.2021
6407 Clouds 15 1016 81 10000 1.03 0 11:24 16.09.2021
6408 Clouds 14 1016 86 10000 0.51 0 10:30 16.09.2021
6409 Clouds 12 1015 90 10000 0.51 0 09:39 16.09.2021
6410 Clouds 10 1015 93 10000 1.03 240 08:32 16.09.2021
6411 Clouds 11 1015 90 10000 0.51 0 06:59 16.09.2021
6412 Clouds 11 1015 90 10000 0.51 0 06:39 16.09.2021
6413 Clouds 12 1015 88 10000 3.6 240 04:18 16.09.2021
6414 Clouds 14 1015 87 10000 2.06 230 00:59 16.09.2021
6415 Clouds 14 1015 87 10000 1.54 0 23:31 15.09.2021
6416 Clouds 15 1015 87 10000 3.09 260 22:44 15.09.2021
6417 Clouds 15 1015 89 10000 4.12 220 21:31 15.09.2021
6418 Clouds 16 1014 89 10000 3.09 240 20:51 15.09.2021
6419 Clouds 16 1014 85 10000 4.63 230 19:33 15.09.2021
6420 Clouds 16 1014 81 10000 5.66 230 18:53 15.09.2021
6421 Clear 18 1014 72 10000 4.63 220 17:42 15.09.2021
6422 Clouds 18 1014 72 10000 4.63 220 16:43 15.09.2021
6423 Clouds 18 1014 72 10000 5.14 230 16:43 15.09.2021
6424 Clouds 19 1014 72 10000 3.09 210 15:22 15.09.2021
6425 Clouds 19 1014 74 10000 2.06 240 14:42 15.09.2021
6426 Clouds 18 1015 83 10000 1.03 0 13:47 15.09.2021
6427 Clouds 17 1015 82 10000 0.51 0 13:28 15.09.2021
6428 Clouds 16 1015 88 10000 1.03 0 12:33 15.09.2021
6429 Clouds 15 1015 91 7000 1.54 0 11:51 15.09.2021
6430 Clouds 15 1015 91 7000 1.54 0 11:51 15.09.2021
6431 Mist 14 1015 94 4100 0.51 0 10:57 15.09.2021
6432 Mist 14 1015 94 4100 0.51 0 10:33 15.09.2021
6433 Mist 13 1014 95 3800 1.03 220 08:50 15.09.2021
6434 Mist 13 1014 95 2000 1.54 290 07:26 15.09.2021
6435 Mist 14 1014 94 4500 0.51 0 00:55 15.09.2021
6436 Clouds 15 1014 94 6000 1.03 0 22:24 14.09.2021
6437 Clouds 15 1014 93 10000 1.54 20 21:21 14.09.2021
6438 Clouds 16 1014 92 6000 1.54 0 20:18 14.09.2021
6439 Clouds 16 1014 89 10000 1.54 80 18:57 14.09.2021
6440 Clouds 17 1014 87 10000 2.06 60 17:33 14.09.2021
6441 Clouds 17 1014 86 10000 1.03 0 16:37 14.09.2021
6442 Clouds 16 1014 91 10000 2.06 50 14:32 14.09.2021
6443 Clouds 16 1015 90 10000 2.06 60 13:53 14.09.2021
6444 Clouds 14 1015 95 8000 2.06 80 11:41 14.09.2021
6445 Clouds 14 1015 94 3400 2.57 70 10:20 14.09.2021
6446 Drizzle 13 1014 95 2600 2.57 70 09:45 14.09.2021
6447 Drizzle 13 1014 95 2200 2.06 50 07:28 14.09.2021
6448 Clouds 13 1016 94 10000 2.57 60 01:28 14.09.2021
6449 Clouds 13 1016 91 3500 3.09 80 23:27 13.09.2021
6450 Clouds 14 1016 88 10000 2.57 60 22:27 13.09.2021
6451 Clouds 14 1016 87 10000 3.09 70 21:55 13.09.2021
6452 Clouds 14 1016 85 10000 2.57 50 21:23 13.09.2021
6453 Clouds 15 1016 79 10000 3.6 120 19:34 13.09.2021
6454 Clouds 15 1016 78 10000 4.12 120 18:44 13.09.2021
6455 Clouds 15 1017 74 10000 4.63 120 17:21 13.09.2021
6456 Clouds 16 1017 70 10000 4.63 130 16:23 13.09.2021
6457 Clouds 17 1018 59 10000 5.14 90 14:30 13.09.2021
6458 Clouds 13 1019 79 10000 3.6 70 11:21 13.09.2021
6459 Clouds 11 1020 84 10000 3.09 80 09:54 13.09.2021
6460 Clouds 10 1019 86 10000 3.6 70 07:46 13.09.2021
6461 Clouds 12 1021 81 10000 3.6 70 00:18 13.09.2021
6462 Clouds 13 1021 77 10000 4.12 80 22:42 12.09.2021
6463 Clouds 13 1021 78 10000 3.6 50 22:20 12.09.2021
6464 Clouds 15 1020 72 10000 4.12 80 20:41 12.09.2021
6465 Clouds 15 1020 73 10000 5.14 90 19:54 12.09.2021
6466 Clouds 15 1020 72 10000 4.12 60 19:29 12.09.2021
6467 Clouds 16 1020 70 10000 4.63 50 18:50 12.09.2021
6468 Clouds 17 1020 64 10000 3.09 80 16:58 12.09.2021
6469 Clouds 16 1020 66 10000 3.09 60 15:37 12.09.2021
6470 Clouds 16 1020 69 10000 2.06 80 14:32 12.09.2021
6471 Clouds 13 1020 85 10000 1.03 0 11:49 12.09.2021
6472 Clouds 12 1019 88 10000 0.51 0 10:18 12.09.2021
6473 Clouds 11 1018 90 10000 1.54 230 08:38 12.09.2021
6474 Clouds 10 1017 89 10000 2.57 220 04:59 12.09.2021
6475 Clouds 11 1017 87 10000 4.12 250 00:46 12.09.2021
6476 Clouds 12 1016 85 10000 3.6 250 22:29 11.09.2021
6477 Clouds 13 1016 82 10000 4.12 250 21:37 11.09.2021
6478 Clouds 16 1014 76 10000 4.63 270 19:34 11.09.2021
6479 Clouds 16 1014 78 10000 5.66 270 17:56 11.09.2021
6480 Clouds 17 1013 77 10000 6.17 300 16:24 11.09.2021
6481 Clouds 17 1012 82 10000 4.63 260 14:27 11.09.2021
6482 Clouds 17 1012 83 10000 5.66 260 13:20 11.09.2021
6483 Clouds 16 1012 87 10000 6.17 250 11:35 11.09.2021
6484 Clouds 15 1011 91 10000 4.63 230 09:42 11.09.2021
6485 Clouds 15 1010 92 10000 4.63 240 07:53 11.09.2021
6486 Clouds 15 1010 92 10000 4.63 240 07:34 11.09.2021
6487 Clouds 17 1009 92 7000 1.54 250 01:20 11.09.2021
6488 Clouds 17 1009 90 10000 3.6 220 22:27 10.09.2021
6489 Clouds 17 1009 90 10000 2.57 230 21:56 10.09.2021
6490 Clouds 18 1008 87 10000 3.6 230 20:41 10.09.2021
6491 Clouds 20 1008 81 10000 4.63 230 18:34 10.09.2021
6492 Clouds 20 1008 82 10000 1.03 0 17:27 10.09.2021
6493 Clouds 20 1007 83 10000 1.54 0 15:36 10.09.2021
6494 Clouds 19 1007 88 10000 1.54 0 13:18 10.09.2021
6495 Mist 16 1006 95 3200 1.54 230 09:51 10.09.2021
6496 Mist 16 1006 95 1700 0.51 50 07:51 10.09.2021
6497 Drizzle 16 1006 94 2500 2.06 60 03:43 10.09.2021
6498 Clouds 17 1006 90 6000 3.09 80 22:33 09.09.2021
6499 Clouds 17 1006 91 7000 4.12 80 21:46 09.09.2021
6500 Clouds 17 1006 89 7000 2.57 50 20:47 09.09.2021
6501 Clouds 17 1005 88 6000 3.09 70 20:21 09.09.2021
6502 Rain 18 1006 88 6000 2.57 80 18:34 09.09.2021
6503 Clouds 18 1006 84 10000 5.14 60 16:41 09.09.2021
6504 Clouds 19 1007 85 9000 5.14 60 15:51 09.09.2021
6505 Haze 17 1007 92 4900 3.09 110 12:53 09.09.2021
6506 Clouds 16 1007 93 2900 3.6 80 11:47 09.09.2021
6507 Rain 16 1007 92 2300 3.6 40 10:25 09.09.2021
6508 Haze 17 1006 91 5000 2.06 80 08:50 09.09.2021
6509 Haze 17 1007 91 4400 1.54 30 06:26 09.09.2021
6510 Haze 17 1008 87 4200 1.54 0 02:56 09.09.2021
6511 Clouds 20 1009 75 10000 3.09 70 22:45 08.09.2021
6512 Clouds 22 1009 69 10000 1.54 50 21:35 08.09.2021
6513 Clouds 25 1009 53 10000 3.09 170 19:56 08.09.2021
6514 Clouds 27 1009 52 10000 3.09 150 19:22 08.09.2021
6515 Clouds 28 1010 49 10000 2.57 200 18:29 08.09.2021
6516 Clouds 28 1010 54 10000 1.03 0 17:56 08.09.2021
6517 Clouds 27 1011 55 10000 2.06 20 16:34 08.09.2021
6518 Clouds 25 1013 73 10000 1.54 0 14:26 08.09.2021
6519 Clouds 21 1014 94 8000 1.54 0 12:47 08.09.2021
6520 Clouds 20 1014 88 10000 0.08 0 12:27 08.09.2021
6521 Clouds 19 1014 75 10000 0.78 49 11:30 08.09.2021
6522 Mist 17 1014 100 1400 0.51 0 10:38 08.09.2021
6523 Fog 15 1014 99 650 1.03 0 10:20 08.09.2021
6524 Fog 14 1015 95 150 0.51 270 08:36 08.09.2021
6525 Fog 13 1015 94 150 0.51 310 07:35 08.09.2021
6526 Clouds 13 1016 94 6000 1.03 200 05:28 08.09.2021
6527 Clouds 18 1018 89 10000 1.54 250 22:43 07.09.2021
6528 Clouds 19 1017 86 10000 0.51 260 21:52 07.09.2021
6529 Clouds 22 1018 73 10000 2.06 330 19:52 07.09.2021
6530 Clouds 24 1018 69 10000 1.03 0 18:45 07.09.2021
6531 Clouds 24 1019 70 10000 1.03 0 17:49 07.09.2021
6532 Clouds 23 1020 72 10000 1.54 0 16:38 07.09.2021
6533 Clouds 22 1020 74 10000 2.57 240 15:36 07.09.2021
6534 Clouds 22 1021 75 10000 3.09 230 14:42 07.09.2021
6535 Clouds 20 1021 81 10000 3.6 240 12:41 07.09.2021
6536 Clouds 19 1021 85 10000 2.06 210 11:37 07.09.2021
6537 Clouds 18 1021 87 6000 1.03 0 10:41 07.09.2021
6538 Haze 17 1021 93 4800 1.03 0 08:34 07.09.2021
6539 Mist 17 1021 91 5000 1.03 0 07:23 07.09.2021
6540 Haze 17 1021 91 5000 1.54 240 05:40 07.09.2021
6541 Mist 17 1022 91 4400 2.06 250 02:34 07.09.2021
6542 Mist 17 1022 92 4600 4.12 220 00:43 07.09.2021
6543 Haze 17 1022 91 5000 4.12 220 23:34 06.09.2021
6544 Clouds 17 1022 92 6000 4.63 230 22:53 06.09.2021
6545 Clouds 17 1022 91 6000 4.63 230 22:32 06.09.2021
6546 Clouds 18 1021 88 7000 5.14 210 20:55 06.09.2021
6547 Clouds 19 1021 88 7000 5.14 230 19:23 06.09.2021
6548 Clouds 19 1021 86 8000 5.66 230 18:48 06.09.2021
6549 Clouds 19 1021 86 10000 6.17 220 18:23 06.09.2021
6550 Clouds 19 1021 87 10000 5.66 230 17:36 06.09.2021
6551 Clouds 19 1021 87 8000 6.69 210 15:52 06.09.2021
6552 Clouds 18 1022 92 8000 2.06 240 13:48 06.09.2021
6553 Drizzle 17 1022 91 3000 2.06 220 12:47 06.09.2021
6554 Drizzle 16 1021 92 3600 0 0 10:45 06.09.2021
6555 Clouds 15 1020 94 2700 0.51 0 07:59 06.09.2021
6556 Clouds 15 1021 92 6000 0 0 04:45 06.09.2021
6557 Rain 16 1021 92 3200 1.03 0 23:34 05.09.2021
6558 Rain 16 1021 88 7000 0.51 0 22:47 05.09.2021
6559 Rain 16 1021 87 7000 1.03 50 21:58 05.09.2021
6560 Rain 17 1021 84 9000 1.03 330 21:30 05.09.2021
6561 Rain 17 1021 84 9000 1.03 330 21:30 05.09.2021
6562 Rain 19 1020 72 10000 2.06 310 19:56 05.09.2021
6563 Clouds 19 1020 72 10000 2.06 280 18:41 05.09.2021
6564 Clouds 20 1020 66 10000 4.12 190 17:30 05.09.2021
6565 Clouds 20 1020 64 10000 2.06 50 15:28 05.09.2021
6566 Clouds 20 1021 68 10000 2.06 90 14:19 05.09.2021
6567 Clouds 16 1021 79 10000 2.57 70 12:29 05.09.2021
6568 Clouds 14 1021 84 10000 1.54 0 10:48 05.09.2021
6569 Clouds 13 1021 86 10000 2.57 50 10:23 05.09.2021
6570 Clouds 12 1021 87 10000 2.57 60 09:21 05.09.2021
6571 Clouds 11 1020 92 10000 1.03 0 07:48 05.09.2021
6572 Clouds 14 1020 80 10000 3.09 40 00:51 05.09.2021
6573 Clouds 14 1020 80 10000 2.57 40 00:22 05.09.2021
6574 Clouds 15 1020 78 10000 2.06 70 23:35 04.09.2021
6575 Clouds 15 1020 77 10000 4.63 70 22:35 04.09.2021
6576 Clouds 15 1020 77 10000 3.6 80 22:35 04.09.2021
6577 Clouds 16 1019 76 10000 4.12 60 21:55 04.09.2021
6578 Clouds 17 1019 71 10000 4.12 50 19:41 04.09.2021
6579 Clouds 17 1019 63 10000 3.09 100 18:39 04.09.2021
6580 Clouds 17 1020 64 10000 3.6 110 15:54 04.09.2021
6581 Clouds 14 1021 75 10000 4.63 120 12:48 04.09.2021
6582 Clouds 14 1021 77 10000 4.12 100 11:19 04.09.2021
6583 Clouds 12 1021 85 10000 3.6 60 08:58 04.09.2021
6584 Clouds 13 1022 85 10000 2.06 60 04:50 04.09.2021
6585 Clouds 13 1023 86 10000 3.6 70 00:24 04.09.2021
6586 Clouds 13 1024 85 10000 4.12 60 23:31 03.09.2021
6587 Clouds 14 1023 81 10000 5.14 60 21:53 03.09.2021
6588 Clouds 14 1023 80 10000 5.14 60 21:33 03.09.2021
6589 Clouds 14 1023 79 10000 4.63 60 20:41 03.09.2021
6590 Clouds 15 1023 78 10000 3.6 30 19:46 03.09.2021
6591 Clouds 16 1023 78 10000 5.14 40 18:55 03.09.2021
6592 Clouds 16 1024 76 10000 4.12 40 17:40 03.09.2021
6593 Clouds 16 1025 76 10000 3.09 50 16:23 03.09.2021
6594 Clouds 15 1026 78 10000 3.6 60 14:47 03.09.2021
6595 Clouds 12 1027 86 10000 3.6 80 11:56 03.09.2021
6596 Clouds 12 1027 91 9000 3.09 70 10:22 03.09.2021
6597 Mist 12 1027 92 4900 2.06 50 08:39 03.09.2021
6598 Mist 11 1027 90 5000 3.09 50 07:37 03.09.2021
6599 Clear 12 1029 89 8000 4.63 60 00:44 03.09.2021
6600 Clear 13 1030 84 10000 2.06 30 22:54 02.09.2021
6601 Clear 16 1029 78 10000 3.09 50 21:19 02.09.2021
6602 Clear 18 1030 70 10000 1.54 0 19:24 02.09.2021
6603 Clouds 19 1032 70 10000 3.6 30 17:30 02.09.2021
6604 Clouds 18 1033 73 10000 4.63 40 15:48 02.09.2021
6605 Clouds 16 1034 77 10000 4.12 30 13:51 02.09.2021
6606 Clouds 15 1034 80 10000 4.12 50 12:21 02.09.2021
6607 Clouds 14 1034 81 10000 4.12 50 11:33 02.09.2021
6608 Clouds 13 1034 82 10000 2.57 50 09:38 02.09.2021
6609 Clouds 13 1034 84 10000 3.6 70 07:45 02.09.2021
6610 Clouds 13 1034 85 10000 4.63 70 06:57 02.09.2021
6611 Clouds 13 1035 86 10000 4.12 70 02:44 02.09.2021
6612 Clear 13 1035 86 10000 4.63 70 01:53 02.09.2021
6613 Clear 13 1035 85 10000 4.63 70 01:18 02.09.2021
6614 Clear 14 1034 79 10000 4.63 70 23:34 01.09.2021
6615 Clear 15 1034 77 10000 5.14 60 22:34 01.09.2021
6616 Clear 17 1033 72 10000 2.06 10 21:33 01.09.2021
6617 Clouds 21 1033 57 10000 0.51 0 19:59 01.09.2021
6618 Clouds 23 1034 54 10000 1.03 0 17:58 01.09.2021
6619 Clouds 23 1034 55 10000 1.03 0 17:35 01.09.2021
6620 Clouds 22 1034 55 10000 1.03 0 16:46 01.09.2021
6621 Clouds 21 1035 58 10000 0.51 0 15:24 01.09.2021
6622 Clear 17 1036 76 10000 1.03 0 11:49 01.09.2021
6623 Clear 15 1036 81 10000 0.51 0 10:55 01.09.2021
6624 Fog 10 1036 93 9000 1.54 230 08:46 01.09.2021
6625 Clouds 9 1036 90 10000 0.64 38 07:50 01.09.2021
6626 Clouds 15 1036 82 10000 2.06 30 23:43 31.08.2021
6627 Clouds 16 1035 73 10000 3.09 70 22:29 31.08.2021
6628 Clouds 17 1034 69 10000 2.06 20 20:56 31.08.2021
6629 Clouds 18 1034 67 10000 2.57 40 19:44 31.08.2021
6630 Clouds 18 1035 64 10000 2.57 70 17:53 31.08.2021
6631 Clouds 18 1035 63 10000 2.57 70 17:33 31.08.2021
6632 Clouds 18 1035 63 10000 4.12 70 16:49 31.08.2021
6633 Clouds 18 1035 63 10000 5.14 90 15:59 31.08.2021
6634 Clouds 15 1036 70 10000 2.06 350 12:55 31.08.2021
6635 Clouds 14 1035 71 10000 2.06 50 11:25 31.08.2021
6636 Clouds 14 1035 74 10000 2.06 40 10:45 31.08.2021
6637 Clouds 13 1035 75 10000 2.06 60 09:43 31.08.2021
6638 Clouds 11 1035 82 10000 2.06 60 08:23 31.08.2021
6639 Clouds 12 1034 78 10000 2.06 50 05:57 31.08.2021
6640 Clouds 13 1033 77 10000 3.6 60 23:37 30.08.2021
6641 Clouds 14 1033 63 10000 1.03 0 22:54 30.08.2021
6642 Clouds 15 1032 70 10000 2.06 100 21:41 30.08.2021
6643 Clouds 15 1031 69 10000 1.54 150 20:42 30.08.2021
6644 Clouds 16 1031 68 10000 2.06 100 19:54 30.08.2021
6645 Clouds 16 1031 68 10000 2.57 90 19:24 30.08.2021
6646 Clouds 15 1032 73 10000 3.09 60 17:51 30.08.2021
6647 Clouds 16 1032 72 10000 2.57 50 16:32 30.08.2021</